<?xml version="1.0" encoding="utf-8"?>
<gpx xmlns:xsi="http://www.w3.org/2001/XMLSchema-instance" xmlns:xsd="http://www.w3.org/2001/XMLSchema" xsi:schemaLocation="http://www.topografix.com/GPX/1/1 http://www.topografix.com/GPX/1/1/gpx.xsd" version="1.1" creator="SportTracks 3.1" xmlns="http://www.topografix.com/GPX/1/1">
 <metadata />
 <trk>
  <name />
  <cmt />
  <trkseg>
   <trkpt lat="46.0795440673828" lon="7.15199136734009">
    <ele>714</ele>
    <time>2012-05-22T15:32:10Z</time>
   </trkpt>
   <trkpt lat="46.0795516967773" lon="7.15201663970947">
    <ele>714.069213867188</ele>
    <time>2012-05-22T15:32:11Z</time>
   </trkpt>
   <trkpt lat="46.0795669555664" lon="7.15212059020996">
    <ele>714.276916503906</ele>
    <time>2012-05-22T15:32:14Z</time>
   </trkpt>
   <trkpt lat="46.0795783996582" lon="7.15216016769409">
    <ele>714.346130371094</ele>
    <time>2012-05-22T15:32:15Z</time>
   </trkpt>
   <trkpt lat="46.07958984375" lon="7.15220022201538">
    <ele>714.415405273438</ele>
    <time>2012-05-22T15:32:16Z</time>
   </trkpt>
   <trkpt lat="46.0796051025391" lon="7.15233182907104">
    <ele>714.623046875</ele>
    <time>2012-05-22T15:32:19Z</time>
   </trkpt>
   <trkpt lat="46.0796241760254" lon="7.1524510383606">
    <ele>714.830749511719</ele>
    <time>2012-05-22T15:32:22Z</time>
   </trkpt>
   <trkpt lat="46.0796318054199" lon="7.15268087387085">
    <ele>715.176940917969</ele>
    <time>2012-05-22T15:32:27Z</time>
   </trkpt>
   <trkpt lat="46.0796241760254" lon="7.1530237197876">
    <ele>715.661499023438</ele>
    <time>2012-05-22T15:32:34Z</time>
   </trkpt>
   <trkpt lat="46.0796241760254" lon="7.15306949615478">
    <ele>715.730773925781</ele>
    <time>2012-05-22T15:32:35Z</time>
   </trkpt>
   <trkpt lat="46.0796241760254" lon="7.1531171798706">
    <ele>715.799987792969</ele>
    <time>2012-05-22T15:32:36Z</time>
   </trkpt>
   <trkpt lat="46.0796241760254" lon="7.15316534042358">
    <ele>715.799987792969</ele>
    <time>2012-05-22T15:32:37Z</time>
   </trkpt>
   <trkpt lat="46.0796203613281" lon="7.15321493148804">
    <ele>715.864685058594</ele>
    <time>2012-05-22T15:32:38Z</time>
   </trkpt>
   <trkpt lat="46.0796241760254" lon="7.15326261520386">
    <ele>715.929382324219</ele>
    <time>2012-05-22T15:32:39Z</time>
   </trkpt>
   <trkpt lat="46.0796241760254" lon="7.15330934524536">
    <ele>715.994079589844</ele>
    <time>2012-05-22T15:32:40Z</time>
   </trkpt>
   <trkpt lat="46.0796203613281" lon="7.15335607528686">
    <ele>716.058837890625</ele>
    <time>2012-05-22T15:32:41Z</time>
   </trkpt>
   <trkpt lat="46.0796012878418" lon="7.15375757217407">
    <ele>716.641174316406</ele>
    <time>2012-05-22T15:32:50Z</time>
   </trkpt>
   <trkpt lat="46.0796012878418" lon="7.15399980545044">
    <ele>717.029418945312</ele>
    <time>2012-05-22T15:32:56Z</time>
   </trkpt>
   <trkpt lat="46.0796165466309" lon="7.15412712097168">
    <ele>717.288208007812</ele>
    <time>2012-05-22T15:33:00Z</time>
   </trkpt>
   <trkpt lat="46.0796279907227" lon="7.15415620803833">
    <ele>717.352966308594</ele>
    <time>2012-05-22T15:33:01Z</time>
   </trkpt>
   <trkpt lat="46.0796241760254" lon="7.15428686141968">
    <ele>717.547058105469</ele>
    <time>2012-05-22T15:33:04Z</time>
   </trkpt>
   <trkpt lat="46.0796279907227" lon="7.15434312820435">
    <ele>717.611755371094</ele>
    <time>2012-05-22T15:33:05Z</time>
   </trkpt>
   <trkpt lat="46.0796508789062" lon="7.15439462661743">
    <ele>717.676452636719</ele>
    <time>2012-05-22T15:33:06Z</time>
   </trkpt>
   <trkpt lat="46.0797119140625" lon="7.15448188781738">
    <ele>717.805908203125</ele>
    <time>2012-05-22T15:33:08Z</time>
   </trkpt>
   <trkpt lat="46.0797424316406" lon="7.1545238494873">
    <ele>717.87060546875</ele>
    <time>2012-05-22T15:33:09Z</time>
   </trkpt>
   <trkpt lat="46.0797729492188" lon="7.15457010269165">
    <ele>717.935302734375</ele>
    <time>2012-05-22T15:33:10Z</time>
   </trkpt>
   <trkpt lat="46.0798301696777" lon="7.15466451644898">
    <ele>718</ele>
    <time>2012-05-22T15:33:11Z</time>
   </trkpt>
   <trkpt lat="46.0799865722656" lon="7.15489339828491">
    <ele>718</ele>
    <time>2012-05-22T15:33:18Z</time>
   </trkpt>
   <trkpt lat="46.080207824707" lon="7.15520191192627">
    <ele>719.166687011719</ele>
    <time>2012-05-22T15:33:25Z</time>
   </trkpt>
   <trkpt lat="46.0802345275879" lon="7.15524244308472">
    <ele>719.333312988281</ele>
    <time>2012-05-22T15:33:26Z</time>
   </trkpt>
   <trkpt lat="46.080265045166" lon="7.15528345108032">
    <ele>719.5</ele>
    <time>2012-05-22T15:33:27Z</time>
   </trkpt>
   <trkpt lat="46.0802955627441" lon="7.15532493591309">
    <ele>719.666687011719</ele>
    <time>2012-05-22T15:33:28Z</time>
   </trkpt>
   <trkpt lat="46.080322265625" lon="7.15536594390869">
    <ele>719.833312988281</ele>
    <time>2012-05-22T15:33:29Z</time>
   </trkpt>
   <trkpt lat="46.0803527832031" lon="7.15540456771851">
    <ele>720</ele>
    <time>2012-05-22T15:33:30Z</time>
   </trkpt>
   <trkpt lat="46.0804290771484" lon="7.15552139282226">
    <ele>720</ele>
    <time>2012-05-22T15:33:33Z</time>
   </trkpt>
   <trkpt lat="46.0805854797363" lon="7.15578746795654">
    <ele>721.200012207031</ele>
    <time>2012-05-22T15:33:39Z</time>
   </trkpt>
   <trkpt lat="46.0806121826172" lon="7.15583229064941">
    <ele>721.400024414062</ele>
    <time>2012-05-22T15:33:40Z</time>
   </trkpt>
   <trkpt lat="46.080638885498" lon="7.15587663650513">
    <ele>721.599975585938</ele>
    <time>2012-05-22T15:33:41Z</time>
   </trkpt>
   <trkpt lat="46.0806655883789" lon="7.15591764450073">
    <ele>721.799987792969</ele>
    <time>2012-05-22T15:33:42Z</time>
   </trkpt>
   <trkpt lat="46.0806922912598" lon="7.15595865249634">
    <ele>722</ele>
    <time>2012-05-22T15:33:43Z</time>
   </trkpt>
   <trkpt lat="46.0807876586914" lon="7.15614223480225">
    <ele>722</ele>
    <time>2012-05-22T15:33:47Z</time>
   </trkpt>
   <trkpt lat="46.0808143615723" lon="7.15618419647217">
    <ele>722.183349609375</ele>
    <time>2012-05-22T15:33:48Z</time>
   </trkpt>
   <trkpt lat="46.0809440612793" lon="7.15642023086548">
    <ele>723.283325195312</ele>
    <time>2012-05-22T15:33:54Z</time>
   </trkpt>
   <trkpt lat="46.0809669494629" lon="7.15646457672119">
    <ele>723.466674804688</ele>
    <time>2012-05-22T15:33:55Z</time>
   </trkpt>
   <trkpt lat="46.0809898376465" lon="7.15651035308838">
    <ele>723.650024414062</ele>
    <time>2012-05-22T15:33:56Z</time>
   </trkpt>
   <trkpt lat="46.0810089111328" lon="7.1565580368042">
    <ele>723.833374023438</ele>
    <time>2012-05-22T15:33:57Z</time>
   </trkpt>
   <trkpt lat="46.0810317993164" lon="7.15660429000854">
    <ele>724.016662597656</ele>
    <time>2012-05-22T15:33:58Z</time>
   </trkpt>
   <trkpt lat="46.0810585021973" lon="7.15665149688721">
    <ele>724.200012207031</ele>
    <time>2012-05-22T15:33:59Z</time>
   </trkpt>
   <trkpt lat="46.0811195373535" lon="7.15678358078003">
    <ele>724.200012207031</ele>
    <time>2012-05-22T15:34:02Z</time>
   </trkpt>
   <trkpt lat="46.0812301635742" lon="7.15707731246948">
    <ele>725.472717285156</ele>
    <time>2012-05-22T15:34:09Z</time>
   </trkpt>
   <trkpt lat="46.081241607666" lon="7.1571159362793">
    <ele>725.654541015625</ele>
    <time>2012-05-22T15:34:10Z</time>
   </trkpt>
   <trkpt lat="46.0812492370606" lon="7.15715503692627">
    <ele>725.836364746094</ele>
    <time>2012-05-22T15:34:11Z</time>
   </trkpt>
   <trkpt lat="46.0812606811523" lon="7.15720129013062">
    <ele>726.018188476562</ele>
    <time>2012-05-22T15:34:12Z</time>
   </trkpt>
   <trkpt lat="46.0812721252441" lon="7.15724182128906">
    <ele>726.200012207031</ele>
    <time>2012-05-22T15:34:13Z</time>
   </trkpt>
   <trkpt lat="46.0812835693359" lon="7.15728092193604">
    <ele>726.200012207031</ele>
    <time>2012-05-22T15:34:14Z</time>
   </trkpt>
   <trkpt lat="46.0813484191894" lon="7.15749549865723">
    <ele>727.311096191406</ele>
    <time>2012-05-22T15:34:19Z</time>
   </trkpt>
   <trkpt lat="46.0813636779785" lon="7.15754413604736">
    <ele>727.533325195312</ele>
    <time>2012-05-22T15:34:20Z</time>
   </trkpt>
   <trkpt lat="46.0813751220703" lon="7.15759038925171">
    <ele>727.755554199219</ele>
    <time>2012-05-22T15:34:21Z</time>
   </trkpt>
   <trkpt lat="46.0813827514648" lon="7.15763235092163">
    <ele>727.977783203125</ele>
    <time>2012-05-22T15:34:22Z</time>
   </trkpt>
   <trkpt lat="46.0813980102539" lon="7.15767812728882">
    <ele>728.200012207031</ele>
    <time>2012-05-22T15:34:23Z</time>
   </trkpt>
   <trkpt lat="46.0814247131348" lon="7.1577558517456">
    <ele>728.200012207031</ele>
    <time>2012-05-22T15:34:25Z</time>
   </trkpt>
   <trkpt lat="46.081470489502" lon="7.15796613693237">
    <ele>729.422241210938</ele>
    <time>2012-05-22T15:34:30Z</time>
   </trkpt>
   <trkpt lat="46.0814781188965" lon="7.1580114364624">
    <ele>729.666687011719</ele>
    <time>2012-05-22T15:34:31Z</time>
   </trkpt>
   <trkpt lat="46.081485748291" lon="7.15805816650391">
    <ele>729.9111328125</ele>
    <time>2012-05-22T15:34:32Z</time>
   </trkpt>
   <trkpt lat="46.0814933776856" lon="7.15810775756836">
    <ele>730.155578613281</ele>
    <time>2012-05-22T15:34:33Z</time>
   </trkpt>
   <trkpt lat="46.0815010070801" lon="7.15815687179565">
    <ele>730.400024414062</ele>
    <time>2012-05-22T15:34:34Z</time>
   </trkpt>
   <trkpt lat="46.0815200805664" lon="7.1583662033081">
    <ele>730.400024414062</ele>
    <time>2012-05-22T15:34:38Z</time>
   </trkpt>
   <trkpt lat="46.0815315246582" lon="7.15846347808838">
    <ele>731.133361816406</ele>
    <time>2012-05-22T15:34:40Z</time>
   </trkpt>
   <trkpt lat="46.0815353393555" lon="7.15850925445557">
    <ele>731.5</ele>
    <time>2012-05-22T15:34:41Z</time>
   </trkpt>
   <trkpt lat="46.0815353393555" lon="7.15855360031128">
    <ele>731.866638183594</ele>
    <time>2012-05-22T15:34:42Z</time>
   </trkpt>
   <trkpt lat="46.0815391540527" lon="7.15859603881836">
    <ele>732.233337402344</ele>
    <time>2012-05-22T15:34:43Z</time>
   </trkpt>
   <trkpt lat="46.08154296875" lon="7.15863704681396">
    <ele>732.599975585938</ele>
    <time>2012-05-22T15:34:44Z</time>
   </trkpt>
   <trkpt lat="46.08154296875" lon="7.15872478485107">
    <ele>732.599975585938</ele>
    <time>2012-05-22T15:34:46Z</time>
   </trkpt>
   <trkpt lat="46.08154296875" lon="7.15881299972534">
    <ele>733.266662597656</ele>
    <time>2012-05-22T15:34:48Z</time>
   </trkpt>
   <trkpt lat="46.0815467834473" lon="7.15885829925537">
    <ele>733.599975585938</ele>
    <time>2012-05-22T15:34:49Z</time>
   </trkpt>
   <trkpt lat="46.08154296875" lon="7.15890502929688">
    <ele>733.933288574219</ele>
    <time>2012-05-22T15:34:50Z</time>
   </trkpt>
   <trkpt lat="46.08154296875" lon="7.15894985198975">
    <ele>734.266662597656</ele>
    <time>2012-05-22T15:34:51Z</time>
   </trkpt>
   <trkpt lat="46.0815391540527" lon="7.15899562835693">
    <ele>734.599975585938</ele>
    <time>2012-05-22T15:34:52Z</time>
   </trkpt>
   <trkpt lat="46.0815391540527" lon="7.15909242630005">
    <ele>734.599975585938</ele>
    <time>2012-05-22T15:34:54Z</time>
   </trkpt>
   <trkpt lat="46.0815200805664" lon="7.15941667556763">
    <ele>736</ele>
    <time>2012-05-22T15:35:01Z</time>
   </trkpt>
   <trkpt lat="46.0815200805664" lon="7.15946197509766">
    <ele>736.200012207031</ele>
    <time>2012-05-22T15:35:02Z</time>
   </trkpt>
   <trkpt lat="46.0815124511719" lon="7.15950298309326">
    <ele>736.399963378906</ele>
    <time>2012-05-22T15:35:03Z</time>
   </trkpt>
   <trkpt lat="46.0815124511719" lon="7.15954351425171">
    <ele>736.599975585938</ele>
    <time>2012-05-22T15:35:04Z</time>
   </trkpt>
   <trkpt lat="46.0815086364746" lon="7.15958547592163">
    <ele>736.799987792969</ele>
    <time>2012-05-22T15:35:05Z</time>
   </trkpt>
   <trkpt lat="46.081485748291" lon="7.15980672836304">
    <ele>736.799987792969</ele>
    <time>2012-05-22T15:35:10Z</time>
   </trkpt>
   <trkpt lat="46.0814781188965" lon="7.15993595123291">
    <ele>737.657104492188</ele>
    <time>2012-05-22T15:35:13Z</time>
   </trkpt>
   <trkpt lat="46.081470489502" lon="7.15997934341431">
    <ele>737.94287109375</ele>
    <time>2012-05-22T15:35:14Z</time>
   </trkpt>
   <trkpt lat="46.0814666748047" lon="7.16002416610718">
    <ele>738.228576660156</ele>
    <time>2012-05-22T15:35:15Z</time>
   </trkpt>
   <trkpt lat="46.0814628601074" lon="7.16006994247436">
    <ele>738.514282226562</ele>
    <time>2012-05-22T15:35:16Z</time>
   </trkpt>
   <trkpt lat="46.0814552307129" lon="7.16011762619018">
    <ele>738.799987792969</ele>
    <time>2012-05-22T15:35:17Z</time>
   </trkpt>
   <trkpt lat="46.0814437866211" lon="7.16020679473877">
    <ele>738.799987792969</ele>
    <time>2012-05-22T15:35:19Z</time>
   </trkpt>
   <trkpt lat="46.0813865661621" lon="7.16056776046753">
    <ele>740.05712890625</ele>
    <time>2012-05-22T15:35:27Z</time>
   </trkpt>
   <trkpt lat="46.0813789367676" lon="7.16061019897461">
    <ele>740.214294433594</ele>
    <time>2012-05-22T15:35:28Z</time>
   </trkpt>
   <trkpt lat="46.0813751220703" lon="7.16065406799316">
    <ele>740.371398925781</ele>
    <time>2012-05-22T15:35:29Z</time>
   </trkpt>
   <trkpt lat="46.081371307373" lon="7.16069936752319">
    <ele>740.528564453125</ele>
    <time>2012-05-22T15:35:30Z</time>
   </trkpt>
   <trkpt lat="46.0813674926758" lon="7.16074752807617">
    <ele>740.685729980469</ele>
    <time>2012-05-22T15:35:31Z</time>
   </trkpt>
   <trkpt lat="46.0813598632812" lon="7.16079330444336">
    <ele>740.842834472656</ele>
    <time>2012-05-22T15:35:32Z</time>
   </trkpt>
   <trkpt lat="46.0813522338867" lon="7.1608362197876">
    <ele>741</ele>
    <time>2012-05-22T15:35:33Z</time>
   </trkpt>
   <trkpt lat="46.0813369750977" lon="7.16096925735474">
    <ele>741</ele>
    <time>2012-05-22T15:35:36Z</time>
   </trkpt>
   <trkpt lat="46.0813026428223" lon="7.16125822067261">
    <ele>742.320007324219</ele>
    <time>2012-05-22T15:35:42Z</time>
   </trkpt>
   <trkpt lat="46.081298828125" lon="7.16130447387695">
    <ele>742.5400390625</ele>
    <time>2012-05-22T15:35:43Z</time>
   </trkpt>
   <trkpt lat="46.0812950134277" lon="7.16134977340698">
    <ele>742.760009765625</ele>
    <time>2012-05-22T15:35:44Z</time>
   </trkpt>
   <trkpt lat="46.0812911987305" lon="7.16139316558838">
    <ele>742.97998046875</ele>
    <time>2012-05-22T15:35:45Z</time>
   </trkpt>
   <trkpt lat="46.0812835693359" lon="7.16144132614136">
    <ele>743.200012207031</ele>
    <time>2012-05-22T15:35:46Z</time>
   </trkpt>
   <trkpt lat="46.0812606811523" lon="7.16157293319702">
    <ele>743.200012207031</ele>
    <time>2012-05-22T15:35:49Z</time>
   </trkpt>
   <trkpt lat="46.081226348877" lon="7.16185188293457">
    <ele>744.123107910156</ele>
    <time>2012-05-22T15:35:55Z</time>
   </trkpt>
   <trkpt lat="46.0812034606934" lon="7.1619873046875">
    <ele>744.584655761719</ele>
    <time>2012-05-22T15:35:58Z</time>
   </trkpt>
   <trkpt lat="46.0811996459961" lon="7.16203355789185">
    <ele>744.738464355469</ele>
    <time>2012-05-22T15:35:59Z</time>
   </trkpt>
   <trkpt lat="46.0811920166016" lon="7.16208028793335">
    <ele>744.892333984375</ele>
    <time>2012-05-22T15:36:00Z</time>
   </trkpt>
   <trkpt lat="46.0811882019043" lon="7.16212463378906">
    <ele>745.046142578125</ele>
    <time>2012-05-22T15:36:01Z</time>
   </trkpt>
   <trkpt lat="46.0811805725098" lon="7.16217231750488">
    <ele>745.200012207031</ele>
    <time>2012-05-22T15:36:02Z</time>
   </trkpt>
   <trkpt lat="46.0811080932617" lon="7.16262912750244">
    <ele>745.200012207031</ele>
    <time>2012-05-22T15:36:12Z</time>
   </trkpt>
   <trkpt lat="46.0811004638672" lon="7.16267585754394">
    <ele>745.640014648438</ele>
    <time>2012-05-22T15:36:13Z</time>
   </trkpt>
   <trkpt lat="46.0810890197754" lon="7.16272401809692">
    <ele>746.080017089844</ele>
    <time>2012-05-22T15:36:14Z</time>
   </trkpt>
   <trkpt lat="46.0810813903809" lon="7.16277027130127">
    <ele>746.52001953125</ele>
    <time>2012-05-22T15:36:15Z</time>
   </trkpt>
   <trkpt lat="46.0810699462891" lon="7.16281747817993">
    <ele>746.960021972656</ele>
    <time>2012-05-22T15:36:16Z</time>
   </trkpt>
   <trkpt lat="46.0810623168945" lon="7.16286611557007">
    <ele>747.400024414062</ele>
    <time>2012-05-22T15:36:17Z</time>
   </trkpt>
   <trkpt lat="46.0810241699219" lon="7.16304731369018">
    <ele>747.400024414062</ele>
    <time>2012-05-22T15:36:21Z</time>
   </trkpt>
   <trkpt lat="46.0810012817383" lon="7.1631383895874">
    <ele>748.133361816406</ele>
    <time>2012-05-22T15:36:23Z</time>
   </trkpt>
   <trkpt lat="46.0809860229492" lon="7.16318321228027">
    <ele>748.5</ele>
    <time>2012-05-22T15:36:24Z</time>
   </trkpt>
   <trkpt lat="46.0809707641602" lon="7.16323089599609">
    <ele>748.866638183594</ele>
    <time>2012-05-22T15:36:25Z</time>
   </trkpt>
   <trkpt lat="46.0809555053711" lon="7.16327619552612">
    <ele>749.233337402344</ele>
    <time>2012-05-22T15:36:26Z</time>
   </trkpt>
   <trkpt lat="46.0809440612793" lon="7.16331958770752">
    <ele>749.599975585938</ele>
    <time>2012-05-22T15:36:27Z</time>
   </trkpt>
   <trkpt lat="46.0808944702148" lon="7.16350030899048">
    <ele>749.599975585938</ele>
    <time>2012-05-22T15:36:31Z</time>
   </trkpt>
   <trkpt lat="46.0807991027832" lon="7.1638593673706">
    <ele>750.577758789062</ele>
    <time>2012-05-22T15:36:39Z</time>
   </trkpt>
   <trkpt lat="46.0807266235352" lon="7.16412305831909">
    <ele>751.311096191406</ele>
    <time>2012-05-22T15:36:45Z</time>
   </trkpt>
   <trkpt lat="46.0807113647461" lon="7.16416454315186">
    <ele>751.433349609375</ele>
    <time>2012-05-22T15:36:46Z</time>
   </trkpt>
   <trkpt lat="46.0806999206543" lon="7.16420698165894">
    <ele>751.555541992188</ele>
    <time>2012-05-22T15:36:47Z</time>
   </trkpt>
   <trkpt lat="46.0806922912598" lon="7.16425228118896">
    <ele>751.677734375</ele>
    <time>2012-05-22T15:36:48Z</time>
   </trkpt>
   <trkpt lat="46.080680847168" lon="7.16429471969604">
    <ele>751.799987792969</ele>
    <time>2012-05-22T15:36:49Z</time>
   </trkpt>
   <trkpt lat="46.0806159973144" lon="7.16455125808716">
    <ele>751.799987792969</ele>
    <time>2012-05-22T15:36:55Z</time>
   </trkpt>
   <trkpt lat="46.0806083679199" lon="7.1645975112915">
    <ele>752.239990234375</ele>
    <time>2012-05-22T15:36:56Z</time>
   </trkpt>
   <trkpt lat="46.0805969238281" lon="7.16463899612427">
    <ele>752.679992675781</ele>
    <time>2012-05-22T15:36:57Z</time>
   </trkpt>
   <trkpt lat="46.0805892944336" lon="7.16467952728272">
    <ele>753.119995117188</ele>
    <time>2012-05-22T15:36:58Z</time>
   </trkpt>
   <trkpt lat="46.0805816650391" lon="7.1647162437439">
    <ele>753.559997558594</ele>
    <time>2012-05-22T15:36:59Z</time>
   </trkpt>
   <trkpt lat="46.0805702209473" lon="7.16475677490234">
    <ele>754</ele>
    <time>2012-05-22T15:37:00Z</time>
   </trkpt>
   <trkpt lat="46.0805473327637" lon="7.16489410400391">
    <ele>754</ele>
    <time>2012-05-22T15:37:03Z</time>
   </trkpt>
   <trkpt lat="46.0805130004883" lon="7.16507720947266">
    <ele>754.671997070312</ele>
    <time>2012-05-22T15:37:07Z</time>
   </trkpt>
   <trkpt lat="46.0804672241211" lon="7.1653413772583">
    <ele>755.679992675781</ele>
    <time>2012-05-22T15:37:13Z</time>
   </trkpt>
   <trkpt lat="46.0804634094238" lon="7.16538667678833">
    <ele>755.848022460938</ele>
    <time>2012-05-22T15:37:14Z</time>
   </trkpt>
   <trkpt lat="46.0804557800293" lon="7.16543054580688">
    <ele>756.015991210938</ele>
    <time>2012-05-22T15:37:15Z</time>
   </trkpt>
   <trkpt lat="46.0804557800293" lon="7.16547727584839">
    <ele>756.184020996094</ele>
    <time>2012-05-22T15:37:16Z</time>
   </trkpt>
   <trkpt lat="46.080451965332" lon="7.16552305221558">
    <ele>756.351989746094</ele>
    <time>2012-05-22T15:37:17Z</time>
   </trkpt>
   <trkpt lat="46.0804481506348" lon="7.16556978225708">
    <ele>756.52001953125</ele>
    <time>2012-05-22T15:37:18Z</time>
   </trkpt>
   <trkpt lat="46.0804328918457" lon="7.1658411026001">
    <ele>757.528015136719</ele>
    <time>2012-05-22T15:37:24Z</time>
   </trkpt>
   <trkpt lat="46.0804290771484" lon="7.16588687896728">
    <ele>757.695983886719</ele>
    <time>2012-05-22T15:37:25Z</time>
   </trkpt>
   <trkpt lat="46.0804290771484" lon="7.1659345626831">
    <ele>757.864013671875</ele>
    <time>2012-05-22T15:37:26Z</time>
   </trkpt>
   <trkpt lat="46.0804290771484" lon="7.1659836769104">
    <ele>758.031982421875</ele>
    <time>2012-05-22T15:37:27Z</time>
   </trkpt>
   <trkpt lat="46.0804252624512" lon="7.16603183746338">
    <ele>758.200012207031</ele>
    <time>2012-05-22T15:37:28Z</time>
   </trkpt>
   <trkpt lat="46.0804176330566" lon="7.16617250442505">
    <ele>758.200012207031</ele>
    <time>2012-05-22T15:37:31Z</time>
   </trkpt>
   <trkpt lat="46.0804100036621" lon="7.16650009155274">
    <ele>759.600036621094</ele>
    <time>2012-05-22T15:37:38Z</time>
   </trkpt>
   <trkpt lat="46.0804061889648" lon="7.16654634475708">
    <ele>759.800048828125</ele>
    <time>2012-05-22T15:37:39Z</time>
   </trkpt>
   <trkpt lat="46.0804023742676" lon="7.16659116744995">
    <ele>760</ele>
    <time>2012-05-22T15:37:40Z</time>
   </trkpt>
   <trkpt lat="46.0804061889648" lon="7.1666374206543">
    <ele>760.200012207031</ele>
    <time>2012-05-22T15:37:41Z</time>
   </trkpt>
   <trkpt lat="46.0804061889648" lon="7.16668510437012">
    <ele>760.400024414062</ele>
    <time>2012-05-22T15:37:42Z</time>
   </trkpt>
   <trkpt lat="46.0804023742676" lon="7.16710710525513">
    <ele>760.400024414062</ele>
    <time>2012-05-22T15:37:51Z</time>
   </trkpt>
   <trkpt lat="46.0804023742676" lon="7.16715335845947">
    <ele>760.800048828125</ele>
    <time>2012-05-22T15:37:52Z</time>
   </trkpt>
   <trkpt lat="46.0803985595703" lon="7.1671986579895">
    <ele>761.200012207031</ele>
    <time>2012-05-22T15:37:53Z</time>
   </trkpt>
   <trkpt lat="46.0803985595703" lon="7.16724252700806">
    <ele>761.600036621094</ele>
    <time>2012-05-22T15:37:54Z</time>
   </trkpt>
   <trkpt lat="46.080394744873" lon="7.16728734970093">
    <ele>762</ele>
    <time>2012-05-22T15:37:55Z</time>
   </trkpt>
   <trkpt lat="46.0803909301758" lon="7.16733503341675">
    <ele>762.400024414062</ele>
    <time>2012-05-22T15:37:56Z</time>
   </trkpt>
   <trkpt lat="46.0803909301758" lon="7.16747760772705">
    <ele>762.400024414062</ele>
    <time>2012-05-22T15:37:59Z</time>
   </trkpt>
   <trkpt lat="46.0803909301758" lon="7.16770887374878">
    <ele>763.400024414062</ele>
    <time>2012-05-22T15:38:04Z</time>
   </trkpt>
   <trkpt lat="46.0803909301758" lon="7.1677975654602">
    <ele>763.799987792969</ele>
    <time>2012-05-22T15:38:06Z</time>
   </trkpt>
   <trkpt lat="46.0803909301758" lon="7.16784334182739">
    <ele>764</ele>
    <time>2012-05-22T15:38:07Z</time>
   </trkpt>
   <trkpt lat="46.0803909301758" lon="7.16788959503174">
    <ele>764.200012207031</ele>
    <time>2012-05-22T15:38:08Z</time>
   </trkpt>
   <trkpt lat="46.0803909301758" lon="7.16793346405029">
    <ele>764.399963378906</ele>
    <time>2012-05-22T15:38:09Z</time>
   </trkpt>
   <trkpt lat="46.0803909301758" lon="7.16798067092896">
    <ele>764.599975585938</ele>
    <time>2012-05-22T15:38:10Z</time>
   </trkpt>
   <trkpt lat="46.080394744873" lon="7.16828632354736">
    <ele>764.599975585938</ele>
    <time>2012-05-22T15:38:17Z</time>
   </trkpt>
   <trkpt lat="46.0803909301758" lon="7.16838121414185">
    <ele>765</ele>
    <time>2012-05-22T15:38:19Z</time>
   </trkpt>
   <trkpt lat="46.0803909301758" lon="7.16856622695923">
    <ele>765.799987792969</ele>
    <time>2012-05-22T15:38:23Z</time>
   </trkpt>
   <trkpt lat="46.080394744873" lon="7.16861152648926">
    <ele>766</ele>
    <time>2012-05-22T15:38:24Z</time>
   </trkpt>
   <trkpt lat="46.080394744873" lon="7.16865491867065">
    <ele>766.199951171875</ele>
    <time>2012-05-22T15:38:25Z</time>
   </trkpt>
   <trkpt lat="46.0803909301758" lon="7.16870164871216">
    <ele>766.399963378906</ele>
    <time>2012-05-22T15:38:26Z</time>
   </trkpt>
   <trkpt lat="46.080394744873" lon="7.16874599456787">
    <ele>766.599975585938</ele>
    <time>2012-05-22T15:38:27Z</time>
   </trkpt>
   <trkpt lat="46.080394744873" lon="7.16915702819824">
    <ele>766.599975585938</ele>
    <time>2012-05-22T15:38:36Z</time>
   </trkpt>
   <trkpt lat="46.080394744873" lon="7.1692419052124">
    <ele>767.333312988281</ele>
    <time>2012-05-22T15:38:38Z</time>
   </trkpt>
   <trkpt lat="46.080394744873" lon="7.16928672790527">
    <ele>767.699951171875</ele>
    <time>2012-05-22T15:38:39Z</time>
   </trkpt>
   <trkpt lat="46.080394744873" lon="7.16933107376099">
    <ele>768.066650390625</ele>
    <time>2012-05-22T15:38:40Z</time>
   </trkpt>
   <trkpt lat="46.080394744873" lon="7.16937971115112">
    <ele>768.433349609375</ele>
    <time>2012-05-22T15:38:41Z</time>
   </trkpt>
   <trkpt lat="46.080394744873" lon="7.16942596435547">
    <ele>768.799987792969</ele>
    <time>2012-05-22T15:38:42Z</time>
   </trkpt>
   <trkpt lat="46.080394744873" lon="7.1695704460144">
    <ele>768.799987792969</ele>
    <time>2012-05-22T15:38:45Z</time>
   </trkpt>
   <trkpt lat="46.080394744873" lon="7.16986227035522">
    <ele>769.895629882812</ele>
    <time>2012-05-22T15:38:51Z</time>
   </trkpt>
   <trkpt lat="46.080394744873" lon="7.16990947723389">
    <ele>770.078247070312</ele>
    <time>2012-05-22T15:38:52Z</time>
   </trkpt>
   <trkpt lat="46.080394744873" lon="7.16995573043823">
    <ele>770.260864257812</ele>
    <time>2012-05-22T15:38:53Z</time>
   </trkpt>
   <trkpt lat="46.0803985595703" lon="7.17000389099121">
    <ele>770.443481445312</ele>
    <time>2012-05-22T15:38:54Z</time>
   </trkpt>
   <trkpt lat="46.0803985595703" lon="7.17005109786987">
    <ele>770.626098632812</ele>
    <time>2012-05-22T15:38:55Z</time>
   </trkpt>
   <trkpt lat="46.0804061889648" lon="7.17047262191772">
    <ele>772.269592285156</ele>
    <time>2012-05-22T15:39:04Z</time>
   </trkpt>
   <trkpt lat="46.0804061889648" lon="7.17051982879639">
    <ele>772.4521484375</ele>
    <time>2012-05-22T15:39:05Z</time>
   </trkpt>
   <trkpt lat="46.0804061889648" lon="7.17056512832642">
    <ele>772.634765625</ele>
    <time>2012-05-22T15:39:06Z</time>
   </trkpt>
   <trkpt lat="46.0804100036621" lon="7.17061185836792">
    <ele>772.8173828125</ele>
    <time>2012-05-22T15:39:07Z</time>
   </trkpt>
   <trkpt lat="46.0804100036621" lon="7.17065715789795">
    <ele>773</ele>
    <time>2012-05-22T15:39:08Z</time>
   </trkpt>
   <trkpt lat="46.0804138183594" lon="7.17088937759399">
    <ele>773</ele>
    <time>2012-05-22T15:39:13Z</time>
   </trkpt>
   <trkpt lat="46.0804252624512" lon="7.17102527618408">
    <ele>773.663146972656</ele>
    <time>2012-05-22T15:39:16Z</time>
   </trkpt>
   <trkpt lat="46.0804290771484" lon="7.17116594314575">
    <ele>774.326293945312</ele>
    <time>2012-05-22T15:39:19Z</time>
   </trkpt>
   <trkpt lat="46.0804328918457" lon="7.17121648788452">
    <ele>774.54736328125</ele>
    <time>2012-05-22T15:39:20Z</time>
   </trkpt>
   <trkpt lat="46.080436706543" lon="7.17126655578613">
    <ele>774.768432617188</ele>
    <time>2012-05-22T15:39:21Z</time>
   </trkpt>
   <trkpt lat="46.080436706543" lon="7.17131423950195">
    <ele>774.989501953125</ele>
    <time>2012-05-22T15:39:22Z</time>
   </trkpt>
   <trkpt lat="46.080436706543" lon="7.17136335372925">
    <ele>775.210510253906</ele>
    <time>2012-05-22T15:39:23Z</time>
   </trkpt>
   <trkpt lat="46.0804481506348" lon="7.17160654067993">
    <ele>776.315795898438</ele>
    <time>2012-05-22T15:39:28Z</time>
   </trkpt>
   <trkpt lat="46.080451965332" lon="7.17165470123291">
    <ele>776.536865234375</ele>
    <time>2012-05-22T15:39:29Z</time>
   </trkpt>
   <trkpt lat="46.0804557800293" lon="7.1717038154602">
    <ele>776.757934570312</ele>
    <time>2012-05-22T15:39:30Z</time>
   </trkpt>
   <trkpt lat="46.0804595947266" lon="7.17175149917602">
    <ele>776.978942871094</ele>
    <time>2012-05-22T15:39:31Z</time>
   </trkpt>
   <trkpt lat="46.0804672241211" lon="7.17179822921753">
    <ele>777.200012207031</ele>
    <time>2012-05-22T15:39:32Z</time>
   </trkpt>
   <trkpt lat="46.0804862976074" lon="7.17214441299438">
    <ele>777.200012207031</ele>
    <time>2012-05-22T15:39:39Z</time>
   </trkpt>
   <trkpt lat="46.0805015563965" lon="7.17247104644775">
    <ele>778.739990234375</ele>
    <time>2012-05-22T15:39:46Z</time>
   </trkpt>
   <trkpt lat="46.0805053710938" lon="7.17251443862915">
    <ele>778.960021972656</ele>
    <time>2012-05-22T15:39:47Z</time>
   </trkpt>
   <trkpt lat="46.080509185791" lon="7.17256021499634">
    <ele>779.180053710938</ele>
    <time>2012-05-22T15:39:48Z</time>
   </trkpt>
   <trkpt lat="46.0805168151856" lon="7.17260599136352">
    <ele>779.400024414062</ele>
    <time>2012-05-22T15:39:49Z</time>
   </trkpt>
   <trkpt lat="46.0805473327637" lon="7.17294311523438">
    <ele>779.400024414062</ele>
    <time>2012-05-22T15:39:56Z</time>
   </trkpt>
   <trkpt lat="46.0805778503418" lon="7.17324542999268">
    <ele>780.719970703125</ele>
    <time>2012-05-22T15:40:02Z</time>
   </trkpt>
   <trkpt lat="46.0805854797363" lon="7.17329788208008">
    <ele>780.940002441406</ele>
    <time>2012-05-22T15:40:03Z</time>
   </trkpt>
   <trkpt lat="46.0805892944336" lon="7.17334842681885">
    <ele>781.159973144531</ele>
    <time>2012-05-22T15:40:04Z</time>
   </trkpt>
   <trkpt lat="46.0805931091309" lon="7.17340469360352">
    <ele>781.380004882812</ele>
    <time>2012-05-22T15:40:05Z</time>
   </trkpt>
   <trkpt lat="46.0805969238281" lon="7.17345476150513">
    <ele>781.599975585938</ele>
    <time>2012-05-22T15:40:06Z</time>
   </trkpt>
   <trkpt lat="46.080638885498" lon="7.17380046844482">
    <ele>781.599975585938</ele>
    <time>2012-05-22T15:40:13Z</time>
   </trkpt>
   <trkpt lat="46.0806465148926" lon="7.17385292053223">
    <ele>781.822204589844</ele>
    <time>2012-05-22T15:40:14Z</time>
   </trkpt>
   <trkpt lat="46.0806655883789" lon="7.1740550994873">
    <ele>782.711059570312</ele>
    <time>2012-05-22T15:40:18Z</time>
   </trkpt>
   <trkpt lat="46.0806770324707" lon="7.1741042137146">
    <ele>782.933288574219</ele>
    <time>2012-05-22T15:40:19Z</time>
   </trkpt>
   <trkpt lat="46.080680847168" lon="7.17415380477905">
    <ele>783.155517578125</ele>
    <time>2012-05-22T15:40:20Z</time>
   </trkpt>
   <trkpt lat="46.0806884765625" lon="7.17420864105225">
    <ele>783.377746582031</ele>
    <time>2012-05-22T15:40:21Z</time>
   </trkpt>
   <trkpt lat="46.080696105957" lon="7.1742582321167">
    <ele>783.599975585938</ele>
    <time>2012-05-22T15:40:22Z</time>
   </trkpt>
   <trkpt lat="46.0807762145996" lon="7.17475938796997">
    <ele>783.599975585938</ele>
    <time>2012-05-22T15:40:32Z</time>
   </trkpt>
   <trkpt lat="46.0808410644531" lon="7.17517900466919">
    <ele>785.066650390625</ele>
    <time>2012-05-22T15:40:40Z</time>
   </trkpt>
   <trkpt lat="46.0808525085449" lon="7.17522764205933">
    <ele>785.25</ele>
    <time>2012-05-22T15:40:41Z</time>
   </trkpt>
   <trkpt lat="46.0808563232422" lon="7.17527914047241">
    <ele>785.433349609375</ele>
    <time>2012-05-22T15:40:42Z</time>
   </trkpt>
   <trkpt lat="46.080867767334" lon="7.17532825469971">
    <ele>785.616638183594</ele>
    <time>2012-05-22T15:40:43Z</time>
   </trkpt>
   <trkpt lat="46.0808753967285" lon="7.17538261413574">
    <ele>785.799987792969</ele>
    <time>2012-05-22T15:40:44Z</time>
   </trkpt>
   <trkpt lat="46.0809288024902" lon="7.17569398880005">
    <ele>785.799987792969</ele>
    <time>2012-05-22T15:40:50Z</time>
   </trkpt>
   <trkpt lat="46.0809478759766" lon="7.17580080032349">
    <ele>786.466674804688</ele>
    <time>2012-05-22T15:40:52Z</time>
   </trkpt>
   <trkpt lat="46.0809555053711" lon="7.17585182189941">
    <ele>786.799987792969</ele>
    <time>2012-05-22T15:40:53Z</time>
   </trkpt>
   <trkpt lat="46.0809669494629" lon="7.17590522766113">
    <ele>787.13330078125</ele>
    <time>2012-05-22T15:40:54Z</time>
   </trkpt>
   <trkpt lat="46.0809745788574" lon="7.17595815658569">
    <ele>787.466674804688</ele>
    <time>2012-05-22T15:40:55Z</time>
   </trkpt>
   <trkpt lat="46.080982208252" lon="7.17600774765015">
    <ele>787.799987792969</ele>
    <time>2012-05-22T15:40:56Z</time>
   </trkpt>
   <trkpt lat="46.080997467041" lon="7.17610597610474">
    <ele>787.799987792969</ele>
    <time>2012-05-22T15:40:58Z</time>
   </trkpt>
   <trkpt lat="46.0810737609863" lon="7.17655372619629">
    <ele>788.900024414062</ele>
    <time>2012-05-22T15:41:07Z</time>
   </trkpt>
   <trkpt lat="46.0811195373535" lon="7.17678880691528">
    <ele>789.511108398438</ele>
    <time>2012-05-22T15:41:12Z</time>
   </trkpt>
   <trkpt lat="46.0811309814453" lon="7.17683839797974">
    <ele>789.63330078125</ele>
    <time>2012-05-22T15:41:13Z</time>
   </trkpt>
   <trkpt lat="46.0811386108398" lon="7.17688846588135">
    <ele>789.755554199219</ele>
    <time>2012-05-22T15:41:14Z</time>
   </trkpt>
   <trkpt lat="46.0811500549316" lon="7.1769380569458">
    <ele>789.877807617188</ele>
    <time>2012-05-22T15:41:15Z</time>
   </trkpt>
   <trkpt lat="46.0811614990234" lon="7.17698097229004">
    <ele>790</ele>
    <time>2012-05-22T15:41:16Z</time>
   </trkpt>
   <trkpt lat="46.0812034606934" lon="7.17717838287354">
    <ele>790</ele>
    <time>2012-05-22T15:41:20Z</time>
   </trkpt>
   <trkpt lat="46.081226348877" lon="7.1772723197937">
    <ele>790.173889160156</ele>
    <time>2012-05-22T15:41:22Z</time>
   </trkpt>
   <trkpt lat="46.0813217163086" lon="7.17777824401856">
    <ele>791.04345703125</ele>
    <time>2012-05-22T15:41:32Z</time>
   </trkpt>
   <trkpt lat="46.0813903808594" lon="7.17812967300415">
    <ele>791.652160644531</ele>
    <time>2012-05-22T15:41:39Z</time>
   </trkpt>
   <trkpt lat="46.0813980102539" lon="7.17817974090576">
    <ele>791.739135742188</ele>
    <time>2012-05-22T15:41:40Z</time>
   </trkpt>
   <trkpt lat="46.0814056396484" lon="7.17822885513306">
    <ele>791.826110839844</ele>
    <time>2012-05-22T15:41:41Z</time>
   </trkpt>
   <trkpt lat="46.0814170837402" lon="7.17827987670898">
    <ele>791.913024902344</ele>
    <time>2012-05-22T15:41:42Z</time>
   </trkpt>
   <trkpt lat="46.0814247131348" lon="7.17832851409912">
    <ele>792</ele>
    <time>2012-05-22T15:41:43Z</time>
   </trkpt>
   <trkpt lat="46.0814437866211" lon="7.17846918106079">
    <ele>792</ele>
    <time>2012-05-22T15:41:46Z</time>
   </trkpt>
   <trkpt lat="46.081485748291" lon="7.17866563796997">
    <ele>793.142883300781</ele>
    <time>2012-05-22T15:41:50Z</time>
   </trkpt>
   <trkpt lat="46.0814933776856" lon="7.17871284484863">
    <ele>793.428588867188</ele>
    <time>2012-05-22T15:41:51Z</time>
   </trkpt>
   <trkpt lat="46.0815010070801" lon="7.17875862121582">
    <ele>793.714294433594</ele>
    <time>2012-05-22T15:41:52Z</time>
   </trkpt>
   <trkpt lat="46.0815124511719" lon="7.17880201339722">
    <ele>794</ele>
    <time>2012-05-22T15:41:53Z</time>
   </trkpt>
   <trkpt lat="46.0815277099609" lon="7.17889404296875">
    <ele>794</ele>
    <time>2012-05-22T15:41:55Z</time>
   </trkpt>
   <trkpt lat="46.0815887451172" lon="7.17922019958496">
    <ele>795.283325195312</ele>
    <time>2012-05-22T15:42:02Z</time>
   </trkpt>
   <trkpt lat="46.081600189209" lon="7.17926406860352">
    <ele>795.466674804688</ele>
    <time>2012-05-22T15:42:03Z</time>
   </trkpt>
   <trkpt lat="46.0816078186035" lon="7.17930889129639">
    <ele>795.650024414062</ele>
    <time>2012-05-22T15:42:04Z</time>
   </trkpt>
   <trkpt lat="46.0816192626953" lon="7.17935132980347">
    <ele>795.833374023438</ele>
    <time>2012-05-22T15:42:05Z</time>
   </trkpt>
   <trkpt lat="46.0816268920898" lon="7.17939519882202">
    <ele>796.016662597656</ele>
    <time>2012-05-22T15:42:06Z</time>
   </trkpt>
   <trkpt lat="46.0816383361816" lon="7.17943954467774">
    <ele>796.200012207031</ele>
    <time>2012-05-22T15:42:07Z</time>
   </trkpt>
   <trkpt lat="46.0816612243652" lon="7.1795768737793">
    <ele>796.200012207031</ele>
    <time>2012-05-22T15:42:10Z</time>
   </trkpt>
   <trkpt lat="46.0816955566406" lon="7.17974996566772">
    <ele>797.342895507812</ele>
    <time>2012-05-22T15:42:14Z</time>
   </trkpt>
   <trkpt lat="46.0817031860352" lon="7.17978572845459">
    <ele>797.628601074219</ele>
    <time>2012-05-22T15:42:15Z</time>
   </trkpt>
   <trkpt lat="46.0817070007324" lon="7.17982769012451">
    <ele>797.914306640625</ele>
    <time>2012-05-22T15:42:16Z</time>
   </trkpt>
   <trkpt lat="46.081714630127" lon="7.17986869812012">
    <ele>798.200012207031</ele>
    <time>2012-05-22T15:42:17Z</time>
   </trkpt>
   <trkpt lat="46.081714630127" lon="7.17990875244141">
    <ele>798.200012207031</ele>
    <time>2012-05-22T15:42:18Z</time>
   </trkpt>
   <trkpt lat="46.0817718505859" lon="7.18018388748169">
    <ele>799.52001953125</ele>
    <time>2012-05-22T15:42:24Z</time>
   </trkpt>
   <trkpt lat="46.081787109375" lon="7.18023014068604">
    <ele>799.739990234375</ele>
    <time>2012-05-22T15:42:25Z</time>
   </trkpt>
   <trkpt lat="46.0818061828613" lon="7.1802773475647">
    <ele>799.960021972656</ele>
    <time>2012-05-22T15:42:26Z</time>
   </trkpt>
   <trkpt lat="46.0818099975586" lon="7.18031358718872">
    <ele>800.180053710938</ele>
    <time>2012-05-22T15:42:27Z</time>
   </trkpt>
   <trkpt lat="46.0818176269531" lon="7.18035316467285">
    <ele>800.400024414062</ele>
    <time>2012-05-22T15:42:28Z</time>
   </trkpt>
   <trkpt lat="46.0818328857422" lon="7.18043375015259">
    <ele>800.400024414062</ele>
    <time>2012-05-22T15:42:30Z</time>
   </trkpt>
   <trkpt lat="46.081844329834" lon="7.18059825897217">
    <ele>801.377807617188</ele>
    <time>2012-05-22T15:42:34Z</time>
   </trkpt>
   <trkpt lat="46.0818557739258" lon="7.1806468963623">
    <ele>801.622192382812</ele>
    <time>2012-05-22T15:42:35Z</time>
   </trkpt>
   <trkpt lat="46.0818710327148" lon="7.18069458007812">
    <ele>801.866638183594</ele>
    <time>2012-05-22T15:42:36Z</time>
   </trkpt>
   <trkpt lat="46.0818901062012" lon="7.18074035644531">
    <ele>802.111083984375</ele>
    <time>2012-05-22T15:42:37Z</time>
   </trkpt>
   <trkpt lat="46.0819129943848" lon="7.18078327178955">
    <ele>802.355529785156</ele>
    <time>2012-05-22T15:42:38Z</time>
   </trkpt>
   <trkpt lat="46.0819282531738" lon="7.18082618713379">
    <ele>802.599975585938</ele>
    <time>2012-05-22T15:42:39Z</time>
   </trkpt>
   <trkpt lat="46.0819396972656" lon="7.18086528778076">
    <ele>802.599975585938</ele>
    <time>2012-05-22T15:42:40Z</time>
   </trkpt>
   <trkpt lat="46.0819931030273" lon="7.18105220794678">
    <ele>803.699951171875</ele>
    <time>2012-05-22T15:42:44Z</time>
   </trkpt>
   <trkpt lat="46.0820159912109" lon="7.18110036849976">
    <ele>803.974975585938</ele>
    <time>2012-05-22T15:42:45Z</time>
   </trkpt>
   <trkpt lat="46.0820388793945" lon="7.18114137649536">
    <ele>804.25</ele>
    <time>2012-05-22T15:42:46Z</time>
   </trkpt>
   <trkpt lat="46.0820617675781" lon="7.18118762969971">
    <ele>804.524963378906</ele>
    <time>2012-05-22T15:42:47Z</time>
   </trkpt>
   <trkpt lat="46.0820846557617" lon="7.18123149871826">
    <ele>804.799987792969</ele>
    <time>2012-05-22T15:42:48Z</time>
   </trkpt>
   <trkpt lat="46.082160949707" lon="7.18138790130615">
    <ele>804.799987792969</ele>
    <time>2012-05-22T15:42:52Z</time>
   </trkpt>
   <trkpt lat="46.0822257995606" lon="7.18151664733887">
    <ele>805.679992675781</ele>
    <time>2012-05-22T15:42:56Z</time>
   </trkpt>
   <trkpt lat="46.0822448730469" lon="7.18154573440552">
    <ele>805.900024414062</ele>
    <time>2012-05-22T15:42:57Z</time>
   </trkpt>
   <trkpt lat="46.0822677612305" lon="7.18158149719238">
    <ele>806.119995117188</ele>
    <time>2012-05-22T15:42:58Z</time>
   </trkpt>
   <trkpt lat="46.0822906494141" lon="7.18161678314209">
    <ele>806.339965820312</ele>
    <time>2012-05-22T15:42:59Z</time>
   </trkpt>
   <trkpt lat="46.0823173522949" lon="7.18165159225464">
    <ele>806.559997558594</ele>
    <time>2012-05-22T15:43:00Z</time>
   </trkpt>
   <trkpt lat="46.0824966430664" lon="7.1819224357605">
    <ele>808.320007324219</ele>
    <time>2012-05-22T15:43:08Z</time>
   </trkpt>
   <trkpt lat="46.0825233459473" lon="7.18195486068726">
    <ele>808.5400390625</ele>
    <time>2012-05-22T15:43:09Z</time>
   </trkpt>
   <trkpt lat="46.0825500488281" lon="7.1819863319397">
    <ele>808.760009765625</ele>
    <time>2012-05-22T15:43:10Z</time>
   </trkpt>
   <trkpt lat="46.082576751709" lon="7.18201494216919">
    <ele>808.97998046875</ele>
    <time>2012-05-22T15:43:11Z</time>
   </trkpt>
   <trkpt lat="46.0825996398926" lon="7.18204593658447">
    <ele>809.200012207031</ele>
    <time>2012-05-22T15:43:12Z</time>
   </trkpt>
   <trkpt lat="46.0826950073242" lon="7.18215990066528">
    <ele>809.200012207031</ele>
    <time>2012-05-22T15:43:16Z</time>
   </trkpt>
   <trkpt lat="46.0828704833984" lon="7.18233966827393">
    <ele>810.400024414062</ele>
    <time>2012-05-22T15:43:22Z</time>
   </trkpt>
   <trkpt lat="46.0829010009766" lon="7.1823673248291">
    <ele>810.600036621094</ele>
    <time>2012-05-22T15:43:23Z</time>
   </trkpt>
   <trkpt lat="46.0829277038574" lon="7.18239688873291">
    <ele>810.799987792969</ele>
    <time>2012-05-22T15:43:24Z</time>
   </trkpt>
   <trkpt lat="46.0829582214356" lon="7.18242454528809">
    <ele>811</ele>
    <time>2012-05-22T15:43:25Z</time>
   </trkpt>
   <trkpt lat="46.0829849243164" lon="7.18245029449463">
    <ele>811.200012207031</ele>
    <time>2012-05-22T15:43:26Z</time>
   </trkpt>
   <trkpt lat="46.0831336975098" lon="7.18256711959839">
    <ele>811.200012207031</ele>
    <time>2012-05-22T15:43:31Z</time>
   </trkpt>
   <trkpt lat="46.0832328796387" lon="7.18264436721802">
    <ele>812.142883300781</ele>
    <time>2012-05-22T15:43:34Z</time>
   </trkpt>
   <trkpt lat="46.0832633972168" lon="7.18266725540161">
    <ele>812.457153320312</ele>
    <time>2012-05-22T15:43:35Z</time>
   </trkpt>
   <trkpt lat="46.0832939147949" lon="7.1826901435852">
    <ele>812.771423339844</ele>
    <time>2012-05-22T15:43:36Z</time>
   </trkpt>
   <trkpt lat="46.0833282470703" lon="7.18271350860596">
    <ele>813.085754394531</ele>
    <time>2012-05-22T15:43:37Z</time>
   </trkpt>
   <trkpt lat="46.0833625793457" lon="7.18273735046387">
    <ele>813.400024414062</ele>
    <time>2012-05-22T15:43:38Z</time>
   </trkpt>
   <trkpt lat="46.0833930969238" lon="7.18275690078735">
    <ele>813.400024414062</ele>
    <time>2012-05-22T15:43:39Z</time>
   </trkpt>
   <trkpt lat="46.0835723876953" lon="7.18289518356323">
    <ele>814.176452636719</ele>
    <time>2012-05-22T15:43:45Z</time>
   </trkpt>
   <trkpt lat="46.0836906433106" lon="7.18297815322876">
    <ele>814.694091796875</ele>
    <time>2012-05-22T15:43:49Z</time>
   </trkpt>
   <trkpt lat="46.0837593078613" lon="7.18302631378174">
    <ele>814.952941894531</ele>
    <time>2012-05-22T15:43:51Z</time>
   </trkpt>
   <trkpt lat="46.0838241577148" lon="7.18307209014893">
    <ele>815.211730957031</ele>
    <time>2012-05-22T15:43:53Z</time>
   </trkpt>
   <trkpt lat="46.0838584899902" lon="7.18309879302978">
    <ele>815.341186523438</ele>
    <time>2012-05-22T15:43:54Z</time>
   </trkpt>
   <trkpt lat="46.0838928222656" lon="7.18312692642212">
    <ele>815.470581054688</ele>
    <time>2012-05-22T15:43:55Z</time>
   </trkpt>
   <trkpt lat="46.0839233398438" lon="7.18315696716309">
    <ele>815.599975585938</ele>
    <time>2012-05-22T15:43:56Z</time>
   </trkpt>
   <trkpt lat="46.0840454101562" lon="7.18326616287232">
    <ele>815.599975585938</ele>
    <time>2012-05-22T15:44:00Z</time>
   </trkpt>
   <trkpt lat="46.084228515625" lon="7.18345069885254">
    <ele>816.799987792969</ele>
    <time>2012-05-22T15:44:06Z</time>
   </trkpt>
   <trkpt lat="46.0842552185059" lon="7.18348073959351">
    <ele>817</ele>
    <time>2012-05-22T15:44:07Z</time>
   </trkpt>
   <trkpt lat="46.0842781066894" lon="7.18351173400879">
    <ele>817.199951171875</ele>
    <time>2012-05-22T15:44:08Z</time>
   </trkpt>
   <trkpt lat="46.0843048095703" lon="7.18354034423828">
    <ele>817.399963378906</ele>
    <time>2012-05-22T15:44:09Z</time>
   </trkpt>
   <trkpt lat="46.0843353271484" lon="7.18356990814209">
    <ele>817.599975585938</ele>
    <time>2012-05-22T15:44:10Z</time>
   </trkpt>
   <trkpt lat="46.0844612121582" lon="7.18373155593872">
    <ele>817.599975585938</ele>
    <time>2012-05-22T15:44:15Z</time>
   </trkpt>
   <trkpt lat="46.0845413208008" lon="7.18383836746216">
    <ele>818.699951171875</ele>
    <time>2012-05-22T15:44:18Z</time>
   </trkpt>
   <trkpt lat="46.0845642089844" lon="7.18387603759766">
    <ele>819.066650390625</ele>
    <time>2012-05-22T15:44:19Z</time>
   </trkpt>
   <trkpt lat="46.084587097168" lon="7.18391466140747">
    <ele>819.433349609375</ele>
    <time>2012-05-22T15:44:20Z</time>
   </trkpt>
   <trkpt lat="46.0846138000488" lon="7.18395090103149">
    <ele>819.799987792969</ele>
    <time>2012-05-22T15:44:21Z</time>
   </trkpt>
   <trkpt lat="46.0846366882324" lon="7.18399095535278">
    <ele>819.799987792969</ele>
    <time>2012-05-22T15:44:22Z</time>
   </trkpt>
   <trkpt lat="46.0847778320312" lon="7.18423128128052">
    <ele>820.799987792969</ele>
    <time>2012-05-22T15:44:28Z</time>
   </trkpt>
   <trkpt lat="46.0848274230957" lon="7.18430280685425">
    <ele>821.13330078125</ele>
    <time>2012-05-22T15:44:30Z</time>
   </trkpt>
   <trkpt lat="46.0848503112793" lon="7.1843409538269">
    <ele>821.299987792969</ele>
    <time>2012-05-22T15:44:31Z</time>
   </trkpt>
   <trkpt lat="46.0848693847656" lon="7.18438196182251">
    <ele>821.466674804688</ele>
    <time>2012-05-22T15:44:32Z</time>
   </trkpt>
   <trkpt lat="46.0848922729492" lon="7.18441820144653">
    <ele>821.63330078125</ele>
    <time>2012-05-22T15:44:33Z</time>
   </trkpt>
   <trkpt lat="46.0849075317383" lon="7.18445873260498">
    <ele>821.799987792969</ele>
    <time>2012-05-22T15:44:34Z</time>
   </trkpt>
   <trkpt lat="46.0849266052246" lon="7.18449687957764">
    <ele>821.799987792969</ele>
    <time>2012-05-22T15:44:35Z</time>
   </trkpt>
   <trkpt lat="46.0850524902344" lon="7.18473100662232">
    <ele>823.266662597656</ele>
    <time>2012-05-22T15:44:41Z</time>
   </trkpt>
   <trkpt lat="46.0850677490234" lon="7.18476724624634">
    <ele>823.511108398438</ele>
    <time>2012-05-22T15:44:42Z</time>
   </trkpt>
   <trkpt lat="46.085090637207" lon="7.18480491638184">
    <ele>823.755554199219</ele>
    <time>2012-05-22T15:44:43Z</time>
   </trkpt>
   <trkpt lat="46.0851135253906" lon="7.18484783172607">
    <ele>824</ele>
    <time>2012-05-22T15:44:44Z</time>
   </trkpt>
   <trkpt lat="46.0851783752441" lon="7.18497085571289">
    <ele>824</ele>
    <time>2012-05-22T15:44:47Z</time>
   </trkpt>
   <trkpt lat="46.0853157043457" lon="7.18522214889526">
    <ele>825.200012207031</ele>
    <time>2012-05-22T15:44:53Z</time>
   </trkpt>
   <trkpt lat="46.0853424072266" lon="7.18526697158814">
    <ele>825.400024414062</ele>
    <time>2012-05-22T15:44:54Z</time>
   </trkpt>
   <trkpt lat="46.0853652954102" lon="7.18530797958374">
    <ele>825.600036621094</ele>
    <time>2012-05-22T15:44:55Z</time>
   </trkpt>
   <trkpt lat="46.0853881835938" lon="7.18534994125366">
    <ele>825.799987792969</ele>
    <time>2012-05-22T15:44:56Z</time>
   </trkpt>
   <trkpt lat="46.0854110717773" lon="7.1853928565979">
    <ele>826</ele>
    <time>2012-05-22T15:44:57Z</time>
   </trkpt>
   <trkpt lat="46.0854339599609" lon="7.18543338775635">
    <ele>826.200012207031</ele>
    <time>2012-05-22T15:44:58Z</time>
   </trkpt>
   <trkpt lat="46.0854835510254" lon="7.18551778793335">
    <ele>826.200012207031</ele>
    <time>2012-05-22T15:45:00Z</time>
   </trkpt>
   <trkpt lat="46.0856246948242" lon="7.18579006195068">
    <ele>827.739990234375</ele>
    <time>2012-05-22T15:45:07Z</time>
   </trkpt>
   <trkpt lat="46.0856513977051" lon="7.18583393096924">
    <ele>827.960021972656</ele>
    <time>2012-05-22T15:45:08Z</time>
   </trkpt>
   <trkpt lat="46.0856742858887" lon="7.18587875366211">
    <ele>828.180053710938</ele>
    <time>2012-05-22T15:45:09Z</time>
   </trkpt>
   <trkpt lat="46.085693359375" lon="7.18591785430908">
    <ele>828.400024414062</ele>
    <time>2012-05-22T15:45:10Z</time>
   </trkpt>
   <trkpt lat="46.0857849121094" lon="7.18608665466309">
    <ele>828.400024414062</ele>
    <time>2012-05-22T15:45:14Z</time>
   </trkpt>
   <trkpt lat="46.0859489440918" lon="7.1864013671875">
    <ele>829.476928710938</ele>
    <time>2012-05-22T15:45:21Z</time>
   </trkpt>
   <trkpt lat="46.085994720459" lon="7.18648862838745">
    <ele>829.78466796875</ele>
    <time>2012-05-22T15:45:23Z</time>
   </trkpt>
   <trkpt lat="46.0860214233398" lon="7.18653297424316">
    <ele>829.9384765625</ele>
    <time>2012-05-22T15:45:24Z</time>
   </trkpt>
   <trkpt lat="46.0860443115234" lon="7.18657922744751">
    <ele>830.092346191406</ele>
    <time>2012-05-22T15:45:25Z</time>
   </trkpt>
   <trkpt lat="46.086067199707" lon="7.18662691116333">
    <ele>830.246154785156</ele>
    <time>2012-05-22T15:45:26Z</time>
   </trkpt>
   <trkpt lat="46.0860900878906" lon="7.18667697906494">
    <ele>830.400024414062</ele>
    <time>2012-05-22T15:45:27Z</time>
   </trkpt>
   <trkpt lat="46.0862197875977" lon="7.18695449829102">
    <ele>830.400024414062</ele>
    <time>2012-05-22T15:45:33Z</time>
   </trkpt>
   <trkpt lat="46.086311340332" lon="7.18716764450073">
    <ele>830.096557617188</ele>
    <time>2012-05-22T15:45:37Z</time>
   </trkpt>
   <trkpt lat="46.0863494873047" lon="7.18727874755859">
    <ele>829.94482421875</ele>
    <time>2012-05-22T15:45:39Z</time>
   </trkpt>
   <trkpt lat="46.0864105224609" lon="7.18746137619018">
    <ele>829.71728515625</ele>
    <time>2012-05-22T15:45:42Z</time>
   </trkpt>
   <trkpt lat="46.0864334106445" lon="7.18752241134644">
    <ele>829.641418457031</ele>
    <time>2012-05-22T15:45:43Z</time>
   </trkpt>
   <trkpt lat="46.0864562988281" lon="7.18758583068848">
    <ele>829.565551757812</ele>
    <time>2012-05-22T15:45:44Z</time>
   </trkpt>
   <trkpt lat="46.0864791870117" lon="7.18764686584473">
    <ele>829.489685058594</ele>
    <time>2012-05-22T15:45:45Z</time>
   </trkpt>
   <trkpt lat="46.086612701416" lon="7.18812942504883">
    <ele>828.958618164062</ele>
    <time>2012-05-22T15:45:52Z</time>
   </trkpt>
   <trkpt lat="46.0867042541504" lon="7.18860626220703">
    <ele>828.503479003906</ele>
    <time>2012-05-22T15:45:58Z</time>
   </trkpt>
   <trkpt lat="46.0867195129394" lon="7.1886944770813">
    <ele>828.427612304688</ele>
    <time>2012-05-22T15:45:59Z</time>
   </trkpt>
   <trkpt lat="46.0867309570312" lon="7.18878078460693">
    <ele>828.351745605469</ele>
    <time>2012-05-22T15:46:00Z</time>
   </trkpt>
   <trkpt lat="46.086742401123" lon="7.18886995315552">
    <ele>828.27587890625</ele>
    <time>2012-05-22T15:46:01Z</time>
   </trkpt>
   <trkpt lat="46.0867538452148" lon="7.18896293640137">
    <ele>828.200012207031</ele>
    <time>2012-05-22T15:46:02Z</time>
   </trkpt>
   <trkpt lat="46.0867805480957" lon="7.18915510177612">
    <ele>828.200012207031</ele>
    <time>2012-05-22T15:46:04Z</time>
   </trkpt>
   <trkpt lat="46.0867919921875" lon="7.1893515586853">
    <ele>827.153869628906</ele>
    <time>2012-05-22T15:46:06Z</time>
   </trkpt>
   <trkpt lat="46.0867958068848" lon="7.18945169448852">
    <ele>826.630798339844</ele>
    <time>2012-05-22T15:46:07Z</time>
   </trkpt>
   <trkpt lat="46.086799621582" lon="7.18955421447754">
    <ele>826.107727050781</ele>
    <time>2012-05-22T15:46:08Z</time>
   </trkpt>
   <trkpt lat="46.0868034362793" lon="7.1896595954895">
    <ele>825.584594726562</ele>
    <time>2012-05-22T15:46:09Z</time>
   </trkpt>
   <trkpt lat="46.0868034362793" lon="7.18976831436157">
    <ele>825.0615234375</ele>
    <time>2012-05-22T15:46:10Z</time>
   </trkpt>
   <trkpt lat="46.0868034362793" lon="7.18988180160522">
    <ele>824.538452148438</ele>
    <time>2012-05-22T15:46:11Z</time>
   </trkpt>
   <trkpt lat="46.0868034362793" lon="7.18999767303467">
    <ele>824.015380859375</ele>
    <time>2012-05-22T15:46:12Z</time>
   </trkpt>
   <trkpt lat="46.0868034362793" lon="7.19012260437012">
    <ele>823.492309570312</ele>
    <time>2012-05-22T15:46:13Z</time>
   </trkpt>
   <trkpt lat="46.086799621582" lon="7.19024419784546">
    <ele>822.96923828125</ele>
    <time>2012-05-22T15:46:14Z</time>
   </trkpt>
   <trkpt lat="46.0867958068848" lon="7.19037485122681">
    <ele>822.446166992188</ele>
    <time>2012-05-22T15:46:15Z</time>
   </trkpt>
   <trkpt lat="46.0867881774902" lon="7.19050598144531">
    <ele>821.923095703125</ele>
    <time>2012-05-22T15:46:16Z</time>
   </trkpt>
   <trkpt lat="46.0867805480957" lon="7.1906418800354">
    <ele>821.400024414062</ele>
    <time>2012-05-22T15:46:17Z</time>
   </trkpt>
   <trkpt lat="46.0867729187012" lon="7.19078159332275">
    <ele>820.876892089844</ele>
    <time>2012-05-22T15:46:18Z</time>
   </trkpt>
   <trkpt lat="46.0867614746094" lon="7.19092178344726">
    <ele>820.353820800781</ele>
    <time>2012-05-22T15:46:19Z</time>
   </trkpt>
   <trkpt lat="46.0867500305176" lon="7.19106435775757">
    <ele>819.830749511719</ele>
    <time>2012-05-22T15:46:20Z</time>
   </trkpt>
   <trkpt lat="46.0867347717285" lon="7.19121503829956">
    <ele>819.307678222656</ele>
    <time>2012-05-22T15:46:21Z</time>
   </trkpt>
   <trkpt lat="46.086727142334" lon="7.19136047363281">
    <ele>818.784606933594</ele>
    <time>2012-05-22T15:46:22Z</time>
   </trkpt>
   <trkpt lat="46.0867156982422" lon="7.19150733947754">
    <ele>818.261535644531</ele>
    <time>2012-05-22T15:46:23Z</time>
   </trkpt>
   <trkpt lat="46.0867042541504" lon="7.19165563583374">
    <ele>817.738464355469</ele>
    <time>2012-05-22T15:46:24Z</time>
   </trkpt>
   <trkpt lat="46.0866966247559" lon="7.19180297851562">
    <ele>817.215393066406</ele>
    <time>2012-05-22T15:46:25Z</time>
   </trkpt>
   <trkpt lat="46.0866889953613" lon="7.19195175170898">
    <ele>816.692260742188</ele>
    <time>2012-05-22T15:46:26Z</time>
   </trkpt>
   <trkpt lat="46.0866775512695" lon="7.1921010017395">
    <ele>816.169189453125</ele>
    <time>2012-05-22T15:46:27Z</time>
   </trkpt>
   <trkpt lat="46.0866661071777" lon="7.19224882125854">
    <ele>815.646118164062</ele>
    <time>2012-05-22T15:46:28Z</time>
   </trkpt>
   <trkpt lat="46.0866584777832" lon="7.19240188598633">
    <ele>815.123046875</ele>
    <time>2012-05-22T15:46:29Z</time>
   </trkpt>
   <trkpt lat="46.0866508483887" lon="7.19255018234253">
    <ele>814.599975585938</ele>
    <time>2012-05-22T15:46:30Z</time>
   </trkpt>
   <trkpt lat="46.0866432189941" lon="7.19284391403198">
    <ele>814.599975585938</ele>
    <time>2012-05-22T15:46:32Z</time>
   </trkpt>
   <trkpt lat="46.0866394042969" lon="7.19313049316406">
    <ele>813.733337402344</ele>
    <time>2012-05-22T15:46:34Z</time>
   </trkpt>
   <trkpt lat="46.0866432189941" lon="7.19326972961426">
    <ele>813.299987792969</ele>
    <time>2012-05-22T15:46:35Z</time>
   </trkpt>
   <trkpt lat="46.0866432189941" lon="7.19341564178467">
    <ele>812.866638183594</ele>
    <time>2012-05-22T15:46:36Z</time>
   </trkpt>
   <trkpt lat="46.0866432189941" lon="7.19355201721191">
    <ele>812.433349609375</ele>
    <time>2012-05-22T15:46:37Z</time>
   </trkpt>
   <trkpt lat="46.0866432189941" lon="7.193687915802">
    <ele>812</ele>
    <time>2012-05-22T15:46:38Z</time>
   </trkpt>
   <trkpt lat="46.0866317749023" lon="7.19434595108032">
    <ele>812</ele>
    <time>2012-05-22T15:46:43Z</time>
   </trkpt>
   <trkpt lat="46.0866317749023" lon="7.19448328018188">
    <ele>811.828552246094</ele>
    <time>2012-05-22T15:46:44Z</time>
   </trkpt>
   <trkpt lat="46.0866317749023" lon="7.19461536407471">
    <ele>811.657165527344</ele>
    <time>2012-05-22T15:46:45Z</time>
   </trkpt>
   <trkpt lat="46.0866165161133" lon="7.19501066207886">
    <ele>811.142822265625</ele>
    <time>2012-05-22T15:46:48Z</time>
   </trkpt>
   <trkpt lat="46.0866088867188" lon="7.195143699646">
    <ele>810.971435546875</ele>
    <time>2012-05-22T15:46:49Z</time>
   </trkpt>
   <trkpt lat="46.0865707397461" lon="7.19554233551025">
    <ele>810.457153320312</ele>
    <time>2012-05-22T15:46:52Z</time>
   </trkpt>
   <trkpt lat="46.0865631103516" lon="7.19567346572876">
    <ele>810.285705566406</ele>
    <time>2012-05-22T15:46:53Z</time>
   </trkpt>
   <trkpt lat="46.0865478515625" lon="7.19580268859863">
    <ele>810.1142578125</ele>
    <time>2012-05-22T15:46:54Z</time>
   </trkpt>
   <trkpt lat="46.0865364074707" lon="7.19592809677124">
    <ele>809.942810058594</ele>
    <time>2012-05-22T15:46:55Z</time>
   </trkpt>
   <trkpt lat="46.0865249633789" lon="7.19605398178101">
    <ele>809.771423339844</ele>
    <time>2012-05-22T15:46:56Z</time>
   </trkpt>
   <trkpt lat="46.0865058898926" lon="7.19618034362793">
    <ele>809.599975585938</ele>
    <time>2012-05-22T15:46:57Z</time>
   </trkpt>
   <trkpt lat="46.0864944458008" lon="7.19630765914917">
    <ele>809.599975585938</ele>
    <time>2012-05-22T15:46:58Z</time>
   </trkpt>
   <trkpt lat="46.0863609313965" lon="7.19706439971924">
    <ele>808.577758789062</ele>
    <time>2012-05-22T15:47:04Z</time>
   </trkpt>
   <trkpt lat="46.086311340332" lon="7.19730520248413">
    <ele>808.236999511719</ele>
    <time>2012-05-22T15:47:06Z</time>
   </trkpt>
   <trkpt lat="46.0861968994141" lon="7.19793367385864">
    <ele>807.385192871094</ele>
    <time>2012-05-22T15:47:11Z</time>
   </trkpt>
   <trkpt lat="46.0861701965332" lon="7.19806051254272">
    <ele>807.214782714844</ele>
    <time>2012-05-22T15:47:12Z</time>
   </trkpt>
   <trkpt lat="46.0861167907715" lon="7.19832229614258">
    <ele>806.874084472656</ele>
    <time>2012-05-22T15:47:14Z</time>
   </trkpt>
   <trkpt lat="46.086067199707" lon="7.19856977462768">
    <ele>806.533325195312</ele>
    <time>2012-05-22T15:47:16Z</time>
   </trkpt>
   <trkpt lat="46.0860443115234" lon="7.19869422912598">
    <ele>806.362976074219</ele>
    <time>2012-05-22T15:47:17Z</time>
   </trkpt>
   <trkpt lat="46.0860176086426" lon="7.19881677627564">
    <ele>806.192565917969</ele>
    <time>2012-05-22T15:47:18Z</time>
   </trkpt>
   <trkpt lat="46.0859909057617" lon="7.19894027709961">
    <ele>806.022216796875</ele>
    <time>2012-05-22T15:47:19Z</time>
   </trkpt>
   <trkpt lat="46.0859680175781" lon="7.19906568527222">
    <ele>805.851867675781</ele>
    <time>2012-05-22T15:47:20Z</time>
   </trkpt>
   <trkpt lat="46.0859413146973" lon="7.19919013977051">
    <ele>805.681457519531</ele>
    <time>2012-05-22T15:47:21Z</time>
   </trkpt>
   <trkpt lat="46.0859107971191" lon="7.19931697845459">
    <ele>805.511108398438</ele>
    <time>2012-05-22T15:47:22Z</time>
   </trkpt>
   <trkpt lat="46.0858840942383" lon="7.19943952560425">
    <ele>805.340759277344</ele>
    <time>2012-05-22T15:47:23Z</time>
   </trkpt>
   <trkpt lat="46.0858535766602" lon="7.19955825805664">
    <ele>805.170349121094</ele>
    <time>2012-05-22T15:47:24Z</time>
   </trkpt>
   <trkpt lat="46.0858268737793" lon="7.1996750831604">
    <ele>805</ele>
    <time>2012-05-22T15:47:25Z</time>
   </trkpt>
   <trkpt lat="46.0855903625488" lon="7.20033407211304">
    <ele>805</ele>
    <time>2012-05-22T15:47:31Z</time>
   </trkpt>
   <trkpt lat="46.085262298584" lon="7.20086765289307">
    <ele>805.12109375</ele>
    <time>2012-05-22T15:47:37Z</time>
   </trkpt>
   <trkpt lat="46.084903717041" lon="7.20129442214966">
    <ele>805.2421875</ele>
    <time>2012-05-22T15:47:43Z</time>
   </trkpt>
   <trkpt lat="46.0844612121582" lon="7.20173120498657">
    <ele>805.383483886719</ele>
    <time>2012-05-22T15:47:50Z</time>
   </trkpt>
   <trkpt lat="46.0839767456055" lon="7.20221662521362">
    <ele>805.544982910156</ele>
    <time>2012-05-22T15:47:58Z</time>
   </trkpt>
   <trkpt lat="46.0835952758789" lon="7.20268106460571">
    <ele>805.686218261719</ele>
    <time>2012-05-22T15:48:05Z</time>
   </trkpt>
   <trkpt lat="46.0835418701172" lon="7.20275402069092">
    <ele>805.706420898438</ele>
    <time>2012-05-22T15:48:06Z</time>
   </trkpt>
   <trkpt lat="46.0834922790527" lon="7.20283031463623">
    <ele>805.726623535156</ele>
    <time>2012-05-22T15:48:07Z</time>
   </trkpt>
   <trkpt lat="46.0834007263184" lon="7.20299386978149">
    <ele>805.766967773438</ele>
    <time>2012-05-22T15:48:09Z</time>
   </trkpt>
   <trkpt lat="46.0832786560059" lon="7.20324182510376">
    <ele>805.827514648438</ele>
    <time>2012-05-22T15:48:12Z</time>
   </trkpt>
   <trkpt lat="46.0832366943359" lon="7.20332765579224">
    <ele>805.847717285156</ele>
    <time>2012-05-22T15:48:13Z</time>
   </trkpt>
   <trkpt lat="46.0831985473633" lon="7.20341110229492">
    <ele>805.867919921875</ele>
    <time>2012-05-22T15:48:14Z</time>
   </trkpt>
   <trkpt lat="46.0831604003906" lon="7.20349550247192">
    <ele>805.888061523438</ele>
    <time>2012-05-22T15:48:15Z</time>
   </trkpt>
   <trkpt lat="46.0829849243164" lon="7.20393466949463">
    <ele>805.989013671875</ele>
    <time>2012-05-22T15:48:20Z</time>
   </trkpt>
   <trkpt lat="46.0829582214356" lon="7.20402097702026">
    <ele>806.009155273438</ele>
    <time>2012-05-22T15:48:21Z</time>
   </trkpt>
   <trkpt lat="46.0829277038574" lon="7.20410966873169">
    <ele>806.029357910156</ele>
    <time>2012-05-22T15:48:22Z</time>
   </trkpt>
   <trkpt lat="46.0827789306641" lon="7.20466375350952">
    <ele>806.150451660156</ele>
    <time>2012-05-22T15:48:28Z</time>
   </trkpt>
   <trkpt lat="46.0826950073242" lon="7.2052173614502">
    <ele>806.271545410156</ele>
    <time>2012-05-22T15:48:34Z</time>
   </trkpt>
   <trkpt lat="46.0826873779297" lon="7.20530223846436">
    <ele>806.291748046875</ele>
    <time>2012-05-22T15:48:35Z</time>
   </trkpt>
   <trkpt lat="46.0826721191406" lon="7.2053861618042">
    <ele>806.311950683594</ele>
    <time>2012-05-22T15:48:36Z</time>
   </trkpt>
   <trkpt lat="46.0826301574707" lon="7.20580434799194">
    <ele>806.412841796875</ele>
    <time>2012-05-22T15:48:41Z</time>
   </trkpt>
   <trkpt lat="46.0826225280762" lon="7.20588254928589">
    <ele>806.433044433594</ele>
    <time>2012-05-22T15:48:42Z</time>
   </trkpt>
   <trkpt lat="46.0826148986816" lon="7.20596694946289">
    <ele>806.453247070312</ele>
    <time>2012-05-22T15:48:43Z</time>
   </trkpt>
   <trkpt lat="46.0825805664062" lon="7.20651435852051">
    <ele>806.574340820312</ele>
    <time>2012-05-22T15:48:49Z</time>
   </trkpt>
   <trkpt lat="46.0825729370117" lon="7.20680570602417">
    <ele>806.634887695312</ele>
    <time>2012-05-22T15:48:52Z</time>
   </trkpt>
   <trkpt lat="46.0825653076172" lon="7.20690441131592">
    <ele>806.655029296875</ele>
    <time>2012-05-22T15:48:53Z</time>
   </trkpt>
   <trkpt lat="46.0825347900391" lon="7.20709180831909">
    <ele>806.695434570312</ele>
    <time>2012-05-22T15:48:55Z</time>
   </trkpt>
   <trkpt lat="46.0824661254883" lon="7.20743942260742">
    <ele>806.776184082031</ele>
    <time>2012-05-22T15:48:59Z</time>
   </trkpt>
   <trkpt lat="46.0824508666992" lon="7.20752668380737">
    <ele>806.796325683594</ele>
    <time>2012-05-22T15:49:00Z</time>
   </trkpt>
   <trkpt lat="46.0824356079102" lon="7.20761775970459">
    <ele>806.816528320312</ele>
    <time>2012-05-22T15:49:01Z</time>
   </trkpt>
   <trkpt lat="46.082405090332" lon="7.20790958404541">
    <ele>806.877075195312</ele>
    <time>2012-05-22T15:49:04Z</time>
   </trkpt>
   <trkpt lat="46.0823860168457" lon="7.20809698104858">
    <ele>806.917419433594</ele>
    <time>2012-05-22T15:49:06Z</time>
   </trkpt>
   <trkpt lat="46.0823783874512" lon="7.20819520950317">
    <ele>806.937622070312</ele>
    <time>2012-05-22T15:49:07Z</time>
   </trkpt>
   <trkpt lat="46.0823554992676" lon="7.20838832855225">
    <ele>806.977966308594</ele>
    <time>2012-05-22T15:49:09Z</time>
   </trkpt>
   <trkpt lat="46.0823402404785" lon="7.2084846496582">
    <ele>806.998168945312</ele>
    <time>2012-05-22T15:49:10Z</time>
   </trkpt>
   <trkpt lat="46.0823287963867" lon="7.20857524871826">
    <ele>807.018371582031</ele>
    <time>2012-05-22T15:49:11Z</time>
   </trkpt>
   <trkpt lat="46.0823211669922" lon="7.20866870880127">
    <ele>807.038513183594</ele>
    <time>2012-05-22T15:49:12Z</time>
   </trkpt>
   <trkpt lat="46.0823059082031" lon="7.20875835418701">
    <ele>807.058715820312</ele>
    <time>2012-05-22T15:49:13Z</time>
   </trkpt>
   <trkpt lat="46.0822906494141" lon="7.20884609222412">
    <ele>807.078918457031</ele>
    <time>2012-05-22T15:49:14Z</time>
   </trkpt>
   <trkpt lat="46.0822639465332" lon="7.20902156829834">
    <ele>807.119262695312</ele>
    <time>2012-05-22T15:49:16Z</time>
   </trkpt>
   <trkpt lat="46.0822486877441" lon="7.20911121368408">
    <ele>807.139465332031</ele>
    <time>2012-05-22T15:49:17Z</time>
   </trkpt>
   <trkpt lat="46.0822296142578" lon="7.20919322967529">
    <ele>807.15966796875</ele>
    <time>2012-05-22T15:49:18Z</time>
   </trkpt>
   <trkpt lat="46.0822143554688" lon="7.20927095413208">
    <ele>807.179809570312</ele>
    <time>2012-05-22T15:49:19Z</time>
   </trkpt>
   <trkpt lat="46.0821990966797" lon="7.20934820175171">
    <ele>807.200012207031</ele>
    <time>2012-05-22T15:49:20Z</time>
   </trkpt>
   <trkpt lat="46.0821495056152" lon="7.20956134796143">
    <ele>807.200012207031</ele>
    <time>2012-05-22T15:49:23Z</time>
   </trkpt>
   <trkpt lat="46.0821342468262" lon="7.20962715148926">
    <ele>807.514282226562</ele>
    <time>2012-05-22T15:49:24Z</time>
   </trkpt>
   <trkpt lat="46.0821228027344" lon="7.20969581604004">
    <ele>807.82861328125</ele>
    <time>2012-05-22T15:49:25Z</time>
   </trkpt>
   <trkpt lat="46.0821075439453" lon="7.20976114273071">
    <ele>808.142883300781</ele>
    <time>2012-05-22T15:49:26Z</time>
   </trkpt>
   <trkpt lat="46.0820922851562" lon="7.20982456207275">
    <ele>808.457153320312</ele>
    <time>2012-05-22T15:49:27Z</time>
   </trkpt>
   <trkpt lat="46.0820808410644" lon="7.20988941192627">
    <ele>808.771423339844</ele>
    <time>2012-05-22T15:49:28Z</time>
   </trkpt>
   <trkpt lat="46.0820693969727" lon="7.20995187759399">
    <ele>809.085754394531</ele>
    <time>2012-05-22T15:49:29Z</time>
   </trkpt>
   <trkpt lat="46.0820579528809" lon="7.21001529693604">
    <ele>809.400024414062</ele>
    <time>2012-05-22T15:49:30Z</time>
   </trkpt>
   <trkpt lat="46.0820465087891" lon="7.21008205413818">
    <ele>809.400024414062</ele>
    <time>2012-05-22T15:49:31Z</time>
   </trkpt>
   <trkpt lat="46.0820045471191" lon="7.21026039123535">
    <ele>810.133361816406</ele>
    <time>2012-05-22T15:49:34Z</time>
   </trkpt>
   <trkpt lat="46.0819892883301" lon="7.2103123664856">
    <ele>810.377807617188</ele>
    <time>2012-05-22T15:49:35Z</time>
   </trkpt>
   <trkpt lat="46.081974029541" lon="7.210364818573">
    <ele>810.622192382812</ele>
    <time>2012-05-22T15:49:36Z</time>
   </trkpt>
   <trkpt lat="46.0819625854492" lon="7.21041202545166">
    <ele>810.866638183594</ele>
    <time>2012-05-22T15:49:37Z</time>
   </trkpt>
   <trkpt lat="46.0819549560547" lon="7.21046876907349">
    <ele>811.111083984375</ele>
    <time>2012-05-22T15:49:38Z</time>
   </trkpt>
   <trkpt lat="46.0819358825684" lon="7.21052312850952">
    <ele>811.355529785156</ele>
    <time>2012-05-22T15:49:39Z</time>
   </trkpt>
   <trkpt lat="46.0819244384766" lon="7.21058511734009">
    <ele>811.599975585938</ele>
    <time>2012-05-22T15:49:40Z</time>
   </trkpt>
   <trkpt lat="46.0818977355957" lon="7.21070098876953">
    <ele>811.599975585938</ele>
    <time>2012-05-22T15:49:42Z</time>
   </trkpt>
   <trkpt lat="46.0818862915039" lon="7.21076536178589">
    <ele>811.933288574219</ele>
    <time>2012-05-22T15:49:43Z</time>
   </trkpt>
   <trkpt lat="46.0818748474121" lon="7.21082353591919">
    <ele>812.266662597656</ele>
    <time>2012-05-22T15:49:44Z</time>
   </trkpt>
   <trkpt lat="46.0818557739258" lon="7.21087169647217">
    <ele>812.599975585938</ele>
    <time>2012-05-22T15:49:45Z</time>
   </trkpt>
   <trkpt lat="46.0818367004394" lon="7.21092748641968">
    <ele>812.933288574219</ele>
    <time>2012-05-22T15:49:46Z</time>
   </trkpt>
   <trkpt lat="46.0818214416504" lon="7.2109808921814">
    <ele>813.266662597656</ele>
    <time>2012-05-22T15:49:47Z</time>
   </trkpt>
   <trkpt lat="46.0818023681641" lon="7.21103763580322">
    <ele>813.599975585938</ele>
    <time>2012-05-22T15:49:48Z</time>
   </trkpt>
   <trkpt lat="46.0817794799805" lon="7.21108722686768">
    <ele>813.599975585938</ele>
    <time>2012-05-22T15:49:49Z</time>
   </trkpt>
   <trkpt lat="46.0817604064941" lon="7.21113157272339">
    <ele>813.837036132812</ele>
    <time>2012-05-22T15:49:50Z</time>
   </trkpt>
   <trkpt lat="46.0817489624023" lon="7.21118068695068">
    <ele>814.074035644531</ele>
    <time>2012-05-22T15:49:51Z</time>
   </trkpt>
   <trkpt lat="46.081729888916" lon="7.2112250328064">
    <ele>814.311096191406</ele>
    <time>2012-05-22T15:49:52Z</time>
   </trkpt>
   <trkpt lat="46.081714630127" lon="7.21126890182495">
    <ele>814.548156738281</ele>
    <time>2012-05-22T15:49:53Z</time>
   </trkpt>
   <trkpt lat="46.0816917419434" lon="7.21131563186646">
    <ele>814.78515625</ele>
    <time>2012-05-22T15:49:54Z</time>
   </trkpt>
   <trkpt lat="46.0816764831543" lon="7.2113676071167">
    <ele>815.022216796875</ele>
    <time>2012-05-22T15:49:55Z</time>
   </trkpt>
   <trkpt lat="46.0816612243652" lon="7.21141195297241">
    <ele>815.259216308594</ele>
    <time>2012-05-22T15:49:56Z</time>
   </trkpt>
   <trkpt lat="46.0816459655762" lon="7.21145963668823">
    <ele>815.496276855469</ele>
    <time>2012-05-22T15:49:57Z</time>
   </trkpt>
   <trkpt lat="46.0815849304199" lon="7.21167087554932">
    <ele>816.444458007812</ele>
    <time>2012-05-22T15:50:01Z</time>
   </trkpt>
   <trkpt lat="46.0815696716309" lon="7.21171617507935">
    <ele>816.681457519531</ele>
    <time>2012-05-22T15:50:02Z</time>
   </trkpt>
   <trkpt lat="46.0815544128418" lon="7.21177005767822">
    <ele>816.918518066406</ele>
    <time>2012-05-22T15:50:03Z</time>
   </trkpt>
   <trkpt lat="46.0815391540527" lon="7.21182489395142">
    <ele>817.155517578125</ele>
    <time>2012-05-22T15:50:04Z</time>
   </trkpt>
   <trkpt lat="46.0814361572266" lon="7.21224784851074">
    <ele>819.051818847656</ele>
    <time>2012-05-22T15:50:12Z</time>
   </trkpt>
   <trkpt lat="46.0814170837402" lon="7.21229410171509">
    <ele>819.288879394531</ele>
    <time>2012-05-22T15:50:13Z</time>
   </trkpt>
   <trkpt lat="46.0814018249512" lon="7.21234750747681">
    <ele>819.525939941406</ele>
    <time>2012-05-22T15:50:14Z</time>
   </trkpt>
   <trkpt lat="46.0813827514648" lon="7.21240377426148">
    <ele>819.762939453125</ele>
    <time>2012-05-22T15:50:15Z</time>
   </trkpt>
   <trkpt lat="46.0813598632812" lon="7.21245098114014">
    <ele>820</ele>
    <time>2012-05-22T15:50:16Z</time>
   </trkpt>
   <trkpt lat="46.0813407897949" lon="7.21251153945923">
    <ele>820</ele>
    <time>2012-05-22T15:50:17Z</time>
   </trkpt>
   <trkpt lat="46.0811767578125" lon="7.212965965271">
    <ele>820.926330566406</ele>
    <time>2012-05-22T15:50:25Z</time>
   </trkpt>
   <trkpt lat="46.0810546875" lon="7.21331977844238">
    <ele>821.736877441406</ele>
    <time>2012-05-22T15:50:32Z</time>
   </trkpt>
   <trkpt lat="46.0810356140137" lon="7.2133641242981">
    <ele>821.852661132812</ele>
    <time>2012-05-22T15:50:33Z</time>
   </trkpt>
   <trkpt lat="46.0810127258301" lon="7.21340227127075">
    <ele>821.968444824219</ele>
    <time>2012-05-22T15:50:34Z</time>
   </trkpt>
   <trkpt lat="46.0809898376465" lon="7.21344089508057">
    <ele>822.084228515625</ele>
    <time>2012-05-22T15:50:35Z</time>
   </trkpt>
   <trkpt lat="46.0809669494629" lon="7.21347713470459">
    <ele>822.200012207031</ele>
    <time>2012-05-22T15:50:36Z</time>
   </trkpt>
   <trkpt lat="46.0809059143066" lon="7.21351385116577">
    <ele>822.200012207031</ele>
    <time>2012-05-22T15:50:38Z</time>
   </trkpt>
   <trkpt lat="46.0808753967285" lon="7.21354150772095">
    <ele>822.600036621094</ele>
    <time>2012-05-22T15:50:39Z</time>
   </trkpt>
   <trkpt lat="46.0808486938477" lon="7.21357679367065">
    <ele>823</ele>
    <time>2012-05-22T15:50:40Z</time>
   </trkpt>
   <trkpt lat="46.0808334350586" lon="7.21362972259522">
    <ele>823.400024414062</ele>
    <time>2012-05-22T15:50:41Z</time>
   </trkpt>
   <trkpt lat="46.0808219909668" lon="7.21367359161377">
    <ele>823.799987792969</ele>
    <time>2012-05-22T15:50:42Z</time>
   </trkpt>
   <trkpt lat="46.0808067321777" lon="7.21372175216675">
    <ele>824.200012207031</ele>
    <time>2012-05-22T15:50:43Z</time>
   </trkpt>
   <trkpt lat="46.0806999206543" lon="7.21392822265625">
    <ele>824.200012207031</ele>
    <time>2012-05-22T15:50:48Z</time>
   </trkpt>
   <trkpt lat="46.0806694030762" lon="7.21396160125732">
    <ele>824.600036621094</ele>
    <time>2012-05-22T15:50:49Z</time>
   </trkpt>
   <trkpt lat="46.0806465148926" lon="7.2139892578125">
    <ele>825</ele>
    <time>2012-05-22T15:50:50Z</time>
   </trkpt>
   <trkpt lat="46.0806274414062" lon="7.21402597427368">
    <ele>825.400024414062</ele>
    <time>2012-05-22T15:50:51Z</time>
   </trkpt>
   <trkpt lat="46.0806083679199" lon="7.21406030654907">
    <ele>825.799987792969</ele>
    <time>2012-05-22T15:50:52Z</time>
   </trkpt>
   <trkpt lat="46.0805854797363" lon="7.2140998840332">
    <ele>826.200012207031</ele>
    <time>2012-05-22T15:50:53Z</time>
   </trkpt>
   <trkpt lat="46.08056640625" lon="7.21413803100586">
    <ele>826.200012207031</ele>
    <time>2012-05-22T15:50:54Z</time>
   </trkpt>
   <trkpt lat="46.0805282592773" lon="7.21422100067139">
    <ele>826.933349609375</ele>
    <time>2012-05-22T15:50:56Z</time>
   </trkpt>
   <trkpt lat="46.0805053710938" lon="7.21426439285278">
    <ele>827.300048828125</ele>
    <time>2012-05-22T15:50:57Z</time>
   </trkpt>
   <trkpt lat="46.0804862976074" lon="7.21431159973144">
    <ele>827.666687011719</ele>
    <time>2012-05-22T15:50:58Z</time>
   </trkpt>
   <trkpt lat="46.0804634094238" lon="7.21435308456421">
    <ele>828.033325195312</ele>
    <time>2012-05-22T15:50:59Z</time>
   </trkpt>
   <trkpt lat="46.0804405212402" lon="7.21438789367676">
    <ele>828.400024414062</ele>
    <time>2012-05-22T15:51:00Z</time>
   </trkpt>
   <trkpt lat="46.0804176330566" lon="7.2144193649292">
    <ele>828.400024414062</ele>
    <time>2012-05-22T15:51:01Z</time>
   </trkpt>
   <trkpt lat="46.0803337097168" lon="7.21455192565918">
    <ele>829.5</ele>
    <time>2012-05-22T15:51:05Z</time>
   </trkpt>
   <trkpt lat="46.0803184509277" lon="7.21458911895752">
    <ele>829.775024414062</ele>
    <time>2012-05-22T15:51:06Z</time>
   </trkpt>
   <trkpt lat="46.0802993774414" lon="7.21462392807007">
    <ele>830.049987792969</ele>
    <time>2012-05-22T15:51:07Z</time>
   </trkpt>
   <trkpt lat="46.0802879333496" lon="7.21466779708862">
    <ele>830.324951171875</ele>
    <time>2012-05-22T15:51:08Z</time>
   </trkpt>
   <trkpt lat="46.0802764892578" lon="7.21471786499024">
    <ele>830.599975585938</ele>
    <time>2012-05-22T15:51:09Z</time>
   </trkpt>
   <trkpt lat="46.0802764892578" lon="7.21476602554321">
    <ele>830.599975585938</ele>
    <time>2012-05-22T15:51:10Z</time>
   </trkpt>
   <trkpt lat="46.0802879333496" lon="7.21481084823608">
    <ele>830.705261230469</ele>
    <time>2012-05-22T15:51:11Z</time>
   </trkpt>
   <trkpt lat="46.0803108215332" lon="7.21484375">
    <ele>830.810485839844</ele>
    <time>2012-05-22T15:51:12Z</time>
   </trkpt>
   <trkpt lat="46.0803413391113" lon="7.21486568450928">
    <ele>830.915771484375</ele>
    <time>2012-05-22T15:51:13Z</time>
   </trkpt>
   <trkpt lat="46.0803718566894" lon="7.21487665176392">
    <ele>831.021057128906</ele>
    <time>2012-05-22T15:51:14Z</time>
   </trkpt>
   <trkpt lat="46.0804023742676" lon="7.21487045288086">
    <ele>831.126281738281</ele>
    <time>2012-05-22T15:51:15Z</time>
   </trkpt>
   <trkpt lat="46.0804710388184" lon="7.21483707427978">
    <ele>831.336791992188</ele>
    <time>2012-05-22T15:51:17Z</time>
   </trkpt>
   <trkpt lat="46.080509185791" lon="7.21482133865356">
    <ele>831.442077636719</ele>
    <time>2012-05-22T15:51:18Z</time>
   </trkpt>
   <trkpt lat="46.0805740356445" lon="7.21479177474976">
    <ele>831.652587890625</ele>
    <time>2012-05-22T15:51:20Z</time>
   </trkpt>
   <trkpt lat="46.0806655883789" lon="7.21475124359131">
    <ele>831.968383789062</ele>
    <time>2012-05-22T15:51:23Z</time>
   </trkpt>
   <trkpt lat="46.0806922912598" lon="7.2147388458252">
    <ele>832.073669433594</ele>
    <time>2012-05-22T15:51:24Z</time>
   </trkpt>
   <trkpt lat="46.0807228088379" lon="7.21472501754761">
    <ele>832.178894042969</ele>
    <time>2012-05-22T15:51:25Z</time>
   </trkpt>
   <trkpt lat="46.080753326416" lon="7.21470880508423">
    <ele>832.2841796875</ele>
    <time>2012-05-22T15:51:26Z</time>
   </trkpt>
   <trkpt lat="46.0807800292969" lon="7.21469497680664">
    <ele>832.389465332031</ele>
    <time>2012-05-22T15:51:27Z</time>
   </trkpt>
   <trkpt lat="46.080810546875" lon="7.21467971801758">
    <ele>832.494689941406</ele>
    <time>2012-05-22T15:51:28Z</time>
   </trkpt>
   <trkpt lat="46.0808410644531" lon="7.21466684341431">
    <ele>832.599975585938</ele>
    <time>2012-05-22T15:51:29Z</time>
   </trkpt>
   <trkpt lat="46.0809288024902" lon="7.2146406173706">
    <ele>832.599975585938</ele>
    <time>2012-05-22T15:51:32Z</time>
   </trkpt>
   <trkpt lat="46.0810317993164" lon="7.21458435058594">
    <ele>833.526306152344</ele>
    <time>2012-05-22T15:51:36Z</time>
   </trkpt>
   <trkpt lat="46.0810623168945" lon="7.21456861495972">
    <ele>833.757873535156</ele>
    <time>2012-05-22T15:51:37Z</time>
   </trkpt>
   <trkpt lat="46.0810890197754" lon="7.2145528793335">
    <ele>833.989440917969</ele>
    <time>2012-05-22T15:51:38Z</time>
   </trkpt>
   <trkpt lat="46.0811195373535" lon="7.21454000473022">
    <ele>834.221008300781</ele>
    <time>2012-05-22T15:51:39Z</time>
   </trkpt>
   <trkpt lat="46.0811462402344" lon="7.21452140808106">
    <ele>834.45263671875</ele>
    <time>2012-05-22T15:51:40Z</time>
   </trkpt>
   <trkpt lat="46.0813331604004" lon="7.2144341468811">
    <ele>836.073669433594</ele>
    <time>2012-05-22T15:51:47Z</time>
   </trkpt>
   <trkpt lat="46.0813674926758" lon="7.21442174911499">
    <ele>836.305236816406</ele>
    <time>2012-05-22T15:51:48Z</time>
   </trkpt>
   <trkpt lat="46.0813980102539" lon="7.21440887451172">
    <ele>836.536865234375</ele>
    <time>2012-05-22T15:51:49Z</time>
   </trkpt>
   <trkpt lat="46.081428527832" lon="7.21440267562866">
    <ele>836.768432617188</ele>
    <time>2012-05-22T15:51:50Z</time>
   </trkpt>
   <trkpt lat="46.0814552307129" lon="7.21438789367676">
    <ele>837</ele>
    <time>2012-05-22T15:51:51Z</time>
   </trkpt>
   <trkpt lat="46.0815238952637" lon="7.21438026428223">
    <ele>837</ele>
    <time>2012-05-22T15:51:53Z</time>
   </trkpt>
   <trkpt lat="46.0816192626953" lon="7.2143611907959">
    <ele>837.733337402344</ele>
    <time>2012-05-22T15:51:56Z</time>
   </trkpt>
   <trkpt lat="46.0816841125488" lon="7.21434640884399">
    <ele>838.222229003906</ele>
    <time>2012-05-22T15:51:58Z</time>
   </trkpt>
   <trkpt lat="46.081714630127" lon="7.21434259414673">
    <ele>838.466674804688</ele>
    <time>2012-05-22T15:51:59Z</time>
   </trkpt>
   <trkpt lat="46.0817489624023" lon="7.2143349647522">
    <ele>838.711120605469</ele>
    <time>2012-05-22T15:52:00Z</time>
   </trkpt>
   <trkpt lat="46.081787109375" lon="7.21433019638062">
    <ele>838.95556640625</ele>
    <time>2012-05-22T15:52:01Z</time>
   </trkpt>
   <trkpt lat="46.0818214416504" lon="7.21432447433472">
    <ele>839.200012207031</ele>
    <time>2012-05-22T15:52:02Z</time>
   </trkpt>
   <trkpt lat="46.0820236206055" lon="7.21427202224732">
    <ele>839.200012207031</ele>
    <time>2012-05-22T15:52:08Z</time>
   </trkpt>
   <trkpt lat="46.0822067260742" lon="7.21420431137085">
    <ele>840.290893554688</ele>
    <time>2012-05-22T15:52:14Z</time>
   </trkpt>
   <trkpt lat="46.0822410583496" lon="7.21418714523315">
    <ele>840.472717285156</ele>
    <time>2012-05-22T15:52:15Z</time>
   </trkpt>
   <trkpt lat="46.082275390625" lon="7.21417140960693">
    <ele>840.654541015625</ele>
    <time>2012-05-22T15:52:16Z</time>
   </trkpt>
   <trkpt lat="46.0823097229004" lon="7.21416091918945">
    <ele>840.836364746094</ele>
    <time>2012-05-22T15:52:17Z</time>
   </trkpt>
   <trkpt lat="46.0823402404785" lon="7.21414375305176">
    <ele>841.018188476562</ele>
    <time>2012-05-22T15:52:18Z</time>
   </trkpt>
   <trkpt lat="46.0823745727539" lon="7.21412897109985">
    <ele>841.200012207031</ele>
    <time>2012-05-22T15:52:19Z</time>
   </trkpt>
   <trkpt lat="46.0824089050293" lon="7.21410894393921">
    <ele>841.200012207031</ele>
    <time>2012-05-22T15:52:20Z</time>
   </trkpt>
   <trkpt lat="46.0825653076172" lon="7.2139949798584">
    <ele>841.811157226562</ele>
    <time>2012-05-22T15:52:25Z</time>
   </trkpt>
   <trkpt lat="46.0827445983887" lon="7.21385908126831">
    <ele>842.54443359375</ele>
    <time>2012-05-22T15:52:31Z</time>
   </trkpt>
   <trkpt lat="46.0828285217285" lon="7.2137656211853">
    <ele>842.9111328125</ele>
    <time>2012-05-22T15:52:34Z</time>
   </trkpt>
   <trkpt lat="46.0828552246094" lon="7.21373176574707">
    <ele>843.033325195312</ele>
    <time>2012-05-22T15:52:35Z</time>
   </trkpt>
   <trkpt lat="46.0828819274902" lon="7.21370077133179">
    <ele>843.155578613281</ele>
    <time>2012-05-22T15:52:36Z</time>
   </trkpt>
   <trkpt lat="46.0829048156738" lon="7.21367263793945">
    <ele>843.27783203125</ele>
    <time>2012-05-22T15:52:37Z</time>
   </trkpt>
   <trkpt lat="46.0829315185547" lon="7.21364307403564">
    <ele>843.400024414062</ele>
    <time>2012-05-22T15:52:38Z</time>
   </trkpt>
   <trkpt lat="46.0829582214356" lon="7.21361017227173">
    <ele>843.400024414062</ele>
    <time>2012-05-22T15:52:39Z</time>
   </trkpt>
   <trkpt lat="46.0831184387207" lon="7.21341848373413">
    <ele>843.950012207031</ele>
    <time>2012-05-22T15:52:45Z</time>
   </trkpt>
   <trkpt lat="46.0832710266113" lon="7.21318626403809">
    <ele>844.5</ele>
    <time>2012-05-22T15:52:51Z</time>
   </trkpt>
   <trkpt lat="46.0834083557129" lon="7.21294212341309">
    <ele>845.049987792969</ele>
    <time>2012-05-22T15:52:57Z</time>
   </trkpt>
   <trkpt lat="46.0834541320801" lon="7.21286773681641">
    <ele>845.233337402344</ele>
    <time>2012-05-22T15:52:59Z</time>
   </trkpt>
   <trkpt lat="46.0834732055664" lon="7.21283006668091">
    <ele>845.324951171875</ele>
    <time>2012-05-22T15:53:00Z</time>
   </trkpt>
   <trkpt lat="46.08349609375" lon="7.21279811859131">
    <ele>845.416625976562</ele>
    <time>2012-05-22T15:53:01Z</time>
   </trkpt>
   <trkpt lat="46.0835189819336" lon="7.21276378631592">
    <ele>845.50830078125</ele>
    <time>2012-05-22T15:53:02Z</time>
   </trkpt>
   <trkpt lat="46.0835456848144" lon="7.21273183822632">
    <ele>845.599975585938</ele>
    <time>2012-05-22T15:53:03Z</time>
   </trkpt>
   <trkpt lat="46.0835723876953" lon="7.21270132064819">
    <ele>845.599975585938</ele>
    <time>2012-05-22T15:53:04Z</time>
   </trkpt>
   <trkpt lat="46.0835990905762" lon="7.21267509460449">
    <ele>846</ele>
    <time>2012-05-22T15:53:05Z</time>
   </trkpt>
   <trkpt lat="46.0836296081543" lon="7.212646484375">
    <ele>846.399963378906</ele>
    <time>2012-05-22T15:53:06Z</time>
   </trkpt>
   <trkpt lat="46.0836563110352" lon="7.21261739730835">
    <ele>846.799987792969</ele>
    <time>2012-05-22T15:53:07Z</time>
   </trkpt>
   <trkpt lat="46.083683013916" lon="7.21258926391602">
    <ele>847.199951171875</ele>
    <time>2012-05-22T15:53:08Z</time>
   </trkpt>
   <trkpt lat="46.0837135314941" lon="7.21256351470947">
    <ele>847.599975585938</ele>
    <time>2012-05-22T15:53:09Z</time>
   </trkpt>
   <trkpt lat="46.0837554931641" lon="7.21250772476196">
    <ele>847.599975585938</ele>
    <time>2012-05-22T15:53:11Z</time>
   </trkpt>
   <trkpt lat="46.0838775634766" lon="7.21239042282104">
    <ele>848.835266113281</ele>
    <time>2012-05-22T15:53:16Z</time>
   </trkpt>
   <trkpt lat="46.0839385986328" lon="7.21235084533691">
    <ele>849.329406738281</ele>
    <time>2012-05-22T15:53:18Z</time>
   </trkpt>
   <trkpt lat="46.0839653015137" lon="7.21232223510742">
    <ele>849.576477050781</ele>
    <time>2012-05-22T15:53:19Z</time>
   </trkpt>
   <trkpt lat="46.0839805603027" lon="7.2122974395752">
    <ele>849.823486328125</ele>
    <time>2012-05-22T15:53:20Z</time>
   </trkpt>
   <trkpt lat="46.0840072631836" lon="7.21226692199707">
    <ele>850.070556640625</ele>
    <time>2012-05-22T15:53:21Z</time>
   </trkpt>
   <trkpt lat="46.0840377807617" lon="7.21224355697632">
    <ele>850.317626953125</ele>
    <time>2012-05-22T15:53:22Z</time>
   </trkpt>
   <trkpt lat="46.0840873718262" lon="7.21221303939819">
    <ele>850.811767578125</ele>
    <time>2012-05-22T15:53:24Z</time>
   </trkpt>
   <trkpt lat="46.0841064453125" lon="7.21219158172607">
    <ele>851.058837890625</ele>
    <time>2012-05-22T15:53:25Z</time>
   </trkpt>
   <trkpt lat="46.0841217041016" lon="7.21216917037964">
    <ele>851.305847167969</ele>
    <time>2012-05-22T15:53:26Z</time>
   </trkpt>
   <trkpt lat="46.0841407775879" lon="7.21214628219604">
    <ele>851.552917480469</ele>
    <time>2012-05-22T15:53:27Z</time>
   </trkpt>
   <trkpt lat="46.0841636657715" lon="7.21212196350098">
    <ele>851.799987792969</ele>
    <time>2012-05-22T15:53:28Z</time>
   </trkpt>
   <trkpt lat="46.0842132568359" lon="7.21202659606934">
    <ele>851.799987792969</ele>
    <time>2012-05-22T15:53:31Z</time>
   </trkpt>
   <trkpt lat="46.0842323303223" lon="7.21198225021362">
    <ele>852.279968261719</ele>
    <time>2012-05-22T15:53:32Z</time>
   </trkpt>
   <trkpt lat="46.0842552185059" lon="7.21193790435791">
    <ele>852.760009765625</ele>
    <time>2012-05-22T15:53:33Z</time>
   </trkpt>
   <trkpt lat="46.0842666625977" lon="7.21190309524536">
    <ele>853.239990234375</ele>
    <time>2012-05-22T15:53:34Z</time>
   </trkpt>
   <trkpt lat="46.0842781066894" lon="7.21186971664429">
    <ele>853.720031738281</ele>
    <time>2012-05-22T15:53:35Z</time>
   </trkpt>
   <trkpt lat="46.0842933654785" lon="7.21183729171753">
    <ele>854.200012207031</ele>
    <time>2012-05-22T15:53:36Z</time>
   </trkpt>
   <trkpt lat="46.084342956543" lon="7.21174192428589">
    <ele>854.200012207031</ele>
    <time>2012-05-22T15:53:39Z</time>
   </trkpt>
   <trkpt lat="46.0843772888184" lon="7.21162986755371">
    <ele>855.142883300781</ele>
    <time>2012-05-22T15:53:42Z</time>
   </trkpt>
   <trkpt lat="46.0843887329102" lon="7.2115912437439">
    <ele>855.457153320312</ele>
    <time>2012-05-22T15:53:43Z</time>
   </trkpt>
   <trkpt lat="46.0843925476074" lon="7.21154880523682">
    <ele>855.771423339844</ele>
    <time>2012-05-22T15:53:44Z</time>
   </trkpt>
   <trkpt lat="46.0844039916992" lon="7.21151399612427">
    <ele>856.085754394531</ele>
    <time>2012-05-22T15:53:45Z</time>
   </trkpt>
   <trkpt lat="46.084415435791" lon="7.21147918701172">
    <ele>856.400024414062</ele>
    <time>2012-05-22T15:53:46Z</time>
   </trkpt>
   <trkpt lat="46.0844612121582" lon="7.21121692657471">
    <ele>856.400024414062</ele>
    <time>2012-05-22T15:53:53Z</time>
   </trkpt>
   <trkpt lat="46.0844802856445" lon="7.21114730834961">
    <ele>857.133361816406</ele>
    <time>2012-05-22T15:53:55Z</time>
   </trkpt>
   <trkpt lat="46.0844879150391" lon="7.2111120223999">
    <ele>857.5</ele>
    <time>2012-05-22T15:53:56Z</time>
   </trkpt>
   <trkpt lat="46.0844993591309" lon="7.21108055114746">
    <ele>857.86669921875</ele>
    <time>2012-05-22T15:53:57Z</time>
   </trkpt>
   <trkpt lat="46.0845108032227" lon="7.21105051040649">
    <ele>858.233337402344</ele>
    <time>2012-05-22T15:53:58Z</time>
   </trkpt>
   <trkpt lat="46.0845222473144" lon="7.21101760864258">
    <ele>858.599975585938</ele>
    <time>2012-05-22T15:53:59Z</time>
   </trkpt>
   <trkpt lat="46.084545135498" lon="7.21095657348633">
    <ele>859.333312988281</ele>
    <time>2012-05-22T15:54:01Z</time>
   </trkpt>
   <trkpt lat="46.0845527648926" lon="7.21092510223389">
    <ele>859.700012207031</ele>
    <time>2012-05-22T15:54:02Z</time>
   </trkpt>
   <trkpt lat="46.0845680236816" lon="7.2108964920044">
    <ele>860.066650390625</ele>
    <time>2012-05-22T15:54:03Z</time>
   </trkpt>
   <trkpt lat="46.0845832824707" lon="7.21086502075195">
    <ele>860.433349609375</ele>
    <time>2012-05-22T15:54:04Z</time>
   </trkpt>
   <trkpt lat="46.0845947265625" lon="7.21083402633667">
    <ele>860.799987792969</ele>
    <time>2012-05-22T15:54:05Z</time>
   </trkpt>
   <trkpt lat="46.0846748352051" lon="7.21069240570068">
    <ele>860.799987792969</ele>
    <time>2012-05-22T15:54:10Z</time>
   </trkpt>
   <trkpt lat="46.0846900939941" lon="7.2106671333313">
    <ele>861.239990234375</ele>
    <time>2012-05-22T15:54:11Z</time>
   </trkpt>
   <trkpt lat="46.0847015380859" lon="7.21063661575317">
    <ele>861.679992675781</ele>
    <time>2012-05-22T15:54:12Z</time>
   </trkpt>
   <trkpt lat="46.0847129821777" lon="7.21060562133789">
    <ele>862.119995117188</ele>
    <time>2012-05-22T15:54:13Z</time>
   </trkpt>
   <trkpt lat="46.0847320556641" lon="7.2105770111084">
    <ele>862.559997558594</ele>
    <time>2012-05-22T15:54:14Z</time>
   </trkpt>
   <trkpt lat="46.0847511291504" lon="7.2105450630188">
    <ele>863</ele>
    <time>2012-05-22T15:54:15Z</time>
   </trkpt>
   <trkpt lat="46.0847816467285" lon="7.21049451828003">
    <ele>863</ele>
    <time>2012-05-22T15:54:17Z</time>
   </trkpt>
   <trkpt lat="46.0848770141602" lon="7.21030282974243">
    <ele>864.493347167969</ele>
    <time>2012-05-22T15:54:24Z</time>
   </trkpt>
   <trkpt lat="46.084888458252" lon="7.21027565002441">
    <ele>864.706665039062</ele>
    <time>2012-05-22T15:54:25Z</time>
   </trkpt>
   <trkpt lat="46.084903717041" lon="7.21024799346924">
    <ele>864.919982910156</ele>
    <time>2012-05-22T15:54:26Z</time>
   </trkpt>
   <trkpt lat="46.0849189758301" lon="7.21022081375122">
    <ele>865.133361816406</ele>
    <time>2012-05-22T15:54:27Z</time>
   </trkpt>
   <trkpt lat="46.0849304199219" lon="7.2101936340332">
    <ele>865.3466796875</ele>
    <time>2012-05-22T15:54:28Z</time>
   </trkpt>
   <trkpt lat="46.0850067138672" lon="7.2100567817688">
    <ele>866.413330078125</ele>
    <time>2012-05-22T15:54:33Z</time>
   </trkpt>
   <trkpt lat="46.085018157959" lon="7.21003198623657">
    <ele>866.626708984375</ele>
    <time>2012-05-22T15:54:34Z</time>
   </trkpt>
   <trkpt lat="46.085033416748" lon="7.2100043296814">
    <ele>866.840026855469</ele>
    <time>2012-05-22T15:54:35Z</time>
   </trkpt>
   <trkpt lat="46.0850486755371" lon="7.20997524261475">
    <ele>867.053344726562</ele>
    <time>2012-05-22T15:54:36Z</time>
   </trkpt>
   <trkpt lat="46.0851440429688" lon="7.20978879928589">
    <ele>868.546691894531</ele>
    <time>2012-05-22T15:54:43Z</time>
   </trkpt>
   <trkpt lat="46.0851593017578" lon="7.20976686477661">
    <ele>868.760009765625</ele>
    <time>2012-05-22T15:54:44Z</time>
   </trkpt>
   <trkpt lat="46.0851745605469" lon="7.20973873138428">
    <ele>868.973327636719</ele>
    <time>2012-05-22T15:54:45Z</time>
   </trkpt>
   <trkpt lat="46.0851898193359" lon="7.2097110748291">
    <ele>869.186706542969</ele>
    <time>2012-05-22T15:54:46Z</time>
   </trkpt>
   <trkpt lat="46.0852012634277" lon="7.20967864990234">
    <ele>869.400024414062</ele>
    <time>2012-05-22T15:54:47Z</time>
   </trkpt>
   <trkpt lat="46.0852432250977" lon="7.20959186553955">
    <ele>869.400024414062</ele>
    <time>2012-05-22T15:54:50Z</time>
   </trkpt>
   <trkpt lat="46.0852546691894" lon="7.20956468582153">
    <ele>869.781860351562</ele>
    <time>2012-05-22T15:54:51Z</time>
   </trkpt>
   <trkpt lat="46.0852661132812" lon="7.20953273773193">
    <ele>870.163635253906</ele>
    <time>2012-05-22T15:54:52Z</time>
   </trkpt>
   <trkpt lat="46.085277557373" lon="7.20950317382812">
    <ele>870.545471191406</ele>
    <time>2012-05-22T15:54:53Z</time>
   </trkpt>
   <trkpt lat="46.0852890014648" lon="7.20947551727295">
    <ele>870.927307128906</ele>
    <time>2012-05-22T15:54:54Z</time>
   </trkpt>
   <trkpt lat="46.0853004455566" lon="7.20944833755493">
    <ele>871.30908203125</ele>
    <time>2012-05-22T15:54:55Z</time>
   </trkpt>
   <trkpt lat="46.085334777832" lon="7.20935487747192">
    <ele>872.454528808594</ele>
    <time>2012-05-22T15:54:58Z</time>
   </trkpt>
   <trkpt lat="46.0853462219238" lon="7.20932197570801">
    <ele>872.836364746094</ele>
    <time>2012-05-22T15:54:59Z</time>
   </trkpt>
   <trkpt lat="46.0853614807129" lon="7.20929336547852">
    <ele>873.218139648438</ele>
    <time>2012-05-22T15:55:00Z</time>
   </trkpt>
   <trkpt lat="46.085376739502" lon="7.2092604637146">
    <ele>873.599975585938</ele>
    <time>2012-05-22T15:55:01Z</time>
   </trkpt>
   <trkpt lat="46.0854339599609" lon="7.20910835266113">
    <ele>873.599975585938</ele>
    <time>2012-05-22T15:55:06Z</time>
   </trkpt>
   <trkpt lat="46.0854415893555" lon="7.20907688140869">
    <ele>874.039978027344</ele>
    <time>2012-05-22T15:55:07Z</time>
   </trkpt>
   <trkpt lat="46.0854530334473" lon="7.20904493331909">
    <ele>874.47998046875</ele>
    <time>2012-05-22T15:55:08Z</time>
   </trkpt>
   <trkpt lat="46.0854644775391" lon="7.20901203155518">
    <ele>874.919982910156</ele>
    <time>2012-05-22T15:55:09Z</time>
   </trkpt>
   <trkpt lat="46.0854797363281" lon="7.20898294448852">
    <ele>875.359985351562</ele>
    <time>2012-05-22T15:55:10Z</time>
   </trkpt>
   <trkpt lat="46.0854911804199" lon="7.20894956588745">
    <ele>875.799987792969</ele>
    <time>2012-05-22T15:55:11Z</time>
   </trkpt>
   <trkpt lat="46.0855331420898" lon="7.20886516571045">
    <ele>875.799987792969</ele>
    <time>2012-05-22T15:55:14Z</time>
   </trkpt>
   <trkpt lat="46.0856018066406" lon="7.20871686935425">
    <ele>877.299987792969</ele>
    <time>2012-05-22T15:55:19Z</time>
   </trkpt>
   <trkpt lat="46.0856170654297" lon="7.20869016647339">
    <ele>877.599975585938</ele>
    <time>2012-05-22T15:55:20Z</time>
   </trkpt>
   <trkpt lat="46.085636138916" lon="7.20866918563843">
    <ele>877.900024414062</ele>
    <time>2012-05-22T15:55:21Z</time>
   </trkpt>
   <trkpt lat="46.0856513977051" lon="7.20864200592041">
    <ele>878.200012207031</ele>
    <time>2012-05-22T15:55:22Z</time>
   </trkpt>
   <trkpt lat="46.0856704711914" lon="7.20861387252808">
    <ele>878.5</ele>
    <time>2012-05-22T15:55:23Z</time>
   </trkpt>
   <trkpt lat="46.0857048034668" lon="7.2085599899292">
    <ele>879.099975585938</ele>
    <time>2012-05-22T15:55:25Z</time>
   </trkpt>
   <trkpt lat="46.0857200622559" lon="7.20853233337402">
    <ele>879.400024414062</ele>
    <time>2012-05-22T15:55:26Z</time>
   </trkpt>
   <trkpt lat="46.0857391357422" lon="7.2085075378418">
    <ele>879.700012207031</ele>
    <time>2012-05-22T15:55:27Z</time>
   </trkpt>
   <trkpt lat="46.0857582092285" lon="7.20848703384399">
    <ele>880</ele>
    <time>2012-05-22T15:55:28Z</time>
   </trkpt>
   <trkpt lat="46.085807800293" lon="7.2084231376648">
    <ele>880</ele>
    <time>2012-05-22T15:55:31Z</time>
   </trkpt>
   <trkpt lat="46.0858612060547" lon="7.2083535194397">
    <ele>880.857116699219</ele>
    <time>2012-05-22T15:55:34Z</time>
   </trkpt>
   <trkpt lat="46.085880279541" lon="7.20832777023315">
    <ele>881.142883300781</ele>
    <time>2012-05-22T15:55:35Z</time>
   </trkpt>
   <trkpt lat="46.0859031677246" lon="7.20830488204956">
    <ele>881.428588867188</ele>
    <time>2012-05-22T15:55:36Z</time>
   </trkpt>
   <trkpt lat="46.0859260559082" lon="7.20828342437744">
    <ele>881.714294433594</ele>
    <time>2012-05-22T15:55:37Z</time>
   </trkpt>
   <trkpt lat="46.0859451293945" lon="7.20825815200806">
    <ele>882</ele>
    <time>2012-05-22T15:55:38Z</time>
   </trkpt>
   <trkpt lat="46.0859794616699" lon="7.20821571350098">
    <ele>882</ele>
    <time>2012-05-22T15:55:40Z</time>
   </trkpt>
   <trkpt lat="46.0860290527344" lon="7.20815372467041">
    <ele>882.711120605469</ele>
    <time>2012-05-22T15:55:43Z</time>
   </trkpt>
   <trkpt lat="46.0860481262207" lon="7.20813274383545">
    <ele>882.948181152344</ele>
    <time>2012-05-22T15:55:44Z</time>
   </trkpt>
   <trkpt lat="46.086067199707" lon="7.20811128616333">
    <ele>883.185180664062</ele>
    <time>2012-05-22T15:55:45Z</time>
   </trkpt>
   <trkpt lat="46.0860862731934" lon="7.20808744430542">
    <ele>883.422241210938</ele>
    <time>2012-05-22T15:55:46Z</time>
   </trkpt>
   <trkpt lat="46.0861053466797" lon="7.2080659866333">
    <ele>883.659240722656</ele>
    <time>2012-05-22T15:55:47Z</time>
   </trkpt>
   <trkpt lat="46.0861854553223" lon="7.20794057846069">
    <ele>884.844482421875</ele>
    <time>2012-05-22T15:55:52Z</time>
   </trkpt>
   <trkpt lat="46.0861968994141" lon="7.20791530609131">
    <ele>885.081481933594</ele>
    <time>2012-05-22T15:55:53Z</time>
   </trkpt>
   <trkpt lat="46.0862121582031" lon="7.20788860321045">
    <ele>885.318542480469</ele>
    <time>2012-05-22T15:55:54Z</time>
   </trkpt>
   <trkpt lat="46.0862274169922" lon="7.20786285400391">
    <ele>885.555541992188</ele>
    <time>2012-05-22T15:55:55Z</time>
   </trkpt>
   <trkpt lat="46.0862426757812" lon="7.20783710479736">
    <ele>885.792602539062</ele>
    <time>2012-05-22T15:55:56Z</time>
   </trkpt>
   <trkpt lat="46.0863380432129" lon="7.20764350891113">
    <ele>887.451843261719</ele>
    <time>2012-05-22T15:56:03Z</time>
   </trkpt>
   <trkpt lat="46.0863494873047" lon="7.20761394500732">
    <ele>887.688903808594</ele>
    <time>2012-05-22T15:56:04Z</time>
   </trkpt>
   <trkpt lat="46.0863647460938" lon="7.20758771896362">
    <ele>887.925964355469</ele>
    <time>2012-05-22T15:56:05Z</time>
   </trkpt>
   <trkpt lat="46.0863800048828" lon="7.20755672454834">
    <ele>888.162963867188</ele>
    <time>2012-05-22T15:56:06Z</time>
   </trkpt>
   <trkpt lat="46.0863914489746" lon="7.20752573013306">
    <ele>888.400024414062</ele>
    <time>2012-05-22T15:56:07Z</time>
   </trkpt>
   <trkpt lat="46.0864334106445" lon="7.207435131073">
    <ele>888.400024414062</ele>
    <time>2012-05-22T15:56:10Z</time>
   </trkpt>
   <trkpt lat="46.0865058898926" lon="7.20729446411133">
    <ele>889.577819824219</ele>
    <time>2012-05-22T15:56:15Z</time>
   </trkpt>
   <trkpt lat="46.0865211486816" lon="7.20726680755615">
    <ele>889.813354492188</ele>
    <time>2012-05-22T15:56:16Z</time>
   </trkpt>
   <trkpt lat="46.0865364074707" lon="7.20723581314087">
    <ele>890.048889160156</ele>
    <time>2012-05-22T15:56:17Z</time>
   </trkpt>
   <trkpt lat="46.0865516662598" lon="7.20721006393433">
    <ele>890.284484863281</ele>
    <time>2012-05-22T15:56:18Z</time>
   </trkpt>
   <trkpt lat="46.0865669250488" lon="7.20718717575073">
    <ele>890.52001953125</ele>
    <time>2012-05-22T15:56:19Z</time>
   </trkpt>
   <trkpt lat="46.0866661071777" lon="7.20705652236938">
    <ele>891.933349609375</ele>
    <time>2012-05-22T15:56:25Z</time>
   </trkpt>
   <trkpt lat="46.0866813659668" lon="7.20703411102295">
    <ele>892.168884277344</ele>
    <time>2012-05-22T15:56:26Z</time>
   </trkpt>
   <trkpt lat="46.0867042541504" lon="7.20702075958252">
    <ele>892.404479980469</ele>
    <time>2012-05-22T15:56:27Z</time>
   </trkpt>
   <trkpt lat="46.0867233276367" lon="7.2069993019104">
    <ele>892.640014648438</ele>
    <time>2012-05-22T15:56:28Z</time>
   </trkpt>
   <trkpt lat="46.0867462158203" lon="7.2069845199585">
    <ele>892.875549316406</ele>
    <time>2012-05-22T15:56:29Z</time>
   </trkpt>
   <trkpt lat="46.0868072509766" lon="7.2069411277771">
    <ele>893.582214355469</ele>
    <time>2012-05-22T15:56:32Z</time>
   </trkpt>
   <trkpt lat="46.0868301391602" lon="7.20693063735962">
    <ele>893.817810058594</ele>
    <time>2012-05-22T15:56:33Z</time>
   </trkpt>
   <trkpt lat="46.0868492126465" lon="7.20691585540772">
    <ele>894.053344726562</ele>
    <time>2012-05-22T15:56:34Z</time>
   </trkpt>
   <trkpt lat="46.0868682861328" lon="7.20690774917602">
    <ele>894.288879394531</ele>
    <time>2012-05-22T15:56:35Z</time>
   </trkpt>
   <trkpt lat="46.0868911743164" lon="7.20689535140991">
    <ele>894.524475097656</ele>
    <time>2012-05-22T15:56:36Z</time>
   </trkpt>
   <trkpt lat="46.0870208740234" lon="7.20683002471924">
    <ele>895.937805175781</ele>
    <time>2012-05-22T15:56:42Z</time>
   </trkpt>
   <trkpt lat="46.087043762207" lon="7.2068133354187">
    <ele>896.17333984375</ele>
    <time>2012-05-22T15:56:43Z</time>
   </trkpt>
   <trkpt lat="46.0870666503906" lon="7.20679903030396">
    <ele>896.408874511719</ele>
    <time>2012-05-22T15:56:44Z</time>
   </trkpt>
   <trkpt lat="46.0870819091797" lon="7.20678853988648">
    <ele>896.644470214844</ele>
    <time>2012-05-22T15:56:45Z</time>
   </trkpt>
   <trkpt lat="46.0871047973633" lon="7.20677518844604">
    <ele>896.880004882812</ele>
    <time>2012-05-22T15:56:46Z</time>
   </trkpt>
   <trkpt lat="46.0872116088867" lon="7.20672559738159">
    <ele>898.057800292969</ele>
    <time>2012-05-22T15:56:51Z</time>
   </trkpt>
   <trkpt lat="46.0872383117676" lon="7.20672130584717">
    <ele>898.293334960938</ele>
    <time>2012-05-22T15:56:52Z</time>
   </trkpt>
   <trkpt lat="46.0872650146484" lon="7.20671463012695">
    <ele>898.528869628906</ele>
    <time>2012-05-22T15:56:53Z</time>
   </trkpt>
   <trkpt lat="46.0873069763184" lon="7.20671463012695">
    <ele>898.764465332031</ele>
    <time>2012-05-22T15:56:54Z</time>
   </trkpt>
   <trkpt lat="46.0873336791992" lon="7.20670986175537">
    <ele>899</ele>
    <time>2012-05-22T15:56:55Z</time>
   </trkpt>
   <trkpt lat="46.0873641967773" lon="7.20669412612915">
    <ele>899</ele>
    <time>2012-05-22T15:56:56Z</time>
   </trkpt>
   <trkpt lat="46.0875053405762" lon="7.20661449432373">
    <ele>900</ele>
    <time>2012-05-22T15:57:02Z</time>
   </trkpt>
   <trkpt lat="46.0875549316406" lon="7.20657730102539">
    <ele>900.333312988281</ele>
    <time>2012-05-22T15:57:04Z</time>
   </trkpt>
   <trkpt lat="46.0875778198242" lon="7.2065577507019">
    <ele>900.5</ele>
    <time>2012-05-22T15:57:05Z</time>
   </trkpt>
   <trkpt lat="46.0875968933106" lon="7.20654106140137">
    <ele>900.666687011719</ele>
    <time>2012-05-22T15:57:06Z</time>
   </trkpt>
   <trkpt lat="46.0876197814941" lon="7.20651912689209">
    <ele>900.833312988281</ele>
    <time>2012-05-22T15:57:07Z</time>
   </trkpt>
   <trkpt lat="46.0876388549805" lon="7.20650005340576">
    <ele>901</ele>
    <time>2012-05-22T15:57:08Z</time>
   </trkpt>
   <trkpt lat="46.0876617431641" lon="7.20648527145386">
    <ele>901</ele>
    <time>2012-05-22T15:57:09Z</time>
   </trkpt>
   <trkpt lat="46.0877914428711" lon="7.2064528465271">
    <ele>902.117614746094</ele>
    <time>2012-05-22T15:57:14Z</time>
   </trkpt>
   <trkpt lat="46.0878143310547" lon="7.20646047592163">
    <ele>902.341186523438</ele>
    <time>2012-05-22T15:57:15Z</time>
   </trkpt>
   <trkpt lat="46.0878562927246" lon="7.20649576187134">
    <ele>902.788208007812</ele>
    <time>2012-05-22T15:57:17Z</time>
   </trkpt>
   <trkpt lat="46.0878639221191" lon="7.20652770996094">
    <ele>903.011779785156</ele>
    <time>2012-05-22T15:57:18Z</time>
   </trkpt>
   <trkpt lat="46.0878715515137" lon="7.2065577507019">
    <ele>903.235290527344</ele>
    <time>2012-05-22T15:57:19Z</time>
   </trkpt>
   <trkpt lat="46.0878715515137" lon="7.20659017562866">
    <ele>903.458801269531</ele>
    <time>2012-05-22T15:57:20Z</time>
   </trkpt>
   <trkpt lat="46.0878677368164" lon="7.20662212371826">
    <ele>903.682373046875</ele>
    <time>2012-05-22T15:57:21Z</time>
   </trkpt>
   <trkpt lat="46.0878372192383" lon="7.20670795440674">
    <ele>904.352905273438</ele>
    <time>2012-05-22T15:57:24Z</time>
   </trkpt>
   <trkpt lat="46.0878219604492" lon="7.20673418045044">
    <ele>904.576477050781</ele>
    <time>2012-05-22T15:57:25Z</time>
   </trkpt>
   <trkpt lat="46.0877990722656" lon="7.20675802230835">
    <ele>904.799987792969</ele>
    <time>2012-05-22T15:57:26Z</time>
   </trkpt>
   <trkpt lat="46.0877799987793" lon="7.20677375793457">
    <ele>904.799987792969</ele>
    <time>2012-05-22T15:57:27Z</time>
   </trkpt>
   <trkpt lat="46.0877571105957" lon="7.20679759979248">
    <ele>905.200012207031</ele>
    <time>2012-05-22T15:57:28Z</time>
   </trkpt>
   <trkpt lat="46.0877113342285" lon="7.20683765411377">
    <ele>905.200012207031</ele>
    <time>2012-05-22T15:57:30Z</time>
   </trkpt>
   <trkpt lat="46.087646484375" lon="7.20690250396728">
    <ele>906.05712890625</ele>
    <time>2012-05-22T15:57:33Z</time>
   </trkpt>
   <trkpt lat="46.0876235961914" lon="7.20691919326782">
    <ele>906.342895507812</ele>
    <time>2012-05-22T15:57:34Z</time>
   </trkpt>
   <trkpt lat="46.0876045227051" lon="7.20694255828857">
    <ele>906.628601074219</ele>
    <time>2012-05-22T15:57:35Z</time>
   </trkpt>
   <trkpt lat="46.0875816345215" lon="7.20696258544922">
    <ele>906.914306640625</ele>
    <time>2012-05-22T15:57:36Z</time>
   </trkpt>
   <trkpt lat="46.0875549316406" lon="7.20697975158691">
    <ele>907.200012207031</ele>
    <time>2012-05-22T15:57:37Z</time>
   </trkpt>
   <trkpt lat="46.087459564209" lon="7.20709466934204">
    <ele>907.200012207031</ele>
    <time>2012-05-22T15:57:42Z</time>
   </trkpt>
   <trkpt lat="46.0874443054199" lon="7.20712041854858">
    <ele>907.600036621094</ele>
    <time>2012-05-22T15:57:43Z</time>
   </trkpt>
   <trkpt lat="46.0874290466309" lon="7.20714902877808">
    <ele>908</ele>
    <time>2012-05-22T15:57:44Z</time>
   </trkpt>
   <trkpt lat="46.0874099731445" lon="7.20717573165894">
    <ele>908.400024414062</ele>
    <time>2012-05-22T15:57:45Z</time>
   </trkpt>
   <trkpt lat="46.0873908996582" lon="7.20720434188843">
    <ele>908.799987792969</ele>
    <time>2012-05-22T15:57:46Z</time>
   </trkpt>
   <trkpt lat="46.0873794555664" lon="7.20723676681518">
    <ele>909.200012207031</ele>
    <time>2012-05-22T15:57:47Z</time>
   </trkpt>
   <trkpt lat="46.0873222351074" lon="7.20736646652222">
    <ele>909.200012207031</ele>
    <time>2012-05-22T15:57:51Z</time>
   </trkpt>
   <trkpt lat="46.0872955322266" lon="7.20742654800415">
    <ele>909.933349609375</ele>
    <time>2012-05-22T15:57:53Z</time>
   </trkpt>
   <trkpt lat="46.0872840881348" lon="7.2074613571167">
    <ele>910.300048828125</ele>
    <time>2012-05-22T15:57:54Z</time>
   </trkpt>
   <trkpt lat="46.0872764587402" lon="7.20749282836914">
    <ele>910.666687011719</ele>
    <time>2012-05-22T15:57:55Z</time>
   </trkpt>
   <trkpt lat="46.0872650146484" lon="7.20753526687622">
    <ele>911.033325195312</ele>
    <time>2012-05-22T15:57:56Z</time>
   </trkpt>
   <trkpt lat="46.0872573852539" lon="7.2075686454773">
    <ele>911.400024414062</ele>
    <time>2012-05-22T15:57:57Z</time>
   </trkpt>
   <trkpt lat="46.0872344970703" lon="7.20762729644775">
    <ele>911.400024414062</ele>
    <time>2012-05-22T15:57:59Z</time>
   </trkpt>
   <trkpt lat="46.0872116088867" lon="7.20776653289795">
    <ele>912.400024414062</ele>
    <time>2012-05-22T15:58:03Z</time>
   </trkpt>
   <trkpt lat="46.0872077941894" lon="7.20780372619629">
    <ele>912.650024414062</ele>
    <time>2012-05-22T15:58:04Z</time>
   </trkpt>
   <trkpt lat="46.0872039794922" lon="7.2078423500061">
    <ele>912.900024414062</ele>
    <time>2012-05-22T15:58:05Z</time>
   </trkpt>
   <trkpt lat="46.0872039794922" lon="7.20787858963013">
    <ele>913.150024414062</ele>
    <time>2012-05-22T15:58:06Z</time>
   </trkpt>
   <trkpt lat="46.0871963500977" lon="7.20791244506836">
    <ele>913.400024414062</ele>
    <time>2012-05-22T15:58:07Z</time>
   </trkpt>
   <trkpt lat="46.0871963500977" lon="7.20805740356445">
    <ele>913.400024414062</ele>
    <time>2012-05-22T15:58:11Z</time>
   </trkpt>
   <trkpt lat="46.0872077941894" lon="7.2081618309021">
    <ele>914.0947265625</ele>
    <time>2012-05-22T15:58:14Z</time>
   </trkpt>
   <trkpt lat="46.0872077941894" lon="7.20819711685181">
    <ele>914.326354980469</ele>
    <time>2012-05-22T15:58:15Z</time>
   </trkpt>
   <trkpt lat="46.0872077941894" lon="7.20822858810425">
    <ele>914.557922363281</ele>
    <time>2012-05-22T15:58:16Z</time>
   </trkpt>
   <trkpt lat="46.087215423584" lon="7.20825958251953">
    <ele>914.789489746094</ele>
    <time>2012-05-22T15:58:17Z</time>
   </trkpt>
   <trkpt lat="46.0872192382812" lon="7.20829343795776">
    <ele>915.021057128906</ele>
    <time>2012-05-22T15:58:18Z</time>
   </trkpt>
   <trkpt lat="46.087287902832" lon="7.20856332778931">
    <ele>916.873657226562</ele>
    <time>2012-05-22T15:58:26Z</time>
   </trkpt>
   <trkpt lat="46.0872917175293" lon="7.20860385894775">
    <ele>917.105285644531</ele>
    <time>2012-05-22T15:58:27Z</time>
   </trkpt>
   <trkpt lat="46.0872993469238" lon="7.20863389968872">
    <ele>917.336853027344</ele>
    <time>2012-05-22T15:58:28Z</time>
   </trkpt>
   <trkpt lat="46.0873069763184" lon="7.20866823196411">
    <ele>917.568420410156</ele>
    <time>2012-05-22T15:58:29Z</time>
   </trkpt>
   <trkpt lat="46.0873107910156" lon="7.20869970321655">
    <ele>917.799987792969</ele>
    <time>2012-05-22T15:58:30Z</time>
   </trkpt>
   <trkpt lat="46.0873565673828" lon="7.20885610580444">
    <ele>917.799987792969</ele>
    <time>2012-05-22T15:58:35Z</time>
   </trkpt>
   <trkpt lat="46.0873832702637" lon="7.20894289016724">
    <ele>918.505859375</ele>
    <time>2012-05-22T15:58:38Z</time>
   </trkpt>
   <trkpt lat="46.0873908996582" lon="7.20897245407104">
    <ele>918.741149902344</ele>
    <time>2012-05-22T15:58:39Z</time>
   </trkpt>
   <trkpt lat="46.0873947143555" lon="7.20900297164917">
    <ele>918.976440429688</ele>
    <time>2012-05-22T15:58:40Z</time>
   </trkpt>
   <trkpt lat="46.08740234375" lon="7.20903444290161">
    <ele>919.211730957031</ele>
    <time>2012-05-22T15:58:41Z</time>
   </trkpt>
   <trkpt lat="46.0874099731445" lon="7.20906972885132">
    <ele>919.447021484375</ele>
    <time>2012-05-22T15:58:42Z</time>
   </trkpt>
   <trkpt lat="46.0874633789062" lon="7.20926713943482">
    <ele>920.858825683594</ele>
    <time>2012-05-22T15:58:48Z</time>
   </trkpt>
   <trkpt lat="46.087474822998" lon="7.20930624008179">
    <ele>921.094116210938</ele>
    <time>2012-05-22T15:58:49Z</time>
   </trkpt>
   <trkpt lat="46.0874824523926" lon="7.20934057235718">
    <ele>921.329406738281</ele>
    <time>2012-05-22T15:58:50Z</time>
   </trkpt>
   <trkpt lat="46.0874900817871" lon="7.20937538146973">
    <ele>921.564697265625</ele>
    <time>2012-05-22T15:58:51Z</time>
   </trkpt>
   <trkpt lat="46.0874977111816" lon="7.20940828323364">
    <ele>921.799987792969</ele>
    <time>2012-05-22T15:58:52Z</time>
   </trkpt>
   <trkpt lat="46.0875473022461" lon="7.20956611633301">
    <ele>921.799987792969</ele>
    <time>2012-05-22T15:58:57Z</time>
   </trkpt>
   <trkpt lat="46.0875549316406" lon="7.20959901809692">
    <ele>922.239990234375</ele>
    <time>2012-05-22T15:58:58Z</time>
   </trkpt>
   <trkpt lat="46.0875587463379" lon="7.20962762832642">
    <ele>922.679992675781</ele>
    <time>2012-05-22T15:58:59Z</time>
   </trkpt>
   <trkpt lat="46.0875663757324" lon="7.20965814590454">
    <ele>923.119995117188</ele>
    <time>2012-05-22T15:59:00Z</time>
   </trkpt>
   <trkpt lat="46.0875701904297" lon="7.20969200134277">
    <ele>923.559997558594</ele>
    <time>2012-05-22T15:59:01Z</time>
   </trkpt>
   <trkpt lat="46.0875778198242" lon="7.2097225189209">
    <ele>924</ele>
    <time>2012-05-22T15:59:02Z</time>
   </trkpt>
   <trkpt lat="46.0876045227051" lon="7.20982789993286">
    <ele>924</ele>
    <time>2012-05-22T15:59:05Z</time>
   </trkpt>
   <trkpt lat="46.0876159667969" lon="7.20989370346069">
    <ele>924.799987792969</ele>
    <time>2012-05-22T15:59:07Z</time>
   </trkpt>
   <trkpt lat="46.0876274108887" lon="7.20993137359619">
    <ele>925.200012207031</ele>
    <time>2012-05-22T15:59:08Z</time>
   </trkpt>
   <trkpt lat="46.0876388549805" lon="7.2099609375">
    <ele>925.599975585938</ele>
    <time>2012-05-22T15:59:09Z</time>
   </trkpt>
   <trkpt lat="46.0876426696777" lon="7.20999670028686">
    <ele>926</ele>
    <time>2012-05-22T15:59:10Z</time>
   </trkpt>
   <trkpt lat="46.0876541137695" lon="7.21011543273926">
    <ele>926</ele>
    <time>2012-05-22T15:59:13Z</time>
   </trkpt>
   <trkpt lat="46.0876579284668" lon="7.21029376983643">
    <ele>927.222229003906</ele>
    <time>2012-05-22T15:59:18Z</time>
   </trkpt>
   <trkpt lat="46.0876579284668" lon="7.21033382415772">
    <ele>927.466674804688</ele>
    <time>2012-05-22T15:59:19Z</time>
   </trkpt>
   <trkpt lat="46.0876541137695" lon="7.21037149429321">
    <ele>927.711120605469</ele>
    <time>2012-05-22T15:59:20Z</time>
   </trkpt>
   <trkpt lat="46.0876502990723" lon="7.21041011810303">
    <ele>927.95556640625</ele>
    <time>2012-05-22T15:59:21Z</time>
   </trkpt>
   <trkpt lat="46.087646484375" lon="7.21044731140137">
    <ele>928.200012207031</ele>
    <time>2012-05-22T15:59:22Z</time>
   </trkpt>
   <trkpt lat="46.0875930786133" lon="7.2106409072876">
    <ele>928.200012207031</ele>
    <time>2012-05-22T15:59:28Z</time>
   </trkpt>
   <trkpt lat="46.0875854492188" lon="7.21067476272583">
    <ele>928.700012207031</ele>
    <time>2012-05-22T15:59:29Z</time>
   </trkpt>
   <trkpt lat="46.087574005127" lon="7.2107081413269">
    <ele>929.200012207031</ele>
    <time>2012-05-22T15:59:30Z</time>
   </trkpt>
   <trkpt lat="46.0875625610352" lon="7.21073913574219">
    <ele>929.700012207031</ele>
    <time>2012-05-22T15:59:31Z</time>
   </trkpt>
   <trkpt lat="46.0875511169434" lon="7.21076822280884">
    <ele>930.200012207031</ele>
    <time>2012-05-22T15:59:32Z</time>
   </trkpt>
   <trkpt lat="46.0874862670898" lon="7.21088218688965">
    <ele>930.200012207031</ele>
    <time>2012-05-22T15:59:36Z</time>
   </trkpt>
   <trkpt lat="46.0874557495117" lon="7.21093797683716">
    <ele>930.86669921875</ele>
    <time>2012-05-22T15:59:38Z</time>
   </trkpt>
   <trkpt lat="46.0874404907227" lon="7.21095943450928">
    <ele>931.200012207031</ele>
    <time>2012-05-22T15:59:39Z</time>
   </trkpt>
   <trkpt lat="46.0874252319336" lon="7.21098279953003">
    <ele>931.533325195312</ele>
    <time>2012-05-22T15:59:40Z</time>
   </trkpt>
   <trkpt lat="46.0874099731445" lon="7.21100664138794">
    <ele>931.86669921875</ele>
    <time>2012-05-22T15:59:41Z</time>
   </trkpt>
   <trkpt lat="46.0873947143555" lon="7.21102714538574">
    <ele>932.200012207031</ele>
    <time>2012-05-22T15:59:42Z</time>
   </trkpt>
   <trkpt lat="46.0873641967773" lon="7.21107959747314">
    <ele>932.200012207031</ele>
    <time>2012-05-22T15:59:44Z</time>
   </trkpt>
   <trkpt lat="46.0873489379883" lon="7.21109962463379">
    <ele>932.640014648438</ele>
    <time>2012-05-22T15:59:45Z</time>
   </trkpt>
   <trkpt lat="46.087329864502" lon="7.21111965179443">
    <ele>933.080017089844</ele>
    <time>2012-05-22T15:59:46Z</time>
   </trkpt>
   <trkpt lat="46.0873184204102" lon="7.21114253997803">
    <ele>933.52001953125</ele>
    <time>2012-05-22T15:59:47Z</time>
   </trkpt>
   <trkpt lat="46.0872993469238" lon="7.21116352081299">
    <ele>933.960021972656</ele>
    <time>2012-05-22T15:59:48Z</time>
   </trkpt>
   <trkpt lat="46.0872764587402" lon="7.21117734909058">
    <ele>934.400024414062</ele>
    <time>2012-05-22T15:59:49Z</time>
   </trkpt>
   <trkpt lat="46.0872344970703" lon="7.21121978759766">
    <ele>934.400024414062</ele>
    <time>2012-05-22T15:59:51Z</time>
   </trkpt>
   <trkpt lat="46.087158203125" lon="7.21129131317139">
    <ele>935.542907714844</ele>
    <time>2012-05-22T15:59:55Z</time>
   </trkpt>
   <trkpt lat="46.0871429443359" lon="7.2113094329834">
    <ele>935.82861328125</ele>
    <time>2012-05-22T15:59:56Z</time>
   </trkpt>
   <trkpt lat="46.0871238708496" lon="7.2113299369812">
    <ele>936.114318847656</ele>
    <time>2012-05-22T15:59:57Z</time>
   </trkpt>
   <trkpt lat="46.087100982666" lon="7.21134281158447">
    <ele>936.400024414062</ele>
    <time>2012-05-22T15:59:58Z</time>
   </trkpt>
   <trkpt lat="46.087085723877" lon="7.21136140823364">
    <ele>936.400024414062</ele>
    <time>2012-05-22T15:59:59Z</time>
   </trkpt>
   <trkpt lat="46.0870056152344" lon="7.21143627166748">
    <ele>937.450012207031</ele>
    <time>2012-05-22T16:00:03Z</time>
   </trkpt>
   <trkpt lat="46.086986541748" lon="7.21145439147949">
    <ele>937.712524414062</ele>
    <time>2012-05-22T16:00:04Z</time>
   </trkpt>
   <trkpt lat="46.0869674682617" lon="7.21147775650024">
    <ele>937.974975585938</ele>
    <time>2012-05-22T16:00:05Z</time>
   </trkpt>
   <trkpt lat="46.0869445800781" lon="7.21149396896362">
    <ele>938.237487792969</ele>
    <time>2012-05-22T16:00:06Z</time>
   </trkpt>
   <trkpt lat="46.0869255065918" lon="7.21151256561279">
    <ele>938.5</ele>
    <time>2012-05-22T16:00:07Z</time>
   </trkpt>
   <trkpt lat="46.0868492126465" lon="7.21159172058106">
    <ele>939.549987792969</ele>
    <time>2012-05-22T16:00:11Z</time>
   </trkpt>
   <trkpt lat="46.0868339538574" lon="7.21161651611328">
    <ele>939.8125</ele>
    <time>2012-05-22T16:00:12Z</time>
   </trkpt>
   <trkpt lat="46.0868186950684" lon="7.21164083480835">
    <ele>940.074951171875</ele>
    <time>2012-05-22T16:00:13Z</time>
   </trkpt>
   <trkpt lat="46.086799621582" lon="7.21167087554932">
    <ele>940.337463378906</ele>
    <time>2012-05-22T16:00:14Z</time>
   </trkpt>
   <trkpt lat="46.0867767333984" lon="7.21169948577881">
    <ele>940.599975585938</ele>
    <time>2012-05-22T16:00:15Z</time>
   </trkpt>
   <trkpt lat="46.0867118835449" lon="7.21181678771973">
    <ele>940.599975585938</ele>
    <time>2012-05-22T16:00:19Z</time>
   </trkpt>
   <trkpt lat="46.0866966247559" lon="7.21185255050659">
    <ele>941.099975585938</ele>
    <time>2012-05-22T16:00:20Z</time>
   </trkpt>
   <trkpt lat="46.0866851806641" lon="7.21188592910767">
    <ele>941.599975585938</ele>
    <time>2012-05-22T16:00:21Z</time>
   </trkpt>
   <trkpt lat="46.0866737365723" lon="7.21192121505737">
    <ele>942.099975585938</ele>
    <time>2012-05-22T16:00:22Z</time>
   </trkpt>
   <trkpt lat="46.0866622924805" lon="7.2119574546814">
    <ele>942.599975585938</ele>
    <time>2012-05-22T16:00:23Z</time>
   </trkpt>
   <trkpt lat="46.0866470336914" lon="7.21207332611084">
    <ele>942.599975585938</ele>
    <time>2012-05-22T16:00:26Z</time>
   </trkpt>
   <trkpt lat="46.0866394042969" lon="7.21218299865723">
    <ele>943.628540039062</ele>
    <time>2012-05-22T16:00:29Z</time>
   </trkpt>
   <trkpt lat="46.0866355895996" lon="7.21221923828125">
    <ele>943.971435546875</ele>
    <time>2012-05-22T16:00:30Z</time>
   </trkpt>
   <trkpt lat="46.0866355895996" lon="7.21225357055664">
    <ele>944.314270019531</ele>
    <time>2012-05-22T16:00:31Z</time>
   </trkpt>
   <trkpt lat="46.0866355895996" lon="7.21228694915772">
    <ele>944.657165527344</ele>
    <time>2012-05-22T16:00:32Z</time>
   </trkpt>
   <trkpt lat="46.0866394042969" lon="7.21232032775879">
    <ele>945</ele>
    <time>2012-05-22T16:00:33Z</time>
   </trkpt>
   <trkpt lat="46.0866432189941" lon="7.21243476867676">
    <ele>945</ele>
    <time>2012-05-22T16:00:36Z</time>
   </trkpt>
   <trkpt lat="46.0866279602051" lon="7.21253824234009">
    <ele>945.94287109375</ele>
    <time>2012-05-22T16:00:39Z</time>
   </trkpt>
   <trkpt lat="46.0866203308106" lon="7.2125768661499">
    <ele>946.257141113281</ele>
    <time>2012-05-22T16:00:40Z</time>
   </trkpt>
   <trkpt lat="46.0866165161133" lon="7.21261644363403">
    <ele>946.571411132812</ele>
    <time>2012-05-22T16:00:41Z</time>
   </trkpt>
   <trkpt lat="46.086612701416" lon="7.21265506744385">
    <ele>946.8857421875</ele>
    <time>2012-05-22T16:00:42Z</time>
   </trkpt>
   <trkpt lat="46.0866088867188" lon="7.21269178390503">
    <ele>947.200012207031</ele>
    <time>2012-05-22T16:00:43Z</time>
   </trkpt>
   <trkpt lat="46.0865936279297" lon="7.21280527114868">
    <ele>947.200012207031</ele>
    <time>2012-05-22T16:00:46Z</time>
   </trkpt>
   <trkpt lat="46.0865821838379" lon="7.21287870407104">
    <ele>947.857177734375</ele>
    <time>2012-05-22T16:00:48Z</time>
   </trkpt>
   <trkpt lat="46.0865707397461" lon="7.21291399002075">
    <ele>948.185729980469</ele>
    <time>2012-05-22T16:00:49Z</time>
   </trkpt>
   <trkpt lat="46.0865592956543" lon="7.21294975280762">
    <ele>948.514282226562</ele>
    <time>2012-05-22T16:00:50Z</time>
   </trkpt>
   <trkpt lat="46.0865516662598" lon="7.21298551559448">
    <ele>948.842834472656</ele>
    <time>2012-05-22T16:00:51Z</time>
   </trkpt>
   <trkpt lat="46.0865364074707" lon="7.21302175521851">
    <ele>949.171447753906</ele>
    <time>2012-05-22T16:00:52Z</time>
   </trkpt>
   <trkpt lat="46.0864791870117" lon="7.21314382553101">
    <ele>950.485717773438</ele>
    <time>2012-05-22T16:00:56Z</time>
   </trkpt>
   <trkpt lat="46.0864639282227" lon="7.21317052841186">
    <ele>950.814270019531</ele>
    <time>2012-05-22T16:00:57Z</time>
   </trkpt>
   <trkpt lat="46.0864486694336" lon="7.21319580078125">
    <ele>951.142822265625</ele>
    <time>2012-05-22T16:00:58Z</time>
   </trkpt>
   <trkpt lat="46.0864334106445" lon="7.21321964263916">
    <ele>951.471435546875</ele>
    <time>2012-05-22T16:00:59Z</time>
   </trkpt>
   <trkpt lat="46.0864181518555" lon="7.2132420539856">
    <ele>951.799987792969</ele>
    <time>2012-05-22T16:01:00Z</time>
   </trkpt>
   <trkpt lat="46.0863609313965" lon="7.2133059501648">
    <ele>951.799987792969</ele>
    <time>2012-05-22T16:01:03Z</time>
   </trkpt>
   <trkpt lat="46.0862464904785" lon="7.21344661712646">
    <ele>953.47998046875</ele>
    <time>2012-05-22T16:01:09Z</time>
   </trkpt>
   <trkpt lat="46.0862274169922" lon="7.21346807479858">
    <ele>953.760009765625</ele>
    <time>2012-05-22T16:01:10Z</time>
   </trkpt>
   <trkpt lat="46.0862083435059" lon="7.21348810195923">
    <ele>954.039978027344</ele>
    <time>2012-05-22T16:01:11Z</time>
   </trkpt>
   <trkpt lat="46.0861892700195" lon="7.21350812911987">
    <ele>954.320007324219</ele>
    <time>2012-05-22T16:01:12Z</time>
   </trkpt>
   <trkpt lat="46.0861434936523" lon="7.2135419845581">
    <ele>954.880004882812</ele>
    <time>2012-05-22T16:01:14Z</time>
   </trkpt>
   <trkpt lat="46.086124420166" lon="7.21356010437012">
    <ele>955.159973144531</ele>
    <time>2012-05-22T16:01:15Z</time>
   </trkpt>
   <trkpt lat="46.0861015319824" lon="7.21357822418213">
    <ele>955.440002441406</ele>
    <time>2012-05-22T16:01:16Z</time>
   </trkpt>
   <trkpt lat="46.0860786437988" lon="7.21359777450562">
    <ele>955.719970703125</ele>
    <time>2012-05-22T16:01:17Z</time>
   </trkpt>
   <trkpt lat="46.0860595703125" lon="7.21361494064331">
    <ele>956</ele>
    <time>2012-05-22T16:01:18Z</time>
   </trkpt>
   <trkpt lat="46.0860404968262" lon="7.21363162994385">
    <ele>956</ele>
    <time>2012-05-22T16:01:19Z</time>
   </trkpt>
   <trkpt lat="46.0859870910644" lon="7.21368789672852">
    <ele>956.692321777344</ele>
    <time>2012-05-22T16:01:22Z</time>
   </trkpt>
   <trkpt lat="46.0859680175781" lon="7.21370649337768">
    <ele>956.923095703125</ele>
    <time>2012-05-22T16:01:23Z</time>
   </trkpt>
   <trkpt lat="46.0859489440918" lon="7.2137246131897">
    <ele>957.153869628906</ele>
    <time>2012-05-22T16:01:24Z</time>
   </trkpt>
   <trkpt lat="46.0859298706055" lon="7.21374034881592">
    <ele>957.384643554688</ele>
    <time>2012-05-22T16:01:25Z</time>
   </trkpt>
   <trkpt lat="46.0859069824219" lon="7.21375608444214">
    <ele>957.615356445312</ele>
    <time>2012-05-22T16:01:26Z</time>
   </trkpt>
   <trkpt lat="46.0857849121094" lon="7.21384239196777">
    <ele>959</ele>
    <time>2012-05-22T16:01:32Z</time>
   </trkpt>
   <trkpt lat="46.085765838623" lon="7.21385669708252">
    <ele>959.230773925781</ele>
    <time>2012-05-22T16:01:33Z</time>
   </trkpt>
   <trkpt lat="46.0857467651367" lon="7.21387147903442">
    <ele>959.461547851562</ele>
    <time>2012-05-22T16:01:34Z</time>
   </trkpt>
   <trkpt lat="46.0857276916504" lon="7.21388816833496">
    <ele>959.692321777344</ele>
    <time>2012-05-22T16:01:35Z</time>
   </trkpt>
   <trkpt lat="46.0856170654297" lon="7.21400451660156">
    <ele>961.076904296875</ele>
    <time>2012-05-22T16:01:41Z</time>
   </trkpt>
   <trkpt lat="46.0855979919434" lon="7.21402311325073">
    <ele>961.307678222656</ele>
    <time>2012-05-22T16:01:42Z</time>
   </trkpt>
   <trkpt lat="46.0855827331543" lon="7.21404266357422">
    <ele>961.538452148438</ele>
    <time>2012-05-22T16:01:43Z</time>
   </trkpt>
   <trkpt lat="46.0855674743652" lon="7.21406412124634">
    <ele>961.769226074219</ele>
    <time>2012-05-22T16:01:44Z</time>
   </trkpt>
   <trkpt lat="46.0855484008789" lon="7.21408987045288">
    <ele>962</ele>
    <time>2012-05-22T16:01:45Z</time>
   </trkpt>
   <trkpt lat="46.0854988098144" lon="7.21417808532715">
    <ele>962</ele>
    <time>2012-05-22T16:01:48Z</time>
   </trkpt>
   <trkpt lat="46.0854644775391" lon="7.21423196792602">
    <ele>962.733337402344</ele>
    <time>2012-05-22T16:01:50Z</time>
   </trkpt>
   <trkpt lat="46.08544921875" lon="7.2142596244812">
    <ele>963.099975585938</ele>
    <time>2012-05-22T16:01:51Z</time>
   </trkpt>
   <trkpt lat="46.0854339599609" lon="7.21428775787354">
    <ele>963.466674804688</ele>
    <time>2012-05-22T16:01:52Z</time>
   </trkpt>
   <trkpt lat="46.0854187011719" lon="7.21431541442871">
    <ele>963.833374023438</ele>
    <time>2012-05-22T16:01:53Z</time>
   </trkpt>
   <trkpt lat="46.0854034423828" lon="7.21434450149536">
    <ele>964.200012207031</ele>
    <time>2012-05-22T16:01:54Z</time>
   </trkpt>
   <trkpt lat="46.0853614807129" lon="7.21443748474121">
    <ele>964.200012207031</ele>
    <time>2012-05-22T16:01:57Z</time>
   </trkpt>
   <trkpt lat="46.0852928161621" lon="7.21459674835205">
    <ele>965.311096191406</ele>
    <time>2012-05-22T16:02:02Z</time>
   </trkpt>
   <trkpt lat="46.0852813720703" lon="7.21463012695312">
    <ele>965.533325195312</ele>
    <time>2012-05-22T16:02:03Z</time>
   </trkpt>
   <trkpt lat="46.0852737426758" lon="7.2146635055542">
    <ele>965.755554199219</ele>
    <time>2012-05-22T16:02:04Z</time>
   </trkpt>
   <trkpt lat="46.0852584838867" lon="7.21469736099243">
    <ele>965.977783203125</ele>
    <time>2012-05-22T16:02:05Z</time>
   </trkpt>
   <trkpt lat="46.0852470397949" lon="7.21472883224487">
    <ele>966.200012207031</ele>
    <time>2012-05-22T16:02:06Z</time>
   </trkpt>
   <trkpt lat="46.0851821899414" lon="7.21485185623169">
    <ele>966.200012207031</ele>
    <time>2012-05-22T16:02:10Z</time>
   </trkpt>
   <trkpt lat="46.0851440429688" lon="7.21490478515625">
    <ele>966.86669921875</ele>
    <time>2012-05-22T16:02:12Z</time>
   </trkpt>
   <trkpt lat="46.0851249694824" lon="7.21493339538574">
    <ele>967.200012207031</ele>
    <time>2012-05-22T16:02:13Z</time>
   </trkpt>
   <trkpt lat="46.0851058959961" lon="7.21495723724365">
    <ele>967.533325195312</ele>
    <time>2012-05-22T16:02:14Z</time>
   </trkpt>
   <trkpt lat="46.085090637207" lon="7.21498489379883">
    <ele>967.86669921875</ele>
    <time>2012-05-22T16:02:15Z</time>
   </trkpt>
   <trkpt lat="46.0850715637207" lon="7.21500778198242">
    <ele>968.200012207031</ele>
    <time>2012-05-22T16:02:16Z</time>
   </trkpt>
   <trkpt lat="46.0850296020508" lon="7.21505165100098">
    <ele>968.200012207031</ele>
    <time>2012-05-22T16:02:18Z</time>
   </trkpt>
   <trkpt lat="46.0849113464356" lon="7.21518135070801">
    <ele>969.799987792969</ele>
    <time>2012-05-22T16:02:24Z</time>
   </trkpt>
   <trkpt lat="46.0848960876465" lon="7.21520662307739">
    <ele>970.066650390625</ele>
    <time>2012-05-22T16:02:25Z</time>
   </trkpt>
   <trkpt lat="46.0848846435547" lon="7.21523666381836">
    <ele>970.333312988281</ele>
    <time>2012-05-22T16:02:26Z</time>
   </trkpt>
   <trkpt lat="46.0848731994629" lon="7.21526956558228">
    <ele>970.599975585938</ele>
    <time>2012-05-22T16:02:27Z</time>
   </trkpt>
   <trkpt lat="46.0848808288574" lon="7.21541547775268">
    <ele>970.599975585938</ele>
    <time>2012-05-22T16:02:31Z</time>
   </trkpt>
   <trkpt lat="46.0848960876465" lon="7.21544504165649">
    <ele>971</ele>
    <time>2012-05-22T16:02:32Z</time>
   </trkpt>
   <trkpt lat="46.0849151611328" lon="7.21546840667725">
    <ele>971.399963378906</ele>
    <time>2012-05-22T16:02:33Z</time>
   </trkpt>
   <trkpt lat="46.0849342346191" lon="7.21548748016357">
    <ele>971.799987792969</ele>
    <time>2012-05-22T16:02:34Z</time>
   </trkpt>
   <trkpt lat="46.0849609375" lon="7.21550178527832">
    <ele>972.199951171875</ele>
    <time>2012-05-22T16:02:35Z</time>
   </trkpt>
   <trkpt lat="46.0849838256836" lon="7.21551036834717">
    <ele>972.599975585938</ele>
    <time>2012-05-22T16:02:36Z</time>
   </trkpt>
   <trkpt lat="46.0851173400879" lon="7.21547651290894">
    <ele>972.599975585938</ele>
    <time>2012-05-22T16:02:41Z</time>
   </trkpt>
   <trkpt lat="46.0852279663086" lon="7.21535491943359">
    <ele>973.514282226562</ele>
    <time>2012-05-22T16:02:46Z</time>
   </trkpt>
   <trkpt lat="46.0853996276856" lon="7.215163230896">
    <ele>974.977111816406</ele>
    <time>2012-05-22T16:02:54Z</time>
   </trkpt>
   <trkpt lat="46.0854225158691" lon="7.21513986587524">
    <ele>975.159973144531</ele>
    <time>2012-05-22T16:02:55Z</time>
   </trkpt>
   <trkpt lat="46.0854454040527" lon="7.21511697769165">
    <ele>975.342834472656</ele>
    <time>2012-05-22T16:02:56Z</time>
   </trkpt>
   <trkpt lat="46.0854644775391" lon="7.21509647369385">
    <ele>975.525695800781</ele>
    <time>2012-05-22T16:02:57Z</time>
   </trkpt>
   <trkpt lat="46.0854873657227" lon="7.21507740020752">
    <ele>975.708557128906</ele>
    <time>2012-05-22T16:02:58Z</time>
   </trkpt>
   <trkpt lat="46.0855979919434" lon="7.21498584747314">
    <ele>976.622863769531</ele>
    <time>2012-05-22T16:03:03Z</time>
   </trkpt>
   <trkpt lat="46.085620880127" lon="7.21497058868408">
    <ele>976.805725097656</ele>
    <time>2012-05-22T16:03:04Z</time>
   </trkpt>
   <trkpt lat="46.0856475830078" lon="7.21495580673218">
    <ele>976.988586425781</ele>
    <time>2012-05-22T16:03:05Z</time>
   </trkpt>
   <trkpt lat="46.0856704711914" lon="7.21494102478027">
    <ele>977.171447753906</ele>
    <time>2012-05-22T16:03:06Z</time>
   </trkpt>
   <trkpt lat="46.085693359375" lon="7.21492385864258">
    <ele>977.354309082031</ele>
    <time>2012-05-22T16:03:07Z</time>
   </trkpt>
   <trkpt lat="46.0858154296875" lon="7.21481609344482">
    <ele>978.451416015625</ele>
    <time>2012-05-22T16:03:13Z</time>
   </trkpt>
   <trkpt lat="46.0858383178711" lon="7.21480131149292">
    <ele>978.63427734375</ele>
    <time>2012-05-22T16:03:14Z</time>
   </trkpt>
   <trkpt lat="46.0858612060547" lon="7.21478652954102">
    <ele>978.817138671875</ele>
    <time>2012-05-22T16:03:15Z</time>
   </trkpt>
   <trkpt lat="46.085880279541" lon="7.2147707939148">
    <ele>979</ele>
    <time>2012-05-22T16:03:16Z</time>
   </trkpt>
   <trkpt lat="46.0859260559082" lon="7.21474742889404">
    <ele>979</ele>
    <time>2012-05-22T16:03:18Z</time>
   </trkpt>
   <trkpt lat="46.0859489440918" lon="7.21473121643066">
    <ele>979.440002441406</ele>
    <time>2012-05-22T16:03:19Z</time>
   </trkpt>
   <trkpt lat="46.0859680175781" lon="7.21471405029297">
    <ele>979.880004882812</ele>
    <time>2012-05-22T16:03:20Z</time>
   </trkpt>
   <trkpt lat="46.0859870910644" lon="7.21469783782959">
    <ele>980.320007324219</ele>
    <time>2012-05-22T16:03:21Z</time>
   </trkpt>
   <trkpt lat="46.086009979248" lon="7.21468210220337">
    <ele>980.760009765625</ele>
    <time>2012-05-22T16:03:22Z</time>
   </trkpt>
   <trkpt lat="46.0860328674316" lon="7.21466827392578">
    <ele>981.200012207031</ele>
    <time>2012-05-22T16:03:23Z</time>
   </trkpt>
   <trkpt lat="46.0861740112305" lon="7.21461296081543">
    <ele>981.200012207031</ele>
    <time>2012-05-22T16:03:29Z</time>
   </trkpt>
   <trkpt lat="46.0861968994141" lon="7.21460390090942">
    <ele>981.640014648438</ele>
    <time>2012-05-22T16:03:30Z</time>
   </trkpt>
   <trkpt lat="46.0862197875977" lon="7.21459197998047">
    <ele>982.080017089844</ele>
    <time>2012-05-22T16:03:31Z</time>
   </trkpt>
   <trkpt lat="46.0862426757812" lon="7.2145824432373">
    <ele>982.52001953125</ele>
    <time>2012-05-22T16:03:32Z</time>
   </trkpt>
   <trkpt lat="46.0862655639648" lon="7.21457386016846">
    <ele>982.960021972656</ele>
    <time>2012-05-22T16:03:33Z</time>
   </trkpt>
   <trkpt lat="46.0862884521484" lon="7.21456527709961">
    <ele>983.400024414062</ele>
    <time>2012-05-22T16:03:34Z</time>
   </trkpt>
   <trkpt lat="46.0863571166992" lon="7.21455526351929">
    <ele>983.400024414062</ele>
    <time>2012-05-22T16:03:37Z</time>
   </trkpt>
   <trkpt lat="46.0864334106445" lon="7.21457242965698">
    <ele>984.262512207031</ele>
    <time>2012-05-22T16:03:40Z</time>
   </trkpt>
   <trkpt lat="46.0864562988281" lon="7.2145791053772">
    <ele>984.550048828125</ele>
    <time>2012-05-22T16:03:41Z</time>
   </trkpt>
   <trkpt lat="46.0864791870117" lon="7.21458435058594">
    <ele>984.837524414062</ele>
    <time>2012-05-22T16:03:42Z</time>
   </trkpt>
   <trkpt lat="46.0865020751953" lon="7.21458959579468">
    <ele>985.125</ele>
    <time>2012-05-22T16:03:43Z</time>
   </trkpt>
   <trkpt lat="46.0865211486816" lon="7.21459484100342">
    <ele>985.412536621094</ele>
    <time>2012-05-22T16:03:44Z</time>
   </trkpt>
   <trkpt lat="46.0866355895996" lon="7.21464681625366">
    <ele>986.849975585938</ele>
    <time>2012-05-22T16:03:49Z</time>
   </trkpt>
   <trkpt lat="46.0866622924805" lon="7.21465969085693">
    <ele>987.137512207031</ele>
    <time>2012-05-22T16:03:50Z</time>
   </trkpt>
   <trkpt lat="46.0866851806641" lon="7.21467304229736">
    <ele>987.424987792969</ele>
    <time>2012-05-22T16:03:51Z</time>
   </trkpt>
   <trkpt lat="46.0867080688477" lon="7.21468639373779">
    <ele>987.712524414062</ele>
    <time>2012-05-22T16:03:52Z</time>
   </trkpt>
   <trkpt lat="46.0867347717285" lon="7.21469831466675">
    <ele>988</ele>
    <time>2012-05-22T16:03:53Z</time>
   </trkpt>
   <trkpt lat="46.0868186950684" lon="7.21473932266235">
    <ele>988</ele>
    <time>2012-05-22T16:03:57Z</time>
   </trkpt>
   <trkpt lat="46.0868606567383" lon="7.21475791931152">
    <ele>988.666687011719</ele>
    <time>2012-05-22T16:03:59Z</time>
   </trkpt>
   <trkpt lat="46.0868873596191" lon="7.21476745605469">
    <ele>989</ele>
    <time>2012-05-22T16:04:00Z</time>
   </trkpt>
   <trkpt lat="46.0869102478027" lon="7.21477603912354">
    <ele>989.333312988281</ele>
    <time>2012-05-22T16:04:01Z</time>
   </trkpt>
   <trkpt lat="46.0869369506836" lon="7.21478080749512">
    <ele>989.666687011719</ele>
    <time>2012-05-22T16:04:02Z</time>
   </trkpt>
   <trkpt lat="46.0869598388672" lon="7.21478939056396">
    <ele>990</ele>
    <time>2012-05-22T16:04:03Z</time>
   </trkpt>
   <trkpt lat="46.0869827270508" lon="7.2147946357727">
    <ele>990</ele>
    <time>2012-05-22T16:04:04Z</time>
   </trkpt>
   <trkpt lat="46.0871086120606" lon="7.21477842330933">
    <ele>991.650024414062</ele>
    <time>2012-05-22T16:04:10Z</time>
   </trkpt>
   <trkpt lat="46.0871353149414" lon="7.21477222442627">
    <ele>991.924987792969</ele>
    <time>2012-05-22T16:04:11Z</time>
   </trkpt>
   <trkpt lat="46.087158203125" lon="7.21476364135742">
    <ele>992.200012207031</ele>
    <time>2012-05-22T16:04:12Z</time>
   </trkpt>
   <trkpt lat="46.0871849060059" lon="7.21475410461426">
    <ele>992.474975585938</ele>
    <time>2012-05-22T16:04:13Z</time>
   </trkpt>
   <trkpt lat="46.0872077941894" lon="7.21474361419678">
    <ele>992.75</ele>
    <time>2012-05-22T16:04:14Z</time>
   </trkpt>
   <trkpt lat="46.0872535705566" lon="7.21471309661865">
    <ele>993.299987792969</ele>
    <time>2012-05-22T16:04:16Z</time>
   </trkpt>
   <trkpt lat="46.0872764587402" lon="7.21469211578369">
    <ele>993.575012207031</ele>
    <time>2012-05-22T16:04:17Z</time>
   </trkpt>
   <trkpt lat="46.0872955322266" lon="7.21466970443726">
    <ele>993.849975585938</ele>
    <time>2012-05-22T16:04:18Z</time>
   </trkpt>
   <trkpt lat="46.0873146057129" lon="7.21464824676514">
    <ele>994.125</ele>
    <time>2012-05-22T16:04:19Z</time>
   </trkpt>
   <trkpt lat="46.0873336791992" lon="7.21462345123291">
    <ele>994.399963378906</ele>
    <time>2012-05-22T16:04:20Z</time>
   </trkpt>
   <trkpt lat="46.0873985290527" lon="7.2145209312439">
    <ele>995.5</ele>
    <time>2012-05-22T16:04:24Z</time>
   </trkpt>
   <trkpt lat="46.0874137878418" lon="7.21449041366577">
    <ele>995.774963378906</ele>
    <time>2012-05-22T16:04:25Z</time>
   </trkpt>
   <trkpt lat="46.0874290466309" lon="7.21446228027344">
    <ele>996.049987792969</ele>
    <time>2012-05-22T16:04:26Z</time>
   </trkpt>
   <trkpt lat="46.0874404907227" lon="7.21443462371826">
    <ele>996.324951171875</ele>
    <time>2012-05-22T16:04:27Z</time>
   </trkpt>
   <trkpt lat="46.0874519348144" lon="7.21440601348877">
    <ele>996.599975585938</ele>
    <time>2012-05-22T16:04:28Z</time>
   </trkpt>
   <trkpt lat="46.0874977111816" lon="7.21427726745606">
    <ele>996.599975585938</ele>
    <time>2012-05-22T16:04:32Z</time>
   </trkpt>
   <trkpt lat="46.0875244140625" lon="7.21418380737305">
    <ele>997.375</ele>
    <time>2012-05-22T16:04:35Z</time>
   </trkpt>
   <trkpt lat="46.0875358581543" lon="7.2141547203064">
    <ele>997.63330078125</ele>
    <time>2012-05-22T16:04:36Z</time>
   </trkpt>
   <trkpt lat="46.0875473022461" lon="7.21412563323975">
    <ele>997.891662597656</ele>
    <time>2012-05-22T16:04:37Z</time>
   </trkpt>
   <trkpt lat="46.0875549316406" lon="7.2140941619873">
    <ele>998.149963378906</ele>
    <time>2012-05-22T16:04:38Z</time>
   </trkpt>
   <trkpt lat="46.0875625610352" lon="7.21405982971191">
    <ele>998.408325195312</ele>
    <time>2012-05-22T16:04:39Z</time>
   </trkpt>
   <trkpt lat="46.0876235961914" lon="7.21386623382568">
    <ele>999.958312988281</ele>
    <time>2012-05-22T16:04:45Z</time>
   </trkpt>
   <trkpt lat="46.0876350402832" lon="7.21383714675903">
    <ele>1000.21667480469</ele>
    <time>2012-05-22T16:04:46Z</time>
   </trkpt>
   <trkpt lat="46.087646484375" lon="7.21380615234375">
    <ele>1000.47497558594</ele>
    <time>2012-05-22T16:04:47Z</time>
   </trkpt>
   <trkpt lat="46.0876617431641" lon="7.21377658843994">
    <ele>1000.73333740234</ele>
    <time>2012-05-22T16:04:48Z</time>
   </trkpt>
   <trkpt lat="46.0876770019531" lon="7.21374893188476">
    <ele>1000.99163818359</ele>
    <time>2012-05-22T16:04:49Z</time>
   </trkpt>
   <trkpt lat="46.0877418518066" lon="7.21365070343018">
    <ele>1002.02496337891</ele>
    <time>2012-05-22T16:04:53Z</time>
   </trkpt>
   <trkpt lat="46.0877571105957" lon="7.21362686157226">
    <ele>1002.28332519531</ele>
    <time>2012-05-22T16:04:54Z</time>
   </trkpt>
   <trkpt lat="46.087776184082" lon="7.21360492706299">
    <ele>1002.54162597656</ele>
    <time>2012-05-22T16:04:55Z</time>
   </trkpt>
   <trkpt lat="46.0877952575684" lon="7.21358489990234">
    <ele>1002.79998779297</ele>
    <time>2012-05-22T16:04:56Z</time>
   </trkpt>
   <trkpt lat="46.0878944396973" lon="7.21348428726196">
    <ele>1002.79998779297</ele>
    <time>2012-05-22T16:05:01Z</time>
   </trkpt>
   <trkpt lat="46.0879135131836" lon="7.21346616744995">
    <ele>1003.20001220703</ele>
    <time>2012-05-22T16:05:02Z</time>
   </trkpt>
   <trkpt lat="46.0879325866699" lon="7.21344614028931">
    <ele>1003.59997558594</ele>
    <time>2012-05-22T16:05:03Z</time>
   </trkpt>
   <trkpt lat="46.0879516601562" lon="7.21342658996582">
    <ele>1004</ele>
    <time>2012-05-22T16:05:04Z</time>
   </trkpt>
   <trkpt lat="46.0879707336426" lon="7.21340560913086">
    <ele>1004.39996337891</ele>
    <time>2012-05-22T16:05:05Z</time>
   </trkpt>
   <trkpt lat="46.0879898071289" lon="7.21338415145874">
    <ele>1004.79998779297</ele>
    <time>2012-05-22T16:05:06Z</time>
   </trkpt>
   <trkpt lat="46.0880279541016" lon="7.21334075927734">
    <ele>1004.79998779297</ele>
    <time>2012-05-22T16:05:08Z</time>
   </trkpt>
   <trkpt lat="46.0880584716797" lon="7.21328973770142">
    <ele>1005.53332519531</ele>
    <time>2012-05-22T16:05:10Z</time>
   </trkpt>
   <trkpt lat="46.0880737304688" lon="7.21326065063476">
    <ele>1005.90002441406</ele>
    <time>2012-05-22T16:05:11Z</time>
   </trkpt>
   <trkpt lat="46.0880851745606" lon="7.21323013305664">
    <ele>1006.26666259766</ele>
    <time>2012-05-22T16:05:12Z</time>
   </trkpt>
   <trkpt lat="46.0880966186523" lon="7.21319913864136">
    <ele>1006.63330078125</ele>
    <time>2012-05-22T16:05:13Z</time>
   </trkpt>
   <trkpt lat="46.0881080627441" lon="7.21316719055176">
    <ele>1007</ele>
    <time>2012-05-22T16:05:14Z</time>
   </trkpt>
   <trkpt lat="46.0881385803223" lon="7.21306419372559">
    <ele>1007</ele>
    <time>2012-05-22T16:05:17Z</time>
   </trkpt>
   <trkpt lat="46.0881500244141" lon="7.21295166015625">
    <ele>1007.85711669922</ele>
    <time>2012-05-22T16:05:20Z</time>
   </trkpt>
   <trkpt lat="46.0881538391113" lon="7.21291303634644">
    <ele>1008.14288330078</ele>
    <time>2012-05-22T16:05:21Z</time>
   </trkpt>
   <trkpt lat="46.0881538391113" lon="7.21287155151367">
    <ele>1008.42858886719</ele>
    <time>2012-05-22T16:05:22Z</time>
   </trkpt>
   <trkpt lat="46.0881538391113" lon="7.21283102035522">
    <ele>1008.71429443359</ele>
    <time>2012-05-22T16:05:23Z</time>
   </trkpt>
   <trkpt lat="46.0881500244141" lon="7.2127947807312">
    <ele>1009</ele>
    <time>2012-05-22T16:05:24Z</time>
   </trkpt>
   <trkpt lat="46.0881767272949" lon="7.21254062652588">
    <ele>1009</ele>
    <time>2012-05-22T16:05:31Z</time>
   </trkpt>
   <trkpt lat="46.088207244873" lon="7.21249437332153">
    <ele>1009.73333740234</ele>
    <time>2012-05-22T16:05:33Z</time>
   </trkpt>
   <trkpt lat="46.0882301330566" lon="7.212486743927">
    <ele>1010.09997558594</ele>
    <time>2012-05-22T16:05:34Z</time>
   </trkpt>
   <trkpt lat="46.0882530212402" lon="7.21248579025268">
    <ele>1010.46667480469</ele>
    <time>2012-05-22T16:05:35Z</time>
   </trkpt>
   <trkpt lat="46.0882759094238" lon="7.21249341964722">
    <ele>1010.83337402344</ele>
    <time>2012-05-22T16:05:36Z</time>
   </trkpt>
   <trkpt lat="46.0882911682129" lon="7.21251201629639">
    <ele>1011.20001220703</ele>
    <time>2012-05-22T16:05:37Z</time>
   </trkpt>
   <trkpt lat="46.0883178710938" lon="7.21256971359253">
    <ele>1011.20001220703</ele>
    <time>2012-05-22T16:05:39Z</time>
   </trkpt>
   <trkpt lat="46.0883293151856" lon="7.21263694763184">
    <ele>1012</ele>
    <time>2012-05-22T16:05:41Z</time>
   </trkpt>
   <trkpt lat="46.088321685791" lon="7.2126727104187">
    <ele>1012.40002441406</ele>
    <time>2012-05-22T16:05:42Z</time>
   </trkpt>
   <trkpt lat="46.0883140563965" lon="7.21270751953125">
    <ele>1012.79998779297</ele>
    <time>2012-05-22T16:05:43Z</time>
   </trkpt>
   <trkpt lat="46.088306427002" lon="7.21274280548096">
    <ele>1013.20001220703</ele>
    <time>2012-05-22T16:05:44Z</time>
   </trkpt>
   <trkpt lat="46.0882949829102" lon="7.21281147003174">
    <ele>1013.20001220703</ele>
    <time>2012-05-22T16:05:46Z</time>
   </trkpt>
   <trkpt lat="46.088264465332" lon="7.2129373550415">
    <ele>1014.30004882812</ele>
    <time>2012-05-22T16:05:50Z</time>
   </trkpt>
   <trkpt lat="46.0882568359375" lon="7.21296644210815">
    <ele>1014.57501220703</ele>
    <time>2012-05-22T16:05:51Z</time>
   </trkpt>
   <trkpt lat="46.088249206543" lon="7.21299934387207">
    <ele>1014.85003662109</ele>
    <time>2012-05-22T16:05:52Z</time>
   </trkpt>
   <trkpt lat="46.0882377624512" lon="7.2130331993103">
    <ele>1015.125</ele>
    <time>2012-05-22T16:05:53Z</time>
   </trkpt>
   <trkpt lat="46.0882301330566" lon="7.21306562423706">
    <ele>1015.40002441406</ele>
    <time>2012-05-22T16:05:54Z</time>
   </trkpt>
   <trkpt lat="46.088191986084" lon="7.21319770812988">
    <ele>1015.40002441406</ele>
    <time>2012-05-22T16:05:58Z</time>
   </trkpt>
   <trkpt lat="46.0881767272949" lon="7.21325731277466">
    <ele>1016.13336181641</ele>
    <time>2012-05-22T16:06:00Z</time>
   </trkpt>
   <trkpt lat="46.0881690979004" lon="7.21328830718994">
    <ele>1016.5</ele>
    <time>2012-05-22T16:06:01Z</time>
   </trkpt>
   <trkpt lat="46.0881614685059" lon="7.21332263946533">
    <ele>1016.86663818359</ele>
    <time>2012-05-22T16:06:02Z</time>
   </trkpt>
   <trkpt lat="46.0881538391113" lon="7.21335506439209">
    <ele>1017.23333740234</ele>
    <time>2012-05-22T16:06:03Z</time>
   </trkpt>
   <trkpt lat="46.0881462097168" lon="7.21338796615601">
    <ele>1017.59997558594</ele>
    <time>2012-05-22T16:06:04Z</time>
   </trkpt>
   <trkpt lat="46.0881271362305" lon="7.21345663070679">
    <ele>1017.59997558594</ele>
    <time>2012-05-22T16:06:06Z</time>
   </trkpt>
   <trkpt lat="46.0880737304688" lon="7.21364641189575">
    <ele>1018.92413330078</ele>
    <time>2012-05-22T16:06:12Z</time>
   </trkpt>
   <trkpt lat="46.0880661010742" lon="7.21368074417114">
    <ele>1019.14483642578</ele>
    <time>2012-05-22T16:06:13Z</time>
   </trkpt>
   <trkpt lat="46.0880584716797" lon="7.21371269226074">
    <ele>1019.36547851562</ele>
    <time>2012-05-22T16:06:14Z</time>
   </trkpt>
   <trkpt lat="46.0880470275879" lon="7.21374368667602">
    <ele>1019.58618164062</ele>
    <time>2012-05-22T16:06:15Z</time>
   </trkpt>
   <trkpt lat="46.0880393981934" lon="7.2137770652771">
    <ele>1019.80688476562</ele>
    <time>2012-05-22T16:06:16Z</time>
   </trkpt>
   <trkpt lat="46.0880088806152" lon="7.21394205093384">
    <ele>1020.91033935547</ele>
    <time>2012-05-22T16:06:21Z</time>
   </trkpt>
   <trkpt lat="46.0880012512207" lon="7.2139720916748">
    <ele>1021.13104248047</ele>
    <time>2012-05-22T16:06:22Z</time>
   </trkpt>
   <trkpt lat="46.0879974365234" lon="7.21400451660156">
    <ele>1021.35168457031</ele>
    <time>2012-05-22T16:06:23Z</time>
   </trkpt>
   <trkpt lat="46.0879898071289" lon="7.21403551101685">
    <ele>1021.57238769531</ele>
    <time>2012-05-22T16:06:24Z</time>
   </trkpt>
   <trkpt lat="46.0879821777344" lon="7.21406841278076">
    <ele>1021.79309082031</ele>
    <time>2012-05-22T16:06:25Z</time>
   </trkpt>
   <trkpt lat="46.087947845459" lon="7.21426773071289">
    <ele>1023.11724853516</ele>
    <time>2012-05-22T16:06:31Z</time>
   </trkpt>
   <trkpt lat="46.0879440307617" lon="7.21429872512817">
    <ele>1023.33795166016</ele>
    <time>2012-05-22T16:06:32Z</time>
   </trkpt>
   <trkpt lat="46.0879364013672" lon="7.2143292427063">
    <ele>1023.55859375</ele>
    <time>2012-05-22T16:06:33Z</time>
   </trkpt>
   <trkpt lat="46.0879325866699" lon="7.21436166763306">
    <ele>1023.779296875</ele>
    <time>2012-05-22T16:06:34Z</time>
   </trkpt>
   <trkpt lat="46.0879287719727" lon="7.2143964767456">
    <ele>1024</ele>
    <time>2012-05-22T16:06:35Z</time>
   </trkpt>
   <trkpt lat="46.0879058837891" lon="7.21453762054443">
    <ele>1024</ele>
    <time>2012-05-22T16:06:39Z</time>
   </trkpt>
   <trkpt lat="46.087890625" lon="7.21463823318482">
    <ele>1024.85717773438</ele>
    <time>2012-05-22T16:06:42Z</time>
   </trkpt>
   <trkpt lat="46.0878868103027" lon="7.21467304229736">
    <ele>1025.14282226562</ele>
    <time>2012-05-22T16:06:43Z</time>
   </trkpt>
   <trkpt lat="46.0878829956055" lon="7.21470832824707">
    <ele>1025.42858886719</ele>
    <time>2012-05-22T16:06:44Z</time>
   </trkpt>
   <trkpt lat="46.0878753662109" lon="7.2147421836853">
    <ele>1025.71423339844</ele>
    <time>2012-05-22T16:06:45Z</time>
   </trkpt>
   <trkpt lat="46.0878715515137" lon="7.21477746963501">
    <ele>1026</ele>
    <time>2012-05-22T16:06:46Z</time>
   </trkpt>
   <trkpt lat="46.0878677368164" lon="7.21481132507324">
    <ele>1026</ele>
    <time>2012-05-22T16:06:47Z</time>
   </trkpt>
   <trkpt lat="46.087833404541" lon="7.21502065658569">
    <ele>1027.33337402344</ele>
    <time>2012-05-22T16:06:53Z</time>
   </trkpt>
   <trkpt lat="46.0878295898438" lon="7.2150559425354">
    <ele>1027.55554199219</ele>
    <time>2012-05-22T16:06:54Z</time>
   </trkpt>
   <trkpt lat="46.0878219604492" lon="7.21509075164795">
    <ele>1027.77783203125</ele>
    <time>2012-05-22T16:06:55Z</time>
   </trkpt>
   <trkpt lat="46.0878143310547" lon="7.21512460708618">
    <ele>1028</ele>
    <time>2012-05-22T16:06:56Z</time>
   </trkpt>
   <trkpt lat="46.0878028869629" lon="7.21515798568726">
    <ele>1028</ele>
    <time>2012-05-22T16:06:57Z</time>
   </trkpt>
   <trkpt lat="46.0877647399902" lon="7.21532011032104">
    <ele>1029.19995117188</ele>
    <time>2012-05-22T16:07:02Z</time>
   </trkpt>
   <trkpt lat="46.0877532958984" lon="7.21535015106201">
    <ele>1029.44006347656</ele>
    <time>2012-05-22T16:07:03Z</time>
   </trkpt>
   <trkpt lat="46.0877418518066" lon="7.21537780761719">
    <ele>1029.68005371094</ele>
    <time>2012-05-22T16:07:04Z</time>
   </trkpt>
   <trkpt lat="46.0877265930176" lon="7.21540546417236">
    <ele>1029.92004394531</ele>
    <time>2012-05-22T16:07:05Z</time>
   </trkpt>
   <trkpt lat="46.0877113342285" lon="7.21543502807617">
    <ele>1030.16003417969</ele>
    <time>2012-05-22T16:07:06Z</time>
   </trkpt>
   <trkpt lat="46.0876426696777" lon="7.21556615829468">
    <ele>1031.35998535156</ele>
    <time>2012-05-22T16:07:11Z</time>
   </trkpt>
   <trkpt lat="46.0876274108887" lon="7.21559047698975">
    <ele>1031.59997558594</ele>
    <time>2012-05-22T16:07:12Z</time>
   </trkpt>
   <trkpt lat="46.0876121520996" lon="7.21561193466186">
    <ele>1031.83996582031</ele>
    <time>2012-05-22T16:07:13Z</time>
   </trkpt>
   <trkpt lat="46.0875930786133" lon="7.21563673019409">
    <ele>1032.07995605469</ele>
    <time>2012-05-22T16:07:14Z</time>
   </trkpt>
   <trkpt lat="46.0875778198242" lon="7.215660572052">
    <ele>1032.32006835938</ele>
    <time>2012-05-22T16:07:15Z</time>
   </trkpt>
   <trkpt lat="46.0875015258789" lon="7.21574354171753">
    <ele>1033.28002929688</ele>
    <time>2012-05-22T16:07:19Z</time>
   </trkpt>
   <trkpt lat="46.0874786376953" lon="7.21576118469238">
    <ele>1033.52001953125</ele>
    <time>2012-05-22T16:07:20Z</time>
   </trkpt>
   <trkpt lat="46.087459564209" lon="7.2157826423645">
    <ele>1033.76000976562</ele>
    <time>2012-05-22T16:07:21Z</time>
   </trkpt>
   <trkpt lat="46.0874404907227" lon="7.21580648422241">
    <ele>1034</ele>
    <time>2012-05-22T16:07:22Z</time>
   </trkpt>
   <trkpt lat="46.0873374938965" lon="7.21597528457642">
    <ele>1035.44006347656</ele>
    <time>2012-05-22T16:07:28Z</time>
   </trkpt>
   <trkpt lat="46.0873222351074" lon="7.21600198745728">
    <ele>1035.68005371094</ele>
    <time>2012-05-22T16:07:29Z</time>
   </trkpt>
   <trkpt lat="46.0873031616211" lon="7.21602964401245">
    <ele>1035.92004394531</ele>
    <time>2012-05-22T16:07:30Z</time>
   </trkpt>
   <trkpt lat="46.087287902832" lon="7.21605825424194">
    <ele>1036.16003417969</ele>
    <time>2012-05-22T16:07:31Z</time>
   </trkpt>
   <trkpt lat="46.087272644043" lon="7.21608829498291">
    <ele>1036.40002441406</ele>
    <time>2012-05-22T16:07:32Z</time>
   </trkpt>
   <trkpt lat="46.0871925354004" lon="7.21618604660034">
    <ele>1036.40002441406</ele>
    <time>2012-05-22T16:07:36Z</time>
   </trkpt>
   <trkpt lat="46.0871315002441" lon="7.21624851226807">
    <ele>1037.1875</ele>
    <time>2012-05-22T16:07:39Z</time>
   </trkpt>
   <trkpt lat="46.0871086120606" lon="7.21626806259155">
    <ele>1037.44995117188</ele>
    <time>2012-05-22T16:07:40Z</time>
   </trkpt>
   <trkpt lat="46.087085723877" lon="7.21628427505493">
    <ele>1037.71252441406</ele>
    <time>2012-05-22T16:07:41Z</time>
   </trkpt>
   <trkpt lat="46.0870628356934" lon="7.21629810333252">
    <ele>1037.97497558594</ele>
    <time>2012-05-22T16:07:42Z</time>
   </trkpt>
   <trkpt lat="46.0870361328125" lon="7.21631145477295">
    <ele>1038.23754882812</ele>
    <time>2012-05-22T16:07:43Z</time>
   </trkpt>
   <trkpt lat="46.0869255065918" lon="7.21637296676636">
    <ele>1039.55004882812</ele>
    <time>2012-05-22T16:07:48Z</time>
   </trkpt>
   <trkpt lat="46.0869026184082" lon="7.21638488769531">
    <ele>1039.8125</ele>
    <time>2012-05-22T16:07:49Z</time>
   </trkpt>
   <trkpt lat="46.0868797302246" lon="7.21639585494995">
    <ele>1040.07495117188</ele>
    <time>2012-05-22T16:07:50Z</time>
   </trkpt>
   <trkpt lat="46.086856842041" lon="7.2164044380188">
    <ele>1040.33752441406</ele>
    <time>2012-05-22T16:07:51Z</time>
   </trkpt>
   <trkpt lat="46.0868301391602" lon="7.21641302108765">
    <ele>1040.59997558594</ele>
    <time>2012-05-22T16:07:52Z</time>
   </trkpt>
   <trkpt lat="46.086669921875" lon="7.216468334198">
    <ele>1040.59997558594</ele>
    <time>2012-05-22T16:07:58Z</time>
   </trkpt>
   <trkpt lat="46.0866432189941" lon="7.21648073196411">
    <ele>1041.0400390625</ele>
    <time>2012-05-22T16:07:59Z</time>
   </trkpt>
   <trkpt lat="46.0866203308106" lon="7.21649312973022">
    <ele>1041.47998046875</ele>
    <time>2012-05-22T16:08:00Z</time>
   </trkpt>
   <trkpt lat="46.086597442627" lon="7.21650457382202">
    <ele>1041.92004394531</ele>
    <time>2012-05-22T16:08:01Z</time>
   </trkpt>
   <trkpt lat="46.0865669250488" lon="7.21651697158814">
    <ele>1042.35998535156</ele>
    <time>2012-05-22T16:08:02Z</time>
   </trkpt>
   <trkpt lat="46.0865440368652" lon="7.21652746200562">
    <ele>1042.80004882812</ele>
    <time>2012-05-22T16:08:03Z</time>
   </trkpt>
   <trkpt lat="46.0864944458008" lon="7.2165470123291">
    <ele>1042.80004882812</ele>
    <time>2012-05-22T16:08:05Z</time>
   </trkpt>
   <trkpt lat="46.0863952636719" lon="7.21660423278809">
    <ele>1043.94287109375</ele>
    <time>2012-05-22T16:08:09Z</time>
   </trkpt>
   <trkpt lat="46.0863761901856" lon="7.21662950515747">
    <ele>1044.22863769531</ele>
    <time>2012-05-22T16:08:10Z</time>
   </trkpt>
   <trkpt lat="46.0863571166992" lon="7.2166576385498">
    <ele>1044.51428222656</ele>
    <time>2012-05-22T16:08:11Z</time>
   </trkpt>
   <trkpt lat="46.0863418579102" lon="7.2166895866394">
    <ele>1044.80004882812</ele>
    <time>2012-05-22T16:08:12Z</time>
   </trkpt>
   <trkpt lat="46.0863304138184" lon="7.21690130233765">
    <ele>1044.80004882812</ele>
    <time>2012-05-22T16:08:17Z</time>
   </trkpt>
   <trkpt lat="46.0864219665527" lon="7.21699953079224">
    <ele>1045.6572265625</ele>
    <time>2012-05-22T16:08:23Z</time>
   </trkpt>
   <trkpt lat="46.0865325927734" lon="7.2169680595398">
    <ele>1046.22863769531</ele>
    <time>2012-05-22T16:08:27Z</time>
   </trkpt>
   <trkpt lat="46.0865631103516" lon="7.21694612503052">
    <ele>1046.37145996094</ele>
    <time>2012-05-22T16:08:28Z</time>
   </trkpt>
   <trkpt lat="46.0865898132324" lon="7.21692657470703">
    <ele>1046.51428222656</ele>
    <time>2012-05-22T16:08:29Z</time>
   </trkpt>
   <trkpt lat="46.0866203308106" lon="7.21690511703491">
    <ele>1046.6572265625</ele>
    <time>2012-05-22T16:08:30Z</time>
   </trkpt>
   <trkpt lat="46.0866470336914" lon="7.21688604354858">
    <ele>1046.80004882812</ele>
    <time>2012-05-22T16:08:31Z</time>
   </trkpt>
   <trkpt lat="46.0867805480957" lon="7.21681308746338">
    <ele>1046.80004882812</ele>
    <time>2012-05-22T16:08:36Z</time>
   </trkpt>
   <trkpt lat="46.0868644714356" lon="7.21678733825684">
    <ele>1047.76928710938</ele>
    <time>2012-05-22T16:08:39Z</time>
   </trkpt>
   <trkpt lat="46.0868911743164" lon="7.21678400039673">
    <ele>1048.09228515625</ele>
    <time>2012-05-22T16:08:40Z</time>
   </trkpt>
   <trkpt lat="46.0869178771973" lon="7.21678256988525">
    <ele>1048.41540527344</ele>
    <time>2012-05-22T16:08:41Z</time>
   </trkpt>
   <trkpt lat="46.0869445800781" lon="7.21678352355957">
    <ele>1048.73852539062</ele>
    <time>2012-05-22T16:08:42Z</time>
   </trkpt>
   <trkpt lat="46.086971282959" lon="7.21678352355957">
    <ele>1049.0615234375</ele>
    <time>2012-05-22T16:08:43Z</time>
   </trkpt>
   <trkpt lat="46.0870208740234" lon="7.21677827835083">
    <ele>1049.70776367188</ele>
    <time>2012-05-22T16:08:45Z</time>
   </trkpt>
   <trkpt lat="46.0870475769043" lon="7.21677827835083">
    <ele>1050.03076171875</ele>
    <time>2012-05-22T16:08:46Z</time>
   </trkpt>
   <trkpt lat="46.0870780944824" lon="7.21678256988525">
    <ele>1050.35388183594</ele>
    <time>2012-05-22T16:08:47Z</time>
   </trkpt>
   <trkpt lat="46.0871047973633" lon="7.21678781509399">
    <ele>1050.67687988281</ele>
    <time>2012-05-22T16:08:48Z</time>
   </trkpt>
   <trkpt lat="46.0871315002441" lon="7.21679306030274">
    <ele>1051</ele>
    <time>2012-05-22T16:08:49Z</time>
   </trkpt>
   <trkpt lat="46.0872116088867" lon="7.21679782867432">
    <ele>1051</ele>
    <time>2012-05-22T16:08:52Z</time>
   </trkpt>
   <trkpt lat="46.0872383117676" lon="7.21680593490601">
    <ele>1051.29333496094</ele>
    <time>2012-05-22T16:08:53Z</time>
   </trkpt>
   <trkpt lat="46.0872688293457" lon="7.2168025970459">
    <ele>1051.58666992188</ele>
    <time>2012-05-22T16:08:54Z</time>
   </trkpt>
   <trkpt lat="46.0872993469238" lon="7.21680021286011">
    <ele>1051.88000488281</ele>
    <time>2012-05-22T16:08:55Z</time>
   </trkpt>
   <trkpt lat="46.0873260498047" lon="7.21679401397705">
    <ele>1052.17333984375</ele>
    <time>2012-05-22T16:08:56Z</time>
   </trkpt>
   <trkpt lat="46.0873565673828" lon="7.21678495407104">
    <ele>1052.46667480469</ele>
    <time>2012-05-22T16:08:57Z</time>
   </trkpt>
   <trkpt lat="46.0873832702637" lon="7.21677303314209">
    <ele>1052.76000976562</ele>
    <time>2012-05-22T16:08:58Z</time>
   </trkpt>
   <trkpt lat="46.0874824523926" lon="7.21670770645142">
    <ele>1053.93334960938</ele>
    <time>2012-05-22T16:09:02Z</time>
   </trkpt>
   <trkpt lat="46.0875053405762" lon="7.21668672561646">
    <ele>1054.22668457031</ele>
    <time>2012-05-22T16:09:03Z</time>
   </trkpt>
   <trkpt lat="46.0875282287598" lon="7.21666669845581">
    <ele>1054.52001953125</ele>
    <time>2012-05-22T16:09:04Z</time>
   </trkpt>
   <trkpt lat="46.0875511169434" lon="7.21664381027222">
    <ele>1054.81335449219</ele>
    <time>2012-05-22T16:09:05Z</time>
   </trkpt>
   <trkpt lat="46.087574005127" lon="7.21662378311157">
    <ele>1055.10668945312</ele>
    <time>2012-05-22T16:09:06Z</time>
   </trkpt>
   <trkpt lat="46.0876922607422" lon="7.21653127670288">
    <ele>1056.57336425781</ele>
    <time>2012-05-22T16:09:11Z</time>
   </trkpt>
   <trkpt lat="46.087718963623" lon="7.21652221679688">
    <ele>1056.86669921875</ele>
    <time>2012-05-22T16:09:12Z</time>
   </trkpt>
   <trkpt lat="46.0877456665039" lon="7.21651268005371">
    <ele>1057.16003417969</ele>
    <time>2012-05-22T16:09:13Z</time>
   </trkpt>
   <trkpt lat="46.0877685546875" lon="7.21650457382202">
    <ele>1057.45336914062</ele>
    <time>2012-05-22T16:09:14Z</time>
   </trkpt>
   <trkpt lat="46.0877914428711" lon="7.21649789810181">
    <ele>1057.74670410156</ele>
    <time>2012-05-22T16:09:15Z</time>
   </trkpt>
   <trkpt lat="46.0878639221191" lon="7.21647500991821">
    <ele>1058.62670898438</ele>
    <time>2012-05-22T16:09:18Z</time>
   </trkpt>
   <trkpt lat="46.0878868103027" lon="7.21646928787232">
    <ele>1058.92004394531</ele>
    <time>2012-05-22T16:09:19Z</time>
   </trkpt>
   <trkpt lat="46.0879135131836" lon="7.21646404266357">
    <ele>1059.21337890625</ele>
    <time>2012-05-22T16:09:20Z</time>
   </trkpt>
   <trkpt lat="46.0879364013672" lon="7.21646022796631">
    <ele>1059.50671386719</ele>
    <time>2012-05-22T16:09:21Z</time>
   </trkpt>
   <trkpt lat="46.087963104248" lon="7.21645593643188">
    <ele>1059.80004882812</ele>
    <time>2012-05-22T16:09:22Z</time>
   </trkpt>
   <trkpt lat="46.0880317687988" lon="7.21643829345703">
    <ele>1059.80004882812</ele>
    <time>2012-05-22T16:09:25Z</time>
   </trkpt>
   <trkpt lat="46.0880813598633" lon="7.2164192199707">
    <ele>1060.46667480469</ele>
    <time>2012-05-22T16:09:27Z</time>
   </trkpt>
   <trkpt lat="46.0881042480469" lon="7.21640777587891">
    <ele>1060.80004882812</ele>
    <time>2012-05-22T16:09:28Z</time>
   </trkpt>
   <trkpt lat="46.0881233215332" lon="7.21639728546143">
    <ele>1061.13342285156</ele>
    <time>2012-05-22T16:09:29Z</time>
   </trkpt>
   <trkpt lat="46.0881462097168" lon="7.21638488769531">
    <ele>1061.46667480469</ele>
    <time>2012-05-22T16:09:30Z</time>
   </trkpt>
   <trkpt lat="46.0881729125977" lon="7.21637105941772">
    <ele>1061.80004882812</ele>
    <time>2012-05-22T16:09:31Z</time>
   </trkpt>
   <trkpt lat="46.0881958007812" lon="7.21635484695435">
    <ele>1061.80004882812</ele>
    <time>2012-05-22T16:09:32Z</time>
   </trkpt>
   <trkpt lat="46.0882415771484" lon="7.21631240844726">
    <ele>1062.53332519531</ele>
    <time>2012-05-22T16:09:34Z</time>
   </trkpt>
   <trkpt lat="46.088264465332" lon="7.2162914276123">
    <ele>1062.90002441406</ele>
    <time>2012-05-22T16:09:35Z</time>
   </trkpt>
   <trkpt lat="46.0882835388184" lon="7.21626996994018">
    <ele>1063.26672363281</ele>
    <time>2012-05-22T16:09:36Z</time>
   </trkpt>
   <trkpt lat="46.088306427002" lon="7.21624660491943">
    <ele>1063.63330078125</ele>
    <time>2012-05-22T16:09:37Z</time>
   </trkpt>
   <trkpt lat="46.0883255004883" lon="7.21622085571289">
    <ele>1064</ele>
    <time>2012-05-22T16:09:38Z</time>
   </trkpt>
   <trkpt lat="46.0883445739746" lon="7.2161922454834">
    <ele>1064</ele>
    <time>2012-05-22T16:09:39Z</time>
   </trkpt>
   <trkpt lat="46.0884323120117" lon="7.21603107452393">
    <ele>1065.33337402344</ele>
    <time>2012-05-22T16:09:45Z</time>
   </trkpt>
   <trkpt lat="46.0884399414062" lon="7.21600389480591">
    <ele>1065.55554199219</ele>
    <time>2012-05-22T16:09:46Z</time>
   </trkpt>
   <trkpt lat="46.088451385498" lon="7.21597194671631">
    <ele>1065.77783203125</ele>
    <time>2012-05-22T16:09:47Z</time>
   </trkpt>
   <trkpt lat="46.0884590148926" lon="7.21593856811524">
    <ele>1066</ele>
    <time>2012-05-22T16:09:48Z</time>
   </trkpt>
   <trkpt lat="46.0885009765625" lon="7.21577501296997">
    <ele>1066</ele>
    <time>2012-05-22T16:09:53Z</time>
   </trkpt>
   <trkpt lat="46.0885200500488" lon="7.21571063995361">
    <ele>1066.56359863281</ele>
    <time>2012-05-22T16:09:55Z</time>
   </trkpt>
   <trkpt lat="46.0885276794434" lon="7.21567630767822">
    <ele>1066.84545898438</ele>
    <time>2012-05-22T16:09:56Z</time>
   </trkpt>
   <trkpt lat="46.0885353088379" lon="7.21564388275146">
    <ele>1067.12731933594</ele>
    <time>2012-05-22T16:09:57Z</time>
   </trkpt>
   <trkpt lat="46.0885429382324" lon="7.21561145782471">
    <ele>1067.40905761719</ele>
    <time>2012-05-22T16:09:58Z</time>
   </trkpt>
   <trkpt lat="46.088550567627" lon="7.215576171875">
    <ele>1067.69091796875</ele>
    <time>2012-05-22T16:09:59Z</time>
   </trkpt>
   <trkpt lat="46.0885887145996" lon="7.21540069580078">
    <ele>1069.09997558594</ele>
    <time>2012-05-22T16:10:04Z</time>
   </trkpt>
   <trkpt lat="46.0885963439941" lon="7.21536254882812">
    <ele>1069.3818359375</ele>
    <time>2012-05-22T16:10:05Z</time>
   </trkpt>
   <trkpt lat="46.0886077880859" lon="7.21532869338989">
    <ele>1069.66357421875</ele>
    <time>2012-05-22T16:10:06Z</time>
   </trkpt>
   <trkpt lat="46.0886154174805" lon="7.2152943611145">
    <ele>1069.94543457031</ele>
    <time>2012-05-22T16:10:07Z</time>
   </trkpt>
   <trkpt lat="46.0886268615723" lon="7.21526288986206">
    <ele>1070.22729492188</ele>
    <time>2012-05-22T16:10:08Z</time>
   </trkpt>
   <trkpt lat="46.0886611938477" lon="7.21512365341186">
    <ele>1071.3544921875</ele>
    <time>2012-05-22T16:10:12Z</time>
   </trkpt>
   <trkpt lat="46.0886688232422" lon="7.21509075164795">
    <ele>1071.63635253906</ele>
    <time>2012-05-22T16:10:13Z</time>
   </trkpt>
   <trkpt lat="46.088680267334" lon="7.21505880355835">
    <ele>1071.91809082031</ele>
    <time>2012-05-22T16:10:14Z</time>
   </trkpt>
   <trkpt lat="46.0886917114258" lon="7.21502637863159">
    <ele>1072.19995117188</ele>
    <time>2012-05-22T16:10:15Z</time>
   </trkpt>
   <trkpt lat="46.0887718200684" lon="7.21484994888306">
    <ele>1072.19995117188</ele>
    <time>2012-05-22T16:10:21Z</time>
   </trkpt>
   <trkpt lat="46.0887985229492" lon="7.21479225158691">
    <ele>1072.73327636719</ele>
    <time>2012-05-22T16:10:23Z</time>
   </trkpt>
   <trkpt lat="46.0888137817383" lon="7.21476936340332">
    <ele>1073</ele>
    <time>2012-05-22T16:10:24Z</time>
   </trkpt>
   <trkpt lat="46.0888290405273" lon="7.21474313735962">
    <ele>1073.2666015625</ele>
    <time>2012-05-22T16:10:25Z</time>
   </trkpt>
   <trkpt lat="46.0888442993164" lon="7.21471691131592">
    <ele>1073.53332519531</ele>
    <time>2012-05-22T16:10:26Z</time>
   </trkpt>
   <trkpt lat="46.0888595581055" lon="7.21469163894653">
    <ele>1073.79992675781</ele>
    <time>2012-05-22T16:10:27Z</time>
   </trkpt>
   <trkpt lat="46.0889167785644" lon="7.2146258354187">
    <ele>1074.59997558594</ele>
    <time>2012-05-22T16:10:30Z</time>
   </trkpt>
   <trkpt lat="46.0889320373535" lon="7.21460580825806">
    <ele>1074.86657714844</ele>
    <time>2012-05-22T16:10:31Z</time>
   </trkpt>
   <trkpt lat="46.0889549255371" lon="7.21458435058594">
    <ele>1075.13330078125</ele>
    <time>2012-05-22T16:10:32Z</time>
   </trkpt>
   <trkpt lat="46.0889739990234" lon="7.21456050872803">
    <ele>1075.39990234375</ele>
    <time>2012-05-22T16:10:33Z</time>
   </trkpt>
   <trkpt lat="46.0889930725098" lon="7.21453714370728">
    <ele>1075.66662597656</ele>
    <time>2012-05-22T16:10:34Z</time>
   </trkpt>
   <trkpt lat="46.0890655517578" lon="7.21443843841553">
    <ele>1076.73327636719</ele>
    <time>2012-05-22T16:10:38Z</time>
   </trkpt>
   <trkpt lat="46.0890846252441" lon="7.2144136428833">
    <ele>1077</ele>
    <time>2012-05-22T16:10:39Z</time>
   </trkpt>
   <trkpt lat="46.0890998840332" lon="7.21438694000244">
    <ele>1077.2666015625</ele>
    <time>2012-05-22T16:10:40Z</time>
   </trkpt>
   <trkpt lat="46.0891151428223" lon="7.21436071395874">
    <ele>1077.53332519531</ele>
    <time>2012-05-22T16:10:41Z</time>
   </trkpt>
   <trkpt lat="46.0891265869141" lon="7.2143349647522">
    <ele>1077.79992675781</ele>
    <time>2012-05-22T16:10:42Z</time>
   </trkpt>
   <trkpt lat="46.0891799926758" lon="7.21422147750854">
    <ele>1078.86669921875</ele>
    <time>2012-05-22T16:10:46Z</time>
   </trkpt>
   <trkpt lat="46.0891914367676" lon="7.21418905258179">
    <ele>1079.13330078125</ele>
    <time>2012-05-22T16:10:47Z</time>
   </trkpt>
   <trkpt lat="46.0892028808594" lon="7.21415758132935">
    <ele>1079.40002441406</ele>
    <time>2012-05-22T16:10:48Z</time>
   </trkpt>
   <trkpt lat="46.0892143249512" lon="7.21412706375122">
    <ele>1079.66662597656</ele>
    <time>2012-05-22T16:10:49Z</time>
   </trkpt>
   <trkpt lat="46.089225769043" lon="7.21409511566162">
    <ele>1079.93334960938</ele>
    <time>2012-05-22T16:10:50Z</time>
   </trkpt>
   <trkpt lat="46.0892791748047" lon="7.21393632888794">
    <ele>1081.2666015625</ele>
    <time>2012-05-22T16:10:55Z</time>
   </trkpt>
   <trkpt lat="46.0892868041992" lon="7.21390104293823">
    <ele>1081.53332519531</ele>
    <time>2012-05-22T16:10:56Z</time>
   </trkpt>
   <trkpt lat="46.089298248291" lon="7.21386814117432">
    <ele>1081.80004882812</ele>
    <time>2012-05-22T16:10:57Z</time>
   </trkpt>
   <trkpt lat="46.0893058776856" lon="7.21383237838745">
    <ele>1082.06665039062</ele>
    <time>2012-05-22T16:10:58Z</time>
   </trkpt>
   <trkpt lat="46.0893173217773" lon="7.21379852294922">
    <ele>1082.33337402344</ele>
    <time>2012-05-22T16:10:59Z</time>
   </trkpt>
   <trkpt lat="46.0893707275391" lon="7.2136082649231">
    <ele>1083.93334960938</ele>
    <time>2012-05-22T16:11:05Z</time>
   </trkpt>
   <trkpt lat="46.0893821716309" lon="7.21357679367065">
    <ele>1084.19995117188</ele>
    <time>2012-05-22T16:11:06Z</time>
   </trkpt>
   <trkpt lat="46.0893974304199" lon="7.21354627609253">
    <ele>1084.46667480469</ele>
    <time>2012-05-22T16:11:07Z</time>
   </trkpt>
   <trkpt lat="46.0894050598144" lon="7.21351194381714">
    <ele>1084.73327636719</ele>
    <time>2012-05-22T16:11:08Z</time>
   </trkpt>
   <trkpt lat="46.0894165039062" lon="7.21347761154175">
    <ele>1085</ele>
    <time>2012-05-22T16:11:09Z</time>
   </trkpt>
   <trkpt lat="46.0894622802734" lon="7.21334886550903">
    <ele>1085</ele>
    <time>2012-05-22T16:11:13Z</time>
   </trkpt>
   <trkpt lat="46.089485168457" lon="7.21328592300415">
    <ele>1085.59997558594</ele>
    <time>2012-05-22T16:11:15Z</time>
   </trkpt>
   <trkpt lat="46.0895004272461" lon="7.21325778961182">
    <ele>1085.90002441406</ele>
    <time>2012-05-22T16:11:16Z</time>
   </trkpt>
   <trkpt lat="46.0895118713379" lon="7.21322631835938">
    <ele>1086.19995117188</ele>
    <time>2012-05-22T16:11:17Z</time>
   </trkpt>
   <trkpt lat="46.0895233154297" lon="7.21319389343262">
    <ele>1086.5</ele>
    <time>2012-05-22T16:11:18Z</time>
   </trkpt>
   <trkpt lat="46.0895385742188" lon="7.21316432952881">
    <ele>1086.79992675781</ele>
    <time>2012-05-22T16:11:19Z</time>
   </trkpt>
   <trkpt lat="46.0896110534668" lon="7.21301746368408">
    <ele>1088.29992675781</ele>
    <time>2012-05-22T16:11:24Z</time>
   </trkpt>
   <trkpt lat="46.0896263122559" lon="7.21298789978027">
    <ele>1088.59997558594</ele>
    <time>2012-05-22T16:11:25Z</time>
   </trkpt>
   <trkpt lat="46.0896377563477" lon="7.21295690536499">
    <ele>1088.89990234375</ele>
    <time>2012-05-22T16:11:26Z</time>
   </trkpt>
   <trkpt lat="46.0896492004394" lon="7.21292734146118">
    <ele>1089.19995117188</ele>
    <time>2012-05-22T16:11:27Z</time>
   </trkpt>
   <trkpt lat="46.0897750854492" lon="7.21273517608643">
    <ele>1089.19995117188</ele>
    <time>2012-05-22T16:11:34Z</time>
   </trkpt>
   <trkpt lat="46.0898323059082" lon="7.21265363693237">
    <ele>1090.14282226562</ele>
    <time>2012-05-22T16:11:37Z</time>
   </trkpt>
   <trkpt lat="46.0898513793945" lon="7.21262645721436">
    <ele>1090.45715332031</ele>
    <time>2012-05-22T16:11:38Z</time>
   </trkpt>
   <trkpt lat="46.0898704528809" lon="7.21259832382202">
    <ele>1090.771484375</ele>
    <time>2012-05-22T16:11:39Z</time>
   </trkpt>
   <trkpt lat="46.0898895263672" lon="7.21256828308106">
    <ele>1091.08569335938</ele>
    <time>2012-05-22T16:11:40Z</time>
   </trkpt>
   <trkpt lat="46.0899085998535" lon="7.2125415802002">
    <ele>1091.40002441406</ele>
    <time>2012-05-22T16:11:41Z</time>
   </trkpt>
   <trkpt lat="46.089973449707" lon="7.21247100830078">
    <ele>1091.40002441406</ele>
    <time>2012-05-22T16:11:44Z</time>
   </trkpt>
   <trkpt lat="46.0900115966797" lon="7.21242523193359">
    <ele>1092.13330078125</ele>
    <time>2012-05-22T16:11:46Z</time>
   </trkpt>
   <trkpt lat="46.0900344848633" lon="7.21240186691284">
    <ele>1092.5</ele>
    <time>2012-05-22T16:11:47Z</time>
   </trkpt>
   <trkpt lat="46.0900535583496" lon="7.21237897872925">
    <ele>1092.86669921875</ele>
    <time>2012-05-22T16:11:48Z</time>
   </trkpt>
   <trkpt lat="46.0900764465332" lon="7.2123589515686">
    <ele>1093.23327636719</ele>
    <time>2012-05-22T16:11:49Z</time>
   </trkpt>
   <trkpt lat="46.0900955200195" lon="7.21233463287354">
    <ele>1093.59997558594</ele>
    <time>2012-05-22T16:11:50Z</time>
   </trkpt>
   <trkpt lat="46.090160369873" lon="7.21226787567139">
    <ele>1093.59997558594</ele>
    <time>2012-05-22T16:11:53Z</time>
   </trkpt>
   <trkpt lat="46.0902481079102" lon="7.21216201782226">
    <ele>1094.59997558594</ele>
    <time>2012-05-22T16:11:57Z</time>
   </trkpt>
   <trkpt lat="46.0902633666992" lon="7.21213626861572">
    <ele>1094.84997558594</ele>
    <time>2012-05-22T16:11:58Z</time>
   </trkpt>
   <trkpt lat="46.0902824401856" lon="7.21210861206055">
    <ele>1095.09997558594</ele>
    <time>2012-05-22T16:11:59Z</time>
   </trkpt>
   <trkpt lat="46.0902976989746" lon="7.21207809448242">
    <ele>1095.34997558594</ele>
    <time>2012-05-22T16:12:00Z</time>
   </trkpt>
   <trkpt lat="46.0903167724609" lon="7.21204662322998">
    <ele>1095.59997558594</ele>
    <time>2012-05-22T16:12:01Z</time>
   </trkpt>
   <trkpt lat="46.0904312133789" lon="7.21187019348144">
    <ele>1095.59997558594</ele>
    <time>2012-05-22T16:12:07Z</time>
   </trkpt>
   <trkpt lat="46.0904541015625" lon="7.21186065673828">
    <ele>1095.96667480469</ele>
    <time>2012-05-22T16:12:08Z</time>
   </trkpt>
   <trkpt lat="46.0904846191406" lon="7.21185827255249">
    <ele>1096.33337402344</ele>
    <time>2012-05-22T16:12:09Z</time>
   </trkpt>
   <trkpt lat="46.0905113220215" lon="7.21186542510986">
    <ele>1096.69995117188</ele>
    <time>2012-05-22T16:12:10Z</time>
   </trkpt>
   <trkpt lat="46.0905380249023" lon="7.21188259124756">
    <ele>1097.06665039062</ele>
    <time>2012-05-22T16:12:11Z</time>
   </trkpt>
   <trkpt lat="46.0905494689941" lon="7.21191549301148">
    <ele>1097.43334960938</ele>
    <time>2012-05-22T16:12:12Z</time>
   </trkpt>
   <trkpt lat="46.0905570983887" lon="7.21196413040161">
    <ele>1097.80004882812</ele>
    <time>2012-05-22T16:12:13Z</time>
   </trkpt>
   <trkpt lat="46.0905647277832" lon="7.21206665039062">
    <ele>1097.80004882812</ele>
    <time>2012-05-22T16:12:15Z</time>
   </trkpt>
   <trkpt lat="46.0905570983887" lon="7.21210718154907">
    <ele>1098.30004882812</ele>
    <time>2012-05-22T16:12:16Z</time>
   </trkpt>
   <trkpt lat="46.0905418395996" lon="7.21214151382446">
    <ele>1098.80004882812</ele>
    <time>2012-05-22T16:12:17Z</time>
   </trkpt>
   <trkpt lat="46.090518951416" lon="7.21217203140259">
    <ele>1099.30004882812</ele>
    <time>2012-05-22T16:12:18Z</time>
   </trkpt>
   <trkpt lat="46.0904960632324" lon="7.21219873428345">
    <ele>1099.80004882812</ele>
    <time>2012-05-22T16:12:19Z</time>
   </trkpt>
   <trkpt lat="46.0904731750488" lon="7.21222019195557">
    <ele>1099.80004882812</ele>
    <time>2012-05-22T16:12:20Z</time>
   </trkpt>
   <trkpt lat="46.0904006958008" lon="7.21229839324951">
    <ele>1100.6572265625</ele>
    <time>2012-05-22T16:12:23Z</time>
   </trkpt>
   <trkpt lat="46.0903778076172" lon="7.2123236656189">
    <ele>1100.94287109375</ele>
    <time>2012-05-22T16:12:24Z</time>
   </trkpt>
   <trkpt lat="46.0903511047363" lon="7.21234798431396">
    <ele>1101.22863769531</ele>
    <time>2012-05-22T16:12:25Z</time>
   </trkpt>
   <trkpt lat="46.0903244018555" lon="7.21237134933472">
    <ele>1101.51428222656</ele>
    <time>2012-05-22T16:12:26Z</time>
   </trkpt>
   <trkpt lat="46.0903015136719" lon="7.21239233016968">
    <ele>1101.80004882812</ele>
    <time>2012-05-22T16:12:27Z</time>
   </trkpt>
   <trkpt lat="46.0902786254883" lon="7.21241855621338">
    <ele>1101.80004882812</ele>
    <time>2012-05-22T16:12:28Z</time>
   </trkpt>
   <trkpt lat="46.0901679992676" lon="7.21254777908325">
    <ele>1103.37145996094</ele>
    <time>2012-05-22T16:12:33Z</time>
   </trkpt>
   <trkpt lat="46.090145111084" lon="7.21257591247559">
    <ele>1103.68566894531</ele>
    <time>2012-05-22T16:12:34Z</time>
   </trkpt>
   <trkpt lat="46.0901260375977" lon="7.21260356903076">
    <ele>1104</ele>
    <time>2012-05-22T16:12:35Z</time>
   </trkpt>
   <trkpt lat="46.0901069641113" lon="7.21263360977173">
    <ele>1104.31433105469</ele>
    <time>2012-05-22T16:12:36Z</time>
   </trkpt>
   <trkpt lat="46.090087890625" lon="7.21266222000122">
    <ele>1104.62854003906</ele>
    <time>2012-05-22T16:12:37Z</time>
   </trkpt>
   <trkpt lat="46.0900421142578" lon="7.21271324157715">
    <ele>1105.25708007812</ele>
    <time>2012-05-22T16:12:39Z</time>
   </trkpt>
   <trkpt lat="46.0900268554688" lon="7.21274471282959">
    <ele>1105.57141113281</ele>
    <time>2012-05-22T16:12:40Z</time>
   </trkpt>
   <trkpt lat="46.0900077819824" lon="7.21277904510498">
    <ele>1105.88562011719</ele>
    <time>2012-05-22T16:12:41Z</time>
   </trkpt>
   <trkpt lat="46.0899887084961" lon="7.21281051635742">
    <ele>1106.19995117188</ele>
    <time>2012-05-22T16:12:42Z</time>
   </trkpt>
   <trkpt lat="46.0899543762207" lon="7.21287679672241">
    <ele>1106.19995117188</ele>
    <time>2012-05-22T16:12:44Z</time>
   </trkpt>
   <trkpt lat="46.0899391174316" lon="7.21291160583496">
    <ele>1106.64001464844</ele>
    <time>2012-05-22T16:12:45Z</time>
   </trkpt>
   <trkpt lat="46.0899200439453" lon="7.21294593811035">
    <ele>1107.07995605469</ele>
    <time>2012-05-22T16:12:46Z</time>
   </trkpt>
   <trkpt lat="46.0899085998535" lon="7.21298313140869">
    <ele>1107.52001953125</ele>
    <time>2012-05-22T16:12:47Z</time>
   </trkpt>
   <trkpt lat="46.0898933410644" lon="7.21302223205566">
    <ele>1107.9599609375</ele>
    <time>2012-05-22T16:12:48Z</time>
   </trkpt>
   <trkpt lat="46.0898780822754" lon="7.21306085586548">
    <ele>1108.40002441406</ele>
    <time>2012-05-22T16:12:49Z</time>
   </trkpt>
   <trkpt lat="46.08984375" lon="7.21316862106323">
    <ele>1108.40002441406</ele>
    <time>2012-05-22T16:12:52Z</time>
   </trkpt>
   <trkpt lat="46.0898208618164" lon="7.2132420539856">
    <ele>1109.13330078125</ele>
    <time>2012-05-22T16:12:54Z</time>
   </trkpt>
   <trkpt lat="46.0898094177246" lon="7.21327877044678">
    <ele>1109.5</ele>
    <time>2012-05-22T16:12:55Z</time>
   </trkpt>
   <trkpt lat="46.0897979736328" lon="7.21331453323364">
    <ele>1109.86669921875</ele>
    <time>2012-05-22T16:12:56Z</time>
   </trkpt>
   <trkpt lat="46.0897903442383" lon="7.21335363388062">
    <ele>1110.23327636719</ele>
    <time>2012-05-22T16:12:57Z</time>
   </trkpt>
   <trkpt lat="46.0897827148438" lon="7.21339082717896">
    <ele>1110.59997558594</ele>
    <time>2012-05-22T16:12:58Z</time>
   </trkpt>
   <trkpt lat="46.0897598266602" lon="7.21349620819092">
    <ele>1110.59997558594</ele>
    <time>2012-05-22T16:13:01Z</time>
   </trkpt>
   <trkpt lat="46.0897521972656" lon="7.2135329246521">
    <ele>1110.90478515625</ele>
    <time>2012-05-22T16:13:02Z</time>
   </trkpt>
   <trkpt lat="46.0897483825684" lon="7.21357011795044">
    <ele>1111.20947265625</ele>
    <time>2012-05-22T16:13:03Z</time>
   </trkpt>
   <trkpt lat="46.0897407531738" lon="7.21361112594604">
    <ele>1111.51428222656</ele>
    <time>2012-05-22T16:13:04Z</time>
   </trkpt>
   <trkpt lat="46.0897369384766" lon="7.21364974975586">
    <ele>1111.81896972656</ele>
    <time>2012-05-22T16:13:05Z</time>
   </trkpt>
   <trkpt lat="46.0897331237793" lon="7.21368885040283">
    <ele>1112.12377929688</ele>
    <time>2012-05-22T16:13:06Z</time>
   </trkpt>
   <trkpt lat="46.089714050293" lon="7.21384763717651">
    <ele>1113.34289550781</ele>
    <time>2012-05-22T16:13:10Z</time>
   </trkpt>
   <trkpt lat="46.0897102355957" lon="7.21388959884644">
    <ele>1113.64758300781</ele>
    <time>2012-05-22T16:13:11Z</time>
   </trkpt>
   <trkpt lat="46.0897064208984" lon="7.21392631530762">
    <ele>1113.95239257812</ele>
    <time>2012-05-22T16:13:12Z</time>
   </trkpt>
   <trkpt lat="46.0897026062012" lon="7.2139630317688">
    <ele>1114.25708007812</ele>
    <time>2012-05-22T16:13:13Z</time>
   </trkpt>
   <trkpt lat="46.0896949768066" lon="7.21399974822998">
    <ele>1114.56188964844</ele>
    <time>2012-05-22T16:13:14Z</time>
   </trkpt>
   <trkpt lat="46.0896873474121" lon="7.21415090560913">
    <ele>1115.78100585938</ele>
    <time>2012-05-22T16:13:18Z</time>
   </trkpt>
   <trkpt lat="46.0896873474121" lon="7.21419191360474">
    <ele>1116.08569335938</ele>
    <time>2012-05-22T16:13:19Z</time>
   </trkpt>
   <trkpt lat="46.0896835327148" lon="7.21423101425171">
    <ele>1116.39050292969</ele>
    <time>2012-05-22T16:13:20Z</time>
   </trkpt>
   <trkpt lat="46.0896835327148" lon="7.21427059173584">
    <ele>1116.69519042969</ele>
    <time>2012-05-22T16:13:21Z</time>
   </trkpt>
   <trkpt lat="46.0896797180176" lon="7.21431112289429">
    <ele>1117</ele>
    <time>2012-05-22T16:13:22Z</time>
   </trkpt>
   <trkpt lat="46.0896682739258" lon="7.21446943283081">
    <ele>1117</ele>
    <time>2012-05-22T16:13:26Z</time>
   </trkpt>
   <trkpt lat="46.089656829834" lon="7.21454668045044">
    <ele>1117.88000488281</ele>
    <time>2012-05-22T16:13:28Z</time>
   </trkpt>
   <trkpt lat="46.0896492004394" lon="7.2145881652832">
    <ele>1118.31994628906</ele>
    <time>2012-05-22T16:13:29Z</time>
   </trkpt>
   <trkpt lat="46.0896377563477" lon="7.21462917327881">
    <ele>1118.76000976562</ele>
    <time>2012-05-22T16:13:30Z</time>
   </trkpt>
   <trkpt lat="46.0896263122559" lon="7.21466445922852">
    <ele>1119.19995117188</ele>
    <time>2012-05-22T16:13:31Z</time>
   </trkpt>
   <trkpt lat="46.0895843505859" lon="7.21476888656616">
    <ele>1119.19995117188</ele>
    <time>2012-05-22T16:13:34Z</time>
   </trkpt>
   <trkpt lat="46.0895652770996" lon="7.21479940414429">
    <ele>1119.63989257812</ele>
    <time>2012-05-22T16:13:35Z</time>
   </trkpt>
   <trkpt lat="46.0895462036133" lon="7.21483039855957">
    <ele>1120.07995605469</ele>
    <time>2012-05-22T16:13:36Z</time>
   </trkpt>
   <trkpt lat="46.089527130127" lon="7.21486234664917">
    <ele>1120.52001953125</ele>
    <time>2012-05-22T16:13:37Z</time>
   </trkpt>
   <trkpt lat="46.0895080566406" lon="7.21489334106445">
    <ele>1120.9599609375</ele>
    <time>2012-05-22T16:13:38Z</time>
   </trkpt>
   <trkpt lat="46.0894927978516" lon="7.2149224281311">
    <ele>1121.39990234375</ele>
    <time>2012-05-22T16:13:39Z</time>
   </trkpt>
   <trkpt lat="46.0894737243652" lon="7.21495485305786">
    <ele>1121.83996582031</ele>
    <time>2012-05-22T16:13:40Z</time>
   </trkpt>
   <trkpt lat="46.0894546508789" lon="7.21498680114746">
    <ele>1122.28002929688</ele>
    <time>2012-05-22T16:13:41Z</time>
   </trkpt>
   <trkpt lat="46.0894393920898" lon="7.2150149345398">
    <ele>1122.71997070312</ele>
    <time>2012-05-22T16:13:42Z</time>
   </trkpt>
   <trkpt lat="46.0894203186035" lon="7.21504163742065">
    <ele>1123.15991210938</ele>
    <time>2012-05-22T16:13:43Z</time>
   </trkpt>
   <trkpt lat="46.0894012451172" lon="7.21506929397583">
    <ele>1123.59997558594</ele>
    <time>2012-05-22T16:13:44Z</time>
   </trkpt>
   <trkpt lat="46.0893516540527" lon="7.21516370773315">
    <ele>1123.59997558594</ele>
    <time>2012-05-22T16:13:47Z</time>
   </trkpt>
   <trkpt lat="46.0893363952637" lon="7.21519994735718">
    <ele>1123.94995117188</ele>
    <time>2012-05-22T16:13:48Z</time>
   </trkpt>
   <trkpt lat="46.0893211364746" lon="7.21523904800415">
    <ele>1124.30004882812</ele>
    <time>2012-05-22T16:13:49Z</time>
   </trkpt>
   <trkpt lat="46.0893058776856" lon="7.21527767181396">
    <ele>1124.65002441406</ele>
    <time>2012-05-22T16:13:50Z</time>
   </trkpt>
   <trkpt lat="46.0892944335938" lon="7.21531343460083">
    <ele>1125</ele>
    <time>2012-05-22T16:13:51Z</time>
   </trkpt>
   <trkpt lat="46.0892906188965" lon="7.2153491973877">
    <ele>1125.34997558594</ele>
    <time>2012-05-22T16:13:52Z</time>
   </trkpt>
   <trkpt lat="46.0892639160156" lon="7.21546459197998">
    <ele>1126.40002441406</ele>
    <time>2012-05-22T16:13:55Z</time>
   </trkpt>
   <trkpt lat="46.0892524719238" lon="7.21550226211548">
    <ele>1126.75</ele>
    <time>2012-05-22T16:13:56Z</time>
   </trkpt>
   <trkpt lat="46.0892448425293" lon="7.21553993225098">
    <ele>1127.10009765625</ele>
    <time>2012-05-22T16:13:57Z</time>
   </trkpt>
   <trkpt lat="46.0892333984375" lon="7.21557426452637">
    <ele>1127.45007324219</ele>
    <time>2012-05-22T16:13:58Z</time>
   </trkpt>
   <trkpt lat="46.089225769043" lon="7.21560668945312">
    <ele>1127.80004882812</ele>
    <time>2012-05-22T16:13:59Z</time>
   </trkpt>
   <trkpt lat="46.0892143249512" lon="7.21571254730225">
    <ele>1127.80004882812</ele>
    <time>2012-05-22T16:14:02Z</time>
   </trkpt>
   <trkpt lat="46.0892181396484" lon="7.21585083007812">
    <ele>1128.74291992188</ele>
    <time>2012-05-22T16:14:05Z</time>
   </trkpt>
   <trkpt lat="46.0892181396484" lon="7.21589136123657">
    <ele>1129.05712890625</ele>
    <time>2012-05-22T16:14:06Z</time>
   </trkpt>
   <trkpt lat="46.0892181396484" lon="7.21593332290649">
    <ele>1129.37145996094</ele>
    <time>2012-05-22T16:14:07Z</time>
   </trkpt>
   <trkpt lat="46.0892219543457" lon="7.21597528457642">
    <ele>1129.68566894531</ele>
    <time>2012-05-22T16:14:08Z</time>
   </trkpt>
   <trkpt lat="46.0892295837402" lon="7.21601438522339">
    <ele>1130</ele>
    <time>2012-05-22T16:14:09Z</time>
   </trkpt>
   <trkpt lat="46.0892333984375" lon="7.21608638763428">
    <ele>1130</ele>
    <time>2012-05-22T16:14:11Z</time>
   </trkpt>
   <trkpt lat="46.0892486572266" lon="7.21620988845825">
    <ele>1130.74401855469</ele>
    <time>2012-05-22T16:14:14Z</time>
   </trkpt>
   <trkpt lat="46.0892562866211" lon="7.21624994277954">
    <ele>1130.99194335938</ele>
    <time>2012-05-22T16:14:15Z</time>
   </trkpt>
   <trkpt lat="46.0892601013184" lon="7.21628856658936">
    <ele>1131.23999023438</ele>
    <time>2012-05-22T16:14:16Z</time>
   </trkpt>
   <trkpt lat="46.0892639160156" lon="7.21632671356201">
    <ele>1131.48803710938</ele>
    <time>2012-05-22T16:14:17Z</time>
   </trkpt>
   <trkpt lat="46.0892677307129" lon="7.21636295318604">
    <ele>1131.73596191406</ele>
    <time>2012-05-22T16:14:18Z</time>
   </trkpt>
   <trkpt lat="46.0892791748047" lon="7.21651220321655">
    <ele>1132.72802734375</ele>
    <time>2012-05-22T16:14:22Z</time>
   </trkpt>
   <trkpt lat="46.0892791748047" lon="7.21654748916626">
    <ele>1132.97595214844</ele>
    <time>2012-05-22T16:14:23Z</time>
   </trkpt>
   <trkpt lat="46.0892791748047" lon="7.2165846824646">
    <ele>1133.22399902344</ele>
    <time>2012-05-22T16:14:24Z</time>
   </trkpt>
   <trkpt lat="46.0892791748047" lon="7.21662282943726">
    <ele>1133.47192382812</ele>
    <time>2012-05-22T16:14:25Z</time>
   </trkpt>
   <trkpt lat="46.089282989502" lon="7.21666669845581">
    <ele>1133.71997070312</ele>
    <time>2012-05-22T16:14:26Z</time>
   </trkpt>
   <trkpt lat="46.0892715454102" lon="7.216881275177">
    <ele>1135.2080078125</ele>
    <time>2012-05-22T16:14:32Z</time>
   </trkpt>
   <trkpt lat="46.0892639160156" lon="7.21691465377808">
    <ele>1135.45593261719</ele>
    <time>2012-05-22T16:14:33Z</time>
   </trkpt>
   <trkpt lat="46.0892562866211" lon="7.21694898605347">
    <ele>1135.70397949219</ele>
    <time>2012-05-22T16:14:34Z</time>
   </trkpt>
   <trkpt lat="46.0892486572266" lon="7.21698760986328">
    <ele>1135.95190429688</ele>
    <time>2012-05-22T16:14:35Z</time>
   </trkpt>
   <trkpt lat="46.0892372131348" lon="7.2170262336731">
    <ele>1136.19995117188</ele>
    <time>2012-05-22T16:14:36Z</time>
   </trkpt>
   <trkpt lat="46.0892028808594" lon="7.2171630859375">
    <ele>1136.19995117188</ele>
    <time>2012-05-22T16:14:40Z</time>
   </trkpt>
   <trkpt lat="46.0891914367676" lon="7.21719694137573">
    <ele>1136.75</ele>
    <time>2012-05-22T16:14:41Z</time>
   </trkpt>
   <trkpt lat="46.0891799926758" lon="7.21722888946533">
    <ele>1137.30004882812</ele>
    <time>2012-05-22T16:14:42Z</time>
   </trkpt>
   <trkpt lat="46.089168548584" lon="7.21725654602051">
    <ele>1137.84997558594</ele>
    <time>2012-05-22T16:14:43Z</time>
   </trkpt>
   <trkpt lat="46.0891532897949" lon="7.21728610992432">
    <ele>1138.40002441406</ele>
    <time>2012-05-22T16:14:44Z</time>
   </trkpt>
   <trkpt lat="46.089111328125" lon="7.21738338470459">
    <ele>1138.40002441406</ele>
    <time>2012-05-22T16:14:47Z</time>
   </trkpt>
   <trkpt lat="46.0890769958496" lon="7.2174482345581">
    <ele>1139.06665039062</ele>
    <time>2012-05-22T16:14:49Z</time>
   </trkpt>
   <trkpt lat="46.0890579223633" lon="7.21748447418213">
    <ele>1139.40002441406</ele>
    <time>2012-05-22T16:14:50Z</time>
   </trkpt>
   <trkpt lat="46.0890426635742" lon="7.21751594543457">
    <ele>1139.7333984375</ele>
    <time>2012-05-22T16:14:51Z</time>
   </trkpt>
   <trkpt lat="46.0890312194824" lon="7.2175464630127">
    <ele>1140.06665039062</ele>
    <time>2012-05-22T16:14:52Z</time>
   </trkpt>
   <trkpt lat="46.0890159606934" lon="7.21757555007935">
    <ele>1140.40002441406</ele>
    <time>2012-05-22T16:14:53Z</time>
   </trkpt>
   <trkpt lat="46.088981628418" lon="7.21763324737549">
    <ele>1140.40002441406</ele>
    <time>2012-05-22T16:14:55Z</time>
   </trkpt>
   <trkpt lat="46.0889663696289" lon="7.21766090393066">
    <ele>1140.83996582031</ele>
    <time>2012-05-22T16:14:56Z</time>
   </trkpt>
   <trkpt lat="46.0889511108398" lon="7.21769285202026">
    <ele>1141.28002929688</ele>
    <time>2012-05-22T16:14:57Z</time>
   </trkpt>
   <trkpt lat="46.0889358520508" lon="7.2177243232727">
    <ele>1141.71997070312</ele>
    <time>2012-05-22T16:14:58Z</time>
   </trkpt>
   <trkpt lat="46.0889167785644" lon="7.21775484085083">
    <ele>1142.16003417969</ele>
    <time>2012-05-22T16:14:59Z</time>
   </trkpt>
   <trkpt lat="46.0889015197754" lon="7.21778392791748">
    <ele>1142.59997558594</ele>
    <time>2012-05-22T16:15:00Z</time>
   </trkpt>
   <trkpt lat="46.0888404846191" lon="7.21790885925293">
    <ele>1142.59997558594</ele>
    <time>2012-05-22T16:15:04Z</time>
   </trkpt>
   <trkpt lat="46.088809967041" lon="7.21796941757202">
    <ele>1143.47998046875</ele>
    <time>2012-05-22T16:15:06Z</time>
   </trkpt>
   <trkpt lat="46.0887985229492" lon="7.21800088882446">
    <ele>1143.92004394531</ele>
    <time>2012-05-22T16:15:07Z</time>
   </trkpt>
   <trkpt lat="46.0887832641602" lon="7.21803379058838">
    <ele>1144.35998535156</ele>
    <time>2012-05-22T16:15:08Z</time>
   </trkpt>
   <trkpt lat="46.0887641906738" lon="7.21806621551514">
    <ele>1144.80004882812</ele>
    <time>2012-05-22T16:15:09Z</time>
   </trkpt>
   <trkpt lat="46.0887222290039" lon="7.21816778182983">
    <ele>1144.80004882812</ele>
    <time>2012-05-22T16:15:12Z</time>
   </trkpt>
   <trkpt lat="46.0886993408203" lon="7.2182354927063">
    <ele>1145.53332519531</ele>
    <time>2012-05-22T16:15:14Z</time>
   </trkpt>
   <trkpt lat="46.0886840820312" lon="7.2182674407959">
    <ele>1145.90002441406</ele>
    <time>2012-05-22T16:15:15Z</time>
   </trkpt>
   <trkpt lat="46.0886726379394" lon="7.2182993888855">
    <ele>1146.26672363281</ele>
    <time>2012-05-22T16:15:16Z</time>
   </trkpt>
   <trkpt lat="46.0886573791504" lon="7.21833086013794">
    <ele>1146.63330078125</ele>
    <time>2012-05-22T16:15:17Z</time>
   </trkpt>
   <trkpt lat="46.0886459350586" lon="7.2183632850647">
    <ele>1147</ele>
    <time>2012-05-22T16:15:18Z</time>
   </trkpt>
   <trkpt lat="46.0886077880859" lon="7.21846008300781">
    <ele>1147</ele>
    <time>2012-05-22T16:15:21Z</time>
   </trkpt>
   <trkpt lat="46.0885620117188" lon="7.21856260299683">
    <ele>1147.94287109375</ele>
    <time>2012-05-22T16:15:24Z</time>
   </trkpt>
   <trkpt lat="46.088550567627" lon="7.2185959815979">
    <ele>1148.25708007812</ele>
    <time>2012-05-22T16:15:25Z</time>
   </trkpt>
   <trkpt lat="46.0885391235352" lon="7.21862888336182">
    <ele>1148.57141113281</ele>
    <time>2012-05-22T16:15:26Z</time>
   </trkpt>
   <trkpt lat="46.0885276794434" lon="7.21866035461426">
    <ele>1148.88562011719</ele>
    <time>2012-05-22T16:15:27Z</time>
   </trkpt>
   <trkpt lat="46.0885162353516" lon="7.21869373321533">
    <ele>1149.19995117188</ele>
    <time>2012-05-22T16:15:28Z</time>
   </trkpt>
   <trkpt lat="46.0885009765625" lon="7.21872568130493">
    <ele>1149.19995117188</ele>
    <time>2012-05-22T16:15:29Z</time>
   </trkpt>
   <trkpt lat="46.0884437561035" lon="7.21885633468628">
    <ele>1150.3427734375</ele>
    <time>2012-05-22T16:15:33Z</time>
   </trkpt>
   <trkpt lat="46.0884246826172" lon="7.21888589859009">
    <ele>1150.62854003906</ele>
    <time>2012-05-22T16:15:34Z</time>
   </trkpt>
   <trkpt lat="46.0884094238281" lon="7.21891641616821">
    <ele>1150.91418457031</ele>
    <time>2012-05-22T16:15:35Z</time>
   </trkpt>
   <trkpt lat="46.0883941650391" lon="7.21894693374634">
    <ele>1151.19995117188</ele>
    <time>2012-05-22T16:15:36Z</time>
   </trkpt>
   <trkpt lat="46.0883750915527" lon="7.21897745132446">
    <ele>1151.19995117188</ele>
    <time>2012-05-22T16:15:37Z</time>
   </trkpt>
   <trkpt lat="46.088321685791" lon="7.21906518936157">
    <ele>1152.05712890625</ele>
    <time>2012-05-22T16:15:40Z</time>
   </trkpt>
   <trkpt lat="46.0883026123047" lon="7.21909236907959">
    <ele>1152.3427734375</ele>
    <time>2012-05-22T16:15:41Z</time>
   </trkpt>
   <trkpt lat="46.0882835388184" lon="7.21912097930908">
    <ele>1152.62854003906</ele>
    <time>2012-05-22T16:15:42Z</time>
   </trkpt>
   <trkpt lat="46.0882606506348" lon="7.21915006637573">
    <ele>1152.91418457031</ele>
    <time>2012-05-22T16:15:43Z</time>
   </trkpt>
   <trkpt lat="46.0882453918457" lon="7.21917676925659">
    <ele>1153.19995117188</ele>
    <time>2012-05-22T16:15:44Z</time>
   </trkpt>
   <trkpt lat="46.0881500244141" lon="7.21931409835815">
    <ele>1153.19995117188</ele>
    <time>2012-05-22T16:15:49Z</time>
   </trkpt>
   <trkpt lat="46.0881309509277" lon="7.21934032440186">
    <ele>1153.64001464844</ele>
    <time>2012-05-22T16:15:50Z</time>
   </trkpt>
   <trkpt lat="46.0881156921387" lon="7.21936702728272">
    <ele>1154.07995605469</ele>
    <time>2012-05-22T16:15:51Z</time>
   </trkpt>
   <trkpt lat="46.0880928039551" lon="7.21939420700073">
    <ele>1154.52001953125</ele>
    <time>2012-05-22T16:15:52Z</time>
   </trkpt>
   <trkpt lat="46.0880737304688" lon="7.21941995620728">
    <ele>1154.9599609375</ele>
    <time>2012-05-22T16:15:53Z</time>
   </trkpt>
   <trkpt lat="46.0880584716797" lon="7.21944808959961">
    <ele>1155.40002441406</ele>
    <time>2012-05-22T16:15:54Z</time>
   </trkpt>
   <trkpt lat="46.088005065918" lon="7.21953630447388">
    <ele>1155.40002441406</ele>
    <time>2012-05-22T16:15:57Z</time>
   </trkpt>
   <trkpt lat="46.0879898071289" lon="7.21956634521484">
    <ele>1155.94995117188</ele>
    <time>2012-05-22T16:15:58Z</time>
   </trkpt>
   <trkpt lat="46.0879745483398" lon="7.21960115432739">
    <ele>1156.5</ele>
    <time>2012-05-22T16:15:59Z</time>
   </trkpt>
   <trkpt lat="46.0879592895508" lon="7.21963405609131">
    <ele>1157.05004882812</ele>
    <time>2012-05-22T16:16:00Z</time>
   </trkpt>
   <trkpt lat="46.0879440307617" lon="7.21966743469238">
    <ele>1157.59997558594</ele>
    <time>2012-05-22T16:16:01Z</time>
   </trkpt>
   <trkpt lat="46.0879020690918" lon="7.2197642326355">
    <ele>1157.59997558594</ele>
    <time>2012-05-22T16:16:04Z</time>
   </trkpt>
   <trkpt lat="46.0878868103027" lon="7.21979904174805">
    <ele>1157.8857421875</ele>
    <time>2012-05-22T16:16:05Z</time>
   </trkpt>
   <trkpt lat="46.0878601074219" lon="7.21987867355347">
    <ele>1158.45715332031</ele>
    <time>2012-05-22T16:16:07Z</time>
   </trkpt>
   <trkpt lat="46.0878448486328" lon="7.21991539001465">
    <ele>1158.74279785156</ele>
    <time>2012-05-22T16:16:08Z</time>
   </trkpt>
   <trkpt lat="46.087833404541" lon="7.21995496749878">
    <ele>1159.02856445312</ele>
    <time>2012-05-22T16:16:09Z</time>
   </trkpt>
   <trkpt lat="46.0878219604492" lon="7.21999645233154">
    <ele>1159.31420898438</ele>
    <time>2012-05-22T16:16:10Z</time>
   </trkpt>
   <trkpt lat="46.0878143310547" lon="7.22003364562988">
    <ele>1159.59997558594</ele>
    <time>2012-05-22T16:16:11Z</time>
   </trkpt>
   <trkpt lat="46.0878067016602" lon="7.22007322311401">
    <ele>1159.59997558594</ele>
    <time>2012-05-22T16:16:12Z</time>
   </trkpt>
   <trkpt lat="46.0877571105957" lon="7.22033023834228">
    <ele>1160.79992675781</ele>
    <time>2012-05-22T16:16:18Z</time>
   </trkpt>
   <trkpt lat="46.0877494812012" lon="7.22037601470947">
    <ele>1161</ele>
    <time>2012-05-22T16:16:19Z</time>
   </trkpt>
   <trkpt lat="46.0877456665039" lon="7.22042369842529">
    <ele>1161.19995117188</ele>
    <time>2012-05-22T16:16:20Z</time>
   </trkpt>
   <trkpt lat="46.0877380371094" lon="7.22047281265259">
    <ele>1161.40002441406</ele>
    <time>2012-05-22T16:16:21Z</time>
   </trkpt>
   <trkpt lat="46.0877304077148" lon="7.22051572799683">
    <ele>1161.59997558594</ele>
    <time>2012-05-22T16:16:22Z</time>
   </trkpt>
   <trkpt lat="46.0876960754394" lon="7.22069120407104">
    <ele>1161.59997558594</ele>
    <time>2012-05-22T16:16:26Z</time>
   </trkpt>
   <trkpt lat="46.0876541137695" lon="7.22098112106323">
    <ele>1162.92004394531</ele>
    <time>2012-05-22T16:16:32Z</time>
   </trkpt>
   <trkpt lat="46.0876502990723" lon="7.22103118896484">
    <ele>1163.14001464844</ele>
    <time>2012-05-22T16:16:33Z</time>
   </trkpt>
   <trkpt lat="46.087646484375" lon="7.22107887268066">
    <ele>1163.35998535156</ele>
    <time>2012-05-22T16:16:34Z</time>
   </trkpt>
   <trkpt lat="46.0876502990723" lon="7.22112464904785">
    <ele>1163.580078125</ele>
    <time>2012-05-22T16:16:35Z</time>
   </trkpt>
   <trkpt lat="46.0876579284668" lon="7.22117280960083">
    <ele>1163.80004882812</ele>
    <time>2012-05-22T16:16:36Z</time>
   </trkpt>
   <trkpt lat="46.0876922607422" lon="7.22125434875488">
    <ele>1163.80004882812</ele>
    <time>2012-05-22T16:16:38Z</time>
   </trkpt>
   <trkpt lat="46.0878143310547" lon="7.22133302688599">
    <ele>1164.80004882812</ele>
    <time>2012-05-22T16:16:42Z</time>
   </trkpt>
   <trkpt lat="46.0878448486328" lon="7.22132253646851">
    <ele>1165.05004882812</ele>
    <time>2012-05-22T16:16:43Z</time>
   </trkpt>
   <trkpt lat="46.0878791809082" lon="7.22130584716797">
    <ele>1165.30004882812</ele>
    <time>2012-05-22T16:16:44Z</time>
   </trkpt>
   <trkpt lat="46.0879096984863" lon="7.2212815284729">
    <ele>1165.55004882812</ele>
    <time>2012-05-22T16:16:45Z</time>
   </trkpt>
   <trkpt lat="46.0879364013672" lon="7.22124814987183">
    <ele>1165.80004882812</ele>
    <time>2012-05-22T16:16:46Z</time>
   </trkpt>
   <trkpt lat="46.0880012512207" lon="7.2210693359375">
    <ele>1165.80004882812</ele>
    <time>2012-05-22T16:16:50Z</time>
   </trkpt>
   <trkpt lat="46.088062286377" lon="7.22070693969726">
    <ele>1167.07275390625</ele>
    <time>2012-05-22T16:16:57Z</time>
   </trkpt>
   <trkpt lat="46.0880699157715" lon="7.22065305709839">
    <ele>1167.25463867188</ele>
    <time>2012-05-22T16:16:58Z</time>
   </trkpt>
   <trkpt lat="46.088077545166" lon="7.22060108184814">
    <ele>1167.43640136719</ele>
    <time>2012-05-22T16:16:59Z</time>
   </trkpt>
   <trkpt lat="46.0880889892578" lon="7.22055292129517">
    <ele>1167.61828613281</ele>
    <time>2012-05-22T16:17:00Z</time>
   </trkpt>
   <trkpt lat="46.0881004333496" lon="7.22050285339356">
    <ele>1167.80004882812</ele>
    <time>2012-05-22T16:17:01Z</time>
   </trkpt>
   <trkpt lat="46.0881500244141" lon="7.22036361694336">
    <ele>1167.80004882812</ele>
    <time>2012-05-22T16:17:04Z</time>
   </trkpt>
   <trkpt lat="46.0881881713867" lon="7.22027826309204">
    <ele>1168.41625976562</ele>
    <time>2012-05-22T16:17:06Z</time>
   </trkpt>
   <trkpt lat="46.088207244873" lon="7.2202320098877">
    <ele>1168.72436523438</ele>
    <time>2012-05-22T16:17:07Z</time>
   </trkpt>
   <trkpt lat="46.0882263183594" lon="7.22019147872925">
    <ele>1169.03247070312</ele>
    <time>2012-05-22T16:17:08Z</time>
   </trkpt>
   <trkpt lat="46.088249206543" lon="7.22015762329102">
    <ele>1169.34057617188</ele>
    <time>2012-05-22T16:17:09Z</time>
   </trkpt>
   <trkpt lat="46.0882682800293" lon="7.22012233734131">
    <ele>1169.64868164062</ele>
    <time>2012-05-22T16:17:10Z</time>
   </trkpt>
   <trkpt lat="46.0883712768555" lon="7.2200140953064">
    <ele>1170.88110351562</ele>
    <time>2012-05-22T16:17:14Z</time>
   </trkpt>
   <trkpt lat="46.0883979797363" lon="7.2199912071228">
    <ele>1171.18920898438</ele>
    <time>2012-05-22T16:17:15Z</time>
   </trkpt>
   <trkpt lat="46.0884246826172" lon="7.21996879577637">
    <ele>1171.49731445312</ele>
    <time>2012-05-22T16:17:16Z</time>
   </trkpt>
   <trkpt lat="46.088451385498" lon="7.2199501991272">
    <ele>1171.80541992188</ele>
    <time>2012-05-22T16:17:17Z</time>
   </trkpt>
   <trkpt lat="46.0884780883789" lon="7.21993112564087">
    <ele>1172.11352539062</ele>
    <time>2012-05-22T16:17:18Z</time>
   </trkpt>
   <trkpt lat="46.0885848999023" lon="7.21985149383545">
    <ele>1173.34594726562</ele>
    <time>2012-05-22T16:17:22Z</time>
   </trkpt>
   <trkpt lat="46.0886116027832" lon="7.21983242034912">
    <ele>1173.65405273438</ele>
    <time>2012-05-22T16:17:23Z</time>
   </trkpt>
   <trkpt lat="46.0886383056641" lon="7.21981811523438">
    <ele>1173.96215820312</ele>
    <time>2012-05-22T16:17:24Z</time>
   </trkpt>
   <trkpt lat="46.0886650085449" lon="7.21980381011963">
    <ele>1174.27026367188</ele>
    <time>2012-05-22T16:17:25Z</time>
   </trkpt>
   <trkpt lat="46.0886917114258" lon="7.2197904586792">
    <ele>1174.57836914062</ele>
    <time>2012-05-22T16:17:26Z</time>
   </trkpt>
   <trkpt lat="46.0888252258301" lon="7.2197060585022">
    <ele>1176.11889648438</ele>
    <time>2012-05-22T16:17:31Z</time>
   </trkpt>
   <trkpt lat="46.0888481140137" lon="7.2196888923645">
    <ele>1176.42700195312</ele>
    <time>2012-05-22T16:17:32Z</time>
   </trkpt>
   <trkpt lat="46.0888710021973" lon="7.21967124938965">
    <ele>1176.73510742188</ele>
    <time>2012-05-22T16:17:33Z</time>
   </trkpt>
   <trkpt lat="46.0888977050781" lon="7.21965456008911">
    <ele>1177.04321289062</ele>
    <time>2012-05-22T16:17:34Z</time>
   </trkpt>
   <trkpt lat="46.088924407959" lon="7.21964073181152">
    <ele>1177.35131835938</ele>
    <time>2012-05-22T16:17:35Z</time>
   </trkpt>
   <trkpt lat="46.088981628418" lon="7.21961259841919">
    <ele>1177.96752929688</ele>
    <time>2012-05-22T16:17:37Z</time>
   </trkpt>
   <trkpt lat="46.0890083312988" lon="7.21959781646728">
    <ele>1178.27563476562</ele>
    <time>2012-05-22T16:17:38Z</time>
   </trkpt>
   <trkpt lat="46.0890312194824" lon="7.21958065032959">
    <ele>1178.58374023438</ele>
    <time>2012-05-22T16:17:39Z</time>
   </trkpt>
   <trkpt lat="46.0890579223633" lon="7.21956157684326">
    <ele>1178.89184570312</ele>
    <time>2012-05-22T16:17:40Z</time>
   </trkpt>
   <trkpt lat="46.0890846252441" lon="7.21954441070557">
    <ele>1179.19995117188</ele>
    <time>2012-05-22T16:17:41Z</time>
   </trkpt>
   <trkpt lat="46.0891342163086" lon="7.21951007843018">
    <ele>1179.19995117188</ele>
    <time>2012-05-22T16:17:43Z</time>
   </trkpt>
   <trkpt lat="46.0892295837402" lon="7.21945190429688">
    <ele>1180.35290527344</ele>
    <time>2012-05-22T16:17:47Z</time>
   </trkpt>
   <trkpt lat="46.0892524719238" lon="7.21943759918213">
    <ele>1180.64111328125</ele>
    <time>2012-05-22T16:17:48Z</time>
   </trkpt>
   <trkpt lat="46.0892791748047" lon="7.21942138671875">
    <ele>1180.92932128906</ele>
    <time>2012-05-22T16:17:49Z</time>
   </trkpt>
   <trkpt lat="46.0893058776856" lon="7.2194037437439">
    <ele>1181.21765136719</ele>
    <time>2012-05-22T16:17:50Z</time>
   </trkpt>
   <trkpt lat="46.0893325805664" lon="7.21938276290894">
    <ele>1181.505859375</ele>
    <time>2012-05-22T16:17:51Z</time>
   </trkpt>
   <trkpt lat="46.0894050598144" lon="7.2193169593811">
    <ele>1182.37060546875</ele>
    <time>2012-05-22T16:17:54Z</time>
   </trkpt>
   <trkpt lat="46.089427947998" lon="7.21929836273193">
    <ele>1182.65881347656</ele>
    <time>2012-05-22T16:17:55Z</time>
   </trkpt>
   <trkpt lat="46.0894470214844" lon="7.21927547454834">
    <ele>1182.94702148438</ele>
    <time>2012-05-22T16:17:56Z</time>
   </trkpt>
   <trkpt lat="46.089469909668" lon="7.21924924850464">
    <ele>1183.23522949219</ele>
    <time>2012-05-22T16:17:57Z</time>
   </trkpt>
   <trkpt lat="46.0894927978516" lon="7.21922731399536">
    <ele>1183.52355957031</ele>
    <time>2012-05-22T16:17:58Z</time>
   </trkpt>
   <trkpt lat="46.0895767211914" lon="7.21911811828613">
    <ele>1184.67639160156</ele>
    <time>2012-05-22T16:18:02Z</time>
   </trkpt>
   <trkpt lat="46.0895919799805" lon="7.21908617019653">
    <ele>1184.96472167969</ele>
    <time>2012-05-22T16:18:03Z</time>
   </trkpt>
   <trkpt lat="46.0896110534668" lon="7.21905469894409">
    <ele>1185.2529296875</ele>
    <time>2012-05-22T16:18:04Z</time>
   </trkpt>
   <trkpt lat="46.0896263122559" lon="7.21902084350586">
    <ele>1185.54113769531</ele>
    <time>2012-05-22T16:18:05Z</time>
   </trkpt>
   <trkpt lat="46.0897026062012" lon="7.2188401222229">
    <ele>1186.98229980469</ele>
    <time>2012-05-22T16:18:10Z</time>
   </trkpt>
   <trkpt lat="46.0897178649902" lon="7.21880197525024">
    <ele>1187.27062988281</ele>
    <time>2012-05-22T16:18:11Z</time>
   </trkpt>
   <trkpt lat="46.0897331237793" lon="7.21876096725464">
    <ele>1187.55883789062</ele>
    <time>2012-05-22T16:18:12Z</time>
   </trkpt>
   <trkpt lat="46.0897445678711" lon="7.21872138977051">
    <ele>1187.84704589844</ele>
    <time>2012-05-22T16:18:13Z</time>
   </trkpt>
   <trkpt lat="46.0897560119629" lon="7.21868181228638">
    <ele>1188.13525390625</ele>
    <time>2012-05-22T16:18:14Z</time>
   </trkpt>
   <trkpt lat="46.0897903442383" lon="7.21851301193237">
    <ele>1189.28820800781</ele>
    <time>2012-05-22T16:18:18Z</time>
   </trkpt>
   <trkpt lat="46.0898017883301" lon="7.2184739112854">
    <ele>1189.57641601562</ele>
    <time>2012-05-22T16:18:19Z</time>
   </trkpt>
   <trkpt lat="46.0898094177246" lon="7.21843481063843">
    <ele>1189.86474609375</ele>
    <time>2012-05-22T16:18:20Z</time>
   </trkpt>
   <trkpt lat="46.0898208618164" lon="7.2183985710144">
    <ele>1190.15295410156</ele>
    <time>2012-05-22T16:18:21Z</time>
   </trkpt>
   <trkpt lat="46.0898284912109" lon="7.21835613250732">
    <ele>1190.44116210938</ele>
    <time>2012-05-22T16:18:22Z</time>
   </trkpt>
   <trkpt lat="46.0898704528809" lon="7.2182035446167">
    <ele>1191.59411621094</ele>
    <time>2012-05-22T16:18:26Z</time>
   </trkpt>
   <trkpt lat="46.0898780822754" lon="7.21816539764404">
    <ele>1191.88232421875</ele>
    <time>2012-05-22T16:18:27Z</time>
   </trkpt>
   <trkpt lat="46.0898933410644" lon="7.21812677383423">
    <ele>1192.17065429688</ele>
    <time>2012-05-22T16:18:28Z</time>
   </trkpt>
   <trkpt lat="46.0899085998535" lon="7.21809148788452">
    <ele>1192.45886230469</ele>
    <time>2012-05-22T16:18:29Z</time>
   </trkpt>
   <trkpt lat="46.0899963378906" lon="7.21787452697754">
    <ele>1194.18823242188</ele>
    <time>2012-05-22T16:18:35Z</time>
   </trkpt>
   <trkpt lat="46.090015411377" lon="7.21784400939941">
    <ele>1194.47644042969</ele>
    <time>2012-05-22T16:18:36Z</time>
   </trkpt>
   <trkpt lat="46.0900344848633" lon="7.21780967712402">
    <ele>1194.76477050781</ele>
    <time>2012-05-22T16:18:37Z</time>
   </trkpt>
   <trkpt lat="46.0900535583496" lon="7.21778154373169">
    <ele>1195.05297851562</ele>
    <time>2012-05-22T16:18:38Z</time>
   </trkpt>
   <trkpt lat="46.0900764465332" lon="7.21775674819946">
    <ele>1195.34118652344</ele>
    <time>2012-05-22T16:18:39Z</time>
   </trkpt>
   <trkpt lat="46.0901184082031" lon="7.21770524978638">
    <ele>1195.91772460938</ele>
    <time>2012-05-22T16:18:41Z</time>
   </trkpt>
   <trkpt lat="46.0901412963867" lon="7.21767663955688">
    <ele>1196.20593261719</ele>
    <time>2012-05-22T16:18:42Z</time>
   </trkpt>
   <trkpt lat="46.0901641845703" lon="7.21765089035034">
    <ele>1196.494140625</ele>
    <time>2012-05-22T16:18:43Z</time>
   </trkpt>
   <trkpt lat="46.0901870727539" lon="7.21762418746948">
    <ele>1196.78234863281</ele>
    <time>2012-05-22T16:18:44Z</time>
   </trkpt>
   <trkpt lat="46.0902099609375" lon="7.21760177612305">
    <ele>1197.07067871094</ele>
    <time>2012-05-22T16:18:45Z</time>
   </trkpt>
   <trkpt lat="46.0902786254883" lon="7.21753025054932">
    <ele>1197.93530273438</ele>
    <time>2012-05-22T16:18:48Z</time>
   </trkpt>
   <trkpt lat="46.0903015136719" lon="7.21750497817993">
    <ele>1198.2236328125</ele>
    <time>2012-05-22T16:18:49Z</time>
   </trkpt>
   <trkpt lat="46.0903244018555" lon="7.21747732162476">
    <ele>1198.51184082031</ele>
    <time>2012-05-22T16:18:50Z</time>
   </trkpt>
   <trkpt lat="46.0903434753418" lon="7.21745300292969">
    <ele>1198.80004882812</ele>
    <time>2012-05-22T16:18:51Z</time>
   </trkpt>
   <trkpt lat="46.0904083251953" lon="7.21734046936035">
    <ele>1198.80004882812</ele>
    <time>2012-05-22T16:18:55Z</time>
   </trkpt>
   <trkpt lat="46.0904388427734" lon="7.21727418899536">
    <ele>1199.59997558594</ele>
    <time>2012-05-22T16:18:57Z</time>
   </trkpt>
   <trkpt lat="46.0904541015625" lon="7.21723747253418">
    <ele>1200</ele>
    <time>2012-05-22T16:18:58Z</time>
   </trkpt>
   <trkpt lat="46.0904693603516" lon="7.21720218658447">
    <ele>1200.40002441406</ele>
    <time>2012-05-22T16:18:59Z</time>
   </trkpt>
   <trkpt lat="46.0904808044434" lon="7.21716022491455">
    <ele>1200.79992675781</ele>
    <time>2012-05-22T16:19:00Z</time>
   </trkpt>
   <trkpt lat="46.0904960632324" lon="7.21711587905884">
    <ele>1201.19995117188</ele>
    <time>2012-05-22T16:19:01Z</time>
   </trkpt>
   <trkpt lat="46.0905075073242" lon="7.21707439422607">
    <ele>1201.19995117188</ele>
    <time>2012-05-22T16:19:02Z</time>
   </trkpt>
   <trkpt lat="46.090518951416" lon="7.21698999404907">
    <ele>1201.86657714844</ele>
    <time>2012-05-22T16:19:04Z</time>
   </trkpt>
   <trkpt lat="46.0905227661133" lon="7.21694993972778">
    <ele>1202.19995117188</ele>
    <time>2012-05-22T16:19:05Z</time>
   </trkpt>
   <trkpt lat="46.0905227661133" lon="7.21691083908081">
    <ele>1202.53332519531</ele>
    <time>2012-05-22T16:19:06Z</time>
   </trkpt>
   <trkpt lat="46.090518951416" lon="7.21687173843384">
    <ele>1202.86657714844</ele>
    <time>2012-05-22T16:19:07Z</time>
   </trkpt>
   <trkpt lat="46.0905151367188" lon="7.21683120727539">
    <ele>1203.19995117188</ele>
    <time>2012-05-22T16:19:08Z</time>
   </trkpt>
   <trkpt lat="46.0905113220215" lon="7.21678972244263">
    <ele>1203.19995117188</ele>
    <time>2012-05-22T16:19:09Z</time>
   </trkpt>
   <trkpt lat="46.0904769897461" lon="7.21658039093018">
    <ele>1204.43530273438</ele>
    <time>2012-05-22T16:19:14Z</time>
   </trkpt>
   <trkpt lat="46.0904655456543" lon="7.21653890609741">
    <ele>1204.68237304688</ele>
    <time>2012-05-22T16:19:15Z</time>
   </trkpt>
   <trkpt lat="46.0904579162598" lon="7.21649551391602">
    <ele>1204.92944335938</ele>
    <time>2012-05-22T16:19:16Z</time>
   </trkpt>
   <trkpt lat="46.0904426574707" lon="7.21645355224609">
    <ele>1205.17651367188</ele>
    <time>2012-05-22T16:19:17Z</time>
   </trkpt>
   <trkpt lat="46.0904579162598" lon="7.21626377105713">
    <ele>1206.41174316406</ele>
    <time>2012-05-22T16:19:22Z</time>
   </trkpt>
   <trkpt lat="46.0904731750488" lon="7.21623277664185">
    <ele>1206.65881347656</ele>
    <time>2012-05-22T16:19:23Z</time>
   </trkpt>
   <trkpt lat="46.0904998779297" lon="7.21621179580688">
    <ele>1206.90588378906</ele>
    <time>2012-05-22T16:19:24Z</time>
   </trkpt>
   <trkpt lat="46.0905227661133" lon="7.21620512008667">
    <ele>1207.15295410156</ele>
    <time>2012-05-22T16:19:25Z</time>
   </trkpt>
   <trkpt lat="46.0905494689941" lon="7.21621084213257">
    <ele>1207.40002441406</ele>
    <time>2012-05-22T16:19:26Z</time>
   </trkpt>
   <trkpt lat="46.090633392334" lon="7.21630620956421">
    <ele>1207.40002441406</ele>
    <time>2012-05-22T16:19:30Z</time>
   </trkpt>
   <trkpt lat="46.0906677246094" lon="7.21638107299805">
    <ele>1208.09997558594</ele>
    <time>2012-05-22T16:19:32Z</time>
   </trkpt>
   <trkpt lat="46.0906791687012" lon="7.21641683578491">
    <ele>1208.44995117188</ele>
    <time>2012-05-22T16:19:33Z</time>
   </trkpt>
   <trkpt lat="46.0906867980957" lon="7.21645069122314">
    <ele>1208.80004882812</ele>
    <time>2012-05-22T16:19:34Z</time>
   </trkpt>
   <trkpt lat="46.0906982421875" lon="7.21648550033569">
    <ele>1209.15002441406</ele>
    <time>2012-05-22T16:19:35Z</time>
   </trkpt>
   <trkpt lat="46.090705871582" lon="7.21652364730835">
    <ele>1209.5</ele>
    <time>2012-05-22T16:19:36Z</time>
   </trkpt>
   <trkpt lat="46.0907249450684" lon="7.21664428710938">
    <ele>1210.55004882812</ele>
    <time>2012-05-22T16:19:39Z</time>
   </trkpt>
   <trkpt lat="46.0907287597656" lon="7.21668720245361">
    <ele>1210.90002441406</ele>
    <time>2012-05-22T16:19:40Z</time>
   </trkpt>
   <trkpt lat="46.0907363891602" lon="7.21672868728638">
    <ele>1211.25</ele>
    <time>2012-05-22T16:19:41Z</time>
   </trkpt>
   <trkpt lat="46.0907402038574" lon="7.21677303314209">
    <ele>1211.59997558594</ele>
    <time>2012-05-22T16:19:42Z</time>
   </trkpt>
   <trkpt lat="46.0907440185547" lon="7.21681547164917">
    <ele>1211.59997558594</ele>
    <time>2012-05-22T16:19:43Z</time>
   </trkpt>
   <trkpt lat="46.0907440185547" lon="7.21694087982178">
    <ele>1212.34204101562</ele>
    <time>2012-05-22T16:19:46Z</time>
   </trkpt>
   <trkpt lat="46.090747833252" lon="7.21698379516602">
    <ele>1212.58947753906</ele>
    <time>2012-05-22T16:19:47Z</time>
   </trkpt>
   <trkpt lat="46.090747833252" lon="7.21702527999878">
    <ele>1212.83679199219</ele>
    <time>2012-05-22T16:19:48Z</time>
   </trkpt>
   <trkpt lat="46.090747833252" lon="7.21706438064575">
    <ele>1213.08422851562</ele>
    <time>2012-05-22T16:19:49Z</time>
   </trkpt>
   <trkpt lat="46.0907363891602" lon="7.21710252761841">
    <ele>1213.33154296875</ele>
    <time>2012-05-22T16:19:50Z</time>
   </trkpt>
   <trkpt lat="46.0906982421875" lon="7.21732425689697">
    <ele>1214.81579589844</ele>
    <time>2012-05-22T16:19:56Z</time>
   </trkpt>
   <trkpt lat="46.090690612793" lon="7.21736001968384">
    <ele>1215.06311035156</ele>
    <time>2012-05-22T16:19:57Z</time>
   </trkpt>
   <trkpt lat="46.0906829833984" lon="7.21739625930786">
    <ele>1215.310546875</ele>
    <time>2012-05-22T16:19:58Z</time>
   </trkpt>
   <trkpt lat="46.0906715393066" lon="7.21743011474609">
    <ele>1215.55786132812</ele>
    <time>2012-05-22T16:19:59Z</time>
   </trkpt>
   <trkpt lat="46.0906600952148" lon="7.21746206283569">
    <ele>1215.80529785156</ele>
    <time>2012-05-22T16:20:00Z</time>
   </trkpt>
   <trkpt lat="46.0906181335449" lon="7.21759080886841">
    <ele>1216.79467773438</ele>
    <time>2012-05-22T16:20:04Z</time>
   </trkpt>
   <trkpt lat="46.0906066894531" lon="7.2176251411438">
    <ele>1217.04211425781</ele>
    <time>2012-05-22T16:20:05Z</time>
   </trkpt>
   <trkpt lat="46.0905914306641" lon="7.21766042709351">
    <ele>1217.28942871094</ele>
    <time>2012-05-22T16:20:06Z</time>
   </trkpt>
   <trkpt lat="46.0905838012695" lon="7.21769523620606">
    <ele>1217.53686523438</ele>
    <time>2012-05-22T16:20:07Z</time>
   </trkpt>
   <trkpt lat="46.0905380249023" lon="7.21781730651856">
    <ele>1218.5263671875</ele>
    <time>2012-05-22T16:20:11Z</time>
   </trkpt>
   <trkpt lat="46.0905265808106" lon="7.21784687042236">
    <ele>1218.77368164062</ele>
    <time>2012-05-22T16:20:12Z</time>
   </trkpt>
   <trkpt lat="46.090518951416" lon="7.21787691116333">
    <ele>1219.02099609375</ele>
    <time>2012-05-22T16:20:13Z</time>
   </trkpt>
   <trkpt lat="46.0905075073242" lon="7.21790361404419">
    <ele>1219.26843261719</ele>
    <time>2012-05-22T16:20:14Z</time>
   </trkpt>
   <trkpt lat="46.0904922485352" lon="7.217933177948">
    <ele>1219.51574707031</ele>
    <time>2012-05-22T16:20:15Z</time>
   </trkpt>
   <trkpt lat="46.0904312133789" lon="7.21808958053589">
    <ele>1220.75268554688</ele>
    <time>2012-05-22T16:20:20Z</time>
   </trkpt>
   <trkpt lat="46.0904197692871" lon="7.21812105178833">
    <ele>1221</ele>
    <time>2012-05-22T16:20:21Z</time>
   </trkpt>
   <trkpt lat="46.0904083251953" lon="7.21815299987793">
    <ele>1221.24731445312</ele>
    <time>2012-05-22T16:20:22Z</time>
   </trkpt>
   <trkpt lat="46.0904006958008" lon="7.21818113327026">
    <ele>1221.49475097656</ele>
    <time>2012-05-22T16:20:23Z</time>
   </trkpt>
   <trkpt lat="46.0903930664062" lon="7.21821069717407">
    <ele>1221.74206542969</ele>
    <time>2012-05-22T16:20:24Z</time>
   </trkpt>
   <trkpt lat="46.0903549194336" lon="7.21834182739258">
    <ele>1222.73156738281</ele>
    <time>2012-05-22T16:20:28Z</time>
   </trkpt>
   <trkpt lat="46.0903434753418" lon="7.21837520599365">
    <ele>1222.97900390625</ele>
    <time>2012-05-22T16:20:29Z</time>
   </trkpt>
   <trkpt lat="46.09033203125" lon="7.21840715408325">
    <ele>1223.22631835938</ele>
    <time>2012-05-22T16:20:30Z</time>
   </trkpt>
   <trkpt lat="46.0903244018555" lon="7.21844005584717">
    <ele>1223.4736328125</ele>
    <time>2012-05-22T16:20:31Z</time>
   </trkpt>
   <trkpt lat="46.0902862548828" lon="7.2186336517334">
    <ele>1224.95788574219</ele>
    <time>2012-05-22T16:20:37Z</time>
   </trkpt>
   <trkpt lat="46.0902824401856" lon="7.21866846084595">
    <ele>1225.20532226562</ele>
    <time>2012-05-22T16:20:38Z</time>
   </trkpt>
   <trkpt lat="46.090274810791" lon="7.21870517730713">
    <ele>1225.45263671875</ele>
    <time>2012-05-22T16:20:39Z</time>
   </trkpt>
   <trkpt lat="46.0902671813965" lon="7.21873998641968">
    <ele>1225.69995117188</ele>
    <time>2012-05-22T16:20:40Z</time>
   </trkpt>
   <trkpt lat="46.0902633666992" lon="7.21877288818359">
    <ele>1225.94738769531</ele>
    <time>2012-05-22T16:20:41Z</time>
   </trkpt>
   <trkpt lat="46.0902404785156" lon="7.21893310546875">
    <ele>1227.18420410156</ele>
    <time>2012-05-22T16:20:46Z</time>
   </trkpt>
   <trkpt lat="46.0902366638184" lon="7.21897077560425">
    <ele>1227.431640625</ele>
    <time>2012-05-22T16:20:47Z</time>
   </trkpt>
   <trkpt lat="46.0902366638184" lon="7.2190055847168">
    <ele>1227.67895507812</ele>
    <time>2012-05-22T16:20:48Z</time>
   </trkpt>
   <trkpt lat="46.0902328491211" lon="7.21904182434082">
    <ele>1227.92639160156</ele>
    <time>2012-05-22T16:20:49Z</time>
   </trkpt>
   <trkpt lat="46.0902328491211" lon="7.21908140182495">
    <ele>1228.17370605469</ele>
    <time>2012-05-22T16:20:50Z</time>
   </trkpt>
   <trkpt lat="46.090217590332" lon="7.21926736831665">
    <ele>1229.41052246094</ele>
    <time>2012-05-22T16:20:55Z</time>
   </trkpt>
   <trkpt lat="46.0902137756348" lon="7.2193021774292">
    <ele>1229.65795898438</ele>
    <time>2012-05-22T16:20:56Z</time>
   </trkpt>
   <trkpt lat="46.0902137756348" lon="7.21933698654175">
    <ele>1229.9052734375</ele>
    <time>2012-05-22T16:20:57Z</time>
   </trkpt>
   <trkpt lat="46.0902099609375" lon="7.21937274932861">
    <ele>1230.15270996094</ele>
    <time>2012-05-22T16:20:58Z</time>
   </trkpt>
   <trkpt lat="46.0902061462402" lon="7.21940851211548">
    <ele>1230.40002441406</ele>
    <time>2012-05-22T16:20:59Z</time>
   </trkpt>
   <trkpt lat="46.0901985168457" lon="7.21959400177002">
    <ele>1230.40002441406</ele>
    <time>2012-05-22T16:21:04Z</time>
   </trkpt>
   <trkpt lat="46.0901947021484" lon="7.21963024139404">
    <ele>1230.83996582031</ele>
    <time>2012-05-22T16:21:05Z</time>
   </trkpt>
   <trkpt lat="46.0901947021484" lon="7.21966457366943">
    <ele>1231.28002929688</ele>
    <time>2012-05-22T16:21:06Z</time>
   </trkpt>
   <trkpt lat="46.0901947021484" lon="7.21969890594482">
    <ele>1231.71997070312</ele>
    <time>2012-05-22T16:21:07Z</time>
   </trkpt>
   <trkpt lat="46.0901947021484" lon="7.21973514556885">
    <ele>1232.16003417969</ele>
    <time>2012-05-22T16:21:08Z</time>
   </trkpt>
   <trkpt lat="46.0901947021484" lon="7.21977376937866">
    <ele>1232.59997558594</ele>
    <time>2012-05-22T16:21:09Z</time>
   </trkpt>
   <trkpt lat="46.0901985168457" lon="7.21991682052612">
    <ele>1232.59997558594</ele>
    <time>2012-05-22T16:21:13Z</time>
   </trkpt>
   <trkpt lat="46.0901985168457" lon="7.2199878692627">
    <ele>1233.33337402344</ele>
    <time>2012-05-22T16:21:15Z</time>
   </trkpt>
   <trkpt lat="46.0901985168457" lon="7.22002506256104">
    <ele>1233.69995117188</ele>
    <time>2012-05-22T16:21:16Z</time>
   </trkpt>
   <trkpt lat="46.0901985168457" lon="7.22006607055664">
    <ele>1234.06665039062</ele>
    <time>2012-05-22T16:21:17Z</time>
   </trkpt>
   <trkpt lat="46.0901985168457" lon="7.22010087966919">
    <ele>1234.43334960938</ele>
    <time>2012-05-22T16:21:18Z</time>
   </trkpt>
   <trkpt lat="46.0901985168457" lon="7.220139503479">
    <ele>1234.80004882812</ele>
    <time>2012-05-22T16:21:19Z</time>
   </trkpt>
   <trkpt lat="46.0901985168457" lon="7.22021341323852">
    <ele>1234.80004882812</ele>
    <time>2012-05-22T16:21:21Z</time>
   </trkpt>
   <trkpt lat="46.0901947021484" lon="7.22036695480347">
    <ele>1235.71435546875</ele>
    <time>2012-05-22T16:21:25Z</time>
   </trkpt>
   <trkpt lat="46.0901947021484" lon="7.22040414810181">
    <ele>1235.94287109375</ele>
    <time>2012-05-22T16:21:26Z</time>
   </trkpt>
   <trkpt lat="46.0901908874512" lon="7.22043991088867">
    <ele>1236.17150878906</ele>
    <time>2012-05-22T16:21:27Z</time>
   </trkpt>
   <trkpt lat="46.0901908874512" lon="7.22047472000122">
    <ele>1236.40002441406</ele>
    <time>2012-05-22T16:21:28Z</time>
   </trkpt>
   <trkpt lat="46.0901908874512" lon="7.22051048278809">
    <ele>1236.62854003906</ele>
    <time>2012-05-22T16:21:29Z</time>
   </trkpt>
   <trkpt lat="46.0901794433594" lon="7.22072124481201">
    <ele>1238</ele>
    <time>2012-05-22T16:21:35Z</time>
   </trkpt>
   <trkpt lat="46.0901756286621" lon="7.22075653076172">
    <ele>1238.228515625</ele>
    <time>2012-05-22T16:21:36Z</time>
   </trkpt>
   <trkpt lat="46.0901718139648" lon="7.22078943252564">
    <ele>1238.45715332031</ele>
    <time>2012-05-22T16:21:37Z</time>
   </trkpt>
   <trkpt lat="46.0901679992676" lon="7.22082424163818">
    <ele>1238.68566894531</ele>
    <time>2012-05-22T16:21:38Z</time>
   </trkpt>
   <trkpt lat="46.0901641845703" lon="7.22085857391357">
    <ele>1238.91430664062</ele>
    <time>2012-05-22T16:21:39Z</time>
   </trkpt>
   <trkpt lat="46.0901336669922" lon="7.22106409072876">
    <ele>1240.28564453125</ele>
    <time>2012-05-22T16:21:45Z</time>
   </trkpt>
   <trkpt lat="46.0901298522949" lon="7.22109937667847">
    <ele>1240.51428222656</ele>
    <time>2012-05-22T16:21:46Z</time>
   </trkpt>
   <trkpt lat="46.0901222229004" lon="7.22113466262817">
    <ele>1240.74279785156</ele>
    <time>2012-05-22T16:21:47Z</time>
   </trkpt>
   <trkpt lat="46.0901107788086" lon="7.22116804122925">
    <ele>1240.97143554688</ele>
    <time>2012-05-22T16:21:48Z</time>
   </trkpt>
   <trkpt lat="46.0901069641113" lon="7.22120571136475">
    <ele>1241.19995117188</ele>
    <time>2012-05-22T16:21:49Z</time>
   </trkpt>
   <trkpt lat="46.0900764465332" lon="7.22138357162476">
    <ele>1241.19995117188</ele>
    <time>2012-05-22T16:21:54Z</time>
   </trkpt>
   <trkpt lat="46.0900688171387" lon="7.22141981124878">
    <ele>1241.59997558594</ele>
    <time>2012-05-22T16:21:55Z</time>
   </trkpt>
   <trkpt lat="46.0900573730469" lon="7.22145414352417">
    <ele>1242</ele>
    <time>2012-05-22T16:21:56Z</time>
   </trkpt>
   <trkpt lat="46.0900497436523" lon="7.22148895263672">
    <ele>1242.39990234375</ele>
    <time>2012-05-22T16:21:57Z</time>
   </trkpt>
   <trkpt lat="46.0900382995606" lon="7.22152423858643">
    <ele>1242.79992675781</ele>
    <time>2012-05-22T16:21:58Z</time>
   </trkpt>
   <trkpt lat="46.090030670166" lon="7.22155809402466">
    <ele>1243.19995117188</ele>
    <time>2012-05-22T16:21:59Z</time>
   </trkpt>
   <trkpt lat="46.0900115966797" lon="7.22162294387817">
    <ele>1243.19995117188</ele>
    <time>2012-05-22T16:22:01Z</time>
   </trkpt>
   <trkpt lat="46.0899810791016" lon="7.22172260284424">
    <ele>1244.14282226562</ele>
    <time>2012-05-22T16:22:04Z</time>
   </trkpt>
   <trkpt lat="46.089973449707" lon="7.221755027771">
    <ele>1244.45715332031</ele>
    <time>2012-05-22T16:22:05Z</time>
   </trkpt>
   <trkpt lat="46.0899620056152" lon="7.22178602218628">
    <ele>1244.771484375</ele>
    <time>2012-05-22T16:22:06Z</time>
   </trkpt>
   <trkpt lat="46.0899467468262" lon="7.22181606292725">
    <ele>1245.08569335938</ele>
    <time>2012-05-22T16:22:07Z</time>
   </trkpt>
   <trkpt lat="46.0899353027344" lon="7.22184991836548">
    <ele>1245.40002441406</ele>
    <time>2012-05-22T16:22:08Z</time>
   </trkpt>
   <trkpt lat="46.0899238586426" lon="7.22188138961792">
    <ele>1245.40002441406</ele>
    <time>2012-05-22T16:22:09Z</time>
   </trkpt>
   <trkpt lat="46.0898590087891" lon="7.22203874588013">
    <ele>1246.51110839844</ele>
    <time>2012-05-22T16:22:14Z</time>
   </trkpt>
   <trkpt lat="46.08984375" lon="7.22206783294678">
    <ele>1246.7333984375</ele>
    <time>2012-05-22T16:22:15Z</time>
   </trkpt>
   <trkpt lat="46.0898323059082" lon="7.22209644317627">
    <ele>1246.95556640625</ele>
    <time>2012-05-22T16:22:16Z</time>
   </trkpt>
   <trkpt lat="46.0898208618164" lon="7.22212648391724">
    <ele>1247.17785644531</ele>
    <time>2012-05-22T16:22:17Z</time>
   </trkpt>
   <trkpt lat="46.0898056030273" lon="7.22215938568115">
    <ele>1247.40002441406</ele>
    <time>2012-05-22T16:22:18Z</time>
   </trkpt>
   <trkpt lat="46.0897903442383" lon="7.22218990325928">
    <ele>1247.40002441406</ele>
    <time>2012-05-22T16:22:19Z</time>
   </trkpt>
   <trkpt lat="46.0897445678711" lon="7.22228097915649">
    <ele>1248.34289550781</ele>
    <time>2012-05-22T16:22:22Z</time>
   </trkpt>
   <trkpt lat="46.089729309082" lon="7.22230815887451">
    <ele>1248.65710449219</ele>
    <time>2012-05-22T16:22:23Z</time>
   </trkpt>
   <trkpt lat="46.089714050293" lon="7.22233486175537">
    <ele>1248.97143554688</ele>
    <time>2012-05-22T16:22:24Z</time>
   </trkpt>
   <trkpt lat="46.0896949768066" lon="7.22235870361328">
    <ele>1249.28564453125</ele>
    <time>2012-05-22T16:22:25Z</time>
   </trkpt>
   <trkpt lat="46.0896797180176" lon="7.22238874435425">
    <ele>1249.59997558594</ele>
    <time>2012-05-22T16:22:26Z</time>
   </trkpt>
   <trkpt lat="46.0896606445312" lon="7.22241592407226">
    <ele>1249.59997558594</ele>
    <time>2012-05-22T16:22:27Z</time>
   </trkpt>
   <trkpt lat="46.089527130127" lon="7.22252988815308">
    <ele>1251.06665039062</ele>
    <time>2012-05-22T16:22:33Z</time>
   </trkpt>
   <trkpt lat="46.0895042419434" lon="7.22254323959351">
    <ele>1251.31103515625</ele>
    <time>2012-05-22T16:22:34Z</time>
   </trkpt>
   <trkpt lat="46.0894775390625" lon="7.22255897521973">
    <ele>1251.55554199219</ele>
    <time>2012-05-22T16:22:35Z</time>
   </trkpt>
   <trkpt lat="46.0894546508789" lon="7.22257375717163">
    <ele>1251.80004882812</ele>
    <time>2012-05-22T16:22:36Z</time>
   </trkpt>
   <trkpt lat="46.0893211364746" lon="7.22263622283936">
    <ele>1253.02221679688</ele>
    <time>2012-05-22T16:22:41Z</time>
   </trkpt>
   <trkpt lat="46.0892944335938" lon="7.22265338897705">
    <ele>1253.2666015625</ele>
    <time>2012-05-22T16:22:42Z</time>
   </trkpt>
   <trkpt lat="46.0892677307129" lon="7.22267723083496">
    <ele>1253.51110839844</ele>
    <time>2012-05-22T16:22:43Z</time>
   </trkpt>
   <trkpt lat="46.0892448425293" lon="7.22270202636719">
    <ele>1253.75561523438</ele>
    <time>2012-05-22T16:22:44Z</time>
   </trkpt>
   <trkpt lat="46.089225769043" lon="7.22273254394531">
    <ele>1254</ele>
    <time>2012-05-22T16:22:45Z</time>
   </trkpt>
   <trkpt lat="46.0892028808594" lon="7.22280597686768">
    <ele>1254</ele>
    <time>2012-05-22T16:22:47Z</time>
   </trkpt>
   <trkpt lat="46.0892486572266" lon="7.22296762466431">
    <ele>1255.0439453125</ele>
    <time>2012-05-22T16:22:51Z</time>
   </trkpt>
   <trkpt lat="46.0893707275391" lon="7.22299671173096">
    <ele>1256.08776855469</ele>
    <time>2012-05-22T16:22:55Z</time>
   </trkpt>
   <trkpt lat="46.0894622802734" lon="7.22297096252441">
    <ele>1256.87072753906</ele>
    <time>2012-05-22T16:22:58Z</time>
   </trkpt>
   <trkpt lat="46.0894927978516" lon="7.22295999526978">
    <ele>1257.13171386719</ele>
    <time>2012-05-22T16:22:59Z</time>
   </trkpt>
   <trkpt lat="46.0895233154297" lon="7.22294759750366">
    <ele>1257.39270019531</ele>
    <time>2012-05-22T16:23:00Z</time>
   </trkpt>
   <trkpt lat="46.0895538330078" lon="7.22293663024902">
    <ele>1257.65368652344</ele>
    <time>2012-05-22T16:23:01Z</time>
   </trkpt>
   <trkpt lat="46.0897064208984" lon="7.22289037704468">
    <ele>1258.95849609375</ele>
    <time>2012-05-22T16:23:06Z</time>
   </trkpt>
   <trkpt lat="46.0897369384766" lon="7.22288131713867">
    <ele>1259.21948242188</ele>
    <time>2012-05-22T16:23:07Z</time>
   </trkpt>
   <trkpt lat="46.0897636413574" lon="7.22286939620972">
    <ele>1259.48046875</ele>
    <time>2012-05-22T16:23:08Z</time>
   </trkpt>
   <trkpt lat="46.0897941589356" lon="7.22286081314087">
    <ele>1259.74145507812</ele>
    <time>2012-05-22T16:23:09Z</time>
   </trkpt>
   <trkpt lat="46.0898208618164" lon="7.22284650802612">
    <ele>1260.00244140625</ele>
    <time>2012-05-22T16:23:10Z</time>
   </trkpt>
   <trkpt lat="46.0899276733398" lon="7.22279644012451">
    <ele>1261.04638671875</ele>
    <time>2012-05-22T16:23:14Z</time>
   </trkpt>
   <trkpt lat="46.0899505615234" lon="7.22278118133545">
    <ele>1261.30737304688</ele>
    <time>2012-05-22T16:23:15Z</time>
   </trkpt>
   <trkpt lat="46.089973449707" lon="7.2227635383606">
    <ele>1261.568359375</ele>
    <time>2012-05-22T16:23:16Z</time>
   </trkpt>
   <trkpt lat="46.0900001525879" lon="7.2227520942688">
    <ele>1261.82922363281</ele>
    <time>2012-05-22T16:23:17Z</time>
   </trkpt>
   <trkpt lat="46.0900230407715" lon="7.22273206710815">
    <ele>1262.09020996094</ele>
    <time>2012-05-22T16:23:18Z</time>
   </trkpt>
   <trkpt lat="46.0901336669922" lon="7.22263956069946">
    <ele>1263.39514160156</ele>
    <time>2012-05-22T16:23:23Z</time>
   </trkpt>
   <trkpt lat="46.0901527404785" lon="7.22262096405029">
    <ele>1263.65612792969</ele>
    <time>2012-05-22T16:23:24Z</time>
   </trkpt>
   <trkpt lat="46.0901756286621" lon="7.22260522842407">
    <ele>1263.91711425781</ele>
    <time>2012-05-22T16:23:25Z</time>
   </trkpt>
   <trkpt lat="46.0901985168457" lon="7.22258996963501">
    <ele>1264.17810058594</ele>
    <time>2012-05-22T16:23:26Z</time>
   </trkpt>
   <trkpt lat="46.0902786254883" lon="7.22253751754761">
    <ele>1264.9609375</ele>
    <time>2012-05-22T16:23:29Z</time>
   </trkpt>
   <trkpt lat="46.0903015136719" lon="7.22252321243286">
    <ele>1265.22192382812</ele>
    <time>2012-05-22T16:23:30Z</time>
   </trkpt>
   <trkpt lat="46.09033203125" lon="7.22249984741211">
    <ele>1265.48291015625</ele>
    <time>2012-05-22T16:23:31Z</time>
   </trkpt>
   <trkpt lat="46.0903587341309" lon="7.22248029708862">
    <ele>1265.74389648438</ele>
    <time>2012-05-22T16:23:32Z</time>
   </trkpt>
   <trkpt lat="46.0903816223144" lon="7.2224612236023">
    <ele>1266.0048828125</ele>
    <time>2012-05-22T16:23:33Z</time>
   </trkpt>
   <trkpt lat="46.0904846191406" lon="7.22238302230835">
    <ele>1267.048828125</ele>
    <time>2012-05-22T16:23:37Z</time>
   </trkpt>
   <trkpt lat="46.0905113220215" lon="7.22236490249634">
    <ele>1267.30981445312</ele>
    <time>2012-05-22T16:23:38Z</time>
   </trkpt>
   <trkpt lat="46.0905418395996" lon="7.2223482131958">
    <ele>1267.57080078125</ele>
    <time>2012-05-22T16:23:39Z</time>
   </trkpt>
   <trkpt lat="46.0905685424805" lon="7.22232913970947">
    <ele>1267.83166503906</ele>
    <time>2012-05-22T16:23:40Z</time>
   </trkpt>
   <trkpt lat="46.0905914306641" lon="7.2223072052002">
    <ele>1268.09265136719</ele>
    <time>2012-05-22T16:23:41Z</time>
   </trkpt>
   <trkpt lat="46.0906753540039" lon="7.22223234176636">
    <ele>1268.87561035156</ele>
    <time>2012-05-22T16:23:44Z</time>
   </trkpt>
   <trkpt lat="46.0907020568848" lon="7.22220849990845">
    <ele>1269.13659667969</ele>
    <time>2012-05-22T16:23:45Z</time>
   </trkpt>
   <trkpt lat="46.0907287597656" lon="7.22218179702759">
    <ele>1269.39758300781</ele>
    <time>2012-05-22T16:23:46Z</time>
   </trkpt>
   <trkpt lat="46.0907516479492" lon="7.22215223312378">
    <ele>1269.65856933594</ele>
    <time>2012-05-22T16:23:47Z</time>
   </trkpt>
   <trkpt lat="46.0907745361328" lon="7.2221245765686">
    <ele>1269.91955566406</ele>
    <time>2012-05-22T16:23:48Z</time>
   </trkpt>
   <trkpt lat="46.0908584594727" lon="7.22199583053589">
    <ele>1270.96337890625</ele>
    <time>2012-05-22T16:23:52Z</time>
   </trkpt>
   <trkpt lat="46.0908737182617" lon="7.22195768356323">
    <ele>1271.22436523438</ele>
    <time>2012-05-22T16:23:53Z</time>
   </trkpt>
   <trkpt lat="46.0908889770508" lon="7.2219181060791">
    <ele>1271.4853515625</ele>
    <time>2012-05-22T16:23:54Z</time>
   </trkpt>
   <trkpt lat="46.0909042358398" lon="7.22187900543213">
    <ele>1271.74633789062</ele>
    <time>2012-05-22T16:23:55Z</time>
   </trkpt>
   <trkpt lat="46.0909156799316" lon="7.221839427948">
    <ele>1272.00732421875</ele>
    <time>2012-05-22T16:23:56Z</time>
   </trkpt>
   <trkpt lat="46.0909385681152" lon="7.22175216674805">
    <ele>1272.529296875</ele>
    <time>2012-05-22T16:23:58Z</time>
   </trkpt>
   <trkpt lat="46.090950012207" lon="7.22170734405518">
    <ele>1272.79028320312</ele>
    <time>2012-05-22T16:23:59Z</time>
   </trkpt>
   <trkpt lat="46.0909576416016" lon="7.22166585922241">
    <ele>1273.05126953125</ele>
    <time>2012-05-22T16:24:00Z</time>
   </trkpt>
   <trkpt lat="46.0909690856934" lon="7.22162294387817">
    <ele>1273.31225585938</ele>
    <time>2012-05-22T16:24:01Z</time>
   </trkpt>
   <trkpt lat="46.0909767150879" lon="7.22158050537109">
    <ele>1273.5732421875</ele>
    <time>2012-05-22T16:24:02Z</time>
   </trkpt>
   <trkpt lat="46.0909996032715" lon="7.22145366668701">
    <ele>1274.35607910156</ele>
    <time>2012-05-22T16:24:05Z</time>
   </trkpt>
   <trkpt lat="46.091007232666" lon="7.22140979766846">
    <ele>1274.61706542969</ele>
    <time>2012-05-22T16:24:06Z</time>
   </trkpt>
   <trkpt lat="46.0910186767578" lon="7.22137212753296">
    <ele>1274.87805175781</ele>
    <time>2012-05-22T16:24:07Z</time>
   </trkpt>
   <trkpt lat="46.0910263061523" lon="7.22133207321167">
    <ele>1275.13903808594</ele>
    <time>2012-05-22T16:24:08Z</time>
   </trkpt>
   <trkpt lat="46.0910339355469" lon="7.22129011154175">
    <ele>1275.40002441406</ele>
    <time>2012-05-22T16:24:09Z</time>
   </trkpt>
   <trkpt lat="46.0910377502441" lon="7.22124719619751">
    <ele>1275.40002441406</ele>
    <time>2012-05-22T16:24:10Z</time>
   </trkpt>
   <trkpt lat="46.0910530090332" lon="7.22116041183472">
    <ele>1276.20007324219</ele>
    <time>2012-05-22T16:24:12Z</time>
   </trkpt>
   <trkpt lat="46.0910568237305" lon="7.22111701965332">
    <ele>1276.60009765625</ele>
    <time>2012-05-22T16:24:13Z</time>
   </trkpt>
   <trkpt lat="46.091064453125" lon="7.22107601165772">
    <ele>1277</ele>
    <time>2012-05-22T16:24:14Z</time>
   </trkpt>
   <trkpt lat="46.0910682678223" lon="7.22103214263916">
    <ele>1277.40002441406</ele>
    <time>2012-05-22T16:24:15Z</time>
   </trkpt>
   <trkpt lat="46.0910720825195" lon="7.22098922729492">
    <ele>1277.80004882812</ele>
    <time>2012-05-22T16:24:16Z</time>
   </trkpt>
   <trkpt lat="46.0910797119141" lon="7.22094488143921">
    <ele>1277.80004882812</ele>
    <time>2012-05-22T16:24:17Z</time>
   </trkpt>
   <trkpt lat="46.0910873413086" lon="7.22086048126221">
    <ele>1278.35998535156</ele>
    <time>2012-05-22T16:24:19Z</time>
   </trkpt>
   <trkpt lat="46.0910873413086" lon="7.22082138061524">
    <ele>1278.64001464844</ele>
    <time>2012-05-22T16:24:20Z</time>
   </trkpt>
   <trkpt lat="46.0910873413086" lon="7.22078609466553">
    <ele>1278.92004394531</ele>
    <time>2012-05-22T16:24:21Z</time>
   </trkpt>
   <trkpt lat="46.0910873413086" lon="7.22076177597046">
    <ele>1279.20007324219</ele>
    <time>2012-05-22T16:24:22Z</time>
   </trkpt>
   <trkpt lat="46.0910873413086" lon="7.22072982788086">
    <ele>1279.47998046875</ele>
    <time>2012-05-22T16:24:23Z</time>
   </trkpt>
   <trkpt lat="46.0910682678223" lon="7.2205605506897">
    <ele>1280.88000488281</ele>
    <time>2012-05-22T16:24:28Z</time>
   </trkpt>
   <trkpt lat="46.0910606384277" lon="7.22052812576294">
    <ele>1281.16003417969</ele>
    <time>2012-05-22T16:24:29Z</time>
   </trkpt>
   <trkpt lat="46.0910530090332" lon="7.22050094604492">
    <ele>1281.44006347656</ele>
    <time>2012-05-22T16:24:30Z</time>
   </trkpt>
   <trkpt lat="46.0910491943359" lon="7.22047233581543">
    <ele>1281.71997070312</ele>
    <time>2012-05-22T16:24:31Z</time>
   </trkpt>
   <trkpt lat="46.0910377502441" lon="7.22044324874878">
    <ele>1282</ele>
    <time>2012-05-22T16:24:32Z</time>
   </trkpt>
   <trkpt lat="46.0909996032715" lon="7.22026062011719">
    <ele>1282</ele>
    <time>2012-05-22T16:24:38Z</time>
   </trkpt>
   <trkpt lat="46.090991973877" lon="7.22016763687134">
    <ele>1282.75</ele>
    <time>2012-05-22T16:24:41Z</time>
   </trkpt>
   <trkpt lat="46.0909881591797" lon="7.22013854980469">
    <ele>1283</ele>
    <time>2012-05-22T16:24:42Z</time>
   </trkpt>
   <trkpt lat="46.0909843444824" lon="7.22010850906372">
    <ele>1283.25</ele>
    <time>2012-05-22T16:24:43Z</time>
   </trkpt>
   <trkpt lat="46.0909843444824" lon="7.22007703781128">
    <ele>1283.5</ele>
    <time>2012-05-22T16:24:44Z</time>
   </trkpt>
   <trkpt lat="46.0909805297852" lon="7.22004795074463">
    <ele>1283.75</ele>
    <time>2012-05-22T16:24:45Z</time>
   </trkpt>
   <trkpt lat="46.0909881591797" lon="7.21988868713379">
    <ele>1285</ele>
    <time>2012-05-22T16:24:50Z</time>
   </trkpt>
   <trkpt lat="46.0909957885742" lon="7.21985578536987">
    <ele>1285.25</ele>
    <time>2012-05-22T16:24:51Z</time>
   </trkpt>
   <trkpt lat="46.0909996032715" lon="7.21982383728027">
    <ele>1285.5</ele>
    <time>2012-05-22T16:24:52Z</time>
   </trkpt>
   <trkpt lat="46.0910034179688" lon="7.21979522705078">
    <ele>1285.75</ele>
    <time>2012-05-22T16:24:53Z</time>
   </trkpt>
   <trkpt lat="46.091007232666" lon="7.21976566314697">
    <ele>1286</ele>
    <time>2012-05-22T16:24:54Z</time>
   </trkpt>
   <trkpt lat="46.0910568237305" lon="7.21958160400391">
    <ele>1286</ele>
    <time>2012-05-22T16:25:00Z</time>
   </trkpt>
   <trkpt lat="46.0910682678223" lon="7.21955060958862">
    <ele>1286.59997558594</ele>
    <time>2012-05-22T16:25:01Z</time>
   </trkpt>
   <trkpt lat="46.0910797119141" lon="7.21951913833618">
    <ele>1287.19995117188</ele>
    <time>2012-05-22T16:25:02Z</time>
   </trkpt>
   <trkpt lat="46.0910911560059" lon="7.21948957443237">
    <ele>1287.80004882812</ele>
    <time>2012-05-22T16:25:03Z</time>
   </trkpt>
   <trkpt lat="46.0911026000977" lon="7.2194619178772">
    <ele>1288.40002441406</ele>
    <time>2012-05-22T16:25:04Z</time>
   </trkpt>
   <trkpt lat="46.0911445617676" lon="7.2193431854248">
    <ele>1288.40002441406</ele>
    <time>2012-05-22T16:25:08Z</time>
   </trkpt>
   <trkpt lat="46.0911674499512" lon="7.21928596496582">
    <ele>1289.13330078125</ele>
    <time>2012-05-22T16:25:10Z</time>
   </trkpt>
   <trkpt lat="46.0911827087402" lon="7.21925640106201">
    <ele>1289.5</ele>
    <time>2012-05-22T16:25:11Z</time>
   </trkpt>
   <trkpt lat="46.0911979675293" lon="7.21922540664673">
    <ele>1289.86669921875</ele>
    <time>2012-05-22T16:25:12Z</time>
   </trkpt>
   <trkpt lat="46.0912094116211" lon="7.21919536590576">
    <ele>1290.23327636719</ele>
    <time>2012-05-22T16:25:13Z</time>
   </trkpt>
   <trkpt lat="46.0912246704102" lon="7.21916818618774">
    <ele>1290.59997558594</ele>
    <time>2012-05-22T16:25:14Z</time>
   </trkpt>
   <trkpt lat="46.0912742614746" lon="7.21910047531128">
    <ele>1290.59997558594</ele>
    <time>2012-05-22T16:25:17Z</time>
   </trkpt>
   <trkpt lat="46.0913200378418" lon="7.21903848648071">
    <ele>1291.54284667969</ele>
    <time>2012-05-22T16:25:20Z</time>
   </trkpt>
   <trkpt lat="46.0913391113281" lon="7.21902132034302">
    <ele>1291.85717773438</ele>
    <time>2012-05-22T16:25:21Z</time>
   </trkpt>
   <trkpt lat="46.0913581848144" lon="7.21900415420532">
    <ele>1292.17150878906</ele>
    <time>2012-05-22T16:25:22Z</time>
   </trkpt>
   <trkpt lat="46.091381072998" lon="7.21898508071899">
    <ele>1292.48571777344</ele>
    <time>2012-05-22T16:25:23Z</time>
   </trkpt>
   <trkpt lat="46.0914039611816" lon="7.21896505355835">
    <ele>1292.80004882812</ele>
    <time>2012-05-22T16:25:24Z</time>
   </trkpt>
   <trkpt lat="46.0914306640625" lon="7.21895027160644">
    <ele>1292.80004882812</ele>
    <time>2012-05-22T16:25:25Z</time>
   </trkpt>
   <trkpt lat="46.0915451049805" lon="7.2188925743103">
    <ele>1294</ele>
    <time>2012-05-22T16:25:29Z</time>
   </trkpt>
   <trkpt lat="46.0915679931641" lon="7.21888017654419">
    <ele>1294.30004882812</ele>
    <time>2012-05-22T16:25:30Z</time>
   </trkpt>
   <trkpt lat="46.0915908813477" lon="7.21886491775513">
    <ele>1294.59997558594</ele>
    <time>2012-05-22T16:25:31Z</time>
   </trkpt>
   <trkpt lat="46.0916175842285" lon="7.21885061264038">
    <ele>1294.90002441406</ele>
    <time>2012-05-22T16:25:32Z</time>
   </trkpt>
   <trkpt lat="46.0916442871094" lon="7.21883678436279">
    <ele>1295.20007324219</ele>
    <time>2012-05-22T16:25:33Z</time>
   </trkpt>
   <trkpt lat="46.0916938781738" lon="7.21881723403931">
    <ele>1295.80004882812</ele>
    <time>2012-05-22T16:25:35Z</time>
   </trkpt>
   <trkpt lat="46.0917205810547" lon="7.21880531311035">
    <ele>1296.09997558594</ele>
    <time>2012-05-22T16:25:36Z</time>
   </trkpt>
   <trkpt lat="46.0917472839356" lon="7.21879243850708">
    <ele>1296.40002441406</ele>
    <time>2012-05-22T16:25:37Z</time>
   </trkpt>
   <trkpt lat="46.0917739868164" lon="7.2187819480896">
    <ele>1296.69995117188</ele>
    <time>2012-05-22T16:25:38Z</time>
   </trkpt>
   <trkpt lat="46.0918006896973" lon="7.2187671661377">
    <ele>1297</ele>
    <time>2012-05-22T16:25:39Z</time>
   </trkpt>
   <trkpt lat="46.0918235778809" lon="7.21875238418579">
    <ele>1297</ele>
    <time>2012-05-22T16:25:40Z</time>
   </trkpt>
   <trkpt lat="46.0919036865234" lon="7.21871709823608">
    <ele>1297.96923828125</ele>
    <time>2012-05-22T16:25:43Z</time>
   </trkpt>
   <trkpt lat="46.091926574707" lon="7.2187032699585">
    <ele>1298.29223632812</ele>
    <time>2012-05-22T16:25:44Z</time>
   </trkpt>
   <trkpt lat="46.0919532775879" lon="7.21869039535522">
    <ele>1298.61535644531</ele>
    <time>2012-05-22T16:25:45Z</time>
   </trkpt>
   <trkpt lat="46.0919799804688" lon="7.21867752075195">
    <ele>1298.9384765625</ele>
    <time>2012-05-22T16:25:46Z</time>
   </trkpt>
   <trkpt lat="46.0920028686523" lon="7.21866035461426">
    <ele>1299.26147460938</ele>
    <time>2012-05-22T16:25:47Z</time>
   </trkpt>
   <trkpt lat="46.0920753479004" lon="7.21860408782959">
    <ele>1300.23071289062</ele>
    <time>2012-05-22T16:25:50Z</time>
   </trkpt>
   <trkpt lat="46.0921020507812" lon="7.21858501434326">
    <ele>1300.55383300781</ele>
    <time>2012-05-22T16:25:51Z</time>
   </trkpt>
   <trkpt lat="46.0921249389648" lon="7.21856021881104">
    <ele>1300.87683105469</ele>
    <time>2012-05-22T16:25:52Z</time>
   </trkpt>
   <trkpt lat="46.0921440124512" lon="7.21853256225586">
    <ele>1301.19995117188</ele>
    <time>2012-05-22T16:25:53Z</time>
   </trkpt>
   <trkpt lat="46.0921630859375" lon="7.21850252151489">
    <ele>1301.19995117188</ele>
    <time>2012-05-22T16:25:54Z</time>
   </trkpt>
   <trkpt lat="46.0922164916992" lon="7.21841859817505">
    <ele>1302.14282226562</ele>
    <time>2012-05-22T16:25:57Z</time>
   </trkpt>
   <trkpt lat="46.0922317504883" lon="7.21838665008545">
    <ele>1302.45715332031</ele>
    <time>2012-05-22T16:25:58Z</time>
   </trkpt>
   <trkpt lat="46.0922508239746" lon="7.21835422515869">
    <ele>1302.771484375</ele>
    <time>2012-05-22T16:25:59Z</time>
   </trkpt>
   <trkpt lat="46.0922698974609" lon="7.21832323074341">
    <ele>1303.08569335938</ele>
    <time>2012-05-22T16:26:00Z</time>
   </trkpt>
   <trkpt lat="46.0922813415527" lon="7.21829128265381">
    <ele>1303.40002441406</ele>
    <time>2012-05-22T16:26:01Z</time>
   </trkpt>
   <trkpt lat="46.0923004150391" lon="7.21826267242432">
    <ele>1303.40002441406</ele>
    <time>2012-05-22T16:26:02Z</time>
   </trkpt>
   <trkpt lat="46.0923500061035" lon="7.21813917160034">
    <ele>1304.44995117188</ele>
    <time>2012-05-22T16:26:06Z</time>
   </trkpt>
   <trkpt lat="46.0923614501953" lon="7.21810388565064">
    <ele>1304.71252441406</ele>
    <time>2012-05-22T16:26:07Z</time>
   </trkpt>
   <trkpt lat="46.0923767089844" lon="7.21807146072388">
    <ele>1304.97497558594</ele>
    <time>2012-05-22T16:26:08Z</time>
   </trkpt>
   <trkpt lat="46.0923843383789" lon="7.21804046630859">
    <ele>1305.23754882812</ele>
    <time>2012-05-22T16:26:09Z</time>
   </trkpt>
   <trkpt lat="46.092399597168" lon="7.21800994873047">
    <ele>1305.5</ele>
    <time>2012-05-22T16:26:10Z</time>
   </trkpt>
   <trkpt lat="46.0924263000488" lon="7.21785259246826">
    <ele>1306.8125</ele>
    <time>2012-05-22T16:26:15Z</time>
   </trkpt>
   <trkpt lat="46.0924301147461" lon="7.21781635284424">
    <ele>1307.07495117188</ele>
    <time>2012-05-22T16:26:16Z</time>
   </trkpt>
   <trkpt lat="46.0924339294434" lon="7.21778059005737">
    <ele>1307.33752441406</ele>
    <time>2012-05-22T16:26:17Z</time>
   </trkpt>
   <trkpt lat="46.0924339294434" lon="7.21774435043335">
    <ele>1307.59997558594</ele>
    <time>2012-05-22T16:26:18Z</time>
   </trkpt>
   <trkpt lat="46.0924377441406" lon="7.21760177612305">
    <ele>1307.59997558594</ele>
    <time>2012-05-22T16:26:22Z</time>
   </trkpt>
   <trkpt lat="46.0924415588379" lon="7.2175350189209">
    <ele>1308.33337402344</ele>
    <time>2012-05-22T16:26:24Z</time>
   </trkpt>
   <trkpt lat="46.0924415588379" lon="7.21750354766846">
    <ele>1308.69995117188</ele>
    <time>2012-05-22T16:26:25Z</time>
   </trkpt>
   <trkpt lat="46.0924453735352" lon="7.21747303009033">
    <ele>1309.06665039062</ele>
    <time>2012-05-22T16:26:26Z</time>
   </trkpt>
   <trkpt lat="46.0924453735352" lon="7.21744203567505">
    <ele>1309.43334960938</ele>
    <time>2012-05-22T16:26:27Z</time>
   </trkpt>
   <trkpt lat="46.0924491882324" lon="7.21741008758545">
    <ele>1309.80004882812</ele>
    <time>2012-05-22T16:26:28Z</time>
   </trkpt>
   <trkpt lat="46.092456817627" lon="7.21730756759644">
    <ele>1309.80004882812</ele>
    <time>2012-05-22T16:26:31Z</time>
   </trkpt>
   <trkpt lat="46.0924797058106" lon="7.21721029281616">
    <ele>1310.625</ele>
    <time>2012-05-22T16:26:34Z</time>
   </trkpt>
   <trkpt lat="46.0924835205078" lon="7.21717834472656">
    <ele>1310.90002441406</ele>
    <time>2012-05-22T16:26:35Z</time>
   </trkpt>
   <trkpt lat="46.0924911499023" lon="7.2171483039856">
    <ele>1311.17504882812</ele>
    <time>2012-05-22T16:26:36Z</time>
   </trkpt>
   <trkpt lat="46.0925064086914" lon="7.21711874008179">
    <ele>1311.45007324219</ele>
    <time>2012-05-22T16:26:37Z</time>
   </trkpt>
   <trkpt lat="46.0925140380859" lon="7.21708869934082">
    <ele>1311.72509765625</ele>
    <time>2012-05-22T16:26:38Z</time>
   </trkpt>
   <trkpt lat="46.0925788879394" lon="7.21696472167969">
    <ele>1313.10009765625</ele>
    <time>2012-05-22T16:26:43Z</time>
   </trkpt>
   <trkpt lat="46.0925941467285" lon="7.21694278717041">
    <ele>1313.375</ele>
    <time>2012-05-22T16:26:44Z</time>
   </trkpt>
   <trkpt lat="46.0926055908203" lon="7.21691751480102">
    <ele>1313.65002441406</ele>
    <time>2012-05-22T16:26:45Z</time>
   </trkpt>
   <trkpt lat="46.0926208496094" lon="7.21689653396606">
    <ele>1313.92504882812</ele>
    <time>2012-05-22T16:26:46Z</time>
   </trkpt>
   <trkpt lat="46.0926361083984" lon="7.2168755531311">
    <ele>1314.20007324219</ele>
    <time>2012-05-22T16:26:47Z</time>
   </trkpt>
   <trkpt lat="46.0927047729492" lon="7.21677732467651">
    <ele>1315.30004882812</ele>
    <time>2012-05-22T16:26:51Z</time>
   </trkpt>
   <trkpt lat="46.092716217041" lon="7.21674633026123">
    <ele>1315.57507324219</ele>
    <time>2012-05-22T16:26:52Z</time>
   </trkpt>
   <trkpt lat="46.0927314758301" lon="7.21671533584595">
    <ele>1315.84997558594</ele>
    <time>2012-05-22T16:26:53Z</time>
   </trkpt>
   <trkpt lat="46.0927391052246" lon="7.21668243408203">
    <ele>1316.125</ele>
    <time>2012-05-22T16:26:54Z</time>
   </trkpt>
   <trkpt lat="46.0927467346191" lon="7.21665096282959">
    <ele>1316.40002441406</ele>
    <time>2012-05-22T16:26:55Z</time>
   </trkpt>
   <trkpt lat="46.0927734375" lon="7.21654939651489">
    <ele>1316.40002441406</ele>
    <time>2012-05-22T16:26:58Z</time>
   </trkpt>
   <trkpt lat="46.0928230285644" lon="7.21640634536743">
    <ele>1317.63525390625</ele>
    <time>2012-05-22T16:27:03Z</time>
   </trkpt>
   <trkpt lat="46.0928344726562" lon="7.21637630462646">
    <ele>1317.88232421875</ele>
    <time>2012-05-22T16:27:04Z</time>
   </trkpt>
   <trkpt lat="46.0928421020508" lon="7.21634435653686">
    <ele>1318.12939453125</ele>
    <time>2012-05-22T16:27:05Z</time>
   </trkpt>
   <trkpt lat="46.0928497314453" lon="7.21631193161011">
    <ele>1318.37646484375</ele>
    <time>2012-05-22T16:27:06Z</time>
   </trkpt>
   <trkpt lat="46.0928993225098" lon="7.21615743637085">
    <ele>1319.61169433594</ele>
    <time>2012-05-22T16:27:11Z</time>
   </trkpt>
   <trkpt lat="46.0929069519043" lon="7.21612930297852">
    <ele>1319.85876464844</ele>
    <time>2012-05-22T16:27:12Z</time>
   </trkpt>
   <trkpt lat="46.0929183959961" lon="7.21609973907471">
    <ele>1320.10583496094</ele>
    <time>2012-05-22T16:27:13Z</time>
   </trkpt>
   <trkpt lat="46.0929336547852" lon="7.21606731414795">
    <ele>1320.35290527344</ele>
    <time>2012-05-22T16:27:14Z</time>
   </trkpt>
   <trkpt lat="46.0929412841797" lon="7.21603202819824">
    <ele>1320.59997558594</ele>
    <time>2012-05-22T16:27:15Z</time>
   </trkpt>
   <trkpt lat="46.0930023193359" lon="7.21588611602783">
    <ele>1320.59997558594</ele>
    <time>2012-05-22T16:27:20Z</time>
   </trkpt>
   <trkpt lat="46.0930290222168" lon="7.21583938598633">
    <ele>1321.33337402344</ele>
    <time>2012-05-22T16:27:22Z</time>
   </trkpt>
   <trkpt lat="46.0930404663086" lon="7.21581172943115">
    <ele>1321.69995117188</ele>
    <time>2012-05-22T16:27:23Z</time>
   </trkpt>
   <trkpt lat="46.0930557250977" lon="7.21578216552734">
    <ele>1322.06665039062</ele>
    <time>2012-05-22T16:27:24Z</time>
   </trkpt>
   <trkpt lat="46.0930671691894" lon="7.21575736999512">
    <ele>1322.43334960938</ele>
    <time>2012-05-22T16:27:25Z</time>
   </trkpt>
   <trkpt lat="46.0930824279785" lon="7.21572828292847">
    <ele>1322.80004882812</ele>
    <time>2012-05-22T16:27:26Z</time>
   </trkpt>
   <trkpt lat="46.0931091308594" lon="7.21567058563232">
    <ele>1322.80004882812</ele>
    <time>2012-05-22T16:27:28Z</time>
   </trkpt>
   <trkpt lat="46.0931358337402" lon="7.21562004089356">
    <ele>1323.27062988281</ele>
    <time>2012-05-22T16:27:30Z</time>
   </trkpt>
   <trkpt lat="46.093147277832" lon="7.2155909538269">
    <ele>1323.50598144531</ele>
    <time>2012-05-22T16:27:31Z</time>
   </trkpt>
   <trkpt lat="46.0931625366211" lon="7.21556520462036">
    <ele>1323.7412109375</ele>
    <time>2012-05-22T16:27:32Z</time>
   </trkpt>
   <trkpt lat="46.0931739807129" lon="7.21553707122803">
    <ele>1323.9765625</ele>
    <time>2012-05-22T16:27:33Z</time>
   </trkpt>
   <trkpt lat="46.093189239502" lon="7.21551418304443">
    <ele>1324.21179199219</ele>
    <time>2012-05-22T16:27:34Z</time>
   </trkpt>
   <trkpt lat="46.0932922363281" lon="7.21538400650024">
    <ele>1325.85888671875</ele>
    <time>2012-05-22T16:27:41Z</time>
   </trkpt>
   <trkpt lat="46.093318939209" lon="7.21539068222046">
    <ele>1326.09411621094</ele>
    <time>2012-05-22T16:27:42Z</time>
   </trkpt>
   <trkpt lat="46.0933418273926" lon="7.21540784835815">
    <ele>1326.32946777344</ele>
    <time>2012-05-22T16:27:43Z</time>
   </trkpt>
   <trkpt lat="46.0933532714844" lon="7.21543788909912">
    <ele>1326.56469726562</ele>
    <time>2012-05-22T16:27:44Z</time>
   </trkpt>
   <trkpt lat="46.0933532714844" lon="7.21547079086304">
    <ele>1326.80004882812</ele>
    <time>2012-05-22T16:27:45Z</time>
   </trkpt>
   <trkpt lat="46.0933456420898" lon="7.215500831604">
    <ele>1326.80004882812</ele>
    <time>2012-05-22T16:27:46Z</time>
   </trkpt>
   <trkpt lat="46.0933113098144" lon="7.21554803848267">
    <ele>1327.59997558594</ele>
    <time>2012-05-22T16:27:48Z</time>
   </trkpt>
   <trkpt lat="46.0932960510254" lon="7.21557474136352">
    <ele>1328</ele>
    <time>2012-05-22T16:27:49Z</time>
   </trkpt>
   <trkpt lat="46.0932807922363" lon="7.21559810638428">
    <ele>1328.40002441406</ele>
    <time>2012-05-22T16:27:50Z</time>
   </trkpt>
   <trkpt lat="46.09326171875" lon="7.21561861038208">
    <ele>1328.79992675781</ele>
    <time>2012-05-22T16:27:51Z</time>
   </trkpt>
   <trkpt lat="46.0932502746582" lon="7.21564245223999">
    <ele>1329.19995117188</ele>
    <time>2012-05-22T16:27:52Z</time>
   </trkpt>
   <trkpt lat="46.0931587219238" lon="7.21581983566284">
    <ele>1329.19995117188</ele>
    <time>2012-05-22T16:27:59Z</time>
   </trkpt>
   <trkpt lat="46.0931243896484" lon="7.21590900421143">
    <ele>1329.89721679688</ele>
    <time>2012-05-22T16:28:02Z</time>
   </trkpt>
   <trkpt lat="46.0931167602539" lon="7.21594381332398">
    <ele>1330.12963867188</ele>
    <time>2012-05-22T16:28:03Z</time>
   </trkpt>
   <trkpt lat="46.0931091308594" lon="7.21597385406494">
    <ele>1330.36218261719</ele>
    <time>2012-05-22T16:28:04Z</time>
   </trkpt>
   <trkpt lat="46.0931053161621" lon="7.21600723266602">
    <ele>1330.59460449219</ele>
    <time>2012-05-22T16:28:05Z</time>
   </trkpt>
   <trkpt lat="46.0930976867676" lon="7.21604251861572">
    <ele>1330.82702636719</ele>
    <time>2012-05-22T16:28:06Z</time>
   </trkpt>
   <trkpt lat="46.0930557250977" lon="7.21627283096314">
    <ele>1332.4541015625</ele>
    <time>2012-05-22T16:28:13Z</time>
   </trkpt>
   <trkpt lat="46.0930519104004" lon="7.21630096435547">
    <ele>1332.6865234375</ele>
    <time>2012-05-22T16:28:14Z</time>
   </trkpt>
   <trkpt lat="46.0930519104004" lon="7.21633005142212">
    <ele>1332.9189453125</ele>
    <time>2012-05-22T16:28:15Z</time>
   </trkpt>
   <trkpt lat="46.0930442810059" lon="7.2163610458374">
    <ele>1333.1513671875</ele>
    <time>2012-05-22T16:28:16Z</time>
   </trkpt>
   <trkpt lat="46.0930404663086" lon="7.21639108657837">
    <ele>1333.3837890625</ele>
    <time>2012-05-22T16:28:17Z</time>
   </trkpt>
   <trkpt lat="46.0929985046387" lon="7.2165994644165">
    <ele>1335.01086425781</ele>
    <time>2012-05-22T16:28:24Z</time>
   </trkpt>
   <trkpt lat="46.0929946899414" lon="7.21662950515747">
    <ele>1335.24328613281</ele>
    <time>2012-05-22T16:28:25Z</time>
   </trkpt>
   <trkpt lat="46.0929870605469" lon="7.21666049957275">
    <ele>1335.47570800781</ele>
    <time>2012-05-22T16:28:26Z</time>
   </trkpt>
   <trkpt lat="46.0929832458496" lon="7.2166953086853">
    <ele>1335.70812988281</ele>
    <time>2012-05-22T16:28:27Z</time>
   </trkpt>
   <trkpt lat="46.0929794311523" lon="7.21672630310059">
    <ele>1335.94055175781</ele>
    <time>2012-05-22T16:28:28Z</time>
   </trkpt>
   <trkpt lat="46.0929641723633" lon="7.21686315536499">
    <ele>1336.87036132812</ele>
    <time>2012-05-22T16:28:32Z</time>
   </trkpt>
   <trkpt lat="46.092960357666" lon="7.21689748764038">
    <ele>1337.10278320312</ele>
    <time>2012-05-22T16:28:33Z</time>
   </trkpt>
   <trkpt lat="46.092960357666" lon="7.21693277359009">
    <ele>1337.33520507812</ele>
    <time>2012-05-22T16:28:34Z</time>
   </trkpt>
   <trkpt lat="46.0929641723633" lon="7.21696853637695">
    <ele>1337.56762695312</ele>
    <time>2012-05-22T16:28:35Z</time>
   </trkpt>
   <trkpt lat="46.092960357666" lon="7.2170033454895">
    <ele>1337.80004882812</ele>
    <time>2012-05-22T16:28:36Z</time>
   </trkpt>
   <trkpt lat="46.0929679870606" lon="7.21715021133423">
    <ele>1337.80004882812</ele>
    <time>2012-05-22T16:28:40Z</time>
   </trkpt>
   <trkpt lat="46.0929679870606" lon="7.21718311309814">
    <ele>1338.35009765625</ele>
    <time>2012-05-22T16:28:41Z</time>
   </trkpt>
   <trkpt lat="46.0929718017578" lon="7.21721649169922">
    <ele>1338.90002441406</ele>
    <time>2012-05-22T16:28:42Z</time>
   </trkpt>
   <trkpt lat="46.0929756164551" lon="7.21724987030029">
    <ele>1339.44995117188</ele>
    <time>2012-05-22T16:28:43Z</time>
   </trkpt>
   <trkpt lat="46.0929794311523" lon="7.21728324890137">
    <ele>1340</ele>
    <time>2012-05-22T16:28:44Z</time>
   </trkpt>
   <trkpt lat="46.0929870605469" lon="7.21741819381714">
    <ele>1340</ele>
    <time>2012-05-22T16:28:48Z</time>
   </trkpt>
   <trkpt lat="46.0929908752441" lon="7.21745157241821">
    <ele>1340.43994140625</ele>
    <time>2012-05-22T16:28:49Z</time>
   </trkpt>
   <trkpt lat="46.0929946899414" lon="7.21748542785644">
    <ele>1340.88000488281</ele>
    <time>2012-05-22T16:28:50Z</time>
   </trkpt>
   <trkpt lat="46.0929985046387" lon="7.21752166748047">
    <ele>1341.31994628906</ele>
    <time>2012-05-22T16:28:51Z</time>
   </trkpt>
   <trkpt lat="46.0930023193359" lon="7.21755933761597">
    <ele>1341.76000976562</ele>
    <time>2012-05-22T16:28:52Z</time>
   </trkpt>
   <trkpt lat="46.0930023193359" lon="7.21759462356567">
    <ele>1342.19995117188</ele>
    <time>2012-05-22T16:28:53Z</time>
   </trkpt>
   <trkpt lat="46.0930061340332" lon="7.21769714355469">
    <ele>1342.19995117188</ele>
    <time>2012-05-22T16:28:56Z</time>
   </trkpt>
   <trkpt lat="46.0929985046387" lon="7.21782398223877">
    <ele>1343.19201660156</ele>
    <time>2012-05-22T16:29:00Z</time>
   </trkpt>
   <trkpt lat="46.0929908752441" lon="7.21785497665405">
    <ele>1343.43994140625</ele>
    <time>2012-05-22T16:29:01Z</time>
   </trkpt>
   <trkpt lat="46.0929832458496" lon="7.21788501739502">
    <ele>1343.68798828125</ele>
    <time>2012-05-22T16:29:02Z</time>
   </trkpt>
   <trkpt lat="46.0929794311523" lon="7.21791887283325">
    <ele>1343.93591308594</ele>
    <time>2012-05-22T16:29:03Z</time>
   </trkpt>
   <trkpt lat="46.0929718017578" lon="7.21794939041138">
    <ele>1344.18395996094</ele>
    <time>2012-05-22T16:29:04Z</time>
   </trkpt>
   <trkpt lat="46.0929527282715" lon="7.21806335449219">
    <ele>1345.17602539062</ele>
    <time>2012-05-22T16:29:08Z</time>
   </trkpt>
   <trkpt lat="46.092945098877" lon="7.21809482574463">
    <ele>1345.42395019531</ele>
    <time>2012-05-22T16:29:09Z</time>
   </trkpt>
   <trkpt lat="46.0929374694824" lon="7.21812438964844">
    <ele>1345.67199707031</ele>
    <time>2012-05-22T16:29:10Z</time>
   </trkpt>
   <trkpt lat="46.0929298400879" lon="7.21815204620361">
    <ele>1345.92004394531</ele>
    <time>2012-05-22T16:29:11Z</time>
   </trkpt>
   <trkpt lat="46.092887878418" lon="7.21833276748657">
    <ele>1347.40795898438</ele>
    <time>2012-05-22T16:29:17Z</time>
   </trkpt>
   <trkpt lat="46.0928802490234" lon="7.21836423873901">
    <ele>1347.65600585938</ele>
    <time>2012-05-22T16:29:18Z</time>
   </trkpt>
   <trkpt lat="46.0928764343262" lon="7.21839952468872">
    <ele>1347.90405273438</ele>
    <time>2012-05-22T16:29:19Z</time>
   </trkpt>
   <trkpt lat="46.0928726196289" lon="7.21843242645264">
    <ele>1348.15197753906</ele>
    <time>2012-05-22T16:29:20Z</time>
   </trkpt>
   <trkpt lat="46.0928726196289" lon="7.21846771240234">
    <ele>1348.40002441406</ele>
    <time>2012-05-22T16:29:21Z</time>
   </trkpt>
   <trkpt lat="46.0928649902344" lon="7.21859693527222">
    <ele>1348.40002441406</ele>
    <time>2012-05-22T16:29:25Z</time>
   </trkpt>
   <trkpt lat="46.0928649902344" lon="7.21863079071045">
    <ele>1348.80004882812</ele>
    <time>2012-05-22T16:29:26Z</time>
   </trkpt>
   <trkpt lat="46.0928611755371" lon="7.21866226196289">
    <ele>1349.20007324219</ele>
    <time>2012-05-22T16:29:27Z</time>
   </trkpt>
   <trkpt lat="46.0928611755371" lon="7.21869373321533">
    <ele>1349.59997558594</ele>
    <time>2012-05-22T16:29:28Z</time>
   </trkpt>
   <trkpt lat="46.0928611755371" lon="7.21872806549072">
    <ele>1350</ele>
    <time>2012-05-22T16:29:29Z</time>
   </trkpt>
   <trkpt lat="46.0928611755371" lon="7.21875524520874">
    <ele>1350.40002441406</ele>
    <time>2012-05-22T16:29:30Z</time>
   </trkpt>
   <trkpt lat="46.0928726196289" lon="7.21886348724365">
    <ele>1350.40002441406</ele>
    <time>2012-05-22T16:29:33Z</time>
   </trkpt>
   <trkpt lat="46.0928764343262" lon="7.2189245223999">
    <ele>1350.95007324219</ele>
    <time>2012-05-22T16:29:35Z</time>
   </trkpt>
   <trkpt lat="46.0928802490234" lon="7.21895742416382">
    <ele>1351.22497558594</ele>
    <time>2012-05-22T16:29:36Z</time>
   </trkpt>
   <trkpt lat="46.092887878418" lon="7.218994140625">
    <ele>1351.5</ele>
    <time>2012-05-22T16:29:37Z</time>
   </trkpt>
   <trkpt lat="46.0928916931152" lon="7.21902751922607">
    <ele>1351.77502441406</ele>
    <time>2012-05-22T16:29:38Z</time>
   </trkpt>
   <trkpt lat="46.0928993225098" lon="7.21906089782715">
    <ele>1352.05004882812</ele>
    <time>2012-05-22T16:29:39Z</time>
   </trkpt>
   <trkpt lat="46.092903137207" lon="7.2192645072937">
    <ele>1353.70007324219</ele>
    <time>2012-05-22T16:29:45Z</time>
   </trkpt>
   <trkpt lat="46.092903137207" lon="7.2192964553833">
    <ele>1353.97509765625</ele>
    <time>2012-05-22T16:29:46Z</time>
   </trkpt>
   <trkpt lat="46.092903137207" lon="7.21933460235596">
    <ele>1354.25</ele>
    <time>2012-05-22T16:29:47Z</time>
   </trkpt>
   <trkpt lat="46.092903137207" lon="7.21936941146851">
    <ele>1354.52502441406</ele>
    <time>2012-05-22T16:29:48Z</time>
   </trkpt>
   <trkpt lat="46.0928993225098" lon="7.2194037437439">
    <ele>1354.80004882812</ele>
    <time>2012-05-22T16:29:49Z</time>
   </trkpt>
   <trkpt lat="46.0928802490234" lon="7.2195463180542">
    <ele>1354.80004882812</ele>
    <time>2012-05-22T16:29:53Z</time>
   </trkpt>
   <trkpt lat="46.0928611755371" lon="7.21964168548584">
    <ele>1355.64001464844</ele>
    <time>2012-05-22T16:29:56Z</time>
   </trkpt>
   <trkpt lat="46.0928535461426" lon="7.21967267990112">
    <ele>1355.92004394531</ele>
    <time>2012-05-22T16:29:57Z</time>
   </trkpt>
   <trkpt lat="46.092845916748" lon="7.21970129013062">
    <ele>1356.20007324219</ele>
    <time>2012-05-22T16:29:58Z</time>
   </trkpt>
   <trkpt lat="46.0928344726562" lon="7.2197322845459">
    <ele>1356.47998046875</ele>
    <time>2012-05-22T16:29:59Z</time>
   </trkpt>
   <trkpt lat="46.0927772521973" lon="7.21987533569336">
    <ele>1357.88000488281</ele>
    <time>2012-05-22T16:30:04Z</time>
   </trkpt>
   <trkpt lat="46.0927696228027" lon="7.21990537643433">
    <ele>1358.16003417969</ele>
    <time>2012-05-22T16:30:05Z</time>
   </trkpt>
   <trkpt lat="46.0927619934082" lon="7.21993207931518">
    <ele>1358.44006347656</ele>
    <time>2012-05-22T16:30:06Z</time>
   </trkpt>
   <trkpt lat="46.0927543640137" lon="7.21996068954468">
    <ele>1358.71997070312</ele>
    <time>2012-05-22T16:30:07Z</time>
   </trkpt>
   <trkpt lat="46.0927505493164" lon="7.21999740600586">
    <ele>1359</ele>
    <time>2012-05-22T16:30:08Z</time>
   </trkpt>
   <trkpt lat="46.0927658081055" lon="7.22013521194458">
    <ele>1359</ele>
    <time>2012-05-22T16:30:12Z</time>
   </trkpt>
   <trkpt lat="46.0927810668945" lon="7.22016000747681">
    <ele>1359.40002441406</ele>
    <time>2012-05-22T16:30:13Z</time>
   </trkpt>
   <trkpt lat="46.0928001403809" lon="7.22018003463745">
    <ele>1359.80004882812</ele>
    <time>2012-05-22T16:30:14Z</time>
   </trkpt>
   <trkpt lat="46.0928230285644" lon="7.22019910812378">
    <ele>1360.19995117188</ele>
    <time>2012-05-22T16:30:15Z</time>
   </trkpt>
   <trkpt lat="46.092845916748" lon="7.22021341323852">
    <ele>1360.59997558594</ele>
    <time>2012-05-22T16:30:16Z</time>
   </trkpt>
   <trkpt lat="46.0928688049316" lon="7.22021389007568">
    <ele>1361</ele>
    <time>2012-05-22T16:30:17Z</time>
   </trkpt>
   <trkpt lat="46.0929527282715" lon="7.22013473510742">
    <ele>1361</ele>
    <time>2012-05-22T16:30:21Z</time>
   </trkpt>
   <trkpt lat="46.0929985046387" lon="7.22005081176758">
    <ele>1361.59997558594</ele>
    <time>2012-05-22T16:30:24Z</time>
   </trkpt>
   <trkpt lat="46.0930328369141" lon="7.21994733810425">
    <ele>1362.19995117188</ele>
    <time>2012-05-22T16:30:27Z</time>
   </trkpt>
   <trkpt lat="46.0930786132812" lon="7.21982002258301">
    <ele>1363</ele>
    <time>2012-05-22T16:30:31Z</time>
   </trkpt>
   <trkpt lat="46.0930862426758" lon="7.21978807449341">
    <ele>1363.19995117188</ele>
    <time>2012-05-22T16:30:32Z</time>
   </trkpt>
   <trkpt lat="46.0930938720703" lon="7.21975326538086">
    <ele>1363.40002441406</ele>
    <time>2012-05-22T16:30:33Z</time>
   </trkpt>
   <trkpt lat="46.0931015014648" lon="7.21972799301148">
    <ele>1363.59997558594</ele>
    <time>2012-05-22T16:30:34Z</time>
   </trkpt>
   <trkpt lat="46.0931129455566" lon="7.21969938278198">
    <ele>1363.80004882812</ele>
    <time>2012-05-22T16:30:35Z</time>
   </trkpt>
   <trkpt lat="46.093147277832" lon="7.21953678131104">
    <ele>1364.80004882812</ele>
    <time>2012-05-22T16:30:40Z</time>
   </trkpt>
   <trkpt lat="46.0931510925293" lon="7.21950483322144">
    <ele>1365</ele>
    <time>2012-05-22T16:30:41Z</time>
   </trkpt>
   <trkpt lat="46.0931587219238" lon="7.21947002410889">
    <ele>1365.20007324219</ele>
    <time>2012-05-22T16:30:42Z</time>
   </trkpt>
   <trkpt lat="46.0931625366211" lon="7.21943759918213">
    <ele>1365.40002441406</ele>
    <time>2012-05-22T16:30:43Z</time>
   </trkpt>
   <trkpt lat="46.0931663513184" lon="7.21940040588379">
    <ele>1365.59997558594</ele>
    <time>2012-05-22T16:30:44Z</time>
   </trkpt>
   <trkpt lat="46.0932006835938" lon="7.21923637390137">
    <ele>1366.59997558594</ele>
    <time>2012-05-22T16:30:49Z</time>
   </trkpt>
   <trkpt lat="46.0932159423828" lon="7.21920108795166">
    <ele>1366.80004882812</ele>
    <time>2012-05-22T16:30:50Z</time>
   </trkpt>
   <trkpt lat="46.0932235717773" lon="7.21917009353638">
    <ele>1367</ele>
    <time>2012-05-22T16:30:51Z</time>
   </trkpt>
   <trkpt lat="46.0932273864746" lon="7.21913909912109">
    <ele>1367.20007324219</ele>
    <time>2012-05-22T16:30:52Z</time>
   </trkpt>
   <trkpt lat="46.0932350158691" lon="7.21910762786865">
    <ele>1367.40002441406</ele>
    <time>2012-05-22T16:30:53Z</time>
   </trkpt>
   <trkpt lat="46.09326171875" lon="7.21901607513428">
    <ele>1367.40002441406</ele>
    <time>2012-05-22T16:30:56Z</time>
   </trkpt>
   <trkpt lat="46.0932769775391" lon="7.21890258789062">
    <ele>1368.35998535156</ele>
    <time>2012-05-22T16:30:59Z</time>
   </trkpt>
   <trkpt lat="46.0932846069336" lon="7.21887159347534">
    <ele>1368.68005371094</ele>
    <time>2012-05-22T16:31:00Z</time>
   </trkpt>
   <trkpt lat="46.0932960510254" lon="7.21884298324585">
    <ele>1369</ele>
    <time>2012-05-22T16:31:01Z</time>
   </trkpt>
   <trkpt lat="46.0933113098144" lon="7.21881532669067">
    <ele>1369.32006835938</ele>
    <time>2012-05-22T16:31:02Z</time>
   </trkpt>
   <trkpt lat="46.0933227539062" lon="7.21878957748413">
    <ele>1369.64001464844</ele>
    <time>2012-05-22T16:31:03Z</time>
   </trkpt>
   <trkpt lat="46.0933837890625" lon="7.21871995925903">
    <ele>1370.60009765625</ele>
    <time>2012-05-22T16:31:06Z</time>
   </trkpt>
   <trkpt lat="46.0934066772461" lon="7.21870231628418">
    <ele>1370.92004394531</ele>
    <time>2012-05-22T16:31:07Z</time>
   </trkpt>
   <trkpt lat="46.0934371948242" lon="7.21869039535522">
    <ele>1371.23999023438</ele>
    <time>2012-05-22T16:31:08Z</time>
   </trkpt>
   <trkpt lat="46.0934562683106" lon="7.2186713218689">
    <ele>1371.56005859375</ele>
    <time>2012-05-22T16:31:09Z</time>
   </trkpt>
   <trkpt lat="46.0934791564941" lon="7.21865844726562">
    <ele>1371.88000488281</ele>
    <time>2012-05-22T16:31:10Z</time>
   </trkpt>
   <trkpt lat="46.0935211181641" lon="7.21862268447876">
    <ele>1372.52001953125</ele>
    <time>2012-05-22T16:31:12Z</time>
   </trkpt>
   <trkpt lat="46.0935440063477" lon="7.21861028671265">
    <ele>1372.84008789062</ele>
    <time>2012-05-22T16:31:13Z</time>
   </trkpt>
   <trkpt lat="46.0935668945312" lon="7.21860218048096">
    <ele>1373.16003417969</ele>
    <time>2012-05-22T16:31:14Z</time>
   </trkpt>
   <trkpt lat="46.0935897827148" lon="7.21858406066894">
    <ele>1373.48010253906</ele>
    <time>2012-05-22T16:31:15Z</time>
   </trkpt>
   <trkpt lat="46.0936126708984" lon="7.21857023239136">
    <ele>1373.80004882812</ele>
    <time>2012-05-22T16:31:16Z</time>
   </trkpt>
   <trkpt lat="46.0936851501465" lon="7.21852827072144">
    <ele>1373.80004882812</ele>
    <time>2012-05-22T16:31:19Z</time>
   </trkpt>
   <trkpt lat="46.0937232971191" lon="7.21849679946899">
    <ele>1374.46667480469</ele>
    <time>2012-05-22T16:31:21Z</time>
   </trkpt>
   <trkpt lat="46.0937423706055" lon="7.21848583221436">
    <ele>1374.80004882812</ele>
    <time>2012-05-22T16:31:22Z</time>
   </trkpt>
   <trkpt lat="46.0937652587891" lon="7.2184624671936">
    <ele>1375.13342285156</ele>
    <time>2012-05-22T16:31:23Z</time>
   </trkpt>
   <trkpt lat="46.0937843322754" lon="7.21844005584717">
    <ele>1375.46667480469</ele>
    <time>2012-05-22T16:31:24Z</time>
   </trkpt>
   <trkpt lat="46.093807220459" lon="7.21842765808106">
    <ele>1375.80004882812</ele>
    <time>2012-05-22T16:31:25Z</time>
   </trkpt>
   <trkpt lat="46.0938835144043" lon="7.2183427810669">
    <ele>1375.80004882812</ele>
    <time>2012-05-22T16:31:29Z</time>
   </trkpt>
   <trkpt lat="46.0939102172852" lon="7.21828699111938">
    <ele>1376.53332519531</ele>
    <time>2012-05-22T16:31:31Z</time>
   </trkpt>
   <trkpt lat="46.093921661377" lon="7.21825504302978">
    <ele>1376.90002441406</ele>
    <time>2012-05-22T16:31:32Z</time>
   </trkpt>
   <trkpt lat="46.0939331054688" lon="7.21822357177734">
    <ele>1377.26672363281</ele>
    <time>2012-05-22T16:31:33Z</time>
   </trkpt>
   <trkpt lat="46.0939407348633" lon="7.21819162368774">
    <ele>1377.63330078125</ele>
    <time>2012-05-22T16:31:34Z</time>
   </trkpt>
   <trkpt lat="46.0939483642578" lon="7.21816158294678">
    <ele>1378</ele>
    <time>2012-05-22T16:31:35Z</time>
   </trkpt>
   <trkpt lat="46.0939559936523" lon="7.21813058853149">
    <ele>1378</ele>
    <time>2012-05-22T16:31:36Z</time>
   </trkpt>
   <trkpt lat="46.0940246582031" lon="7.21801042556763">
    <ele>1379.22216796875</ele>
    <time>2012-05-22T16:31:41Z</time>
   </trkpt>
   <trkpt lat="46.0940475463867" lon="7.21802043914795">
    <ele>1379.46667480469</ele>
    <time>2012-05-22T16:31:42Z</time>
   </trkpt>
   <trkpt lat="46.094066619873" lon="7.21804714202881">
    <ele>1379.71105957031</ele>
    <time>2012-05-22T16:31:43Z</time>
   </trkpt>
   <trkpt lat="46.0940704345703" lon="7.21808195114136">
    <ele>1379.95556640625</ele>
    <time>2012-05-22T16:31:44Z</time>
   </trkpt>
   <trkpt lat="46.0940742492676" lon="7.21811962127686">
    <ele>1380.19995117188</ele>
    <time>2012-05-22T16:31:45Z</time>
   </trkpt>
   <trkpt lat="46.0940780639648" lon="7.21815299987793">
    <ele>1380.19995117188</ele>
    <time>2012-05-22T16:31:46Z</time>
   </trkpt>
   <trkpt lat="46.0940780639648" lon="7.21830177307129">
    <ele>1381.23327636719</ele>
    <time>2012-05-22T16:31:50Z</time>
   </trkpt>
   <trkpt lat="46.0940742492676" lon="7.21833753585815">
    <ele>1381.49157714844</ele>
    <time>2012-05-22T16:31:51Z</time>
   </trkpt>
   <trkpt lat="46.0940704345703" lon="7.2183723449707">
    <ele>1381.75</ele>
    <time>2012-05-22T16:31:52Z</time>
   </trkpt>
   <trkpt lat="46.0940628051758" lon="7.21840333938599">
    <ele>1382.00830078125</ele>
    <time>2012-05-22T16:31:53Z</time>
   </trkpt>
   <trkpt lat="46.0940551757812" lon="7.21843528747559">
    <ele>1382.2666015625</ele>
    <time>2012-05-22T16:31:54Z</time>
   </trkpt>
   <trkpt lat="46.0940093994141" lon="7.21862697601318">
    <ele>1383.81665039062</ele>
    <time>2012-05-22T16:32:00Z</time>
   </trkpt>
   <trkpt lat="46.0940017700195" lon="7.21865797042847">
    <ele>1384.07495117188</ele>
    <time>2012-05-22T16:32:01Z</time>
   </trkpt>
   <trkpt lat="46.0939903259277" lon="7.21869230270386">
    <ele>1384.33337402344</ele>
    <time>2012-05-22T16:32:02Z</time>
   </trkpt>
   <trkpt lat="46.0939750671387" lon="7.21872329711914">
    <ele>1384.59167480469</ele>
    <time>2012-05-22T16:32:03Z</time>
   </trkpt>
   <trkpt lat="46.0939292907715" lon="7.21881198883057">
    <ele>1385.36669921875</ele>
    <time>2012-05-22T16:32:06Z</time>
   </trkpt>
   <trkpt lat="46.0939140319824" lon="7.21884059906006">
    <ele>1385.625</ele>
    <time>2012-05-22T16:32:07Z</time>
   </trkpt>
   <trkpt lat="46.0939025878906" lon="7.21887159347534">
    <ele>1385.88330078125</ele>
    <time>2012-05-22T16:32:08Z</time>
   </trkpt>
   <trkpt lat="46.0938911437988" lon="7.21890115737915">
    <ele>1386.14172363281</ele>
    <time>2012-05-22T16:32:09Z</time>
   </trkpt>
   <trkpt lat="46.093879699707" lon="7.21893405914307">
    <ele>1386.40002441406</ele>
    <time>2012-05-22T16:32:10Z</time>
   </trkpt>
   <trkpt lat="46.093864440918" lon="7.21903324127197">
    <ele>1386.40002441406</ele>
    <time>2012-05-22T16:32:13Z</time>
   </trkpt>
   <trkpt lat="46.0939102172852" lon="7.21919536590576">
    <ele>1387.30908203125</ele>
    <time>2012-05-22T16:32:18Z</time>
   </trkpt>
   <trkpt lat="46.0939521789551" lon="7.21923065185547">
    <ele>1387.67272949219</ele>
    <time>2012-05-22T16:32:20Z</time>
   </trkpt>
   <trkpt lat="46.0939788818359" lon="7.21923494338989">
    <ele>1387.85461425781</ele>
    <time>2012-05-22T16:32:21Z</time>
   </trkpt>
   <trkpt lat="46.0940055847168" lon="7.21923732757568">
    <ele>1388.03637695312</ele>
    <time>2012-05-22T16:32:22Z</time>
   </trkpt>
   <trkpt lat="46.0940284729004" lon="7.21922874450684">
    <ele>1388.21826171875</ele>
    <time>2012-05-22T16:32:23Z</time>
   </trkpt>
   <trkpt lat="46.094051361084" lon="7.21921300888062">
    <ele>1388.40002441406</ele>
    <time>2012-05-22T16:32:24Z</time>
   </trkpt>
   <trkpt lat="46.0941123962402" lon="7.21915102005005">
    <ele>1388.40002441406</ele>
    <time>2012-05-22T16:32:26Z</time>
   </trkpt>
   <trkpt lat="46.0941390991211" lon="7.21898651123047">
    <ele>1389.10400390625</ele>
    <time>2012-05-22T16:32:30Z</time>
   </trkpt>
   <trkpt lat="46.0941619873047" lon="7.21874046325684">
    <ele>1390.16003417969</ele>
    <time>2012-05-22T16:32:36Z</time>
   </trkpt>
   <trkpt lat="46.0942039489746" lon="7.21863460540772">
    <ele>1390.68798828125</ele>
    <time>2012-05-22T16:32:39Z</time>
   </trkpt>
   <trkpt lat="46.0942230224609" lon="7.21860408782959">
    <ele>1390.86401367188</ele>
    <time>2012-05-22T16:32:40Z</time>
   </trkpt>
   <trkpt lat="46.0942420959473" lon="7.21858406066894">
    <ele>1391.0400390625</ele>
    <time>2012-05-22T16:32:41Z</time>
   </trkpt>
   <trkpt lat="46.0942573547363" lon="7.21856641769409">
    <ele>1391.21606445312</ele>
    <time>2012-05-22T16:32:42Z</time>
   </trkpt>
   <trkpt lat="46.0942802429199" lon="7.21855545043945">
    <ele>1391.39208984375</ele>
    <time>2012-05-22T16:32:43Z</time>
   </trkpt>
   <trkpt lat="46.0943717956543" lon="7.2185206413269">
    <ele>1392.09606933594</ele>
    <time>2012-05-22T16:32:47Z</time>
   </trkpt>
   <trkpt lat="46.0943984985352" lon="7.2185206413269">
    <ele>1392.27209472656</ele>
    <time>2012-05-22T16:32:48Z</time>
   </trkpt>
   <trkpt lat="46.0944290161133" lon="7.21851348876953">
    <ele>1392.44799804688</ele>
    <time>2012-05-22T16:32:49Z</time>
   </trkpt>
   <trkpt lat="46.0944595336914" lon="7.218505859375">
    <ele>1392.6240234375</ele>
    <time>2012-05-22T16:32:50Z</time>
   </trkpt>
   <trkpt lat="46.0944900512695" lon="7.21850204467774">
    <ele>1392.80004882812</ele>
    <time>2012-05-22T16:32:51Z</time>
   </trkpt>
   <trkpt lat="46.0945167541504" lon="7.21849584579468">
    <ele>1392.80004882812</ele>
    <time>2012-05-22T16:32:52Z</time>
   </trkpt>
   <trkpt lat="46.0945892333984" lon="7.21846580505371">
    <ele>1393.56799316406</ele>
    <time>2012-05-22T16:32:55Z</time>
   </trkpt>
   <trkpt lat="46.0946083068848" lon="7.21845006942749">
    <ele>1393.82397460938</ele>
    <time>2012-05-22T16:32:56Z</time>
   </trkpt>
   <trkpt lat="46.0946311950684" lon="7.21843147277832">
    <ele>1394.080078125</ele>
    <time>2012-05-22T16:32:57Z</time>
   </trkpt>
   <trkpt lat="46.0946502685547" lon="7.21841287612915">
    <ele>1394.33605957031</ele>
    <time>2012-05-22T16:32:58Z</time>
   </trkpt>
   <trkpt lat="46.094669342041" lon="7.21839237213135">
    <ele>1394.59204101562</ele>
    <time>2012-05-22T16:32:59Z</time>
   </trkpt>
   <trkpt lat="46.0947761535644" lon="7.21824359893799">
    <ele>1396.12805175781</ele>
    <time>2012-05-22T16:33:05Z</time>
   </trkpt>
   <trkpt lat="46.0947952270508" lon="7.21821689605713">
    <ele>1396.38403320312</ele>
    <time>2012-05-22T16:33:06Z</time>
   </trkpt>
   <trkpt lat="46.0948143005371" lon="7.21819305419922">
    <ele>1396.64001464844</ele>
    <time>2012-05-22T16:33:07Z</time>
   </trkpt>
   <trkpt lat="46.0948333740234" lon="7.2181658744812">
    <ele>1396.89599609375</ele>
    <time>2012-05-22T16:33:08Z</time>
   </trkpt>
   <trkpt lat="46.0948524475098" lon="7.21814203262329">
    <ele>1397.15197753906</ele>
    <time>2012-05-22T16:33:09Z</time>
   </trkpt>
   <trkpt lat="46.0949363708496" lon="7.21804141998291">
    <ele>1398.43200683594</ele>
    <time>2012-05-22T16:33:14Z</time>
   </trkpt>
   <trkpt lat="46.0949516296387" lon="7.21801853179932">
    <ele>1398.68798828125</ele>
    <time>2012-05-22T16:33:15Z</time>
   </trkpt>
   <trkpt lat="46.094970703125" lon="7.21799612045288">
    <ele>1398.94396972656</ele>
    <time>2012-05-22T16:33:16Z</time>
   </trkpt>
   <trkpt lat="46.0949935913086" lon="7.21797370910644">
    <ele>1399.19995117188</ele>
    <time>2012-05-22T16:33:17Z</time>
   </trkpt>
   <trkpt lat="46.0950469970703" lon="7.2179012298584">
    <ele>1399.19995117188</ele>
    <time>2012-05-22T16:33:20Z</time>
   </trkpt>
   <trkpt lat="46.0951156616211" lon="7.21779632568359">
    <ele>1400.19995117188</ele>
    <time>2012-05-22T16:33:24Z</time>
   </trkpt>
   <trkpt lat="46.0951347351074" lon="7.21777009963989">
    <ele>1400.44995117188</ele>
    <time>2012-05-22T16:33:25Z</time>
   </trkpt>
   <trkpt lat="46.0951538085938" lon="7.21774291992188">
    <ele>1400.69995117188</ele>
    <time>2012-05-22T16:33:26Z</time>
   </trkpt>
   <trkpt lat="46.0951690673828" lon="7.21771574020386">
    <ele>1400.94995117188</ele>
    <time>2012-05-22T16:33:27Z</time>
   </trkpt>
   <trkpt lat="46.0951881408691" lon="7.21768760681152">
    <ele>1401.19995117188</ele>
    <time>2012-05-22T16:33:28Z</time>
   </trkpt>
   <trkpt lat="46.0952033996582" lon="7.2176628112793">
    <ele>1401.19995117188</ele>
    <time>2012-05-22T16:33:29Z</time>
   </trkpt>
   <trkpt lat="46.095272064209" lon="7.21756792068482">
    <ele>1402.30004882812</ele>
    <time>2012-05-22T16:33:33Z</time>
   </trkpt>
   <trkpt lat="46.0952911376953" lon="7.21754169464111">
    <ele>1402.57495117188</ele>
    <time>2012-05-22T16:33:34Z</time>
   </trkpt>
   <trkpt lat="46.0953102111816" lon="7.21751260757446">
    <ele>1402.84997558594</ele>
    <time>2012-05-22T16:33:35Z</time>
   </trkpt>
   <trkpt lat="46.095329284668" lon="7.21748685836792">
    <ele>1403.125</ele>
    <time>2012-05-22T16:33:36Z</time>
   </trkpt>
   <trkpt lat="46.0953483581543" lon="7.21746110916138">
    <ele>1403.40002441406</ele>
    <time>2012-05-22T16:33:37Z</time>
   </trkpt>
   <trkpt lat="46.0954246520996" lon="7.21736097335815">
    <ele>1403.40002441406</ele>
    <time>2012-05-22T16:33:41Z</time>
   </trkpt>
   <trkpt lat="46.0954437255859" lon="7.2173342704773">
    <ele>1403.83996582031</ele>
    <time>2012-05-22T16:33:42Z</time>
   </trkpt>
   <trkpt lat="46.0954666137695" lon="7.21731472015381">
    <ele>1404.28002929688</ele>
    <time>2012-05-22T16:33:43Z</time>
   </trkpt>
   <trkpt lat="46.0954895019531" lon="7.21729564666748">
    <ele>1404.71997070312</ele>
    <time>2012-05-22T16:33:44Z</time>
   </trkpt>
   <trkpt lat="46.095516204834" lon="7.21727132797241">
    <ele>1405.16003417969</ele>
    <time>2012-05-22T16:33:45Z</time>
   </trkpt>
   <trkpt lat="46.0955390930176" lon="7.21725654602051">
    <ele>1405.59997558594</ele>
    <time>2012-05-22T16:33:46Z</time>
   </trkpt>
   <trkpt lat="46.0955657958984" lon="7.21723461151123">
    <ele>1405.59997558594</ele>
    <time>2012-05-22T16:33:47Z</time>
   </trkpt>
   <trkpt lat="46.0956878662109" lon="7.21716690063476">
    <ele>1406.822265625</ele>
    <time>2012-05-22T16:33:52Z</time>
   </trkpt>
   <trkpt lat="46.0957107543945" lon="7.21715354919434">
    <ele>1407.06665039062</ele>
    <time>2012-05-22T16:33:53Z</time>
   </trkpt>
   <trkpt lat="46.0957374572754" lon="7.21714305877686">
    <ele>1407.31115722656</ele>
    <time>2012-05-22T16:33:54Z</time>
   </trkpt>
   <trkpt lat="46.0957641601562" lon="7.21713495254517">
    <ele>1407.55554199219</ele>
    <time>2012-05-22T16:33:55Z</time>
   </trkpt>
   <trkpt lat="46.0957870483398" lon="7.21712779998779">
    <ele>1407.80004882812</ele>
    <time>2012-05-22T16:33:56Z</time>
   </trkpt>
   <trkpt lat="46.0959091186523" lon="7.21709871292114">
    <ele>1407.80004882812</ele>
    <time>2012-05-22T16:34:00Z</time>
   </trkpt>
   <trkpt lat="46.0959663391113" lon="7.21709871292114">
    <ele>1408.60009765625</ele>
    <time>2012-05-22T16:34:02Z</time>
   </trkpt>
   <trkpt lat="46.0959930419922" lon="7.21709585189819">
    <ele>1409</ele>
    <time>2012-05-22T16:34:03Z</time>
   </trkpt>
   <trkpt lat="46.0960235595703" lon="7.21709203720093">
    <ele>1409.40002441406</ele>
    <time>2012-05-22T16:34:04Z</time>
   </trkpt>
   <trkpt lat="46.0960502624512" lon="7.21709156036377">
    <ele>1409.80004882812</ele>
    <time>2012-05-22T16:34:05Z</time>
   </trkpt>
   <trkpt lat="46.096248626709" lon="7.21713495254517">
    <ele>1409.80004882812</ele>
    <time>2012-05-22T16:34:12Z</time>
   </trkpt>
   <trkpt lat="46.0962715148926" lon="7.21717214584351">
    <ele>1410.20007324219</ele>
    <time>2012-05-22T16:34:13Z</time>
   </trkpt>
   <trkpt lat="46.0962791442871" lon="7.21721124649048">
    <ele>1410.60009765625</ele>
    <time>2012-05-22T16:34:14Z</time>
   </trkpt>
   <trkpt lat="46.0962753295898" lon="7.21724796295166">
    <ele>1411</ele>
    <time>2012-05-22T16:34:15Z</time>
   </trkpt>
   <trkpt lat="46.0962677001953" lon="7.21728610992432">
    <ele>1411.40002441406</ele>
    <time>2012-05-22T16:34:16Z</time>
   </trkpt>
   <trkpt lat="46.0962524414062" lon="7.21731948852539">
    <ele>1411.80004882812</ele>
    <time>2012-05-22T16:34:17Z</time>
   </trkpt>
   <trkpt lat="46.0961647033691" lon="7.2173581123352">
    <ele>1411.80004882812</ele>
    <time>2012-05-22T16:34:20Z</time>
   </trkpt>
   <trkpt lat="46.096134185791" lon="7.21736431121826">
    <ele>1412.23999023438</ele>
    <time>2012-05-22T16:34:21Z</time>
   </trkpt>
   <trkpt lat="46.0961036682129" lon="7.21736907958984">
    <ele>1412.68005371094</ele>
    <time>2012-05-22T16:34:22Z</time>
   </trkpt>
   <trkpt lat="46.0960731506348" lon="7.217369556427">
    <ele>1413.11999511719</ele>
    <time>2012-05-22T16:34:23Z</time>
   </trkpt>
   <trkpt lat="46.0960464477539" lon="7.21737670898438">
    <ele>1413.56005859375</ele>
    <time>2012-05-22T16:34:24Z</time>
   </trkpt>
   <trkpt lat="46.0960159301758" lon="7.21738195419312">
    <ele>1414</ele>
    <time>2012-05-22T16:34:25Z</time>
   </trkpt>
   <trkpt lat="46.0959548950195" lon="7.21739530563354">
    <ele>1414</ele>
    <time>2012-05-22T16:34:27Z</time>
   </trkpt>
   <trkpt lat="46.0958480834961" lon="7.21746110916138">
    <ele>1415.09997558594</ele>
    <time>2012-05-22T16:34:31Z</time>
   </trkpt>
   <trkpt lat="46.0958251953125" lon="7.21747970581055">
    <ele>1415.375</ele>
    <time>2012-05-22T16:34:32Z</time>
   </trkpt>
   <trkpt lat="46.0958023071289" lon="7.21750926971436">
    <ele>1415.64990234375</ele>
    <time>2012-05-22T16:34:33Z</time>
   </trkpt>
   <trkpt lat="46.0957794189453" lon="7.21753644943237">
    <ele>1415.92492675781</ele>
    <time>2012-05-22T16:34:34Z</time>
   </trkpt>
   <trkpt lat="46.095760345459" lon="7.21756601333618">
    <ele>1416.19995117188</ele>
    <time>2012-05-22T16:34:35Z</time>
   </trkpt>
   <trkpt lat="46.0957107543945" lon="7.2176661491394">
    <ele>1416.19995117188</ele>
    <time>2012-05-22T16:34:38Z</time>
   </trkpt>
   <trkpt lat="46.0956764221191" lon="7.21777677536011">
    <ele>1417.05712890625</ele>
    <time>2012-05-22T16:34:41Z</time>
   </trkpt>
   <trkpt lat="46.0956649780273" lon="7.2178201675415">
    <ele>1417.3427734375</ele>
    <time>2012-05-22T16:34:42Z</time>
   </trkpt>
   <trkpt lat="46.0956611633301" lon="7.217857837677">
    <ele>1417.62854003906</ele>
    <time>2012-05-22T16:34:43Z</time>
   </trkpt>
   <trkpt lat="46.0956573486328" lon="7.21790266036987">
    <ele>1417.91418457031</ele>
    <time>2012-05-22T16:34:44Z</time>
   </trkpt>
   <trkpt lat="46.0956573486328" lon="7.21794319152832">
    <ele>1418.19995117188</ele>
    <time>2012-05-22T16:34:45Z</time>
   </trkpt>
   <trkpt lat="46.0956611633301" lon="7.21802616119385">
    <ele>1418.19995117188</ele>
    <time>2012-05-22T16:34:47Z</time>
   </trkpt>
   <trkpt lat="46.0956649780273" lon="7.218101978302">
    <ele>1418.78173828125</ele>
    <time>2012-05-22T16:34:49Z</time>
   </trkpt>
   <trkpt lat="46.0956649780273" lon="7.21815061569214">
    <ele>1419.07263183594</ele>
    <time>2012-05-22T16:34:50Z</time>
   </trkpt>
   <trkpt lat="46.0956726074219" lon="7.21819543838501">
    <ele>1419.36364746094</ele>
    <time>2012-05-22T16:34:51Z</time>
   </trkpt>
   <trkpt lat="46.0956802368164" lon="7.21823692321777">
    <ele>1419.65454101562</ele>
    <time>2012-05-22T16:34:52Z</time>
   </trkpt>
   <trkpt lat="46.0956878662109" lon="7.21827840805054">
    <ele>1419.94543457031</ele>
    <time>2012-05-22T16:34:53Z</time>
   </trkpt>
   <trkpt lat="46.0957145690918" lon="7.21840763092041">
    <ele>1420.81811523438</ele>
    <time>2012-05-22T16:34:56Z</time>
   </trkpt>
   <trkpt lat="46.0957298278809" lon="7.21845102310181">
    <ele>1421.10900878906</ele>
    <time>2012-05-22T16:34:57Z</time>
   </trkpt>
   <trkpt lat="46.0957412719727" lon="7.2184944152832">
    <ele>1421.39990234375</ele>
    <time>2012-05-22T16:34:58Z</time>
   </trkpt>
   <trkpt lat="46.0957565307617" lon="7.21853494644165">
    <ele>1421.69091796875</ele>
    <time>2012-05-22T16:34:59Z</time>
   </trkpt>
   <trkpt lat="46.0957717895508" lon="7.21857261657715">
    <ele>1421.98181152344</ele>
    <time>2012-05-22T16:35:00Z</time>
   </trkpt>
   <trkpt lat="46.0958633422852" lon="7.21874904632568">
    <ele>1423.43627929688</ele>
    <time>2012-05-22T16:35:05Z</time>
   </trkpt>
   <trkpt lat="46.0958862304688" lon="7.21877861022949">
    <ele>1423.72729492188</ele>
    <time>2012-05-22T16:35:06Z</time>
   </trkpt>
   <trkpt lat="46.0959129333496" lon="7.21880960464478">
    <ele>1424.01818847656</ele>
    <time>2012-05-22T16:35:07Z</time>
   </trkpt>
   <trkpt lat="46.0959358215332" lon="7.21883964538574">
    <ele>1424.30908203125</ele>
    <time>2012-05-22T16:35:08Z</time>
   </trkpt>
   <trkpt lat="46.0959587097168" lon="7.21886825561524">
    <ele>1424.59997558594</ele>
    <time>2012-05-22T16:35:09Z</time>
   </trkpt>
   <trkpt lat="46.0960578918457" lon="7.2189736366272">
    <ele>1424.59997558594</ele>
    <time>2012-05-22T16:35:13Z</time>
   </trkpt>
   <trkpt lat="46.0960845947266" lon="7.21900367736816">
    <ele>1425</ele>
    <time>2012-05-22T16:35:14Z</time>
   </trkpt>
   <trkpt lat="46.0961074829102" lon="7.2190318107605">
    <ele>1425.40002441406</ele>
    <time>2012-05-22T16:35:15Z</time>
   </trkpt>
   <trkpt lat="46.096134185791" lon="7.21905994415283">
    <ele>1425.79992675781</ele>
    <time>2012-05-22T16:35:16Z</time>
   </trkpt>
   <trkpt lat="46.0961570739746" lon="7.21909427642822">
    <ele>1426.19995117188</ele>
    <time>2012-05-22T16:35:17Z</time>
   </trkpt>
   <trkpt lat="46.0961685180664" lon="7.21913385391235">
    <ele>1426.59997558594</ele>
    <time>2012-05-22T16:35:18Z</time>
   </trkpt>
   <trkpt lat="46.0961875915527" lon="7.21921110153198">
    <ele>1426.59997558594</ele>
    <time>2012-05-22T16:35:20Z</time>
   </trkpt>
   <trkpt lat="46.0961990356445" lon="7.21929502487183">
    <ele>1427.25708007812</ele>
    <time>2012-05-22T16:35:22Z</time>
   </trkpt>
   <trkpt lat="46.0961990356445" lon="7.21933937072754">
    <ele>1427.58569335938</ele>
    <time>2012-05-22T16:35:23Z</time>
   </trkpt>
   <trkpt lat="46.0961952209473" lon="7.21938419342041">
    <ele>1427.91430664062</ele>
    <time>2012-05-22T16:35:24Z</time>
   </trkpt>
   <trkpt lat="46.09619140625" lon="7.21942472457886">
    <ele>1428.24279785156</ele>
    <time>2012-05-22T16:35:25Z</time>
   </trkpt>
   <trkpt lat="46.0961875915527" lon="7.21946430206299">
    <ele>1428.57141113281</ele>
    <time>2012-05-22T16:35:26Z</time>
   </trkpt>
   <trkpt lat="46.0961608886719" lon="7.21960973739624">
    <ele>1429.8857421875</ele>
    <time>2012-05-22T16:35:30Z</time>
   </trkpt>
   <trkpt lat="46.0961494445801" lon="7.21964454650879">
    <ele>1430.21423339844</ele>
    <time>2012-05-22T16:35:31Z</time>
   </trkpt>
   <trkpt lat="46.0961456298828" lon="7.2196798324585">
    <ele>1430.54284667969</ele>
    <time>2012-05-22T16:35:32Z</time>
   </trkpt>
   <trkpt lat="46.0961418151856" lon="7.21971368789673">
    <ele>1430.87145996094</ele>
    <time>2012-05-22T16:35:33Z</time>
   </trkpt>
   <trkpt lat="46.0961380004883" lon="7.21974992752075">
    <ele>1431.19995117188</ele>
    <time>2012-05-22T16:35:34Z</time>
   </trkpt>
   <trkpt lat="46.0961303710938" lon="7.21987295150757">
    <ele>1432.18579101562</ele>
    <time>2012-05-22T16:35:37Z</time>
   </trkpt>
   <trkpt lat="46.096134185791" lon="7.21990966796875">
    <ele>1432.51428222656</ele>
    <time>2012-05-22T16:35:38Z</time>
   </trkpt>
   <trkpt lat="46.0961303710938" lon="7.2199444770813">
    <ele>1432.84289550781</ele>
    <time>2012-05-22T16:35:39Z</time>
   </trkpt>
   <trkpt lat="46.0961380004883" lon="7.21998262405396">
    <ele>1433.17150878906</ele>
    <time>2012-05-22T16:35:40Z</time>
   </trkpt>
   <trkpt lat="46.0961456298828" lon="7.22001504898071">
    <ele>1433.5</ele>
    <time>2012-05-22T16:35:41Z</time>
   </trkpt>
   <trkpt lat="46.0961761474609" lon="7.22012138366699">
    <ele>1434.48571777344</ele>
    <time>2012-05-22T16:35:44Z</time>
   </trkpt>
   <trkpt lat="46.0961875915527" lon="7.22015380859375">
    <ele>1434.81433105469</ele>
    <time>2012-05-22T16:35:45Z</time>
   </trkpt>
   <trkpt lat="46.0962066650391" lon="7.22018051147461">
    <ele>1435.14294433594</ele>
    <time>2012-05-22T16:35:46Z</time>
   </trkpt>
   <trkpt lat="46.0962181091309" lon="7.2202091217041">
    <ele>1435.47143554688</ele>
    <time>2012-05-22T16:35:47Z</time>
   </trkpt>
   <trkpt lat="46.0962409973144" lon="7.22024011611938">
    <ele>1435.80004882812</ele>
    <time>2012-05-22T16:35:48Z</time>
   </trkpt>
   <trkpt lat="46.096263885498" lon="7.22027254104614">
    <ele>1435.80004882812</ele>
    <time>2012-05-22T16:35:49Z</time>
   </trkpt>
   <trkpt lat="46.0963287353516" lon="7.2203631401062">
    <ele>1436.70007324219</ele>
    <time>2012-05-22T16:35:52Z</time>
   </trkpt>
   <trkpt lat="46.0963478088379" lon="7.22039365768433">
    <ele>1437</ele>
    <time>2012-05-22T16:35:53Z</time>
   </trkpt>
   <trkpt lat="46.0963668823242" lon="7.22041702270508">
    <ele>1437.30004882812</ele>
    <time>2012-05-22T16:35:54Z</time>
   </trkpt>
   <trkpt lat="46.0963859558106" lon="7.22043991088867">
    <ele>1437.60009765625</ele>
    <time>2012-05-22T16:35:55Z</time>
   </trkpt>
   <trkpt lat="46.0964050292969" lon="7.22046422958374">
    <ele>1437.90002441406</ele>
    <time>2012-05-22T16:35:56Z</time>
   </trkpt>
   <trkpt lat="46.0964546203613" lon="7.22055339813232">
    <ele>1438.80004882812</ele>
    <time>2012-05-22T16:35:59Z</time>
   </trkpt>
   <trkpt lat="46.0964698791504" lon="7.2205810546875">
    <ele>1439.09997558594</ele>
    <time>2012-05-22T16:36:00Z</time>
   </trkpt>
   <trkpt lat="46.0964851379394" lon="7.22060775756836">
    <ele>1439.40002441406</ele>
    <time>2012-05-22T16:36:01Z</time>
   </trkpt>
   <trkpt lat="46.0965042114258" lon="7.2206301689148">
    <ele>1439.70007324219</ele>
    <time>2012-05-22T16:36:02Z</time>
   </trkpt>
   <trkpt lat="46.0965194702148" lon="7.22066259384155">
    <ele>1440</ele>
    <time>2012-05-22T16:36:03Z</time>
   </trkpt>
   <trkpt lat="46.0965690612793" lon="7.22078895568848">
    <ele>1441.19995117188</ele>
    <time>2012-05-22T16:36:07Z</time>
   </trkpt>
   <trkpt lat="46.0965766906738" lon="7.22082567214966">
    <ele>1441.5</ele>
    <time>2012-05-22T16:36:08Z</time>
   </trkpt>
   <trkpt lat="46.0965843200684" lon="7.22086238861084">
    <ele>1441.80004882812</ele>
    <time>2012-05-22T16:36:09Z</time>
   </trkpt>
   <trkpt lat="46.0965919494629" lon="7.22090005874634">
    <ele>1442.09997558594</ele>
    <time>2012-05-22T16:36:10Z</time>
   </trkpt>
   <trkpt lat="46.0965805053711" lon="7.22100973129272">
    <ele>1443</ele>
    <time>2012-05-22T16:36:13Z</time>
   </trkpt>
   <trkpt lat="46.0965766906738" lon="7.2210431098938">
    <ele>1443.30004882812</ele>
    <time>2012-05-22T16:36:14Z</time>
   </trkpt>
   <trkpt lat="46.0965728759766" lon="7.22107601165772">
    <ele>1443.59997558594</ele>
    <time>2012-05-22T16:36:15Z</time>
   </trkpt>
   <trkpt lat="46.0965690612793" lon="7.22110414505005">
    <ele>1443.90002441406</ele>
    <time>2012-05-22T16:36:16Z</time>
   </trkpt>
   <trkpt lat="46.096565246582" lon="7.22113704681396">
    <ele>1444.19995117188</ele>
    <time>2012-05-22T16:36:17Z</time>
   </trkpt>
   <trkpt lat="46.0965423583984" lon="7.22128391265869">
    <ele>1445.40002441406</ele>
    <time>2012-05-22T16:36:21Z</time>
   </trkpt>
   <trkpt lat="46.0965423583984" lon="7.22132205963135">
    <ele>1445.69995117188</ele>
    <time>2012-05-22T16:36:22Z</time>
   </trkpt>
   <trkpt lat="46.0965461730957" lon="7.22136163711548">
    <ele>1446</ele>
    <time>2012-05-22T16:36:23Z</time>
   </trkpt>
   <trkpt lat="46.0965461730957" lon="7.22139739990234">
    <ele>1446.29992675781</ele>
    <time>2012-05-22T16:36:24Z</time>
   </trkpt>
   <trkpt lat="46.0965461730957" lon="7.22143173217774">
    <ele>1446.59997558594</ele>
    <time>2012-05-22T16:36:25Z</time>
   </trkpt>
   <trkpt lat="46.0965423583984" lon="7.2215051651001">
    <ele>1446.59997558594</ele>
    <time>2012-05-22T16:36:27Z</time>
   </trkpt>
   <trkpt lat="46.0965461730957" lon="7.22154808044434">
    <ele>1447.0400390625</ele>
    <time>2012-05-22T16:36:28Z</time>
   </trkpt>
   <trkpt lat="46.096549987793" lon="7.22159290313721">
    <ele>1447.47998046875</ele>
    <time>2012-05-22T16:36:29Z</time>
   </trkpt>
   <trkpt lat="46.0965576171875" lon="7.22162961959839">
    <ele>1447.92004394531</ele>
    <time>2012-05-22T16:36:30Z</time>
   </trkpt>
   <trkpt lat="46.096565246582" lon="7.22167205810547">
    <ele>1448.35998535156</ele>
    <time>2012-05-22T16:36:31Z</time>
   </trkpt>
   <trkpt lat="46.0965690612793" lon="7.22171115875244">
    <ele>1448.80004882812</ele>
    <time>2012-05-22T16:36:32Z</time>
   </trkpt>
   <trkpt lat="46.0965766906738" lon="7.22174596786499">
    <ele>1448.80004882812</ele>
    <time>2012-05-22T16:36:33Z</time>
   </trkpt>
   <trkpt lat="46.0965766906738" lon="7.22178316116333">
    <ele>1449.20007324219</ele>
    <time>2012-05-22T16:36:34Z</time>
   </trkpt>
   <trkpt lat="46.0965881347656" lon="7.22181987762451">
    <ele>1449.60009765625</ele>
    <time>2012-05-22T16:36:35Z</time>
   </trkpt>
   <trkpt lat="46.0965957641602" lon="7.22185707092285">
    <ele>1450</ele>
    <time>2012-05-22T16:36:36Z</time>
   </trkpt>
   <trkpt lat="46.0965995788574" lon="7.22189950942993">
    <ele>1450.40002441406</ele>
    <time>2012-05-22T16:36:37Z</time>
   </trkpt>
   <trkpt lat="46.096607208252" lon="7.22194194793701">
    <ele>1450.80004882812</ele>
    <time>2012-05-22T16:36:38Z</time>
   </trkpt>
   <trkpt lat="46.0966186523438" lon="7.22201585769653">
    <ele>1450.80004882812</ele>
    <time>2012-05-22T16:36:40Z</time>
   </trkpt>
   <trkpt lat="46.0966262817383" lon="7.22210025787354">
    <ele>1451.3818359375</ele>
    <time>2012-05-22T16:36:42Z</time>
   </trkpt>
   <trkpt lat="46.0966262817383" lon="7.22213983535767">
    <ele>1451.67272949219</ele>
    <time>2012-05-22T16:36:43Z</time>
   </trkpt>
   <trkpt lat="46.096622467041" lon="7.22218418121338">
    <ele>1451.96362304688</ele>
    <time>2012-05-22T16:36:44Z</time>
   </trkpt>
   <trkpt lat="46.096622467041" lon="7.22223043441772">
    <ele>1452.25451660156</ele>
    <time>2012-05-22T16:36:45Z</time>
   </trkpt>
   <trkpt lat="46.0966148376465" lon="7.22227048873901">
    <ele>1452.54553222656</ele>
    <time>2012-05-22T16:36:46Z</time>
   </trkpt>
   <trkpt lat="46.0965766906738" lon="7.22241735458374">
    <ele>1453.70910644531</ele>
    <time>2012-05-22T16:36:50Z</time>
   </trkpt>
   <trkpt lat="46.0965766906738" lon="7.22245788574219">
    <ele>1454</ele>
    <time>2012-05-22T16:36:51Z</time>
   </trkpt>
   <trkpt lat="46.0965728759766" lon="7.22249984741211">
    <ele>1454.29089355469</ele>
    <time>2012-05-22T16:36:52Z</time>
   </trkpt>
   <trkpt lat="46.0965690612793" lon="7.22254085540772">
    <ele>1454.58178710938</ele>
    <time>2012-05-22T16:36:53Z</time>
   </trkpt>
   <trkpt lat="46.096565246582" lon="7.22257900238037">
    <ele>1454.87268066406</ele>
    <time>2012-05-22T16:36:54Z</time>
   </trkpt>
   <trkpt lat="46.0965728759766" lon="7.22274160385132">
    <ele>1456.03637695312</ele>
    <time>2012-05-22T16:36:58Z</time>
   </trkpt>
   <trkpt lat="46.0965805053711" lon="7.22277784347534">
    <ele>1456.32727050781</ele>
    <time>2012-05-22T16:36:59Z</time>
   </trkpt>
   <trkpt lat="46.0965843200684" lon="7.22280979156494">
    <ele>1456.6181640625</ele>
    <time>2012-05-22T16:37:00Z</time>
   </trkpt>
   <trkpt lat="46.0965843200684" lon="7.22284412384033">
    <ele>1456.90905761719</ele>
    <time>2012-05-22T16:37:01Z</time>
   </trkpt>
   <trkpt lat="46.0965881347656" lon="7.22287750244141">
    <ele>1457.19995117188</ele>
    <time>2012-05-22T16:37:02Z</time>
   </trkpt>
   <trkpt lat="46.0966033935547" lon="7.22291135787964">
    <ele>1457.19995117188</ele>
    <time>2012-05-22T16:37:03Z</time>
   </trkpt>
   <trkpt lat="46.0966300964356" lon="7.22298431396484">
    <ele>1457.44995117188</ele>
    <time>2012-05-22T16:37:05Z</time>
   </trkpt>
   <trkpt lat="46.0967330932617" lon="7.22318649291992">
    <ele>1458.32495117188</ele>
    <time>2012-05-22T16:37:12Z</time>
   </trkpt>
   <trkpt lat="46.0967826843262" lon="7.22326850891113">
    <ele>1458.69995117188</ele>
    <time>2012-05-22T16:37:15Z</time>
   </trkpt>
   <trkpt lat="46.096794128418" lon="7.22329902648926">
    <ele>1458.82495117188</ele>
    <time>2012-05-22T16:37:16Z</time>
   </trkpt>
   <trkpt lat="46.096809387207" lon="7.22332811355591">
    <ele>1458.94995117188</ele>
    <time>2012-05-22T16:37:17Z</time>
   </trkpt>
   <trkpt lat="46.0968208312988" lon="7.22335958480835">
    <ele>1459.07495117188</ele>
    <time>2012-05-22T16:37:18Z</time>
   </trkpt>
   <trkpt lat="46.0968322753906" lon="7.22338914871216">
    <ele>1459.19995117188</ele>
    <time>2012-05-22T16:37:19Z</time>
   </trkpt>
   <trkpt lat="46.0969314575195" lon="7.22353458404541">
    <ele>1459.19995117188</ele>
    <time>2012-05-22T16:37:24Z</time>
   </trkpt>
   <trkpt lat="46.0969657897949" lon="7.22359704971314">
    <ele>1459.86657714844</ele>
    <time>2012-05-22T16:37:26Z</time>
   </trkpt>
   <trkpt lat="46.0969657897949" lon="7.2236270904541">
    <ele>1460.19995117188</ele>
    <time>2012-05-22T16:37:27Z</time>
   </trkpt>
   <trkpt lat="46.0969696044922" lon="7.22365856170654">
    <ele>1460.53332519531</ele>
    <time>2012-05-22T16:37:28Z</time>
   </trkpt>
   <trkpt lat="46.0969657897949" lon="7.22369050979614">
    <ele>1460.86657714844</ele>
    <time>2012-05-22T16:37:29Z</time>
   </trkpt>
   <trkpt lat="46.0969581604004" lon="7.22371816635132">
    <ele>1461.19995117188</ele>
    <time>2012-05-22T16:37:30Z</time>
   </trkpt>
   <trkpt lat="46.0969276428223" lon="7.22387266159058">
    <ele>1461.19995117188</ele>
    <time>2012-05-22T16:37:34Z</time>
   </trkpt>
   <trkpt lat="46.0968894958496" lon="7.22397184371948">
    <ele>1461.98742675781</ele>
    <time>2012-05-22T16:37:37Z</time>
   </trkpt>
   <trkpt lat="46.0968742370606" lon="7.22400712966919">
    <ele>1462.25</ele>
    <time>2012-05-22T16:37:38Z</time>
   </trkpt>
   <trkpt lat="46.096866607666" lon="7.22404384613037">
    <ele>1462.51245117188</ele>
    <time>2012-05-22T16:37:39Z</time>
   </trkpt>
   <trkpt lat="46.0968551635742" lon="7.22407817840576">
    <ele>1462.77502441406</ele>
    <time>2012-05-22T16:37:40Z</time>
   </trkpt>
   <trkpt lat="46.0968399047852" lon="7.22411012649536">
    <ele>1463.03747558594</ele>
    <time>2012-05-22T16:37:41Z</time>
   </trkpt>
   <trkpt lat="46.0967559814453" lon="7.22429895401001">
    <ele>1464.61254882812</ele>
    <time>2012-05-22T16:37:47Z</time>
   </trkpt>
   <trkpt lat="46.0967407226562" lon="7.2243275642395">
    <ele>1464.875</ele>
    <time>2012-05-22T16:37:48Z</time>
   </trkpt>
   <trkpt lat="46.0967292785644" lon="7.22435760498047">
    <ele>1465.13757324219</ele>
    <time>2012-05-22T16:37:49Z</time>
   </trkpt>
   <trkpt lat="46.0967178344727" lon="7.22438859939575">
    <ele>1465.40002441406</ele>
    <time>2012-05-22T16:37:50Z</time>
   </trkpt>
   <trkpt lat="46.0966911315918" lon="7.22445297241211">
    <ele>1465.40002441406</ele>
    <time>2012-05-22T16:37:52Z</time>
   </trkpt>
   <trkpt lat="46.0966262817383" lon="7.224609375">
    <ele>1466.63525390625</ele>
    <time>2012-05-22T16:37:57Z</time>
   </trkpt>
   <trkpt lat="46.0966110229492" lon="7.22464227676392">
    <ele>1466.88232421875</ele>
    <time>2012-05-22T16:37:58Z</time>
   </trkpt>
   <trkpt lat="46.0965957641602" lon="7.22467279434204">
    <ele>1467.12939453125</ele>
    <time>2012-05-22T16:37:59Z</time>
   </trkpt>
   <trkpt lat="46.0965805053711" lon="7.2247052192688">
    <ele>1467.37646484375</ele>
    <time>2012-05-22T16:38:00Z</time>
   </trkpt>
   <trkpt lat="46.0965614318848" lon="7.22473764419556">
    <ele>1467.62353515625</ele>
    <time>2012-05-22T16:38:01Z</time>
   </trkpt>
   <trkpt lat="46.0965003967285" lon="7.22486972808838">
    <ele>1468.61169433594</ele>
    <time>2012-05-22T16:38:05Z</time>
   </trkpt>
   <trkpt lat="46.0964889526367" lon="7.22490358352661">
    <ele>1468.85876464844</ele>
    <time>2012-05-22T16:38:06Z</time>
   </trkpt>
   <trkpt lat="46.0964775085449" lon="7.22493314743042">
    <ele>1469.10583496094</ele>
    <time>2012-05-22T16:38:07Z</time>
   </trkpt>
   <trkpt lat="46.0964584350586" lon="7.22496509552002">
    <ele>1469.35290527344</ele>
    <time>2012-05-22T16:38:08Z</time>
   </trkpt>
   <trkpt lat="46.0964431762695" lon="7.22499561309814">
    <ele>1469.59997558594</ele>
    <time>2012-05-22T16:38:09Z</time>
   </trkpt>
   <trkpt lat="46.0963935852051" lon="7.22511911392212">
    <ele>1469.59997558594</ele>
    <time>2012-05-22T16:38:13Z</time>
   </trkpt>
   <trkpt lat="46.0963745117188" lon="7.22514867782593">
    <ele>1470.0400390625</ele>
    <time>2012-05-22T16:38:14Z</time>
   </trkpt>
   <trkpt lat="46.0963592529297" lon="7.22518348693848">
    <ele>1470.47998046875</ele>
    <time>2012-05-22T16:38:15Z</time>
   </trkpt>
   <trkpt lat="46.0963439941406" lon="7.22521257400513">
    <ele>1470.92004394531</ele>
    <time>2012-05-22T16:38:16Z</time>
   </trkpt>
   <trkpt lat="46.0963325500488" lon="7.22524404525757">
    <ele>1471.35998535156</ele>
    <time>2012-05-22T16:38:17Z</time>
   </trkpt>
   <trkpt lat="46.096321105957" lon="7.22527551651001">
    <ele>1471.80004882812</ele>
    <time>2012-05-22T16:38:18Z</time>
   </trkpt>
   <trkpt lat="46.0962944030762" lon="7.22533702850342">
    <ele>1471.80004882812</ele>
    <time>2012-05-22T16:38:20Z</time>
   </trkpt>
   <trkpt lat="46.0962333679199" lon="7.22554588317871">
    <ele>1472.89099121094</ele>
    <time>2012-05-22T16:38:26Z</time>
   </trkpt>
   <trkpt lat="46.0962181091309" lon="7.22558164596558">
    <ele>1473.07275390625</ele>
    <time>2012-05-22T16:38:27Z</time>
   </trkpt>
   <trkpt lat="46.0962028503418" lon="7.22561550140381">
    <ele>1473.25463867188</ele>
    <time>2012-05-22T16:38:28Z</time>
   </trkpt>
   <trkpt lat="46.09619140625" lon="7.22564792633057">
    <ele>1473.43640136719</ele>
    <time>2012-05-22T16:38:29Z</time>
   </trkpt>
   <trkpt lat="46.0961799621582" lon="7.22568082809448">
    <ele>1473.61828613281</ele>
    <time>2012-05-22T16:38:30Z</time>
   </trkpt>
   <trkpt lat="46.0961608886719" lon="7.22571516036987">
    <ele>1473.80004882812</ele>
    <time>2012-05-22T16:38:31Z</time>
   </trkpt>
   <trkpt lat="46.096118927002" lon="7.22582006454468">
    <ele>1473.80004882812</ele>
    <time>2012-05-22T16:38:34Z</time>
   </trkpt>
   <trkpt lat="46.096076965332" lon="7.22593688964844">
    <ele>1474.22863769531</ele>
    <time>2012-05-22T16:38:37Z</time>
   </trkpt>
   <trkpt lat="46.0960502624512" lon="7.22606611251831">
    <ele>1474.6572265625</ele>
    <time>2012-05-22T16:38:40Z</time>
   </trkpt>
   <trkpt lat="46.0960426330566" lon="7.22610664367676">
    <ele>1474.80004882812</ele>
    <time>2012-05-22T16:38:41Z</time>
   </trkpt>
   <trkpt lat="46.0960350036621" lon="7.22624111175537">
    <ele>1475.22863769531</ele>
    <time>2012-05-22T16:38:44Z</time>
   </trkpt>
   <trkpt lat="46.0960350036621" lon="7.22628498077393">
    <ele>1475.37145996094</ele>
    <time>2012-05-22T16:38:45Z</time>
   </trkpt>
   <trkpt lat="46.0960311889648" lon="7.22633075714111">
    <ele>1475.51428222656</ele>
    <time>2012-05-22T16:38:46Z</time>
   </trkpt>
   <trkpt lat="46.0960311889648" lon="7.2263765335083">
    <ele>1475.6572265625</ele>
    <time>2012-05-22T16:38:47Z</time>
   </trkpt>
   <trkpt lat="46.0960350036621" lon="7.22641849517822">
    <ele>1475.80004882812</ele>
    <time>2012-05-22T16:38:48Z</time>
   </trkpt>
   <trkpt lat="46.0960388183594" lon="7.22675466537476">
    <ele>1475.80004882812</ele>
    <time>2012-05-22T16:38:56Z</time>
   </trkpt>
   <trkpt lat="46.0960426330566" lon="7.22688388824463">
    <ele>1476.90002441406</ele>
    <time>2012-05-22T16:38:59Z</time>
   </trkpt>
   <trkpt lat="46.0960388183594" lon="7.22692584991455">
    <ele>1477.26672363281</ele>
    <time>2012-05-22T16:39:00Z</time>
   </trkpt>
   <trkpt lat="46.0960426330566" lon="7.22697257995606">
    <ele>1477.63330078125</ele>
    <time>2012-05-22T16:39:01Z</time>
   </trkpt>
   <trkpt lat="46.0960426330566" lon="7.22701454162598">
    <ele>1478</ele>
    <time>2012-05-22T16:39:02Z</time>
   </trkpt>
   <trkpt lat="46.0960578918457" lon="7.22734355926514">
    <ele>1478</ele>
    <time>2012-05-22T16:39:10Z</time>
   </trkpt>
   <trkpt lat="46.096061706543" lon="7.2275013923645">
    <ele>1479</ele>
    <time>2012-05-22T16:39:14Z</time>
   </trkpt>
   <trkpt lat="46.096061706543" lon="7.22754192352295">
    <ele>1479.25</ele>
    <time>2012-05-22T16:39:15Z</time>
   </trkpt>
   <trkpt lat="46.0960655212402" lon="7.22758388519287">
    <ele>1479.5</ele>
    <time>2012-05-22T16:39:16Z</time>
   </trkpt>
   <trkpt lat="46.0960693359375" lon="7.22762203216553">
    <ele>1479.75</ele>
    <time>2012-05-22T16:39:17Z</time>
   </trkpt>
   <trkpt lat="46.0960693359375" lon="7.22766637802124">
    <ele>1480</ele>
    <time>2012-05-22T16:39:18Z</time>
   </trkpt>
   <trkpt lat="46.0960655212402" lon="7.2277021408081">
    <ele>1480</ele>
    <time>2012-05-22T16:39:19Z</time>
   </trkpt>
   <trkpt lat="46.0960578918457" lon="7.22794246673584">
    <ele>1481.46667480469</ele>
    <time>2012-05-22T16:39:25Z</time>
   </trkpt>
   <trkpt lat="46.096061706543" lon="7.22798490524292">
    <ele>1481.71105957031</ele>
    <time>2012-05-22T16:39:26Z</time>
   </trkpt>
   <trkpt lat="46.0960655212402" lon="7.22802448272705">
    <ele>1481.95556640625</ele>
    <time>2012-05-22T16:39:27Z</time>
   </trkpt>
   <trkpt lat="46.096061706543" lon="7.22806310653686">
    <ele>1482.19995117188</ele>
    <time>2012-05-22T16:39:28Z</time>
   </trkpt>
   <trkpt lat="46.0960502624512" lon="7.2282600402832">
    <ele>1482.19995117188</ele>
    <time>2012-05-22T16:39:33Z</time>
   </trkpt>
   <trkpt lat="46.0960502624512" lon="7.22837209701538">
    <ele>1483.05712890625</ele>
    <time>2012-05-22T16:39:36Z</time>
   </trkpt>
   <trkpt lat="46.0960502624512" lon="7.22840881347656">
    <ele>1483.3427734375</ele>
    <time>2012-05-22T16:39:37Z</time>
   </trkpt>
   <trkpt lat="46.0960464477539" lon="7.22844219207764">
    <ele>1483.62854003906</ele>
    <time>2012-05-22T16:39:38Z</time>
   </trkpt>
   <trkpt lat="46.0960426330566" lon="7.22847938537598">
    <ele>1483.91418457031</ele>
    <time>2012-05-22T16:39:39Z</time>
   </trkpt>
   <trkpt lat="46.0960388183594" lon="7.22851800918579">
    <ele>1484.19995117188</ele>
    <time>2012-05-22T16:39:40Z</time>
   </trkpt>
   <trkpt lat="46.0960350036621" lon="7.2285590171814">
    <ele>1484.19995117188</ele>
    <time>2012-05-22T16:39:41Z</time>
   </trkpt>
   <trkpt lat="46.0960578918457" lon="7.2287974357605">
    <ele>1485.21533203125</ele>
    <time>2012-05-22T16:39:47Z</time>
   </trkpt>
   <trkpt lat="46.096061706543" lon="7.22890996932983">
    <ele>1485.72302246094</ele>
    <time>2012-05-22T16:39:50Z</time>
   </trkpt>
   <trkpt lat="46.096061706543" lon="7.22895193099976">
    <ele>1485.89233398438</ele>
    <time>2012-05-22T16:39:51Z</time>
   </trkpt>
   <trkpt lat="46.0960655212402" lon="7.22899055480957">
    <ele>1486.0615234375</ele>
    <time>2012-05-22T16:39:52Z</time>
   </trkpt>
   <trkpt lat="46.096061706543" lon="7.22903299331665">
    <ele>1486.23083496094</ele>
    <time>2012-05-22T16:39:53Z</time>
   </trkpt>
   <trkpt lat="46.0960540771484" lon="7.22907400131226">
    <ele>1486.40002441406</ele>
    <time>2012-05-22T16:39:54Z</time>
   </trkpt>
   <trkpt lat="46.0960273742676" lon="7.22910451889038">
    <ele>1486.40002441406</ele>
    <time>2012-05-22T16:39:55Z</time>
   </trkpt>
   <trkpt lat="46.0959548950195" lon="7.22918605804443">
    <ele>1486.94995117188</ele>
    <time>2012-05-22T16:39:58Z</time>
   </trkpt>
   <trkpt lat="46.0959320068359" lon="7.22921133041382">
    <ele>1487.13330078125</ele>
    <time>2012-05-22T16:39:59Z</time>
   </trkpt>
   <trkpt lat="46.0958633422852" lon="7.22932434082031">
    <ele>1487.86669921875</ele>
    <time>2012-05-22T16:40:03Z</time>
   </trkpt>
   <trkpt lat="46.0958480834961" lon="7.22935104370117">
    <ele>1488.05004882812</ele>
    <time>2012-05-22T16:40:04Z</time>
   </trkpt>
   <trkpt lat="46.095832824707" lon="7.22938251495361">
    <ele>1488.23327636719</ele>
    <time>2012-05-22T16:40:05Z</time>
   </trkpt>
   <trkpt lat="46.0958251953125" lon="7.22942161560059">
    <ele>1488.41662597656</ele>
    <time>2012-05-22T16:40:06Z</time>
   </trkpt>
   <trkpt lat="46.095817565918" lon="7.22945690155029">
    <ele>1488.59997558594</ele>
    <time>2012-05-22T16:40:07Z</time>
   </trkpt>
   <trkpt lat="46.0957679748535" lon="7.2295708656311">
    <ele>1488.59997558594</ele>
    <time>2012-05-22T16:40:11Z</time>
   </trkpt>
   <trkpt lat="46.0957527160644" lon="7.2295937538147">
    <ele>1489.15002441406</ele>
    <time>2012-05-22T16:40:12Z</time>
   </trkpt>
   <trkpt lat="46.0957374572754" lon="7.2296199798584">
    <ele>1489.69995117188</ele>
    <time>2012-05-22T16:40:13Z</time>
   </trkpt>
   <trkpt lat="46.0957221984863" lon="7.22964715957642">
    <ele>1490.25</ele>
    <time>2012-05-22T16:40:14Z</time>
   </trkpt>
   <trkpt lat="46.095703125" lon="7.22967290878296">
    <ele>1490.80004882812</ele>
    <time>2012-05-22T16:40:15Z</time>
   </trkpt>
   <trkpt lat="46.0956535339356" lon="7.22976303100586">
    <ele>1490.80004882812</ele>
    <time>2012-05-22T16:40:18Z</time>
   </trkpt>
   <trkpt lat="46.095645904541" lon="7.22979211807251">
    <ele>1491.23999023438</ele>
    <time>2012-05-22T16:40:19Z</time>
   </trkpt>
   <trkpt lat="46.0956382751465" lon="7.22982358932495">
    <ele>1491.68005371094</ele>
    <time>2012-05-22T16:40:20Z</time>
   </trkpt>
   <trkpt lat="46.0956268310547" lon="7.22985410690308">
    <ele>1492.11999511719</ele>
    <time>2012-05-22T16:40:21Z</time>
   </trkpt>
   <trkpt lat="46.0956153869629" lon="7.22988557815552">
    <ele>1492.56005859375</ele>
    <time>2012-05-22T16:40:22Z</time>
   </trkpt>
   <trkpt lat="46.0956001281738" lon="7.22991466522217">
    <ele>1493</ele>
    <time>2012-05-22T16:40:23Z</time>
   </trkpt>
   <trkpt lat="46.095588684082" lon="7.22994041442871">
    <ele>1493</ele>
    <time>2012-05-22T16:40:24Z</time>
   </trkpt>
   <trkpt lat="46.0955505371094" lon="7.23004007339478">
    <ele>1494.17333984375</ele>
    <time>2012-05-22T16:40:28Z</time>
   </trkpt>
   <trkpt lat="46.0955429077148" lon="7.23006629943848">
    <ele>1494.46667480469</ele>
    <time>2012-05-22T16:40:29Z</time>
   </trkpt>
   <trkpt lat="46.095531463623" lon="7.23009014129639">
    <ele>1494.76000976562</ele>
    <time>2012-05-22T16:40:30Z</time>
   </trkpt>
   <trkpt lat="46.0955200195312" lon="7.23011779785156">
    <ele>1495.05334472656</ele>
    <time>2012-05-22T16:40:31Z</time>
   </trkpt>
   <trkpt lat="46.0955123901367" lon="7.23014116287232">
    <ele>1495.3466796875</ele>
    <time>2012-05-22T16:40:32Z</time>
   </trkpt>
   <trkpt lat="46.0954322814941" lon="7.23025560379028">
    <ele>1496.52001953125</ele>
    <time>2012-05-22T16:40:36Z</time>
   </trkpt>
   <trkpt lat="46.0954208374023" lon="7.23028373718262">
    <ele>1496.81335449219</ele>
    <time>2012-05-22T16:40:37Z</time>
   </trkpt>
   <trkpt lat="46.0954132080078" lon="7.2303204536438">
    <ele>1497.10668945312</ele>
    <time>2012-05-22T16:40:38Z</time>
   </trkpt>
   <trkpt lat="46.0954055786133" lon="7.23035049438476">
    <ele>1497.40002441406</ele>
    <time>2012-05-22T16:40:39Z</time>
   </trkpt>
   <trkpt lat="46.0953407287598" lon="7.23044347763062">
    <ele>1497.40002441406</ele>
    <time>2012-05-22T16:40:43Z</time>
   </trkpt>
   <trkpt lat="46.0953025817871" lon="7.23048686981201">
    <ele>1498.06665039062</ele>
    <time>2012-05-22T16:40:45Z</time>
   </trkpt>
   <trkpt lat="46.0952835083008" lon="7.23051023483276">
    <ele>1498.40002441406</ele>
    <time>2012-05-22T16:40:46Z</time>
   </trkpt>
   <trkpt lat="46.0952644348144" lon="7.23053550720215">
    <ele>1498.7333984375</ele>
    <time>2012-05-22T16:40:47Z</time>
   </trkpt>
   <trkpt lat="46.0952453613281" lon="7.23056077957153">
    <ele>1499.06665039062</ele>
    <time>2012-05-22T16:40:48Z</time>
   </trkpt>
   <trkpt lat="46.0952301025391" lon="7.23058652877808">
    <ele>1499.40002441406</ele>
    <time>2012-05-22T16:40:49Z</time>
   </trkpt>
   <trkpt lat="46.09521484375" lon="7.2306113243103">
    <ele>1499.40002441406</ele>
    <time>2012-05-22T16:40:50Z</time>
   </trkpt>
   <trkpt lat="46.0951728820801" lon="7.2306661605835">
    <ele>1499.93334960938</ele>
    <time>2012-05-22T16:40:52Z</time>
   </trkpt>
   <trkpt lat="46.095157623291" lon="7.23069667816162">
    <ele>1500.20007324219</ele>
    <time>2012-05-22T16:40:53Z</time>
   </trkpt>
   <trkpt lat="46.0951385498047" lon="7.23072290420532">
    <ele>1500.46667480469</ele>
    <time>2012-05-22T16:40:54Z</time>
   </trkpt>
   <trkpt lat="46.0951156616211" lon="7.2307448387146">
    <ele>1500.7333984375</ele>
    <time>2012-05-22T16:40:55Z</time>
   </trkpt>
   <trkpt lat="46.095100402832" lon="7.23077440261841">
    <ele>1501</ele>
    <time>2012-05-22T16:40:56Z</time>
   </trkpt>
   <trkpt lat="46.0949974060059" lon="7.23092651367188">
    <ele>1502.59997558594</ele>
    <time>2012-05-22T16:41:02Z</time>
   </trkpt>
   <trkpt lat="46.0949783325195" lon="7.23095226287842">
    <ele>1502.86669921875</ele>
    <time>2012-05-22T16:41:03Z</time>
   </trkpt>
   <trkpt lat="46.0949630737305" lon="7.23097610473633">
    <ele>1503.13330078125</ele>
    <time>2012-05-22T16:41:04Z</time>
   </trkpt>
   <trkpt lat="46.0949478149414" lon="7.23100423812866">
    <ele>1503.40002441406</ele>
    <time>2012-05-22T16:41:05Z</time>
   </trkpt>
   <trkpt lat="46.0948600769043" lon="7.23110055923462">
    <ele>1503.40002441406</ele>
    <time>2012-05-22T16:41:09Z</time>
   </trkpt>
   <trkpt lat="46.0947494506836" lon="7.2312331199646">
    <ele>1504.51110839844</ele>
    <time>2012-05-22T16:41:14Z</time>
   </trkpt>
   <trkpt lat="46.0947303771973" lon="7.2312536239624">
    <ele>1504.7333984375</ele>
    <time>2012-05-22T16:41:15Z</time>
   </trkpt>
   <trkpt lat="46.0947074890137" lon="7.23127460479736">
    <ele>1504.95556640625</ele>
    <time>2012-05-22T16:41:16Z</time>
   </trkpt>
   <trkpt lat="46.0946922302246" lon="7.23129940032959">
    <ele>1505.17785644531</ele>
    <time>2012-05-22T16:41:17Z</time>
   </trkpt>
   <trkpt lat="46.094669342041" lon="7.23131847381592">
    <ele>1505.40002441406</ele>
    <time>2012-05-22T16:41:18Z</time>
   </trkpt>
   <trkpt lat="46.0945816040039" lon="7.23141574859619">
    <ele>1505.40002441406</ele>
    <time>2012-05-22T16:41:22Z</time>
   </trkpt>
   <trkpt lat="46.0944976806641" lon="7.23152446746826">
    <ele>1506.65710449219</ele>
    <time>2012-05-22T16:41:26Z</time>
   </trkpt>
   <trkpt lat="46.0944786071777" lon="7.23154878616333">
    <ele>1506.97143554688</ele>
    <time>2012-05-22T16:41:27Z</time>
   </trkpt>
   <trkpt lat="46.0944595336914" lon="7.23157405853272">
    <ele>1507.28564453125</ele>
    <time>2012-05-22T16:41:28Z</time>
   </trkpt>
   <trkpt lat="46.0944442749023" lon="7.23160028457642">
    <ele>1507.59997558594</ele>
    <time>2012-05-22T16:41:29Z</time>
   </trkpt>
   <trkpt lat="46.0943450927734" lon="7.23175144195557">
    <ele>1507.59997558594</ele>
    <time>2012-05-22T16:41:34Z</time>
   </trkpt>
   <trkpt lat="46.0942344665527" lon="7.2319860458374">
    <ele>1508.83203125</ele>
    <time>2012-05-22T16:41:41Z</time>
   </trkpt>
   <trkpt lat="46.094123840332" lon="7.23216915130615">
    <ele>1509.88793945312</ele>
    <time>2012-05-22T16:41:47Z</time>
   </trkpt>
   <trkpt lat="46.0941123962402" lon="7.23220539093018">
    <ele>1510.06396484375</ele>
    <time>2012-05-22T16:41:48Z</time>
   </trkpt>
   <trkpt lat="46.0940933227539" lon="7.23223829269409">
    <ele>1510.23999023438</ele>
    <time>2012-05-22T16:41:49Z</time>
   </trkpt>
   <trkpt lat="46.0940780639648" lon="7.23226499557495">
    <ele>1510.416015625</ele>
    <time>2012-05-22T16:41:50Z</time>
   </trkpt>
   <trkpt lat="46.0940589904785" lon="7.23229217529297">
    <ele>1510.59204101562</ele>
    <time>2012-05-22T16:41:51Z</time>
   </trkpt>
   <trkpt lat="46.093994140625" lon="7.23240613937378">
    <ele>1511.29602050781</ele>
    <time>2012-05-22T16:41:55Z</time>
   </trkpt>
   <trkpt lat="46.0939826965332" lon="7.23243713378906">
    <ele>1511.47204589844</ele>
    <time>2012-05-22T16:41:56Z</time>
   </trkpt>
   <trkpt lat="46.0939712524414" lon="7.23246669769287">
    <ele>1511.64794921875</ele>
    <time>2012-05-22T16:41:57Z</time>
   </trkpt>
   <trkpt lat="46.0939559936523" lon="7.2324948310852">
    <ele>1511.82397460938</ele>
    <time>2012-05-22T16:41:58Z</time>
   </trkpt>
   <trkpt lat="46.0939407348633" lon="7.23252296447754">
    <ele>1512</ele>
    <time>2012-05-22T16:41:59Z</time>
   </trkpt>
   <trkpt lat="46.0938682556152" lon="7.23266220092774">
    <ele>1512</ele>
    <time>2012-05-22T16:42:04Z</time>
   </trkpt>
   <trkpt lat="46.0938339233398" lon="7.23271369934082">
    <ele>1512.66662597656</ele>
    <time>2012-05-22T16:42:06Z</time>
   </trkpt>
   <trkpt lat="46.0938186645508" lon="7.23274230957031">
    <ele>1513</ele>
    <time>2012-05-22T16:42:07Z</time>
   </trkpt>
   <trkpt lat="46.0938148498535" lon="7.2327709197998">
    <ele>1513.33337402344</ele>
    <time>2012-05-22T16:42:08Z</time>
   </trkpt>
   <trkpt lat="46.0938301086426" lon="7.23279094696045">
    <ele>1513.66662597656</ele>
    <time>2012-05-22T16:42:09Z</time>
   </trkpt>
   <trkpt lat="46.093864440918" lon="7.23278570175171">
    <ele>1514</ele>
    <time>2012-05-22T16:42:10Z</time>
   </trkpt>
   <trkpt lat="46.0939483642578" lon="7.23271560668945">
    <ele>1514</ele>
    <time>2012-05-22T16:42:13Z</time>
   </trkpt>
   <trkpt lat="46.0939826965332" lon="7.23269414901733">
    <ele>1514.1103515625</ele>
    <time>2012-05-22T16:42:14Z</time>
   </trkpt>
   <trkpt lat="46.0941886901856" lon="7.2326283454895">
    <ele>1514.7724609375</ele>
    <time>2012-05-22T16:42:20Z</time>
   </trkpt>
   <trkpt lat="46.0943298339844" lon="7.23253965377808">
    <ele>1515.21374511719</ele>
    <time>2012-05-22T16:42:24Z</time>
   </trkpt>
   <trkpt lat="46.0945625305176" lon="7.23240661621094">
    <ele>1515.87585449219</ele>
    <time>2012-05-22T16:42:30Z</time>
   </trkpt>
   <trkpt lat="46.0947341918945" lon="7.23231935501099">
    <ele>1516.31726074219</ele>
    <time>2012-05-22T16:42:34Z</time>
   </trkpt>
   <trkpt lat="46.0948638916016" lon="7.23225402832031">
    <ele>1516.64831542969</ele>
    <time>2012-05-22T16:42:37Z</time>
   </trkpt>
   <trkpt lat="46.0951919555664" lon="7.23215770721436">
    <ele>1517.42065429688</ele>
    <time>2012-05-22T16:42:44Z</time>
   </trkpt>
   <trkpt lat="46.0955390930176" lon="7.23206806182861">
    <ele>1518.19311523438</ele>
    <time>2012-05-22T16:42:51Z</time>
   </trkpt>
   <trkpt lat="46.0957069396973" lon="7.23211622238159">
    <ele>1518.74487304688</ele>
    <time>2012-05-22T16:42:56Z</time>
   </trkpt>
   <trkpt lat="46.0957374572754" lon="7.23213243484497">
    <ele>1518.85522460938</ele>
    <time>2012-05-22T16:42:57Z</time>
   </trkpt>
   <trkpt lat="46.0957717895508" lon="7.23214197158814">
    <ele>1518.96557617188</ele>
    <time>2012-05-22T16:42:58Z</time>
   </trkpt>
   <trkpt lat="46.0958023071289" lon="7.23215436935425">
    <ele>1519.07592773438</ele>
    <time>2012-05-22T16:42:59Z</time>
   </trkpt>
   <trkpt lat="46.0958366394043" lon="7.23216915130615">
    <ele>1519.18627929688</ele>
    <time>2012-05-22T16:43:00Z</time>
   </trkpt>
   <trkpt lat="46.0958633422852" lon="7.23217725753784">
    <ele>1519.29663085938</ele>
    <time>2012-05-22T16:43:01Z</time>
   </trkpt>
   <trkpt lat="46.095890045166" lon="7.23219203948975">
    <ele>1519.40686035156</ele>
    <time>2012-05-22T16:43:02Z</time>
   </trkpt>
   <trkpt lat="46.0959205627441" lon="7.23220682144165">
    <ele>1519.51721191406</ele>
    <time>2012-05-22T16:43:03Z</time>
   </trkpt>
   <trkpt lat="46.095947265625" lon="7.23223114013672">
    <ele>1519.62756347656</ele>
    <time>2012-05-22T16:43:04Z</time>
   </trkpt>
   <trkpt lat="46.0959663391113" lon="7.23225688934326">
    <ele>1519.73791503906</ele>
    <time>2012-05-22T16:43:05Z</time>
   </trkpt>
   <trkpt lat="46.0960083007812" lon="7.23229932785034">
    <ele>1519.95861816406</ele>
    <time>2012-05-22T16:43:07Z</time>
   </trkpt>
   <trkpt lat="46.0960350036621" lon="7.23231554031372">
    <ele>1520.06896972656</ele>
    <time>2012-05-22T16:43:08Z</time>
   </trkpt>
   <trkpt lat="46.096061706543" lon="7.23231792449951">
    <ele>1520.17932128906</ele>
    <time>2012-05-22T16:43:09Z</time>
   </trkpt>
   <trkpt lat="46.0960884094238" lon="7.23232555389404">
    <ele>1520.28967285156</ele>
    <time>2012-05-22T16:43:10Z</time>
   </trkpt>
   <trkpt lat="46.0961151123047" lon="7.23233318328857">
    <ele>1520.40002441406</ele>
    <time>2012-05-22T16:43:11Z</time>
   </trkpt>
   <trkpt lat="46.0961875915527" lon="7.23236417770386">
    <ele>1520.40002441406</ele>
    <time>2012-05-22T16:43:14Z</time>
   </trkpt>
   <trkpt lat="46.0962142944336" lon="7.2323751449585">
    <ele>1520.83996582031</ele>
    <time>2012-05-22T16:43:15Z</time>
   </trkpt>
   <trkpt lat="46.0962371826172" lon="7.23238611221314">
    <ele>1521.28002929688</ele>
    <time>2012-05-22T16:43:16Z</time>
   </trkpt>
   <trkpt lat="46.0962677001953" lon="7.23239612579346">
    <ele>1521.71997070312</ele>
    <time>2012-05-22T16:43:17Z</time>
   </trkpt>
   <trkpt lat="46.0962982177734" lon="7.2324047088623">
    <ele>1522.16003417969</ele>
    <time>2012-05-22T16:43:18Z</time>
   </trkpt>
   <trkpt lat="46.0963249206543" lon="7.23242044448852">
    <ele>1522.59997558594</ele>
    <time>2012-05-22T16:43:19Z</time>
   </trkpt>
   <trkpt lat="46.0963516235352" lon="7.23244094848633">
    <ele>1522.59997558594</ele>
    <time>2012-05-22T16:43:20Z</time>
   </trkpt>
   <trkpt lat="46.0964660644531" lon="7.23248100280762">
    <ele>1523.59997558594</ele>
    <time>2012-05-22T16:43:24Z</time>
   </trkpt>
   <trkpt lat="46.0964851379394" lon="7.23248815536499">
    <ele>1523.84997558594</ele>
    <time>2012-05-22T16:43:25Z</time>
   </trkpt>
   <trkpt lat="46.096508026123" lon="7.23250675201416">
    <ele>1524.09997558594</ele>
    <time>2012-05-22T16:43:26Z</time>
   </trkpt>
   <trkpt lat="46.0965309143066" lon="7.2325119972229">
    <ele>1524.34997558594</ele>
    <time>2012-05-22T16:43:27Z</time>
   </trkpt>
   <trkpt lat="46.0965576171875" lon="7.23252534866333">
    <ele>1524.59997558594</ele>
    <time>2012-05-22T16:43:28Z</time>
   </trkpt>
   <trkpt lat="46.0966110229492" lon="7.23253536224365">
    <ele>1524.59997558594</ele>
    <time>2012-05-22T16:43:30Z</time>
   </trkpt>
   <trkpt lat="46.0966339111328" lon="7.23253631591797">
    <ele>1525.15002441406</ele>
    <time>2012-05-22T16:43:31Z</time>
   </trkpt>
   <trkpt lat="46.0966606140137" lon="7.23253440856934">
    <ele>1525.69995117188</ele>
    <time>2012-05-22T16:43:32Z</time>
   </trkpt>
   <trkpt lat="46.0966835021973" lon="7.23253774642944">
    <ele>1526.25</ele>
    <time>2012-05-22T16:43:33Z</time>
   </trkpt>
   <trkpt lat="46.0967063903809" lon="7.2325439453125">
    <ele>1526.80004882812</ele>
    <time>2012-05-22T16:43:34Z</time>
   </trkpt>
   <trkpt lat="46.0967788696289" lon="7.23253774642944">
    <ele>1526.80004882812</ele>
    <time>2012-05-22T16:43:37Z</time>
   </trkpt>
   <trkpt lat="46.0968284606934" lon="7.23252296447754">
    <ele>1527.42858886719</ele>
    <time>2012-05-22T16:43:39Z</time>
   </trkpt>
   <trkpt lat="46.0968551635742" lon="7.23251581192017">
    <ele>1527.74291992188</ele>
    <time>2012-05-22T16:43:40Z</time>
   </trkpt>
   <trkpt lat="46.0968818664551" lon="7.23250484466553">
    <ele>1528.05712890625</ele>
    <time>2012-05-22T16:43:41Z</time>
   </trkpt>
   <trkpt lat="46.0969085693359" lon="7.23249769210815">
    <ele>1528.37145996094</ele>
    <time>2012-05-22T16:43:42Z</time>
   </trkpt>
   <trkpt lat="46.0969276428223" lon="7.23249816894531">
    <ele>1528.68579101562</ele>
    <time>2012-05-22T16:43:43Z</time>
   </trkpt>
   <trkpt lat="46.0970001220703" lon="7.23247575759888">
    <ele>1529.62866210938</ele>
    <time>2012-05-22T16:43:46Z</time>
   </trkpt>
   <trkpt lat="46.0970191955566" lon="7.23247003555298">
    <ele>1529.94287109375</ele>
    <time>2012-05-22T16:43:47Z</time>
   </trkpt>
   <trkpt lat="46.0970420837402" lon="7.23246383666992">
    <ele>1530.25720214844</ele>
    <time>2012-05-22T16:43:48Z</time>
   </trkpt>
   <trkpt lat="46.0970687866211" lon="7.23246049880982">
    <ele>1530.57141113281</ele>
    <time>2012-05-22T16:43:49Z</time>
   </trkpt>
   <trkpt lat="46.097095489502" lon="7.2324628829956">
    <ele>1530.8857421875</ele>
    <time>2012-05-22T16:43:50Z</time>
   </trkpt>
   <trkpt lat="46.0972213745117" lon="7.2324366569519">
    <ele>1532.45715332031</ele>
    <time>2012-05-22T16:43:55Z</time>
   </trkpt>
   <trkpt lat="46.0972480773926" lon="7.2324333190918">
    <ele>1532.771484375</ele>
    <time>2012-05-22T16:43:56Z</time>
   </trkpt>
   <trkpt lat="46.0972747802734" lon="7.23242330551148">
    <ele>1533.08569335938</ele>
    <time>2012-05-22T16:43:57Z</time>
   </trkpt>
   <trkpt lat="46.0973014831543" lon="7.23242473602295">
    <ele>1533.40002441406</ele>
    <time>2012-05-22T16:43:58Z</time>
   </trkpt>
   <trkpt lat="46.0974044799805" lon="7.23241710662842">
    <ele>1533.40002441406</ele>
    <time>2012-05-22T16:44:02Z</time>
   </trkpt>
   <trkpt lat="46.0974540710449" lon="7.23241901397705">
    <ele>1533.93334960938</ele>
    <time>2012-05-22T16:44:04Z</time>
   </trkpt>
   <trkpt lat="46.0974807739258" lon="7.23240947723389">
    <ele>1534.20007324219</ele>
    <time>2012-05-22T16:44:05Z</time>
   </trkpt>
   <trkpt lat="46.0975074768066" lon="7.2324047088623">
    <ele>1534.46667480469</ele>
    <time>2012-05-22T16:44:06Z</time>
   </trkpt>
   <trkpt lat="46.0975341796875" lon="7.23241138458252">
    <ele>1534.7333984375</ele>
    <time>2012-05-22T16:44:07Z</time>
   </trkpt>
   <trkpt lat="46.0975608825684" lon="7.23240423202515">
    <ele>1535</ele>
    <time>2012-05-22T16:44:08Z</time>
   </trkpt>
   <trkpt lat="46.0976943969727" lon="7.23241376876831">
    <ele>1536.33337402344</ele>
    <time>2012-05-22T16:44:13Z</time>
   </trkpt>
   <trkpt lat="46.0977210998535" lon="7.23240995407104">
    <ele>1536.59997558594</ele>
    <time>2012-05-22T16:44:14Z</time>
   </trkpt>
   <trkpt lat="46.0977478027344" lon="7.2324104309082">
    <ele>1536.86669921875</ele>
    <time>2012-05-22T16:44:15Z</time>
   </trkpt>
   <trkpt lat="46.097770690918" lon="7.2324161529541">
    <ele>1537.13330078125</ele>
    <time>2012-05-22T16:44:16Z</time>
   </trkpt>
   <trkpt lat="46.0977935791016" lon="7.23241090774536">
    <ele>1537.40002441406</ele>
    <time>2012-05-22T16:44:17Z</time>
   </trkpt>
   <trkpt lat="46.0978698730469" lon="7.23239994049072">
    <ele>1537.40002441406</ele>
    <time>2012-05-22T16:44:20Z</time>
   </trkpt>
   <trkpt lat="46.0979537963867" lon="7.23239660263062">
    <ele>1538.25720214844</ele>
    <time>2012-05-22T16:44:23Z</time>
   </trkpt>
   <trkpt lat="46.0979804992676" lon="7.23239707946777">
    <ele>1538.54284667969</ele>
    <time>2012-05-22T16:44:24Z</time>
   </trkpt>
   <trkpt lat="46.0980033874512" lon="7.23238468170166">
    <ele>1538.82861328125</ele>
    <time>2012-05-22T16:44:25Z</time>
   </trkpt>
   <trkpt lat="46.0980262756348" lon="7.23237943649292">
    <ele>1539.1142578125</ele>
    <time>2012-05-22T16:44:26Z</time>
   </trkpt>
   <trkpt lat="46.0980529785156" lon="7.23237991333008">
    <ele>1539.40002441406</ele>
    <time>2012-05-22T16:44:27Z</time>
   </trkpt>
   <trkpt lat="46.0980834960938" lon="7.23237752914429">
    <ele>1539.40002441406</ele>
    <time>2012-05-22T16:44:28Z</time>
   </trkpt>
   <trkpt lat="46.0983009338379" lon="7.23231363296509">
    <ele>1540.80004882812</ele>
    <time>2012-05-22T16:44:35Z</time>
   </trkpt>
   <trkpt lat="46.098331451416" lon="7.23229789733887">
    <ele>1541</ele>
    <time>2012-05-22T16:44:36Z</time>
   </trkpt>
   <trkpt lat="46.0983619689941" lon="7.23228597640991">
    <ele>1541.19995117188</ele>
    <time>2012-05-22T16:44:37Z</time>
   </trkpt>
   <trkpt lat="46.0983924865723" lon="7.23226690292358">
    <ele>1541.40002441406</ele>
    <time>2012-05-22T16:44:38Z</time>
   </trkpt>
   <trkpt lat="46.0984230041504" lon="7.2322473526001">
    <ele>1541.59997558594</ele>
    <time>2012-05-22T16:44:39Z</time>
   </trkpt>
   <trkpt lat="46.098518371582" lon="7.23217630386352">
    <ele>1541.59997558594</ele>
    <time>2012-05-22T16:44:42Z</time>
   </trkpt>
   <trkpt lat="46.0987548828125" lon="7.23198413848877">
    <ele>1542.01171875</ele>
    <time>2012-05-22T16:44:49Z</time>
   </trkpt>
   <trkpt lat="46.0988731384277" lon="7.23189735412598">
    <ele>1542.18823242188</ele>
    <time>2012-05-22T16:44:52Z</time>
   </trkpt>
   <trkpt lat="46.0989456176758" lon="7.23183536529541">
    <ele>1542.30590820312</ele>
    <time>2012-05-22T16:44:54Z</time>
   </trkpt>
   <trkpt lat="46.0989799499512" lon="7.23180294036865">
    <ele>1542.36462402344</ele>
    <time>2012-05-22T16:44:55Z</time>
   </trkpt>
   <trkpt lat="46.0990562438965" lon="7.23174858093262">
    <ele>1542.48229980469</ele>
    <time>2012-05-22T16:44:57Z</time>
   </trkpt>
   <trkpt lat="46.0991821289062" lon="7.23163270950317">
    <ele>1542.71765136719</ele>
    <time>2012-05-22T16:45:01Z</time>
   </trkpt>
   <trkpt lat="46.0993461608887" lon="7.2315034866333">
    <ele>1543.01171875</ele>
    <time>2012-05-22T16:45:06Z</time>
   </trkpt>
   <trkpt lat="46.0994071960449" lon="7.23144960403442">
    <ele>1543.12939453125</ele>
    <time>2012-05-22T16:45:08Z</time>
   </trkpt>
   <trkpt lat="46.0995292663574" lon="7.23134422302246">
    <ele>1543.36462402344</ele>
    <time>2012-05-22T16:45:12Z</time>
   </trkpt>
   <trkpt lat="46.0995597839356" lon="7.23131465911865">
    <ele>1543.42346191406</ele>
    <time>2012-05-22T16:45:13Z</time>
   </trkpt>
   <trkpt lat="46.0995864868164" lon="7.23126935958862">
    <ele>1543.48229980469</ele>
    <time>2012-05-22T16:45:14Z</time>
   </trkpt>
   <trkpt lat="46.099609375" lon="7.23123693466186">
    <ele>1543.54113769531</ele>
    <time>2012-05-22T16:45:15Z</time>
   </trkpt>
   <trkpt lat="46.0996398925781" lon="7.23120355606079">
    <ele>1543.59997558594</ele>
    <time>2012-05-22T16:45:16Z</time>
   </trkpt>
   <trkpt lat="46.0997848510742" lon="7.23103857040405">
    <ele>1543.59997558594</ele>
    <time>2012-05-22T16:45:21Z</time>
   </trkpt>
   <trkpt lat="46.0999183654785" lon="7.23085784912109">
    <ele>1544.822265625</ele>
    <time>2012-05-22T16:45:26Z</time>
   </trkpt>
   <trkpt lat="46.0999412536621" lon="7.23082065582275">
    <ele>1545.06665039062</ele>
    <time>2012-05-22T16:45:27Z</time>
   </trkpt>
   <trkpt lat="46.0999717712402" lon="7.2307858467102">
    <ele>1545.31115722656</ele>
    <time>2012-05-22T16:45:28Z</time>
   </trkpt>
   <trkpt lat="46.1000022888184" lon="7.23075342178345">
    <ele>1545.55554199219</ele>
    <time>2012-05-22T16:45:29Z</time>
   </trkpt>
   <trkpt lat="46.1000328063965" lon="7.23072719573975">
    <ele>1545.80004882812</ele>
    <time>2012-05-22T16:45:30Z</time>
   </trkpt>
   <trkpt lat="46.1000633239746" lon="7.23069143295288">
    <ele>1545.80004882812</ele>
    <time>2012-05-22T16:45:31Z</time>
   </trkpt>
   <trkpt lat="46.1002388000488" lon="7.23045587539673">
    <ele>1544.55004882812</ele>
    <time>2012-05-22T16:45:36Z</time>
   </trkpt>
   <trkpt lat="46.100269317627" lon="7.23040151596069">
    <ele>1544.30004882812</ele>
    <time>2012-05-22T16:45:37Z</time>
   </trkpt>
   <trkpt lat="46.1004257202148" lon="7.23012208938599">
    <ele>1543.05004882812</ele>
    <time>2012-05-22T16:45:42Z</time>
   </trkpt>
   <trkpt lat="46.1004905700684" lon="7.22996997833252">
    <ele>1542.55004882812</ele>
    <time>2012-05-22T16:45:44Z</time>
   </trkpt>
   <trkpt lat="46.1005554199219" lon="7.2298150062561">
    <ele>1542.05004882812</ele>
    <time>2012-05-22T16:45:46Z</time>
   </trkpt>
   <trkpt lat="46.1005935668945" lon="7.22973203659058">
    <ele>1541.80004882812</ele>
    <time>2012-05-22T16:45:47Z</time>
   </trkpt>
   <trkpt lat="46.1006355285644" lon="7.22964096069336">
    <ele>1541.55004882812</ele>
    <time>2012-05-22T16:45:48Z</time>
   </trkpt>
   <trkpt lat="46.1006851196289" lon="7.22954750061035">
    <ele>1541.30004882812</ele>
    <time>2012-05-22T16:45:49Z</time>
   </trkpt>
   <trkpt lat="46.1007423400879" lon="7.22946262359619">
    <ele>1541.05004882812</ele>
    <time>2012-05-22T16:45:50Z</time>
   </trkpt>
   <trkpt lat="46.1008071899414" lon="7.2293815612793">
    <ele>1540.80004882812</ele>
    <time>2012-05-22T16:45:51Z</time>
   </trkpt>
   <trkpt lat="46.1008644104004" lon="7.2292947769165">
    <ele>1540.55004882812</ele>
    <time>2012-05-22T16:45:52Z</time>
   </trkpt>
   <trkpt lat="46.1009178161621" lon="7.22923231124878">
    <ele>1540.30004882812</ele>
    <time>2012-05-22T16:45:53Z</time>
   </trkpt>
   <trkpt lat="46.1009674072266" lon="7.22918605804443">
    <ele>1540.05004882812</ele>
    <time>2012-05-22T16:45:54Z</time>
   </trkpt>
   <trkpt lat="46.1010093688965" lon="7.22914695739746">
    <ele>1539.80004882812</ele>
    <time>2012-05-22T16:45:55Z</time>
   </trkpt>
   <trkpt lat="46.1010551452637" lon="7.22912406921387">
    <ele>1540.19995117188</ele>
    <time>2012-05-22T16:45:56Z</time>
   </trkpt>
   <trkpt lat="46.1010971069336" lon="7.22909832000732">
    <ele>1540.69226074219</ele>
    <time>2012-05-22T16:45:57Z</time>
   </trkpt>
   <trkpt lat="46.1011352539062" lon="7.22907876968384">
    <ele>1541.1845703125</ele>
    <time>2012-05-22T16:45:58Z</time>
   </trkpt>
   <trkpt lat="46.1011772155762" lon="7.22905969619751">
    <ele>1541.67687988281</ele>
    <time>2012-05-22T16:45:59Z</time>
   </trkpt>
   <trkpt lat="46.1012153625488" lon="7.22904634475708">
    <ele>1542.16918945312</ele>
    <time>2012-05-22T16:46:00Z</time>
   </trkpt>
   <trkpt lat="46.1012535095215" lon="7.22903251647949">
    <ele>1542.66149902344</ele>
    <time>2012-05-22T16:46:01Z</time>
   </trkpt>
   <trkpt lat="46.1012878417969" lon="7.22900629043579">
    <ele>1543.15380859375</ele>
    <time>2012-05-22T16:46:02Z</time>
   </trkpt>
   <trkpt lat="46.101318359375" lon="7.2289891242981">
    <ele>1543.64611816406</ele>
    <time>2012-05-22T16:46:03Z</time>
   </trkpt>
   <trkpt lat="46.1013450622559" lon="7.22897052764893">
    <ele>1544.13842773438</ele>
    <time>2012-05-22T16:46:04Z</time>
   </trkpt>
   <trkpt lat="46.1013793945312" lon="7.22894954681396">
    <ele>1544.63073730469</ele>
    <time>2012-05-22T16:46:05Z</time>
   </trkpt>
   <trkpt lat="46.1014137268066" lon="7.22893619537354">
    <ele>1545.123046875</ele>
    <time>2012-05-22T16:46:06Z</time>
   </trkpt>
   <trkpt lat="46.101448059082" lon="7.22892189025879">
    <ele>1545.61535644531</ele>
    <time>2012-05-22T16:46:07Z</time>
   </trkpt>
   <trkpt lat="46.1014785766602" lon="7.22891139984131">
    <ele>1546.10766601562</ele>
    <time>2012-05-22T16:46:08Z</time>
   </trkpt>
   <trkpt lat="46.101505279541" lon="7.2289023399353">
    <ele>1546.59997558594</ele>
    <time>2012-05-22T16:46:09Z</time>
   </trkpt>
   <trkpt lat="46.1015319824219" lon="7.2288875579834">
    <ele>1546.59997558594</ele>
    <time>2012-05-22T16:46:10Z</time>
   </trkpt>
   <trkpt lat="46.1015586853027" lon="7.22886848449707">
    <ele>1547.0400390625</ele>
    <time>2012-05-22T16:46:11Z</time>
   </trkpt>
   <trkpt lat="46.1015853881836" lon="7.22885084152222">
    <ele>1547.47998046875</ele>
    <time>2012-05-22T16:46:12Z</time>
   </trkpt>
   <trkpt lat="46.1016120910644" lon="7.22882795333862">
    <ele>1547.92004394531</ele>
    <time>2012-05-22T16:46:13Z</time>
   </trkpt>
   <trkpt lat="46.1016426086426" lon="7.22881031036377">
    <ele>1548.35998535156</ele>
    <time>2012-05-22T16:46:14Z</time>
   </trkpt>
   <trkpt lat="46.1016693115234" lon="7.22878789901733">
    <ele>1548.80004882812</ele>
    <time>2012-05-22T16:46:15Z</time>
   </trkpt>
   <trkpt lat="46.1017150878906" lon="7.22874641418457">
    <ele>1548.80004882812</ele>
    <time>2012-05-22T16:46:17Z</time>
   </trkpt>
   <trkpt lat="46.101749420166" lon="7.22869920730591">
    <ele>1549.36560058594</ele>
    <time>2012-05-22T16:46:19Z</time>
   </trkpt>
   <trkpt lat="46.1017761230469" lon="7.22867631912232">
    <ele>1549.64831542969</ele>
    <time>2012-05-22T16:46:20Z</time>
   </trkpt>
   <trkpt lat="46.1018028259277" lon="7.22864627838135">
    <ele>1549.93103027344</ele>
    <time>2012-05-22T16:46:21Z</time>
   </trkpt>
   <trkpt lat="46.1018295288086" lon="7.22862243652344">
    <ele>1550.2138671875</ele>
    <time>2012-05-22T16:46:22Z</time>
   </trkpt>
   <trkpt lat="46.1018562316894" lon="7.22859382629394">
    <ele>1550.49658203125</ele>
    <time>2012-05-22T16:46:23Z</time>
   </trkpt>
   <trkpt lat="46.1019554138184" lon="7.22851181030274">
    <ele>1551.62756347656</ele>
    <time>2012-05-22T16:46:27Z</time>
   </trkpt>
   <trkpt lat="46.101978302002" lon="7.22848987579346">
    <ele>1551.91040039062</ele>
    <time>2012-05-22T16:46:28Z</time>
   </trkpt>
   <trkpt lat="46.1020011901856" lon="7.22846508026123">
    <ele>1552.19311523438</ele>
    <time>2012-05-22T16:46:29Z</time>
   </trkpt>
   <trkpt lat="46.1020164489746" lon="7.22843790054321">
    <ele>1552.47583007812</ele>
    <time>2012-05-22T16:46:30Z</time>
   </trkpt>
   <trkpt lat="46.1020355224609" lon="7.22841119766235">
    <ele>1552.75866699219</ele>
    <time>2012-05-22T16:46:31Z</time>
   </trkpt>
   <trkpt lat="46.1020660400391" lon="7.22835731506348">
    <ele>1553.32421875</ele>
    <time>2012-05-22T16:46:33Z</time>
   </trkpt>
   <trkpt lat="46.1020889282227" lon="7.22833204269409">
    <ele>1553.60693359375</ele>
    <time>2012-05-22T16:46:34Z</time>
   </trkpt>
   <trkpt lat="46.102108001709" lon="7.22830963134766">
    <ele>1553.8896484375</ele>
    <time>2012-05-22T16:46:35Z</time>
   </trkpt>
   <trkpt lat="46.102123260498" lon="7.2282862663269">
    <ele>1554.17248535156</ele>
    <time>2012-05-22T16:46:36Z</time>
   </trkpt>
   <trkpt lat="46.1021385192871" lon="7.22826194763184">
    <ele>1554.45520019531</ele>
    <time>2012-05-22T16:46:37Z</time>
   </trkpt>
   <trkpt lat="46.1022148132324" lon="7.2281436920166">
    <ele>1555.86901855469</ele>
    <time>2012-05-22T16:46:42Z</time>
   </trkpt>
   <trkpt lat="46.1022338867188" lon="7.22812080383301">
    <ele>1556.15173339844</ele>
    <time>2012-05-22T16:46:43Z</time>
   </trkpt>
   <trkpt lat="46.1022491455078" lon="7.22810125350952">
    <ele>1556.43444824219</ele>
    <time>2012-05-22T16:46:44Z</time>
   </trkpt>
   <trkpt lat="46.1022644042969" lon="7.22807216644287">
    <ele>1556.71728515625</ele>
    <time>2012-05-22T16:46:45Z</time>
   </trkpt>
   <trkpt lat="46.1022834777832" lon="7.22805118560791">
    <ele>1557</ele>
    <time>2012-05-22T16:46:46Z</time>
   </trkpt>
   <trkpt lat="46.102352142334" lon="7.22795248031616">
    <ele>1557</ele>
    <time>2012-05-22T16:46:50Z</time>
   </trkpt>
   <trkpt lat="46.102367401123" lon="7.22792434692383">
    <ele>1557.40002441406</ele>
    <time>2012-05-22T16:46:51Z</time>
   </trkpt>
   <trkpt lat="46.1023864746094" lon="7.22790241241455">
    <ele>1557.80004882812</ele>
    <time>2012-05-22T16:46:52Z</time>
   </trkpt>
   <trkpt lat="46.1024017333984" lon="7.22787809371948">
    <ele>1558.19995117188</ele>
    <time>2012-05-22T16:46:53Z</time>
   </trkpt>
   <trkpt lat="46.1024169921875" lon="7.2278528213501">
    <ele>1558.59997558594</ele>
    <time>2012-05-22T16:46:54Z</time>
   </trkpt>
   <trkpt lat="46.1024322509766" lon="7.22783041000366">
    <ele>1559</ele>
    <time>2012-05-22T16:46:55Z</time>
   </trkpt>
   <trkpt lat="46.1024475097656" lon="7.22781085968018">
    <ele>1559</ele>
    <time>2012-05-22T16:46:56Z</time>
   </trkpt>
   <trkpt lat="46.1025009155273" lon="7.22769737243652">
    <ele>1559.98828125</ele>
    <time>2012-05-22T16:47:00Z</time>
   </trkpt>
   <trkpt lat="46.1025161743164" lon="7.22766590118408">
    <ele>1560.23522949219</ele>
    <time>2012-05-22T16:47:01Z</time>
   </trkpt>
   <trkpt lat="46.1025314331055" lon="7.22763586044312">
    <ele>1560.48229980469</ele>
    <time>2012-05-22T16:47:02Z</time>
   </trkpt>
   <trkpt lat="46.1025428771973" lon="7.22760725021362">
    <ele>1560.72937011719</ele>
    <time>2012-05-22T16:47:03Z</time>
   </trkpt>
   <trkpt lat="46.1025581359863" lon="7.2275824546814">
    <ele>1560.97644042969</ele>
    <time>2012-05-22T16:47:04Z</time>
   </trkpt>
   <trkpt lat="46.1026000976562" lon="7.22741031646728">
    <ele>1562.21166992188</ele>
    <time>2012-05-22T16:47:09Z</time>
   </trkpt>
   <trkpt lat="46.102611541748" lon="7.22738361358643">
    <ele>1562.45874023438</ele>
    <time>2012-05-22T16:47:10Z</time>
   </trkpt>
   <trkpt lat="46.1026229858398" lon="7.22735500335693">
    <ele>1562.70581054688</ele>
    <time>2012-05-22T16:47:11Z</time>
   </trkpt>
   <trkpt lat="46.1026344299316" lon="7.22732448577881">
    <ele>1562.95288085938</ele>
    <time>2012-05-22T16:47:12Z</time>
   </trkpt>
   <trkpt lat="46.1026458740234" lon="7.22729301452637">
    <ele>1563.19995117188</ele>
    <time>2012-05-22T16:47:13Z</time>
   </trkpt>
   <trkpt lat="46.1026725769043" lon="7.22723388671875">
    <ele>1563.19995117188</ele>
    <time>2012-05-22T16:47:15Z</time>
   </trkpt>
   <trkpt lat="46.1026840209961" lon="7.22720623016357">
    <ele>1563.64001464844</ele>
    <time>2012-05-22T16:47:16Z</time>
   </trkpt>
   <trkpt lat="46.1026954650879" lon="7.22717761993408">
    <ele>1564.07995605469</ele>
    <time>2012-05-22T16:47:17Z</time>
   </trkpt>
   <trkpt lat="46.1027030944824" lon="7.22714948654175">
    <ele>1564.52001953125</ele>
    <time>2012-05-22T16:47:18Z</time>
   </trkpt>
   <trkpt lat="46.102710723877" lon="7.22712230682373">
    <ele>1564.9599609375</ele>
    <time>2012-05-22T16:47:19Z</time>
   </trkpt>
   <trkpt lat="46.1027221679688" lon="7.22709226608276">
    <ele>1565.40002441406</ele>
    <time>2012-05-22T16:47:20Z</time>
   </trkpt>
   <trkpt lat="46.1027336120606" lon="7.22705888748169">
    <ele>1565.40002441406</ele>
    <time>2012-05-22T16:47:21Z</time>
   </trkpt>
   <trkpt lat="46.1027870178223" lon="7.22689867019653">
    <ele>1566.51110839844</ele>
    <time>2012-05-22T16:47:26Z</time>
   </trkpt>
   <trkpt lat="46.1027984619141" lon="7.22686576843262">
    <ele>1566.7333984375</ele>
    <time>2012-05-22T16:47:27Z</time>
   </trkpt>
   <trkpt lat="46.1028099060059" lon="7.22683715820312">
    <ele>1566.95556640625</ele>
    <time>2012-05-22T16:47:28Z</time>
   </trkpt>
   <trkpt lat="46.1028213500977" lon="7.22681188583374">
    <ele>1567.17785644531</ele>
    <time>2012-05-22T16:47:29Z</time>
   </trkpt>
   <trkpt lat="46.1028327941894" lon="7.22678470611572">
    <ele>1567.40002441406</ele>
    <time>2012-05-22T16:47:30Z</time>
   </trkpt>
   <trkpt lat="46.1028900146484" lon="7.22663736343384">
    <ele>1568.51110839844</ele>
    <time>2012-05-22T16:47:35Z</time>
   </trkpt>
   <trkpt lat="46.1029014587402" lon="7.22661256790161">
    <ele>1568.7333984375</ele>
    <time>2012-05-22T16:47:36Z</time>
   </trkpt>
   <trkpt lat="46.1029090881348" lon="7.22658061981201">
    <ele>1568.95556640625</ele>
    <time>2012-05-22T16:47:37Z</time>
   </trkpt>
   <trkpt lat="46.1029167175293" lon="7.22654485702515">
    <ele>1569.17785644531</ele>
    <time>2012-05-22T16:47:38Z</time>
   </trkpt>
   <trkpt lat="46.1029281616211" lon="7.22651290893555">
    <ele>1569.40002441406</ele>
    <time>2012-05-22T16:47:39Z</time>
   </trkpt>
   <trkpt lat="46.1029510498047" lon="7.22641944885254">
    <ele>1569.40002441406</ele>
    <time>2012-05-22T16:47:42Z</time>
   </trkpt>
   <trkpt lat="46.1029663085938" lon="7.22636079788208">
    <ele>1570.06665039062</ele>
    <time>2012-05-22T16:47:44Z</time>
   </trkpt>
   <trkpt lat="46.1029777526856" lon="7.22632837295532">
    <ele>1570.40002441406</ele>
    <time>2012-05-22T16:47:45Z</time>
   </trkpt>
   <trkpt lat="46.1029815673828" lon="7.22629690170288">
    <ele>1570.7333984375</ele>
    <time>2012-05-22T16:47:46Z</time>
   </trkpt>
   <trkpt lat="46.1029891967773" lon="7.22626495361328">
    <ele>1571.06665039062</ele>
    <time>2012-05-22T16:47:47Z</time>
   </trkpt>
   <trkpt lat="46.1030006408691" lon="7.22623348236084">
    <ele>1571.40002441406</ele>
    <time>2012-05-22T16:47:48Z</time>
   </trkpt>
   <trkpt lat="46.1030082702637" lon="7.22620105743408">
    <ele>1571.40002441406</ele>
    <time>2012-05-22T16:47:49Z</time>
   </trkpt>
   <trkpt lat="46.1030426025391" lon="7.22608995437622">
    <ele>1572.47827148438</ele>
    <time>2012-05-22T16:47:53Z</time>
   </trkpt>
   <trkpt lat="46.1030502319336" lon="7.2260594367981">
    <ele>1572.74780273438</ele>
    <time>2012-05-22T16:47:54Z</time>
   </trkpt>
   <trkpt lat="46.1030578613281" lon="7.22602796554565">
    <ele>1573.01745605469</ele>
    <time>2012-05-22T16:47:55Z</time>
   </trkpt>
   <trkpt lat="46.1030654907227" lon="7.22599601745606">
    <ele>1573.28698730469</ele>
    <time>2012-05-22T16:47:56Z</time>
   </trkpt>
   <trkpt lat="46.1030807495117" lon="7.22596645355225">
    <ele>1573.55651855469</ele>
    <time>2012-05-22T16:47:57Z</time>
   </trkpt>
   <trkpt lat="46.1031265258789" lon="7.22586154937744">
    <ele>1574.634765625</ele>
    <time>2012-05-22T16:48:01Z</time>
   </trkpt>
   <trkpt lat="46.1031341552734" lon="7.22583627700806">
    <ele>1574.904296875</ele>
    <time>2012-05-22T16:48:02Z</time>
   </trkpt>
   <trkpt lat="46.1031455993652" lon="7.22581005096436">
    <ele>1575.17395019531</ele>
    <time>2012-05-22T16:48:03Z</time>
   </trkpt>
   <trkpt lat="46.1031608581543" lon="7.2257809638977">
    <ele>1575.44348144531</ele>
    <time>2012-05-22T16:48:04Z</time>
   </trkpt>
   <trkpt lat="46.103214263916" lon="7.22566604614258">
    <ele>1576.52172851562</ele>
    <time>2012-05-22T16:48:08Z</time>
   </trkpt>
   <trkpt lat="46.1032257080078" lon="7.22563934326172">
    <ele>1576.79125976562</ele>
    <time>2012-05-22T16:48:09Z</time>
   </trkpt>
   <trkpt lat="46.1032371520996" lon="7.22561073303223">
    <ele>1577.06079101562</ele>
    <time>2012-05-22T16:48:10Z</time>
   </trkpt>
   <trkpt lat="46.1032485961914" lon="7.22558259963989">
    <ele>1577.33044433594</ele>
    <time>2012-05-22T16:48:11Z</time>
   </trkpt>
   <trkpt lat="46.1032600402832" lon="7.22555303573608">
    <ele>1577.59997558594</ele>
    <time>2012-05-22T16:48:12Z</time>
   </trkpt>
   <trkpt lat="46.1033058166504" lon="7.22543001174927">
    <ele>1577.59997558594</ele>
    <time>2012-05-22T16:48:16Z</time>
   </trkpt>
   <trkpt lat="46.1033172607422" lon="7.22540235519409">
    <ele>1578.0400390625</ele>
    <time>2012-05-22T16:48:17Z</time>
   </trkpt>
   <trkpt lat="46.1033248901367" lon="7.22537231445312">
    <ele>1578.47998046875</ele>
    <time>2012-05-22T16:48:18Z</time>
   </trkpt>
   <trkpt lat="46.1033325195312" lon="7.22533893585205">
    <ele>1578.92004394531</ele>
    <time>2012-05-22T16:48:19Z</time>
   </trkpt>
   <trkpt lat="46.1033401489258" lon="7.22530651092529">
    <ele>1579.35998535156</ele>
    <time>2012-05-22T16:48:20Z</time>
   </trkpt>
   <trkpt lat="46.1033515930176" lon="7.22527456283569">
    <ele>1579.80004882812</ele>
    <time>2012-05-22T16:48:21Z</time>
   </trkpt>
   <trkpt lat="46.1033592224121" lon="7.22524881362915">
    <ele>1579.80004882812</ele>
    <time>2012-05-22T16:48:22Z</time>
   </trkpt>
   <trkpt lat="46.1034049987793" lon="7.2251353263855">
    <ele>1580.94287109375</ele>
    <time>2012-05-22T16:48:26Z</time>
   </trkpt>
   <trkpt lat="46.1034164428711" lon="7.22510623931885">
    <ele>1581.22863769531</ele>
    <time>2012-05-22T16:48:27Z</time>
   </trkpt>
   <trkpt lat="46.1034278869629" lon="7.22507667541504">
    <ele>1581.51428222656</ele>
    <time>2012-05-22T16:48:28Z</time>
   </trkpt>
   <trkpt lat="46.1034393310547" lon="7.22504758834839">
    <ele>1581.80004882812</ele>
    <time>2012-05-22T16:48:29Z</time>
   </trkpt>
   <trkpt lat="46.1034507751465" lon="7.22502136230469">
    <ele>1581.80004882812</ele>
    <time>2012-05-22T16:48:30Z</time>
   </trkpt>
   <trkpt lat="46.1034965515137" lon="7.22494173049927">
    <ele>1582.6572265625</ele>
    <time>2012-05-22T16:48:33Z</time>
   </trkpt>
   <trkpt lat="46.103515625" lon="7.22493648529053">
    <ele>1582.94287109375</ele>
    <time>2012-05-22T16:48:34Z</time>
   </trkpt>
   <trkpt lat="46.1035385131836" lon="7.22495126724243">
    <ele>1583.22863769531</ele>
    <time>2012-05-22T16:48:35Z</time>
   </trkpt>
   <trkpt lat="46.1035575866699" lon="7.22497701644898">
    <ele>1583.51428222656</ele>
    <time>2012-05-22T16:48:36Z</time>
   </trkpt>
   <trkpt lat="46.103572845459" lon="7.22500848770142">
    <ele>1583.80004882812</ele>
    <time>2012-05-22T16:48:37Z</time>
   </trkpt>
   <trkpt lat="46.1035690307617" lon="7.2250828742981">
    <ele>1583.80004882812</ele>
    <time>2012-05-22T16:48:39Z</time>
   </trkpt>
   <trkpt lat="46.1035614013672" lon="7.22511768341064">
    <ele>1584.07507324219</ele>
    <time>2012-05-22T16:48:40Z</time>
   </trkpt>
   <trkpt lat="46.1035385131836" lon="7.22522497177124">
    <ele>1584.90002441406</ele>
    <time>2012-05-22T16:48:43Z</time>
   </trkpt>
   <trkpt lat="46.1035346984863" lon="7.22526216506958">
    <ele>1585.17504882812</ele>
    <time>2012-05-22T16:48:44Z</time>
   </trkpt>
   <trkpt lat="46.1035270690918" lon="7.22530031204224">
    <ele>1585.44995117188</ele>
    <time>2012-05-22T16:48:45Z</time>
   </trkpt>
   <trkpt lat="46.1035194396973" lon="7.22533512115478">
    <ele>1585.72497558594</ele>
    <time>2012-05-22T16:48:46Z</time>
   </trkpt>
   <trkpt lat="46.1035118103027" lon="7.22537183761597">
    <ele>1586</ele>
    <time>2012-05-22T16:48:47Z</time>
   </trkpt>
   <trkpt lat="46.1034889221191" lon="7.22560119628906">
    <ele>1586</ele>
    <time>2012-05-22T16:48:53Z</time>
   </trkpt>
   <trkpt lat="46.1034889221191" lon="7.22571611404419">
    <ele>1586.85717773438</ele>
    <time>2012-05-22T16:48:56Z</time>
   </trkpt>
   <trkpt lat="46.1034927368164" lon="7.22575426101685">
    <ele>1587.14282226562</ele>
    <time>2012-05-22T16:48:57Z</time>
   </trkpt>
   <trkpt lat="46.1034965515137" lon="7.22579431533814">
    <ele>1587.42858886719</ele>
    <time>2012-05-22T16:48:58Z</time>
   </trkpt>
   <trkpt lat="46.1034965515137" lon="7.22583341598511">
    <ele>1587.71423339844</ele>
    <time>2012-05-22T16:48:59Z</time>
   </trkpt>
   <trkpt lat="46.1034965515137" lon="7.2258710861206">
    <ele>1588</ele>
    <time>2012-05-22T16:49:00Z</time>
   </trkpt>
   <trkpt lat="46.1035194396973" lon="7.2260594367981">
    <ele>1588</ele>
    <time>2012-05-22T16:49:05Z</time>
   </trkpt>
   <trkpt lat="46.1035232543945" lon="7.22609424591064">
    <ele>1588.43994140625</ele>
    <time>2012-05-22T16:49:06Z</time>
   </trkpt>
   <trkpt lat="46.1035308837891" lon="7.22612905502319">
    <ele>1588.88000488281</ele>
    <time>2012-05-22T16:49:07Z</time>
   </trkpt>
   <trkpt lat="46.1035385131836" lon="7.22616147994995">
    <ele>1589.31994628906</ele>
    <time>2012-05-22T16:49:08Z</time>
   </trkpt>
   <trkpt lat="46.1035461425781" lon="7.22619581222534">
    <ele>1589.76000976562</ele>
    <time>2012-05-22T16:49:09Z</time>
   </trkpt>
   <trkpt lat="46.1035537719727" lon="7.22623157501221">
    <ele>1590.19995117188</ele>
    <time>2012-05-22T16:49:10Z</time>
   </trkpt>
   <trkpt lat="46.1035614013672" lon="7.22626876831055">
    <ele>1590.19995117188</ele>
    <time>2012-05-22T16:49:11Z</time>
   </trkpt>
   <trkpt lat="46.1036071777344" lon="7.22642803192139">
    <ele>1591.44995117188</ele>
    <time>2012-05-22T16:49:16Z</time>
   </trkpt>
   <trkpt lat="46.1036224365234" lon="7.22646284103394">
    <ele>1591.69995117188</ele>
    <time>2012-05-22T16:49:17Z</time>
   </trkpt>
   <trkpt lat="46.1036338806152" lon="7.22649621963501">
    <ele>1591.94995117188</ele>
    <time>2012-05-22T16:49:18Z</time>
   </trkpt>
   <trkpt lat="46.103645324707" lon="7.22652864456177">
    <ele>1592.19995117188</ele>
    <time>2012-05-22T16:49:19Z</time>
   </trkpt>
   <trkpt lat="46.1037101745606" lon="7.22667551040649">
    <ele>1592.19995117188</ele>
    <time>2012-05-22T16:49:24Z</time>
   </trkpt>
   <trkpt lat="46.1037254333496" lon="7.22670412063599">
    <ele>1592.64001464844</ele>
    <time>2012-05-22T16:49:25Z</time>
   </trkpt>
   <trkpt lat="46.1037406921387" lon="7.22673034667969">
    <ele>1593.07995605469</ele>
    <time>2012-05-22T16:49:26Z</time>
   </trkpt>
   <trkpt lat="46.1037559509277" lon="7.22675657272339">
    <ele>1593.52001953125</ele>
    <time>2012-05-22T16:49:27Z</time>
   </trkpt>
   <trkpt lat="46.1037712097168" lon="7.22678518295288">
    <ele>1593.9599609375</ele>
    <time>2012-05-22T16:49:28Z</time>
   </trkpt>
   <trkpt lat="46.1037902832031" lon="7.22681427001953">
    <ele>1594.40002441406</ele>
    <time>2012-05-22T16:49:29Z</time>
   </trkpt>
   <trkpt lat="46.1038055419922" lon="7.22684335708618">
    <ele>1594.40002441406</ele>
    <time>2012-05-22T16:49:30Z</time>
   </trkpt>
   <trkpt lat="46.1039161682129" lon="7.22696924209595">
    <ele>1595.68127441406</ele>
    <time>2012-05-22T16:49:35Z</time>
   </trkpt>
   <trkpt lat="46.1039390563965" lon="7.22699213027954">
    <ele>1595.9375</ele>
    <time>2012-05-22T16:49:36Z</time>
   </trkpt>
   <trkpt lat="46.1039657592773" lon="7.22701501846314">
    <ele>1596.19372558594</ele>
    <time>2012-05-22T16:49:37Z</time>
   </trkpt>
   <trkpt lat="46.1039848327637" lon="7.22703695297241">
    <ele>1596.44995117188</ele>
    <time>2012-05-22T16:49:38Z</time>
   </trkpt>
   <trkpt lat="46.1040077209473" lon="7.22705793380737">
    <ele>1596.70629882812</ele>
    <time>2012-05-22T16:49:39Z</time>
   </trkpt>
   <trkpt lat="46.1040878295898" lon="7.2271203994751">
    <ele>1597.73120117188</ele>
    <time>2012-05-22T16:49:43Z</time>
   </trkpt>
   <trkpt lat="46.1041107177734" lon="7.22713708877564">
    <ele>1597.98754882812</ele>
    <time>2012-05-22T16:49:44Z</time>
   </trkpt>
   <trkpt lat="46.104133605957" lon="7.22715187072754">
    <ele>1598.24377441406</ele>
    <time>2012-05-22T16:49:45Z</time>
   </trkpt>
   <trkpt lat="46.1041603088379" lon="7.22716903686524">
    <ele>1598.5</ele>
    <time>2012-05-22T16:49:46Z</time>
   </trkpt>
   <trkpt lat="46.1042785644531" lon="7.22725677490234">
    <ele>1599.78125</ele>
    <time>2012-05-22T16:49:51Z</time>
   </trkpt>
   <trkpt lat="46.1043014526367" lon="7.22727203369141">
    <ele>1600.03747558594</ele>
    <time>2012-05-22T16:49:52Z</time>
   </trkpt>
   <trkpt lat="46.1043243408203" lon="7.22729158401489">
    <ele>1600.29370117188</ele>
    <time>2012-05-22T16:49:53Z</time>
   </trkpt>
   <trkpt lat="46.1043472290039" lon="7.22731399536133">
    <ele>1600.55004882812</ele>
    <time>2012-05-22T16:49:54Z</time>
   </trkpt>
   <trkpt lat="46.1043701171875" lon="7.22733211517334">
    <ele>1600.80627441406</ele>
    <time>2012-05-22T16:49:55Z</time>
   </trkpt>
   <trkpt lat="46.1044464111328" lon="7.22737693786621">
    <ele>1601.57495117188</ele>
    <time>2012-05-22T16:49:58Z</time>
   </trkpt>
   <trkpt lat="46.1044692993164" lon="7.22739791870117">
    <ele>1601.83117675781</ele>
    <time>2012-05-22T16:49:59Z</time>
   </trkpt>
   <trkpt lat="46.1044883728027" lon="7.2274169921875">
    <ele>1602.08752441406</ele>
    <time>2012-05-22T16:50:00Z</time>
   </trkpt>
   <trkpt lat="46.1045112609863" lon="7.22743892669678">
    <ele>1602.34375</ele>
    <time>2012-05-22T16:50:01Z</time>
   </trkpt>
   <trkpt lat="46.1045341491699" lon="7.22745895385742">
    <ele>1602.59997558594</ele>
    <time>2012-05-22T16:50:02Z</time>
   </trkpt>
   <trkpt lat="46.1045570373535" lon="7.22747707366943">
    <ele>1602.59997558594</ele>
    <time>2012-05-22T16:50:03Z</time>
   </trkpt>
   <trkpt lat="46.1046409606934" lon="7.22754955291748">
    <ele>1603.59997558594</ele>
    <time>2012-05-22T16:50:07Z</time>
   </trkpt>
   <trkpt lat="46.104663848877" lon="7.22756958007812">
    <ele>1603.84997558594</ele>
    <time>2012-05-22T16:50:08Z</time>
   </trkpt>
   <trkpt lat="46.1046867370606" lon="7.22758960723877">
    <ele>1604.09997558594</ele>
    <time>2012-05-22T16:50:09Z</time>
   </trkpt>
   <trkpt lat="46.1047096252441" lon="7.22760725021362">
    <ele>1604.34997558594</ele>
    <time>2012-05-22T16:50:10Z</time>
   </trkpt>
   <trkpt lat="46.1048126220703" lon="7.22769212722778">
    <ele>1605.59997558594</ele>
    <time>2012-05-22T16:50:15Z</time>
   </trkpt>
   <trkpt lat="46.1048316955566" lon="7.22770929336548">
    <ele>1605.84997558594</ele>
    <time>2012-05-22T16:50:16Z</time>
   </trkpt>
   <trkpt lat="46.104850769043" lon="7.2277250289917">
    <ele>1606.09997558594</ele>
    <time>2012-05-22T16:50:17Z</time>
   </trkpt>
   <trkpt lat="46.1048736572266" lon="7.22774076461792">
    <ele>1606.34997558594</ele>
    <time>2012-05-22T16:50:18Z</time>
   </trkpt>
   <trkpt lat="46.1049003601074" lon="7.22775602340698">
    <ele>1606.59997558594</ele>
    <time>2012-05-22T16:50:19Z</time>
   </trkpt>
   <trkpt lat="46.10498046875" lon="7.22782468795776">
    <ele>1606.59997558594</ele>
    <time>2012-05-22T16:50:23Z</time>
   </trkpt>
   <trkpt lat="46.1049995422363" lon="7.2278413772583">
    <ele>1607.0400390625</ele>
    <time>2012-05-22T16:50:24Z</time>
   </trkpt>
   <trkpt lat="46.1050224304199" lon="7.22785663604736">
    <ele>1607.47998046875</ele>
    <time>2012-05-22T16:50:25Z</time>
   </trkpt>
   <trkpt lat="46.1050453186035" lon="7.22787427902222">
    <ele>1607.92004394531</ele>
    <time>2012-05-22T16:50:26Z</time>
   </trkpt>
   <trkpt lat="46.1050682067871" lon="7.22789478302002">
    <ele>1608.35998535156</ele>
    <time>2012-05-22T16:50:27Z</time>
   </trkpt>
   <trkpt lat="46.1050910949707" lon="7.22791481018066">
    <ele>1608.80004882812</ele>
    <time>2012-05-22T16:50:28Z</time>
   </trkpt>
   <trkpt lat="46.1051139831543" lon="7.22793245315552">
    <ele>1608.80004882812</ele>
    <time>2012-05-22T16:50:29Z</time>
   </trkpt>
   <trkpt lat="46.1051750183106" lon="7.22798156738281">
    <ele>1609.90002441406</ele>
    <time>2012-05-22T16:50:32Z</time>
   </trkpt>
   <trkpt lat="46.1051902770996" lon="7.22799587249756">
    <ele>1610.26672363281</ele>
    <time>2012-05-22T16:50:33Z</time>
   </trkpt>
   <trkpt lat="46.1052131652832" lon="7.22801160812378">
    <ele>1610.63330078125</ele>
    <time>2012-05-22T16:50:34Z</time>
   </trkpt>
   <trkpt lat="46.1052322387695" lon="7.22802782058716">
    <ele>1611</ele>
    <time>2012-05-22T16:50:35Z</time>
   </trkpt>
   <trkpt lat="46.1052513122559" lon="7.22804403305054">
    <ele>1611</ele>
    <time>2012-05-22T16:50:36Z</time>
   </trkpt>
   <trkpt lat="46.1053924560547" lon="7.22814798355102">
    <ele>1612.47692871094</ele>
    <time>2012-05-22T16:50:42Z</time>
   </trkpt>
   <trkpt lat="46.1054153442383" lon="7.22816038131714">
    <ele>1612.72314453125</ele>
    <time>2012-05-22T16:50:43Z</time>
   </trkpt>
   <trkpt lat="46.1054420471191" lon="7.22817230224609">
    <ele>1612.96923828125</ele>
    <time>2012-05-22T16:50:44Z</time>
   </trkpt>
   <trkpt lat="46.1054611206055" lon="7.22818660736084">
    <ele>1613.21533203125</ele>
    <time>2012-05-22T16:50:45Z</time>
   </trkpt>
   <trkpt lat="46.1054840087891" lon="7.22820377349854">
    <ele>1613.46154785156</ele>
    <time>2012-05-22T16:50:46Z</time>
   </trkpt>
   <trkpt lat="46.1055908203125" lon="7.22828960418701">
    <ele>1614.6923828125</ele>
    <time>2012-05-22T16:50:51Z</time>
   </trkpt>
   <trkpt lat="46.1056137084961" lon="7.22830677032471">
    <ele>1614.9384765625</ele>
    <time>2012-05-22T16:50:52Z</time>
   </trkpt>
   <trkpt lat="46.1056327819824" lon="7.22832489013672">
    <ele>1615.1845703125</ele>
    <time>2012-05-22T16:50:53Z</time>
   </trkpt>
   <trkpt lat="46.105655670166" lon="7.22834777832031">
    <ele>1615.43078613281</ele>
    <time>2012-05-22T16:50:54Z</time>
   </trkpt>
   <trkpt lat="46.1056747436523" lon="7.22836542129517">
    <ele>1615.67700195312</ele>
    <time>2012-05-22T16:50:55Z</time>
   </trkpt>
   <trkpt lat="46.1057548522949" lon="7.22842311859131">
    <ele>1616.66162109375</ele>
    <time>2012-05-22T16:50:59Z</time>
   </trkpt>
   <trkpt lat="46.1057777404785" lon="7.228440284729">
    <ele>1616.90771484375</ele>
    <time>2012-05-22T16:51:00Z</time>
   </trkpt>
   <trkpt lat="46.1057968139648" lon="7.22845649719238">
    <ele>1617.15380859375</ele>
    <time>2012-05-22T16:51:01Z</time>
   </trkpt>
   <trkpt lat="46.1058197021484" lon="7.2284746170044">
    <ele>1617.40002441406</ele>
    <time>2012-05-22T16:51:02Z</time>
   </trkpt>
   <trkpt lat="46.1059112548828" lon="7.22854900360107">
    <ele>1617.40002441406</ele>
    <time>2012-05-22T16:51:06Z</time>
   </trkpt>
   <trkpt lat="46.1059913635254" lon="7.22860956192017">
    <ele>1618.43530273438</ele>
    <time>2012-05-22T16:51:10Z</time>
   </trkpt>
   <trkpt lat="46.1060104370117" lon="7.2286262512207">
    <ele>1618.69409179688</ele>
    <time>2012-05-22T16:51:11Z</time>
   </trkpt>
   <trkpt lat="46.1060333251953" lon="7.22864675521851">
    <ele>1618.95300292969</ele>
    <time>2012-05-22T16:51:12Z</time>
   </trkpt>
   <trkpt lat="46.1060562133789" lon="7.2286696434021">
    <ele>1619.21179199219</ele>
    <time>2012-05-22T16:51:13Z</time>
   </trkpt>
   <trkpt lat="46.1060791015625" lon="7.22869491577148">
    <ele>1619.47058105469</ele>
    <time>2012-05-22T16:51:14Z</time>
   </trkpt>
   <trkpt lat="46.1061706542969" lon="7.22880601882935">
    <ele>1620.76477050781</ele>
    <time>2012-05-22T16:51:19Z</time>
   </trkpt>
   <trkpt lat="46.1061859130859" lon="7.2288327217102">
    <ele>1621.02355957031</ele>
    <time>2012-05-22T16:51:20Z</time>
   </trkpt>
   <trkpt lat="46.1062049865723" lon="7.22885465621948">
    <ele>1621.28234863281</ele>
    <time>2012-05-22T16:51:21Z</time>
   </trkpt>
   <trkpt lat="46.1062240600586" lon="7.22888088226318">
    <ele>1621.54125976562</ele>
    <time>2012-05-22T16:51:22Z</time>
   </trkpt>
   <trkpt lat="46.1062393188477" lon="7.22891044616699">
    <ele>1621.80004882812</ele>
    <time>2012-05-22T16:51:23Z</time>
   </trkpt>
   <trkpt lat="46.1062469482422" lon="7.22894668579102">
    <ele>1621.80004882812</ele>
    <time>2012-05-22T16:51:24Z</time>
   </trkpt>
   <trkpt lat="46.1062698364258" lon="7.22905111312866">
    <ele>1622.58752441406</ele>
    <time>2012-05-22T16:51:27Z</time>
   </trkpt>
   <trkpt lat="46.1062812805176" lon="7.22908449172974">
    <ele>1622.85009765625</ele>
    <time>2012-05-22T16:51:28Z</time>
   </trkpt>
   <trkpt lat="46.1062889099121" lon="7.22911691665649">
    <ele>1623.11254882812</ele>
    <time>2012-05-22T16:51:29Z</time>
   </trkpt>
   <trkpt lat="46.1063003540039" lon="7.22914981842041">
    <ele>1623.375</ele>
    <time>2012-05-22T16:51:30Z</time>
   </trkpt>
   <trkpt lat="46.1063079833984" lon="7.22917985916138">
    <ele>1623.63757324219</ele>
    <time>2012-05-22T16:51:31Z</time>
   </trkpt>
   <trkpt lat="46.1063537597656" lon="7.2293438911438">
    <ele>1624.94995117188</ele>
    <time>2012-05-22T16:51:36Z</time>
   </trkpt>
   <trkpt lat="46.1063613891602" lon="7.22937631607056">
    <ele>1625.21252441406</ele>
    <time>2012-05-22T16:51:37Z</time>
   </trkpt>
   <trkpt lat="46.1063652038574" lon="7.22940874099732">
    <ele>1625.47497558594</ele>
    <time>2012-05-22T16:51:38Z</time>
   </trkpt>
   <trkpt lat="46.106372833252" lon="7.22944259643555">
    <ele>1625.73754882812</ele>
    <time>2012-05-22T16:51:39Z</time>
   </trkpt>
   <trkpt lat="46.1063804626465" lon="7.22947311401367">
    <ele>1626</ele>
    <time>2012-05-22T16:51:40Z</time>
   </trkpt>
   <trkpt lat="46.1064071655273" lon="7.22957801818848">
    <ele>1626</ele>
    <time>2012-05-22T16:51:43Z</time>
   </trkpt>
   <trkpt lat="46.1064224243164" lon="7.22964429855347">
    <ele>1626.88000488281</ele>
    <time>2012-05-22T16:51:45Z</time>
   </trkpt>
   <trkpt lat="46.1064300537109" lon="7.22968053817749">
    <ele>1627.31994628906</ele>
    <time>2012-05-22T16:51:46Z</time>
   </trkpt>
   <trkpt lat="46.1064376831055" lon="7.22971343994141">
    <ele>1627.76000976562</ele>
    <time>2012-05-22T16:51:47Z</time>
   </trkpt>
   <trkpt lat="46.1064453125" lon="7.22974586486816">
    <ele>1628.19995117188</ele>
    <time>2012-05-22T16:51:48Z</time>
   </trkpt>
   <trkpt lat="46.1064529418945" lon="7.22978019714356">
    <ele>1628.19995117188</ele>
    <time>2012-05-22T16:51:49Z</time>
   </trkpt>
   <trkpt lat="46.1065216064453" lon="7.22997236251831">
    <ele>1629.59997558594</ele>
    <time>2012-05-22T16:51:55Z</time>
   </trkpt>
   <trkpt lat="46.1065330505371" lon="7.22999954223633">
    <ele>1629.83325195312</ele>
    <time>2012-05-22T16:51:56Z</time>
   </trkpt>
   <trkpt lat="46.1065444946289" lon="7.23002910614014">
    <ele>1630.06665039062</ele>
    <time>2012-05-22T16:51:57Z</time>
   </trkpt>
   <trkpt lat="46.1065521240234" lon="7.23006391525268">
    <ele>1630.30004882812</ele>
    <time>2012-05-22T16:51:58Z</time>
   </trkpt>
   <trkpt lat="46.1065635681152" lon="7.23009872436524">
    <ele>1630.53332519531</ele>
    <time>2012-05-22T16:51:59Z</time>
   </trkpt>
   <trkpt lat="46.1066055297852" lon="7.23024320602417">
    <ele>1631.46667480469</ele>
    <time>2012-05-22T16:52:03Z</time>
   </trkpt>
   <trkpt lat="46.106616973877" lon="7.23028421401978">
    <ele>1631.69995117188</ele>
    <time>2012-05-22T16:52:04Z</time>
   </trkpt>
   <trkpt lat="46.1066284179688" lon="7.23031997680664">
    <ele>1631.93334960938</ele>
    <time>2012-05-22T16:52:05Z</time>
   </trkpt>
   <trkpt lat="46.1066398620606" lon="7.23035335540772">
    <ele>1632.16674804688</ele>
    <time>2012-05-22T16:52:06Z</time>
   </trkpt>
   <trkpt lat="46.1066474914551" lon="7.23038530349732">
    <ele>1632.40002441406</ele>
    <time>2012-05-22T16:52:07Z</time>
   </trkpt>
   <trkpt lat="46.1066627502441" lon="7.23041343688965">
    <ele>1632.40002441406</ele>
    <time>2012-05-22T16:52:08Z</time>
   </trkpt>
   <trkpt lat="46.1067199707031" lon="7.23053312301636">
    <ele>1633.65710449219</ele>
    <time>2012-05-22T16:52:12Z</time>
   </trkpt>
   <trkpt lat="46.1067352294922" lon="7.23055982589722">
    <ele>1633.97143554688</ele>
    <time>2012-05-22T16:52:13Z</time>
   </trkpt>
   <trkpt lat="46.1067543029785" lon="7.23058938980102">
    <ele>1634.28564453125</ele>
    <time>2012-05-22T16:52:14Z</time>
   </trkpt>
   <trkpt lat="46.1067695617676" lon="7.23061418533325">
    <ele>1634.59997558594</ele>
    <time>2012-05-22T16:52:15Z</time>
   </trkpt>
   <trkpt lat="46.1067848205566" lon="7.23064041137695">
    <ele>1634.59997558594</ele>
    <time>2012-05-22T16:52:16Z</time>
   </trkpt>
   <trkpt lat="46.1068534851074" lon="7.23073577880859">
    <ele>1635.69995117188</ele>
    <time>2012-05-22T16:52:20Z</time>
   </trkpt>
   <trkpt lat="46.1068725585938" lon="7.2307596206665">
    <ele>1635.97497558594</ele>
    <time>2012-05-22T16:52:21Z</time>
   </trkpt>
   <trkpt lat="46.1068916320801" lon="7.23078346252441">
    <ele>1636.25</ele>
    <time>2012-05-22T16:52:22Z</time>
   </trkpt>
   <trkpt lat="46.1069107055664" lon="7.2308087348938">
    <ele>1636.52502441406</ele>
    <time>2012-05-22T16:52:23Z</time>
   </trkpt>
   <trkpt lat="46.10693359375" lon="7.23083209991455">
    <ele>1636.80004882812</ele>
    <time>2012-05-22T16:52:24Z</time>
   </trkpt>
   <trkpt lat="46.107006072998" lon="7.23092794418335">
    <ele>1637.90002441406</ele>
    <time>2012-05-22T16:52:28Z</time>
   </trkpt>
   <trkpt lat="46.1070213317871" lon="7.23095083236694">
    <ele>1638.17504882812</ele>
    <time>2012-05-22T16:52:29Z</time>
   </trkpt>
   <trkpt lat="46.1070365905762" lon="7.23097658157349">
    <ele>1638.44995117188</ele>
    <time>2012-05-22T16:52:30Z</time>
   </trkpt>
   <trkpt lat="46.1070556640625" lon="7.23099994659424">
    <ele>1638.72497558594</ele>
    <time>2012-05-22T16:52:31Z</time>
   </trkpt>
   <trkpt lat="46.1070709228516" lon="7.23102045059204">
    <ele>1639</ele>
    <time>2012-05-22T16:52:32Z</time>
   </trkpt>
   <trkpt lat="46.1071929931641" lon="7.23115348815918">
    <ele>1639</ele>
    <time>2012-05-22T16:52:38Z</time>
   </trkpt>
   <trkpt lat="46.1072311401367" lon="7.23120260238648">
    <ele>1639.57385253906</ele>
    <time>2012-05-22T16:52:40Z</time>
   </trkpt>
   <trkpt lat="46.1072463989258" lon="7.23122978210449">
    <ele>1639.86083984375</ele>
    <time>2012-05-22T16:52:41Z</time>
   </trkpt>
   <trkpt lat="46.1072654724121" lon="7.23125314712524">
    <ele>1640.14782714844</ele>
    <time>2012-05-22T16:52:42Z</time>
   </trkpt>
   <trkpt lat="46.1072845458984" lon="7.23127841949463">
    <ele>1640.43481445312</ele>
    <time>2012-05-22T16:52:43Z</time>
   </trkpt>
   <trkpt lat="46.107307434082" lon="7.2313027381897">
    <ele>1640.7216796875</ele>
    <time>2012-05-22T16:52:44Z</time>
   </trkpt>
   <trkpt lat="46.1074066162109" lon="7.23142194747925">
    <ele>1642.15649414062</ele>
    <time>2012-05-22T16:52:49Z</time>
   </trkpt>
   <trkpt lat="46.1074256896973" lon="7.23144483566284">
    <ele>1642.44348144531</ele>
    <time>2012-05-22T16:52:50Z</time>
   </trkpt>
   <trkpt lat="46.1074409484863" lon="7.23146915435791">
    <ele>1642.73046875</ele>
    <time>2012-05-22T16:52:51Z</time>
   </trkpt>
   <trkpt lat="46.1074600219727" lon="7.23149251937866">
    <ele>1643.01733398438</ele>
    <time>2012-05-22T16:52:52Z</time>
   </trkpt>
   <trkpt lat="46.107479095459" lon="7.23151683807373">
    <ele>1643.30432128906</ele>
    <time>2012-05-22T16:52:53Z</time>
   </trkpt>
   <trkpt lat="46.1075553894043" lon="7.2316198348999">
    <ele>1644.4521484375</ele>
    <time>2012-05-22T16:52:57Z</time>
   </trkpt>
   <trkpt lat="46.1075744628906" lon="7.23164653778076">
    <ele>1644.73913574219</ele>
    <time>2012-05-22T16:52:58Z</time>
   </trkpt>
   <trkpt lat="46.107593536377" lon="7.2316689491272">
    <ele>1645.02612304688</ele>
    <time>2012-05-22T16:52:59Z</time>
   </trkpt>
   <trkpt lat="46.1076126098633" lon="7.23169708251953">
    <ele>1645.31298828125</ele>
    <time>2012-05-22T16:53:00Z</time>
   </trkpt>
   <trkpt lat="46.1076316833496" lon="7.23172092437744">
    <ele>1645.59997558594</ele>
    <time>2012-05-22T16:53:01Z</time>
   </trkpt>
   <trkpt lat="46.107666015625" lon="7.23177528381348">
    <ele>1645.59997558594</ele>
    <time>2012-05-22T16:53:03Z</time>
   </trkpt>
   <trkpt lat="46.1076965332031" lon="7.23183059692383">
    <ele>1646.2666015625</ele>
    <time>2012-05-22T16:53:05Z</time>
   </trkpt>
   <trkpt lat="46.1077156066894" lon="7.23186159133911">
    <ele>1646.59997558594</ele>
    <time>2012-05-22T16:53:06Z</time>
   </trkpt>
   <trkpt lat="46.1077308654785" lon="7.23189401626587">
    <ele>1646.93334960938</ele>
    <time>2012-05-22T16:53:07Z</time>
   </trkpt>
   <trkpt lat="46.1077423095703" lon="7.23192596435547">
    <ele>1647.2666015625</ele>
    <time>2012-05-22T16:53:08Z</time>
   </trkpt>
   <trkpt lat="46.1077575683594" lon="7.23195552825928">
    <ele>1647.59997558594</ele>
    <time>2012-05-22T16:53:09Z</time>
   </trkpt>
   <trkpt lat="46.1077690124512" lon="7.23198795318604">
    <ele>1647.59997558594</ele>
    <time>2012-05-22T16:53:10Z</time>
   </trkpt>
   <trkpt lat="46.1078071594238" lon="7.23211622238159">
    <ele>1648.59997558594</ele>
    <time>2012-05-22T16:53:14Z</time>
   </trkpt>
   <trkpt lat="46.1078109741211" lon="7.23215436935425">
    <ele>1648.84997558594</ele>
    <time>2012-05-22T16:53:15Z</time>
   </trkpt>
   <trkpt lat="46.1078186035156" lon="7.23219156265259">
    <ele>1649.09997558594</ele>
    <time>2012-05-22T16:53:16Z</time>
   </trkpt>
   <trkpt lat="46.1078224182129" lon="7.23222827911377">
    <ele>1649.34997558594</ele>
    <time>2012-05-22T16:53:17Z</time>
   </trkpt>
   <trkpt lat="46.1078262329102" lon="7.232262134552">
    <ele>1649.59997558594</ele>
    <time>2012-05-22T16:53:18Z</time>
   </trkpt>
   <trkpt lat="46.1078300476074" lon="7.23236656188965">
    <ele>1649.59997558594</ele>
    <time>2012-05-22T16:53:21Z</time>
   </trkpt>
   <trkpt lat="46.107837677002" lon="7.23243999481201">
    <ele>1650.2666015625</ele>
    <time>2012-05-22T16:53:23Z</time>
   </trkpt>
   <trkpt lat="46.1078414916992" lon="7.23247480392456">
    <ele>1650.59997558594</ele>
    <time>2012-05-22T16:53:24Z</time>
   </trkpt>
   <trkpt lat="46.1078414916992" lon="7.23251390457153">
    <ele>1650.93334960938</ele>
    <time>2012-05-22T16:53:25Z</time>
   </trkpt>
   <trkpt lat="46.1078414916992" lon="7.23255348205566">
    <ele>1651.2666015625</ele>
    <time>2012-05-22T16:53:26Z</time>
   </trkpt>
   <trkpt lat="46.107837677002" lon="7.23258972167969">
    <ele>1651.59997558594</ele>
    <time>2012-05-22T16:53:27Z</time>
   </trkpt>
   <trkpt lat="46.1078300476074" lon="7.2326250076294">
    <ele>1651.59997558594</ele>
    <time>2012-05-22T16:53:28Z</time>
   </trkpt>
   <trkpt lat="46.1078262329102" lon="7.23269987106323">
    <ele>1652.19995117188</ele>
    <time>2012-05-22T16:53:30Z</time>
   </trkpt>
   <trkpt lat="46.1078224182129" lon="7.23273229598999">
    <ele>1652.5</ele>
    <time>2012-05-22T16:53:31Z</time>
   </trkpt>
   <trkpt lat="46.1078147888184" lon="7.23276376724243">
    <ele>1652.80004882812</ele>
    <time>2012-05-22T16:53:32Z</time>
   </trkpt>
   <trkpt lat="46.1078033447266" lon="7.23279476165772">
    <ele>1653.09997558594</ele>
    <time>2012-05-22T16:53:33Z</time>
   </trkpt>
   <trkpt lat="46.107795715332" lon="7.23282957077026">
    <ele>1653.40002441406</ele>
    <time>2012-05-22T16:53:34Z</time>
   </trkpt>
   <trkpt lat="46.1077461242676" lon="7.23296928405762">
    <ele>1654.59997558594</ele>
    <time>2012-05-22T16:53:38Z</time>
   </trkpt>
   <trkpt lat="46.1077308654785" lon="7.23300075531006">
    <ele>1654.90002441406</ele>
    <time>2012-05-22T16:53:39Z</time>
   </trkpt>
   <trkpt lat="46.1077194213867" lon="7.2330322265625">
    <ele>1655.20007324219</ele>
    <time>2012-05-22T16:53:40Z</time>
   </trkpt>
   <trkpt lat="46.1077117919922" lon="7.23306322097778">
    <ele>1655.5</ele>
    <time>2012-05-22T16:53:41Z</time>
   </trkpt>
   <trkpt lat="46.1077003479004" lon="7.23308897018433">
    <ele>1655.80004882812</ele>
    <time>2012-05-22T16:53:42Z</time>
   </trkpt>
   <trkpt lat="46.1076507568359" lon="7.23317193984985">
    <ele>1655.80004882812</ele>
    <time>2012-05-22T16:53:45Z</time>
   </trkpt>
   <trkpt lat="46.1076240539551" lon="7.23322772979736">
    <ele>1656.40002441406</ele>
    <time>2012-05-22T16:53:47Z</time>
   </trkpt>
   <trkpt lat="46.107608795166" lon="7.23325538635254">
    <ele>1656.70007324219</ele>
    <time>2012-05-22T16:53:48Z</time>
   </trkpt>
   <trkpt lat="46.1075973510742" lon="7.23328733444214">
    <ele>1657</ele>
    <time>2012-05-22T16:53:49Z</time>
   </trkpt>
   <trkpt lat="46.1075820922852" lon="7.2333173751831">
    <ele>1657.30004882812</ele>
    <time>2012-05-22T16:53:50Z</time>
   </trkpt>
   <trkpt lat="46.1075630187988" lon="7.23334789276123">
    <ele>1657.59997558594</ele>
    <time>2012-05-22T16:53:51Z</time>
   </trkpt>
   <trkpt lat="46.1075096130371" lon="7.23347091674805">
    <ele>1658.80004882812</ele>
    <time>2012-05-22T16:53:55Z</time>
   </trkpt>
   <trkpt lat="46.1074981689453" lon="7.23350095748901">
    <ele>1659.09997558594</ele>
    <time>2012-05-22T16:53:56Z</time>
   </trkpt>
   <trkpt lat="46.1074867248535" lon="7.23353338241577">
    <ele>1659.40002441406</ele>
    <time>2012-05-22T16:53:57Z</time>
   </trkpt>
   <trkpt lat="46.1074714660644" lon="7.23356437683106">
    <ele>1659.69995117188</ele>
    <time>2012-05-22T16:53:58Z</time>
   </trkpt>
   <trkpt lat="46.1074638366699" lon="7.23359203338623">
    <ele>1660</ele>
    <time>2012-05-22T16:53:59Z</time>
   </trkpt>
   <trkpt lat="46.1074409484863" lon="7.23369216918945">
    <ele>1660</ele>
    <time>2012-05-22T16:54:02Z</time>
   </trkpt>
   <trkpt lat="46.1074104309082" lon="7.23378229141235">
    <ele>1660.81286621094</ele>
    <time>2012-05-22T16:54:05Z</time>
   </trkpt>
   <trkpt lat="46.1073989868164" lon="7.23381090164185">
    <ele>1661.08386230469</ele>
    <time>2012-05-22T16:54:06Z</time>
   </trkpt>
   <trkpt lat="46.1073875427246" lon="7.23384237289429">
    <ele>1661.35485839844</ele>
    <time>2012-05-22T16:54:07Z</time>
   </trkpt>
   <trkpt lat="46.1073722839356" lon="7.2338719367981">
    <ele>1661.62585449219</ele>
    <time>2012-05-22T16:54:08Z</time>
   </trkpt>
   <trkpt lat="46.1073570251465" lon="7.23390197753906">
    <ele>1661.89672851562</ele>
    <time>2012-05-22T16:54:09Z</time>
   </trkpt>
   <trkpt lat="46.1072845458984" lon="7.2340202331543">
    <ele>1662.98071289062</ele>
    <time>2012-05-22T16:54:13Z</time>
   </trkpt>
   <trkpt lat="46.1072616577148" lon="7.2340497970581">
    <ele>1663.25158691406</ele>
    <time>2012-05-22T16:54:14Z</time>
   </trkpt>
   <trkpt lat="46.1072387695312" lon="7.23407697677612">
    <ele>1663.52258300781</ele>
    <time>2012-05-22T16:54:15Z</time>
   </trkpt>
   <trkpt lat="46.1072196960449" lon="7.23410224914551">
    <ele>1663.79357910156</ele>
    <time>2012-05-22T16:54:16Z</time>
   </trkpt>
   <trkpt lat="46.1072006225586" lon="7.23412895202637">
    <ele>1664.06457519531</ele>
    <time>2012-05-22T16:54:17Z</time>
   </trkpt>
   <trkpt lat="46.1071548461914" lon="7.23420810699463">
    <ele>1664.87744140625</ele>
    <time>2012-05-22T16:54:20Z</time>
   </trkpt>
   <trkpt lat="46.1071395874023" lon="7.2342324256897">
    <ele>1665.1484375</ele>
    <time>2012-05-22T16:54:21Z</time>
   </trkpt>
   <trkpt lat="46.1071281433106" lon="7.23425722122192">
    <ele>1665.41931152344</ele>
    <time>2012-05-22T16:54:22Z</time>
   </trkpt>
   <trkpt lat="46.1071166992188" lon="7.23429203033447">
    <ele>1665.69030761719</ele>
    <time>2012-05-22T16:54:23Z</time>
   </trkpt>
   <trkpt lat="46.107105255127" lon="7.23433351516724">
    <ele>1665.96130371094</ele>
    <time>2012-05-22T16:54:24Z</time>
   </trkpt>
   <trkpt lat="46.1070976257324" lon="7.23451471328735">
    <ele>1667.31616210938</ele>
    <time>2012-05-22T16:54:29Z</time>
   </trkpt>
   <trkpt lat="46.1070976257324" lon="7.23455142974854">
    <ele>1667.58715820312</ele>
    <time>2012-05-22T16:54:30Z</time>
   </trkpt>
   <trkpt lat="46.1070976257324" lon="7.23458766937256">
    <ele>1667.85803222656</ele>
    <time>2012-05-22T16:54:31Z</time>
   </trkpt>
   <trkpt lat="46.1070976257324" lon="7.23462438583374">
    <ele>1668.12902832031</ele>
    <time>2012-05-22T16:54:32Z</time>
   </trkpt>
   <trkpt lat="46.1071014404297" lon="7.23465776443482">
    <ele>1668.40002441406</ele>
    <time>2012-05-22T16:54:33Z</time>
   </trkpt>
   <trkpt lat="46.1071281433106" lon="7.2347993850708">
    <ele>1668.40002441406</ele>
    <time>2012-05-22T16:54:37Z</time>
   </trkpt>
   <trkpt lat="46.1071472167969" lon="7.23486375808716">
    <ele>1669.28002929688</ele>
    <time>2012-05-22T16:54:39Z</time>
   </trkpt>
   <trkpt lat="46.1071586608887" lon="7.23489570617676">
    <ele>1669.71997070312</ele>
    <time>2012-05-22T16:54:40Z</time>
   </trkpt>
   <trkpt lat="46.1071701049805" lon="7.23492622375488">
    <ele>1670.16003417969</ele>
    <time>2012-05-22T16:54:41Z</time>
   </trkpt>
   <trkpt lat="46.1071815490723" lon="7.23495817184448">
    <ele>1670.59997558594</ele>
    <time>2012-05-22T16:54:42Z</time>
   </trkpt>
   <trkpt lat="46.1071929931641" lon="7.23499345779419">
    <ele>1670.59997558594</ele>
    <time>2012-05-22T16:54:43Z</time>
   </trkpt>
   <trkpt lat="46.1072616577148" lon="7.2351655960083">
    <ele>1671.71105957031</ele>
    <time>2012-05-22T16:54:48Z</time>
   </trkpt>
   <trkpt lat="46.1072731018066" lon="7.23519611358643">
    <ele>1671.93334960938</ele>
    <time>2012-05-22T16:54:49Z</time>
   </trkpt>
   <trkpt lat="46.1072883605957" lon="7.23522758483887">
    <ele>1672.15551757812</ele>
    <time>2012-05-22T16:54:50Z</time>
   </trkpt>
   <trkpt lat="46.1072959899902" lon="7.23526191711426">
    <ele>1672.37780761719</ele>
    <time>2012-05-22T16:54:51Z</time>
   </trkpt>
   <trkpt lat="46.107307434082" lon="7.23529577255249">
    <ele>1672.59997558594</ele>
    <time>2012-05-22T16:54:52Z</time>
   </trkpt>
   <trkpt lat="46.1073265075684" lon="7.23535966873169">
    <ele>1672.59997558594</ele>
    <time>2012-05-22T16:54:54Z</time>
   </trkpt>
   <trkpt lat="46.1073532104492" lon="7.23545598983765">
    <ele>1673.5</ele>
    <time>2012-05-22T16:54:57Z</time>
   </trkpt>
   <trkpt lat="46.1073684692383" lon="7.23548984527588">
    <ele>1673.80004882812</ele>
    <time>2012-05-22T16:54:58Z</time>
   </trkpt>
   <trkpt lat="46.1073722839356" lon="7.23552703857422">
    <ele>1674.09997558594</ele>
    <time>2012-05-22T16:54:59Z</time>
   </trkpt>
   <trkpt lat="46.1073799133301" lon="7.23556327819824">
    <ele>1674.40002441406</ele>
    <time>2012-05-22T16:55:00Z</time>
   </trkpt>
   <trkpt lat="46.1073837280273" lon="7.23559617996216">
    <ele>1674.69995117188</ele>
    <time>2012-05-22T16:55:01Z</time>
   </trkpt>
   <trkpt lat="46.1074066162109" lon="7.2357234954834">
    <ele>1675.90002441406</ele>
    <time>2012-05-22T16:55:05Z</time>
   </trkpt>
   <trkpt lat="46.1074142456055" lon="7.23575639724732">
    <ele>1676.20007324219</ele>
    <time>2012-05-22T16:55:06Z</time>
   </trkpt>
   <trkpt lat="46.107421875" lon="7.23578882217407">
    <ele>1676.5</ele>
    <time>2012-05-22T16:55:07Z</time>
   </trkpt>
   <trkpt lat="46.1074333190918" lon="7.23581790924072">
    <ele>1676.80004882812</ele>
    <time>2012-05-22T16:55:08Z</time>
   </trkpt>
   <trkpt lat="46.1074371337891" lon="7.23587560653686">
    <ele>1676.80004882812</ele>
    <time>2012-05-22T16:55:10Z</time>
   </trkpt>
   <trkpt lat="46.1074256896973" lon="7.23590517044067">
    <ele>1677</ele>
    <time>2012-05-22T16:55:11Z</time>
   </trkpt>
   <trkpt lat="46.1073455810547" lon="7.23609828948975">
    <ele>1678.20007324219</ele>
    <time>2012-05-22T16:55:17Z</time>
   </trkpt>
   <trkpt lat="46.1073303222656" lon="7.23612785339356">
    <ele>1678.40002441406</ele>
    <time>2012-05-22T16:55:18Z</time>
   </trkpt>
   <trkpt lat="46.1073150634766" lon="7.23615837097168">
    <ele>1678.59997558594</ele>
    <time>2012-05-22T16:55:19Z</time>
   </trkpt>
   <trkpt lat="46.1072998046875" lon="7.2361855506897">
    <ele>1678.80004882812</ele>
    <time>2012-05-22T16:55:20Z</time>
   </trkpt>
   <trkpt lat="46.1072845458984" lon="7.23621273040772">
    <ele>1679</ele>
    <time>2012-05-22T16:55:21Z</time>
   </trkpt>
   <trkpt lat="46.1072311401367" lon="7.23629236221314">
    <ele>1679</ele>
    <time>2012-05-22T16:55:24Z</time>
   </trkpt>
   <trkpt lat="46.1071701049805" lon="7.23640298843384">
    <ele>1680.06665039062</ele>
    <time>2012-05-22T16:55:28Z</time>
   </trkpt>
   <trkpt lat="46.1071510314941" lon="7.23643159866333">
    <ele>1680.33337402344</ele>
    <time>2012-05-22T16:55:29Z</time>
   </trkpt>
   <trkpt lat="46.1071395874023" lon="7.23646020889282">
    <ele>1680.59997558594</ele>
    <time>2012-05-22T16:55:30Z</time>
   </trkpt>
   <trkpt lat="46.1071243286133" lon="7.23649311065674">
    <ele>1680.86669921875</ele>
    <time>2012-05-22T16:55:31Z</time>
   </trkpt>
   <trkpt lat="46.107048034668" lon="7.23663282394409">
    <ele>1682.19995117188</ele>
    <time>2012-05-22T16:55:36Z</time>
   </trkpt>
   <trkpt lat="46.1070327758789" lon="7.23665904998779">
    <ele>1682.46667480469</ele>
    <time>2012-05-22T16:55:37Z</time>
   </trkpt>
   <trkpt lat="46.1070175170898" lon="7.23668622970581">
    <ele>1682.7333984375</ele>
    <time>2012-05-22T16:55:38Z</time>
   </trkpt>
   <trkpt lat="46.1070022583008" lon="7.2367148399353">
    <ele>1683</ele>
    <time>2012-05-22T16:55:39Z</time>
   </trkpt>
   <trkpt lat="46.1069869995117" lon="7.23674297332764">
    <ele>1683.26672363281</ele>
    <time>2012-05-22T16:55:40Z</time>
   </trkpt>
   <trkpt lat="46.1069259643555" lon="7.23685264587402">
    <ele>1684.33337402344</ele>
    <time>2012-05-22T16:55:44Z</time>
   </trkpt>
   <trkpt lat="46.1069107055664" lon="7.23687982559204">
    <ele>1684.59997558594</ele>
    <time>2012-05-22T16:55:45Z</time>
   </trkpt>
   <trkpt lat="46.1068916320801" lon="7.23690843582153">
    <ele>1684.86669921875</ele>
    <time>2012-05-22T16:55:46Z</time>
   </trkpt>
   <trkpt lat="46.1068725585938" lon="7.23693609237671">
    <ele>1685.13330078125</ele>
    <time>2012-05-22T16:55:47Z</time>
   </trkpt>
   <trkpt lat="46.1068534851074" lon="7.23696899414062">
    <ele>1685.40002441406</ele>
    <time>2012-05-22T16:55:48Z</time>
   </trkpt>
   <trkpt lat="46.106819152832" lon="7.23703765869141">
    <ele>1685.40002441406</ele>
    <time>2012-05-22T16:55:50Z</time>
   </trkpt>
   <trkpt lat="46.1067886352539" lon="7.23708963394165">
    <ele>1685.94787597656</ele>
    <time>2012-05-22T16:55:52Z</time>
   </trkpt>
   <trkpt lat="46.1067733764648" lon="7.2371129989624">
    <ele>1686.22180175781</ele>
    <time>2012-05-22T16:55:53Z</time>
   </trkpt>
   <trkpt lat="46.1067581176758" lon="7.23714303970337">
    <ele>1686.49572753906</ele>
    <time>2012-05-22T16:55:54Z</time>
   </trkpt>
   <trkpt lat="46.1067428588867" lon="7.2371711730957">
    <ele>1686.76953125</ele>
    <time>2012-05-22T16:55:55Z</time>
   </trkpt>
   <trkpt lat="46.1067314147949" lon="7.23719835281372">
    <ele>1687.04345703125</ele>
    <time>2012-05-22T16:55:56Z</time>
   </trkpt>
   <trkpt lat="46.1067008972168" lon="7.23724889755249">
    <ele>1687.59130859375</ele>
    <time>2012-05-22T16:55:58Z</time>
   </trkpt>
   <trkpt lat="46.1066856384277" lon="7.23727798461914">
    <ele>1687.865234375</ele>
    <time>2012-05-22T16:55:59Z</time>
   </trkpt>
   <trkpt lat="46.1066703796387" lon="7.2373046875">
    <ele>1688.13916015625</ele>
    <time>2012-05-22T16:56:00Z</time>
   </trkpt>
   <trkpt lat="46.1066513061523" lon="7.23733282089233">
    <ele>1688.4130859375</ele>
    <time>2012-05-22T16:56:01Z</time>
   </trkpt>
   <trkpt lat="46.1066360473633" lon="7.23735761642456">
    <ele>1688.68701171875</ele>
    <time>2012-05-22T16:56:02Z</time>
   </trkpt>
   <trkpt lat="46.1065559387207" lon="7.23748302459717">
    <ele>1690.05651855469</ele>
    <time>2012-05-22T16:56:07Z</time>
   </trkpt>
   <trkpt lat="46.1065406799316" lon="7.23750257492065">
    <ele>1690.33044433594</ele>
    <time>2012-05-22T16:56:08Z</time>
   </trkpt>
   <trkpt lat="46.1065254211426" lon="7.23752403259277">
    <ele>1690.60437011719</ele>
    <time>2012-05-22T16:56:09Z</time>
   </trkpt>
   <trkpt lat="46.1065063476562" lon="7.23754739761352">
    <ele>1690.87829589844</ele>
    <time>2012-05-22T16:56:10Z</time>
   </trkpt>
   <trkpt lat="46.1064872741699" lon="7.23756647109985">
    <ele>1691.15222167969</ele>
    <time>2012-05-22T16:56:11Z</time>
   </trkpt>
   <trkpt lat="46.1064224243164" lon="7.23764228820801">
    <ele>1692.24780273438</ele>
    <time>2012-05-22T16:56:15Z</time>
   </trkpt>
   <trkpt lat="46.1064033508301" lon="7.23766374588013">
    <ele>1692.52172851562</ele>
    <time>2012-05-22T16:56:16Z</time>
   </trkpt>
   <trkpt lat="46.1063842773438" lon="7.2376856803894">
    <ele>1692.79565429688</ele>
    <time>2012-05-22T16:56:17Z</time>
   </trkpt>
   <trkpt lat="46.1063652038574" lon="7.23770761489868">
    <ele>1693.06958007812</ele>
    <time>2012-05-22T16:56:18Z</time>
   </trkpt>
   <trkpt lat="46.1063461303711" lon="7.23772478103638">
    <ele>1693.34350585938</ele>
    <time>2012-05-22T16:56:19Z</time>
   </trkpt>
   <trkpt lat="46.1062698364258" lon="7.23780202865601">
    <ele>1694.43908691406</ele>
    <time>2012-05-22T16:56:23Z</time>
   </trkpt>
   <trkpt lat="46.1062545776367" lon="7.23782157897949">
    <ele>1694.71301269531</ele>
    <time>2012-05-22T16:56:24Z</time>
   </trkpt>
   <trkpt lat="46.1062393188477" lon="7.23784351348877">
    <ele>1694.98693847656</ele>
    <time>2012-05-22T16:56:25Z</time>
   </trkpt>
   <trkpt lat="46.1062202453613" lon="7.2378625869751">
    <ele>1695.26086425781</ele>
    <time>2012-05-22T16:56:26Z</time>
   </trkpt>
   <trkpt lat="46.1062049865723" lon="7.23788499832153">
    <ele>1695.53479003906</ele>
    <time>2012-05-22T16:56:27Z</time>
   </trkpt>
   <trkpt lat="46.1061134338379" lon="7.23801136016846">
    <ele>1696.904296875</ele>
    <time>2012-05-22T16:56:32Z</time>
   </trkpt>
   <trkpt lat="46.1060943603516" lon="7.23803281784058">
    <ele>1697.17822265625</ele>
    <time>2012-05-22T16:56:33Z</time>
   </trkpt>
   <trkpt lat="46.1060752868652" lon="7.23805236816406">
    <ele>1697.4521484375</ele>
    <time>2012-05-22T16:56:34Z</time>
   </trkpt>
   <trkpt lat="46.1060562133789" lon="7.23807287216186">
    <ele>1697.72607421875</ele>
    <time>2012-05-22T16:56:35Z</time>
   </trkpt>
   <trkpt lat="46.1060409545898" lon="7.23809814453125">
    <ele>1698</ele>
    <time>2012-05-22T16:56:36Z</time>
   </trkpt>
   <trkpt lat="46.1059913635254" lon="7.23817443847656">
    <ele>1698</ele>
    <time>2012-05-22T16:56:39Z</time>
   </trkpt>
   <trkpt lat="46.10595703125" lon="7.23822832107544">
    <ele>1698.73327636719</ele>
    <time>2012-05-22T16:56:41Z</time>
   </trkpt>
   <trkpt lat="46.1059417724609" lon="7.23825073242188">
    <ele>1699.09997558594</ele>
    <time>2012-05-22T16:56:42Z</time>
   </trkpt>
   <trkpt lat="46.1059226989746" lon="7.2382755279541">
    <ele>1699.46667480469</ele>
    <time>2012-05-22T16:56:43Z</time>
   </trkpt>
   <trkpt lat="46.1059036254883" lon="7.23829936981201">
    <ele>1699.83325195312</ele>
    <time>2012-05-22T16:56:44Z</time>
   </trkpt>
   <trkpt lat="46.105884552002" lon="7.23832511901856">
    <ele>1700.19995117188</ele>
    <time>2012-05-22T16:56:45Z</time>
   </trkpt>
   <trkpt lat="46.1058464050293" lon="7.23836946487427">
    <ele>1700.19995117188</ele>
    <time>2012-05-22T16:56:47Z</time>
   </trkpt>
   <trkpt lat="46.1058120727539" lon="7.23841667175293">
    <ele>1700.86657714844</ele>
    <time>2012-05-22T16:56:49Z</time>
   </trkpt>
   <trkpt lat="46.1057968139648" lon="7.23844051361084">
    <ele>1701.19995117188</ele>
    <time>2012-05-22T16:56:50Z</time>
   </trkpt>
   <trkpt lat="46.1057777404785" lon="7.23846435546875">
    <ele>1701.53332519531</ele>
    <time>2012-05-22T16:56:51Z</time>
   </trkpt>
   <trkpt lat="46.1057624816894" lon="7.23848485946655">
    <ele>1701.86657714844</ele>
    <time>2012-05-22T16:56:52Z</time>
   </trkpt>
   <trkpt lat="46.1057434082031" lon="7.23850584030151">
    <ele>1702.19995117188</ele>
    <time>2012-05-22T16:56:53Z</time>
   </trkpt>
   <trkpt lat="46.1057052612305" lon="7.2385425567627">
    <ele>1702.19995117188</ele>
    <time>2012-05-22T16:56:55Z</time>
   </trkpt>
   <trkpt lat="46.1056518554688" lon="7.23860359191894">
    <ele>1703.07263183594</ele>
    <time>2012-05-22T16:56:58Z</time>
   </trkpt>
   <trkpt lat="46.1056327819824" lon="7.23862457275391">
    <ele>1703.36364746094</ele>
    <time>2012-05-22T16:56:59Z</time>
   </trkpt>
   <trkpt lat="46.1056137084961" lon="7.23864603042602">
    <ele>1703.65454101562</ele>
    <time>2012-05-22T16:57:00Z</time>
   </trkpt>
   <trkpt lat="46.1055946350098" lon="7.23866653442383">
    <ele>1703.94543457031</ele>
    <time>2012-05-22T16:57:01Z</time>
   </trkpt>
   <trkpt lat="46.1055755615234" lon="7.23868608474732">
    <ele>1704.236328125</ele>
    <time>2012-05-22T16:57:02Z</time>
   </trkpt>
   <trkpt lat="46.1055068969727" lon="7.23877286911011">
    <ele>1705.39990234375</ele>
    <time>2012-05-22T16:57:06Z</time>
   </trkpt>
   <trkpt lat="46.1054840087891" lon="7.23879528045654">
    <ele>1705.69091796875</ele>
    <time>2012-05-22T16:57:07Z</time>
   </trkpt>
   <trkpt lat="46.1054649353027" lon="7.23881721496582">
    <ele>1705.98181152344</ele>
    <time>2012-05-22T16:57:08Z</time>
   </trkpt>
   <trkpt lat="46.1054420471191" lon="7.23884296417236">
    <ele>1706.27270507812</ele>
    <time>2012-05-22T16:57:09Z</time>
   </trkpt>
   <trkpt lat="46.1054229736328" lon="7.23886632919312">
    <ele>1706.56359863281</ele>
    <time>2012-05-22T16:57:10Z</time>
   </trkpt>
   <trkpt lat="46.1053619384766" lon="7.23892259597778">
    <ele>1707.43627929688</ele>
    <time>2012-05-22T16:57:13Z</time>
   </trkpt>
   <trkpt lat="46.105339050293" lon="7.23894262313843">
    <ele>1707.72729492188</ele>
    <time>2012-05-22T16:57:14Z</time>
   </trkpt>
   <trkpt lat="46.1053161621094" lon="7.23895931243896">
    <ele>1708.01818847656</ele>
    <time>2012-05-22T16:57:15Z</time>
   </trkpt>
   <trkpt lat="46.1052932739258" lon="7.23897838592529">
    <ele>1708.30908203125</ele>
    <time>2012-05-22T16:57:16Z</time>
   </trkpt>
   <trkpt lat="46.1052742004394" lon="7.23900461196899">
    <ele>1708.59997558594</ele>
    <time>2012-05-22T16:57:17Z</time>
   </trkpt>
   <trkpt lat="46.1051750183106" lon="7.23912239074707">
    <ele>1708.59997558594</ele>
    <time>2012-05-22T16:57:22Z</time>
   </trkpt>
   <trkpt lat="46.1051597595215" lon="7.2391471862793">
    <ele>1709</ele>
    <time>2012-05-22T16:57:23Z</time>
   </trkpt>
   <trkpt lat="46.1051368713379" lon="7.23917102813721">
    <ele>1709.40002441406</ele>
    <time>2012-05-22T16:57:24Z</time>
   </trkpt>
   <trkpt lat="46.1051216125488" lon="7.23919677734375">
    <ele>1709.79992675781</ele>
    <time>2012-05-22T16:57:25Z</time>
   </trkpt>
   <trkpt lat="46.1051063537598" lon="7.23922491073608">
    <ele>1710.19995117188</ele>
    <time>2012-05-22T16:57:26Z</time>
   </trkpt>
   <trkpt lat="46.105094909668" lon="7.23925399780274">
    <ele>1710.59997558594</ele>
    <time>2012-05-22T16:57:27Z</time>
   </trkpt>
   <trkpt lat="46.1050796508789" lon="7.23928165435791">
    <ele>1710.59997558594</ele>
    <time>2012-05-22T16:57:28Z</time>
   </trkpt>
   <trkpt lat="46.1050262451172" lon="7.23934602737427">
    <ele>1711.42492675781</ele>
    <time>2012-05-22T16:57:31Z</time>
   </trkpt>
   <trkpt lat="46.1050071716309" lon="7.23936986923218">
    <ele>1711.69995117188</ele>
    <time>2012-05-22T16:57:32Z</time>
   </trkpt>
   <trkpt lat="46.1049880981445" lon="7.23939371109009">
    <ele>1711.97497558594</ele>
    <time>2012-05-22T16:57:33Z</time>
   </trkpt>
   <trkpt lat="46.1049690246582" lon="7.23941612243652">
    <ele>1712.25</ele>
    <time>2012-05-22T16:57:34Z</time>
   </trkpt>
   <trkpt lat="46.1049537658691" lon="7.23943758010864">
    <ele>1712.52502441406</ele>
    <time>2012-05-22T16:57:35Z</time>
   </trkpt>
   <trkpt lat="46.1048583984375" lon="7.23953771591186">
    <ele>1713.90002441406</ele>
    <time>2012-05-22T16:57:40Z</time>
   </trkpt>
   <trkpt lat="46.1048355102539" lon="7.23955202102661">
    <ele>1714.17504882812</ele>
    <time>2012-05-22T16:57:41Z</time>
   </trkpt>
   <trkpt lat="46.1048126220703" lon="7.23957061767578">
    <ele>1714.44995117188</ele>
    <time>2012-05-22T16:57:42Z</time>
   </trkpt>
   <trkpt lat="46.104793548584" lon="7.23959159851074">
    <ele>1714.72497558594</ele>
    <time>2012-05-22T16:57:43Z</time>
   </trkpt>
   <trkpt lat="46.1047706604004" lon="7.23960876464844">
    <ele>1715</ele>
    <time>2012-05-22T16:57:44Z</time>
   </trkpt>
   <trkpt lat="46.1047248840332" lon="7.23963737487793">
    <ele>1715</ele>
    <time>2012-05-22T16:57:46Z</time>
   </trkpt>
   <trkpt lat="46.104679107666" lon="7.23965740203857">
    <ele>1715.66662597656</ele>
    <time>2012-05-22T16:57:48Z</time>
   </trkpt>
   <trkpt lat="46.1046562194824" lon="7.23966884613037">
    <ele>1716</ele>
    <time>2012-05-22T16:57:49Z</time>
   </trkpt>
   <trkpt lat="46.1046333312988" lon="7.23968029022217">
    <ele>1716.33337402344</ele>
    <time>2012-05-22T16:57:50Z</time>
   </trkpt>
   <trkpt lat="46.1046142578125" lon="7.23969745635986">
    <ele>1716.66662597656</ele>
    <time>2012-05-22T16:57:51Z</time>
   </trkpt>
   <trkpt lat="46.1045875549316" lon="7.23971462249756">
    <ele>1717</ele>
    <time>2012-05-22T16:57:52Z</time>
   </trkpt>
   <trkpt lat="46.1045188903809" lon="7.23976373672485">
    <ele>1717</ele>
    <time>2012-05-22T16:57:55Z</time>
   </trkpt>
   <trkpt lat="46.1044540405273" lon="7.23978853225708">
    <ele>1717.83996582031</ele>
    <time>2012-05-22T16:57:58Z</time>
   </trkpt>
   <trkpt lat="46.104434967041" lon="7.23979997634888">
    <ele>1718.11999511719</ele>
    <time>2012-05-22T16:57:59Z</time>
   </trkpt>
   <trkpt lat="46.1044120788574" lon="7.2398157119751">
    <ele>1718.40002441406</ele>
    <time>2012-05-22T16:58:00Z</time>
   </trkpt>
   <trkpt lat="46.1043891906738" lon="7.23983335494995">
    <ele>1718.67993164062</ele>
    <time>2012-05-22T16:58:01Z</time>
   </trkpt>
   <trkpt lat="46.1042747497559" lon="7.23990345001221">
    <ele>1720.07995605469</ele>
    <time>2012-05-22T16:58:06Z</time>
   </trkpt>
   <trkpt lat="46.1042518615723" lon="7.23991966247559">
    <ele>1720.35998535156</ele>
    <time>2012-05-22T16:58:07Z</time>
   </trkpt>
   <trkpt lat="46.1042289733887" lon="7.23993968963623">
    <ele>1720.64001464844</ele>
    <time>2012-05-22T16:58:08Z</time>
   </trkpt>
   <trkpt lat="46.1042098999023" lon="7.23995733261108">
    <ele>1720.919921875</ele>
    <time>2012-05-22T16:58:09Z</time>
   </trkpt>
   <trkpt lat="46.1041946411133" lon="7.23997402191162">
    <ele>1721.19995117188</ele>
    <time>2012-05-22T16:58:10Z</time>
   </trkpt>
   <trkpt lat="46.1041297912598" lon="7.24001550674438">
    <ele>1721.19995117188</ele>
    <time>2012-05-22T16:58:13Z</time>
   </trkpt>
   <trkpt lat="46.1040878295898" lon="7.24005222320557">
    <ele>1721.86657714844</ele>
    <time>2012-05-22T16:58:15Z</time>
   </trkpt>
   <trkpt lat="46.1040649414062" lon="7.24006986618042">
    <ele>1722.19995117188</ele>
    <time>2012-05-22T16:58:16Z</time>
   </trkpt>
   <trkpt lat="46.1040420532227" lon="7.2400860786438">
    <ele>1722.53332519531</ele>
    <time>2012-05-22T16:58:17Z</time>
   </trkpt>
   <trkpt lat="46.1040229797363" lon="7.24010181427002">
    <ele>1722.86657714844</ele>
    <time>2012-05-22T16:58:18Z</time>
   </trkpt>
   <trkpt lat="46.1040000915527" lon="7.24012041091919">
    <ele>1723.19995117188</ele>
    <time>2012-05-22T16:58:19Z</time>
   </trkpt>
   <trkpt lat="46.1039810180664" lon="7.24013614654541">
    <ele>1723.19995117188</ele>
    <time>2012-05-22T16:58:20Z</time>
   </trkpt>
   <trkpt lat="46.1038856506348" lon="7.24018955230713">
    <ele>1724.25</ele>
    <time>2012-05-22T16:58:24Z</time>
   </trkpt>
   <trkpt lat="46.1038627624512" lon="7.24020481109619">
    <ele>1724.51245117188</ele>
    <time>2012-05-22T16:58:25Z</time>
   </trkpt>
   <trkpt lat="46.1038398742676" lon="7.24022245407104">
    <ele>1724.77502441406</ele>
    <time>2012-05-22T16:58:26Z</time>
   </trkpt>
   <trkpt lat="46.103816986084" lon="7.24023914337158">
    <ele>1725.03747558594</ele>
    <time>2012-05-22T16:58:27Z</time>
   </trkpt>
   <trkpt lat="46.103687286377" lon="7.24029684066772">
    <ele>1726.34997558594</ele>
    <time>2012-05-22T16:58:32Z</time>
   </trkpt>
   <trkpt lat="46.1036643981934" lon="7.24030685424805">
    <ele>1726.61254882812</ele>
    <time>2012-05-22T16:58:33Z</time>
   </trkpt>
   <trkpt lat="46.1036415100098" lon="7.24031591415405">
    <ele>1726.875</ele>
    <time>2012-05-22T16:58:34Z</time>
   </trkpt>
   <trkpt lat="46.1036186218262" lon="7.24032592773438">
    <ele>1727.13757324219</ele>
    <time>2012-05-22T16:58:35Z</time>
   </trkpt>
   <trkpt lat="46.1035957336426" lon="7.24033784866333">
    <ele>1727.40002441406</ele>
    <time>2012-05-22T16:58:36Z</time>
   </trkpt>
   <trkpt lat="46.103515625" lon="7.2403678894043">
    <ele>1727.40002441406</ele>
    <time>2012-05-22T16:58:39Z</time>
   </trkpt>
   <trkpt lat="46.1034927368164" lon="7.24037456512451">
    <ele>1727.83996582031</ele>
    <time>2012-05-22T16:58:40Z</time>
   </trkpt>
   <trkpt lat="46.1034736633301" lon="7.24038028717041">
    <ele>1728.28002929688</ele>
    <time>2012-05-22T16:58:41Z</time>
   </trkpt>
   <trkpt lat="46.1034507751465" lon="7.24038410186768">
    <ele>1728.71997070312</ele>
    <time>2012-05-22T16:58:42Z</time>
   </trkpt>
   <trkpt lat="46.1034278869629" lon="7.24038934707642">
    <ele>1729.16003417969</ele>
    <time>2012-05-22T16:58:43Z</time>
   </trkpt>
   <trkpt lat="46.1034049987793" lon="7.24040222167969">
    <ele>1729.59997558594</ele>
    <time>2012-05-22T16:58:44Z</time>
   </trkpt>
   <trkpt lat="46.1033401489258" lon="7.24044990539551">
    <ele>1729.59997558594</ele>
    <time>2012-05-22T16:58:47Z</time>
   </trkpt>
   <trkpt lat="46.1032905578613" lon="7.24047040939331">
    <ele>1730.40002441406</ele>
    <time>2012-05-22T16:58:49Z</time>
   </trkpt>
   <trkpt lat="46.1032638549805" lon="7.24048233032226">
    <ele>1730.79992675781</ele>
    <time>2012-05-22T16:58:50Z</time>
   </trkpt>
   <trkpt lat="46.1032409667969" lon="7.24050140380859">
    <ele>1731.19995117188</ele>
    <time>2012-05-22T16:58:51Z</time>
   </trkpt>
   <trkpt lat="46.1032218933106" lon="7.24052238464356">
    <ele>1731.59997558594</ele>
    <time>2012-05-22T16:58:52Z</time>
   </trkpt>
   <trkpt lat="46.1032028198242" lon="7.24054145812988">
    <ele>1731.59997558594</ele>
    <time>2012-05-22T16:58:53Z</time>
   </trkpt>
   <trkpt lat="46.1031150817871" lon="7.2406587600708">
    <ele>1732.83532714844</ele>
    <time>2012-05-22T16:58:58Z</time>
   </trkpt>
   <trkpt lat="46.1030960083008" lon="7.24067878723144">
    <ele>1733.08239746094</ele>
    <time>2012-05-22T16:58:59Z</time>
   </trkpt>
   <trkpt lat="46.1030731201172" lon="7.2406964302063">
    <ele>1733.32946777344</ele>
    <time>2012-05-22T16:59:00Z</time>
   </trkpt>
   <trkpt lat="46.1030540466309" lon="7.24071407318115">
    <ele>1733.57653808594</ele>
    <time>2012-05-22T16:59:01Z</time>
   </trkpt>
   <trkpt lat="46.1030349731445" lon="7.24073648452759">
    <ele>1733.82348632812</ele>
    <time>2012-05-22T16:59:02Z</time>
   </trkpt>
   <trkpt lat="46.1029586791992" lon="7.24083280563354">
    <ele>1734.81176757812</ele>
    <time>2012-05-22T16:59:06Z</time>
   </trkpt>
   <trkpt lat="46.1029396057129" lon="7.24085187911987">
    <ele>1735.05883789062</ele>
    <time>2012-05-22T16:59:07Z</time>
   </trkpt>
   <trkpt lat="46.1029167175293" lon="7.24086999893188">
    <ele>1735.30590820312</ele>
    <time>2012-05-22T16:59:08Z</time>
   </trkpt>
   <trkpt lat="46.1029014587402" lon="7.24089336395264">
    <ele>1735.55297851562</ele>
    <time>2012-05-22T16:59:09Z</time>
   </trkpt>
   <trkpt lat="46.1028823852539" lon="7.24091672897339">
    <ele>1735.80004882812</ele>
    <time>2012-05-22T16:59:10Z</time>
   </trkpt>
   <trkpt lat="46.1028442382812" lon="7.24096298217774">
    <ele>1735.80004882812</ele>
    <time>2012-05-22T16:59:12Z</time>
   </trkpt>
   <trkpt lat="46.102783203125" lon="7.24102210998535">
    <ele>1736.74291992188</ele>
    <time>2012-05-22T16:59:15Z</time>
   </trkpt>
   <trkpt lat="46.1027603149414" lon="7.24104022979736">
    <ele>1737.05712890625</ele>
    <time>2012-05-22T16:59:16Z</time>
   </trkpt>
   <trkpt lat="46.1027374267578" lon="7.24105739593506">
    <ele>1737.37145996094</ele>
    <time>2012-05-22T16:59:17Z</time>
   </trkpt>
   <trkpt lat="46.1027183532715" lon="7.24107933044434">
    <ele>1737.68566894531</ele>
    <time>2012-05-22T16:59:18Z</time>
   </trkpt>
   <trkpt lat="46.1026992797852" lon="7.24110221862793">
    <ele>1738</ele>
    <time>2012-05-22T16:59:19Z</time>
   </trkpt>
   <trkpt lat="46.1026802062988" lon="7.2411298751831">
    <ele>1738</ele>
    <time>2012-05-22T16:59:20Z</time>
   </trkpt>
   <trkpt lat="46.1026229858398" lon="7.24120426177978">
    <ele>1738.73852539062</ele>
    <time>2012-05-22T16:59:23Z</time>
   </trkpt>
   <trkpt lat="46.102596282959" lon="7.2412223815918">
    <ele>1738.98461914062</ele>
    <time>2012-05-22T16:59:24Z</time>
   </trkpt>
   <trkpt lat="46.1025733947754" lon="7.24123668670654">
    <ele>1739.47692871094</ele>
    <time>2012-05-22T16:59:26Z</time>
   </trkpt>
   <trkpt lat="46.1025505065918" lon="7.24125337600708">
    <ele>1739.72314453125</ele>
    <time>2012-05-22T16:59:27Z</time>
   </trkpt>
   <trkpt lat="46.1025314331055" lon="7.2412748336792">
    <ele>1739.96923828125</ele>
    <time>2012-05-22T16:59:28Z</time>
   </trkpt>
   <trkpt lat="46.102424621582" lon="7.24137020111084">
    <ele>1741.19995117188</ele>
    <time>2012-05-22T16:59:33Z</time>
   </trkpt>
   <trkpt lat="46.1024017333984" lon="7.24138498306274">
    <ele>1741.44616699219</ele>
    <time>2012-05-22T16:59:34Z</time>
   </trkpt>
   <trkpt lat="46.1023788452148" lon="7.24140024185181">
    <ele>1741.6923828125</ele>
    <time>2012-05-22T16:59:35Z</time>
   </trkpt>
   <trkpt lat="46.102352142334" lon="7.24141979217529">
    <ele>1741.9384765625</ele>
    <time>2012-05-22T16:59:36Z</time>
   </trkpt>
   <trkpt lat="46.1022262573242" lon="7.24154186248779">
    <ele>1743.41540527344</ele>
    <time>2012-05-22T16:59:42Z</time>
   </trkpt>
   <trkpt lat="46.1022071838379" lon="7.24156188964844">
    <ele>1743.66162109375</ele>
    <time>2012-05-22T16:59:43Z</time>
   </trkpt>
   <trkpt lat="46.1021881103516" lon="7.24157762527466">
    <ele>1743.90771484375</ele>
    <time>2012-05-22T16:59:44Z</time>
   </trkpt>
   <trkpt lat="46.102165222168" lon="7.24159383773804">
    <ele>1744.15380859375</ele>
    <time>2012-05-22T16:59:45Z</time>
   </trkpt>
   <trkpt lat="46.1021461486816" lon="7.24161672592163">
    <ele>1744.40002441406</ele>
    <time>2012-05-22T16:59:46Z</time>
   </trkpt>
   <trkpt lat="46.1020584106445" lon="7.24170637130737">
    <ele>1744.40002441406</ele>
    <time>2012-05-22T16:59:50Z</time>
   </trkpt>
   <trkpt lat="46.1019973754883" lon="7.2417688369751">
    <ele>1745.28002929688</ele>
    <time>2012-05-22T16:59:53Z</time>
   </trkpt>
   <trkpt lat="46.1019744873047" lon="7.24178600311279">
    <ele>1745.57336425781</ele>
    <time>2012-05-22T16:59:54Z</time>
   </trkpt>
   <trkpt lat="46.1019515991211" lon="7.24179983139038">
    <ele>1745.86669921875</ele>
    <time>2012-05-22T16:59:55Z</time>
   </trkpt>
   <trkpt lat="46.1019248962402" lon="7.24181413650513">
    <ele>1746.16003417969</ele>
    <time>2012-05-22T16:59:56Z</time>
   </trkpt>
   <trkpt lat="46.1019020080566" lon="7.24183320999146">
    <ele>1746.45336914062</ele>
    <time>2012-05-22T16:59:57Z</time>
   </trkpt>
   <trkpt lat="46.1017990112305" lon="7.24188995361328">
    <ele>1747.62670898438</ele>
    <time>2012-05-22T17:00:01Z</time>
   </trkpt>
   <trkpt lat="46.1017723083496" lon="7.24190139770508">
    <ele>1747.92004394531</ele>
    <time>2012-05-22T17:00:02Z</time>
   </trkpt>
   <trkpt lat="46.1017456054688" lon="7.24190902709961">
    <ele>1748.21337890625</ele>
    <time>2012-05-22T17:00:03Z</time>
   </trkpt>
   <trkpt lat="46.1017189025879" lon="7.24191856384277">
    <ele>1748.50671386719</ele>
    <time>2012-05-22T17:00:04Z</time>
   </trkpt>
   <trkpt lat="46.1016883850098" lon="7.24192667007446">
    <ele>1748.80004882812</ele>
    <time>2012-05-22T17:00:05Z</time>
   </trkpt>
   <trkpt lat="46.1015548706055" lon="7.24194717407226">
    <ele>1748.80004882812</ele>
    <time>2012-05-22T17:00:10Z</time>
   </trkpt>
   <trkpt lat="46.101505279541" lon="7.24197626113892">
    <ele>1749.44006347656</ele>
    <time>2012-05-22T17:00:12Z</time>
   </trkpt>
   <trkpt lat="46.1014823913574" lon="7.24199676513672">
    <ele>1749.76000976562</ele>
    <time>2012-05-22T17:00:13Z</time>
   </trkpt>
   <trkpt lat="46.1014633178711" lon="7.24202537536621">
    <ele>1750.080078125</ele>
    <time>2012-05-22T17:00:14Z</time>
   </trkpt>
   <trkpt lat="46.101448059082" lon="7.24205589294434">
    <ele>1750.40002441406</ele>
    <time>2012-05-22T17:00:15Z</time>
   </trkpt>
  </trkseg>
 </trk>
</gpx>